# Wetter Temperatur Luftdruck Luftfeuchtigkeit Sichtweite Windgeschwindigkeit Windrichtung Zeit
1 Clear 2 1021 74 0 1.55 354 07:44 14.07.2020
2 Clear 2 1022 70 0 1.35 352 07:19 14.07.2020
3 Clear 2 1022 70 0 1.35 352 06:53 14.07.2020
4 Clear 3 1021 66 0 1.26 354 06:25 14.07.2020
5 Clear 3 1021 66 0 1.26 354 05:50 14.07.2020
6 Clear 3 1021 62 0 1.27 2 04:51 14.07.2020
7 Clear 3 1021 62 0 1.27 2 04:33 14.07.2020
8 Clear 5 1020 55 0 1.09 31 03:27 14.07.2020
9 Clear 5 1019 52 0 0.83 46 02:27 14.07.2020
10 Clear 5 1019 52 0 0.82 60 01:41 14.07.2020
11 Clear 6 1017 46 0 1.27 88 01:22 14.07.2020
12 Clear 6 1017 46 0 1.27 88 00:42 14.07.2020
13 Clear 8 1016 39 0 1.16 91 00:22 14.07.2020
14 Clear 8 1016 39 0 1.16 91 23:39 13.07.2020
15 Clear 12 1014 24 0 0.92 71 23:19 13.07.2020
16 Clear 12 1014 24 0 0.92 71 22:57 13.07.2020
17 Clear 12 1014 24 0 0.92 71 22:39 13.07.2020
18 Clear 13 1014 22 0 0.4 38 22:19 13.07.2020
19 Clear 13 1014 22 0 0.4 38 21:54 13.07.2020
20 Clear 13 1014 22 0 0.4 38 21:36 13.07.2020
21 Clear 13 1014 22 0 0.62 8 21:18 13.07.2020
22 Clear 13 1013 23 0 0.77 355 21:18 13.07.2020
23 Clear 13 1013 23 0 0.77 355 20:54 13.07.2020
24 Clear 13 1013 23 0 0.77 355 20:36 13.07.2020
25 Clear 12 1014 23 0 0.94 338 20:18 13.07.2020
26 Clear 12 1014 23 0 0.94 338 19:42 13.07.2020
27 Clear 12 1015 24 0 1.13 316 19:23 13.07.2020
28 Clear 12 1015 24 0 1.13 316 18:57 13.07.2020
29 Clear 12 1015 24 0 1.13 316 18:38 13.07.2020
30 Clear 11 1017 26 0 1.26 300 18:19 13.07.2020
31 Clear 11 1017 26 0 1.26 300 17:55 13.07.2020
32 Clear 11 1017 26 0 1.26 300 17:37 13.07.2020
33 Clear 10 1019 28 0 1.5 294 17:18 13.07.2020
34 Clear 10 1019 28 0 1.5 294 16:42 13.07.2020
35 Clear 9 1020 31 0 1.68 284 16:21 13.07.2020
36 Clear 9 1020 31 0 1.68 284 15:58 13.07.2020
37 Clear 9 1020 31 0 1.68 284 15:39 13.07.2020
38 Clear 7 1020 36 0 1.65 257 15:20 13.07.2020
39 Clear 7 1020 36 0 1.65 257 14:57 13.07.2020
40 Clear 7 1020 36 0 1.65 257 14:39 13.07.2020
41 Clear 3 1021 51 0 1.65 232 14:20 13.07.2020
42 Clear 3 1020 50 0 1.67 232 13:55 13.07.2020
43 Clear 3 1020 50 0 1.67 232 13:37 13.07.2020
44 Clear -1 1020 56 0 1.81 225 13:18 13.07.2020
45 Clear -1 1020 56 0 1.81 225 12:42 13.07.2020
46 Clear 0 1019 58 0 1.73 233 12:22 13.07.2020
47 Clear 0 1019 58 0 1.73 233 11:54 13.07.2020
48 Clear 0 1019 58 0 1.73 233 11:36 13.07.2020
49 Clear 0 1018 60 0 1.39 247 11:18 13.07.2020
50 Clear 0 1018 60 0 1.39 247 10:38 13.07.2020
51 Clear 0 1018 62 0 1.17 255 10:19 13.07.2020
52 Clear 0 1018 62 0 1.17 255 09:42 13.07.2020
53 Clear 0 1018 61 0 0.84 259 09:23 13.07.2020
54 Clear 0 1018 61 0 0.84 259 08:51 13.07.2020
55 Clear 0 1018 61 0 0.84 259 08:33 13.07.2020
56 Clear 1 1018 61 0 0.85 283 07:37 13.07.2020
57 Clear 2 1018 58 0 1.13 290 06:56 13.07.2020
58 Clear 2 1018 58 0 1.13 290 06:38 13.07.2020
59 Clear 2 1018 57 0 1.2 297 06:20 13.07.2020
60 Clear 2 1018 57 0 1.2 297 06:20 13.07.2020
61 Clear 3 1018 54 0 1.11 300 04:35 13.07.2020
62 Clear 5 1017 50 0 0.88 82 01:57 13.07.2020
63 Clear 6 1015 45 0 1.59 99 01:28 13.07.2020
64 Clear 6 1015 45 0 1.59 99 00:58 13.07.2020
65 Clear 8 1014 37 0 2.46 89 00:26 13.07.2020
66 Clear 8 1014 37 0 2.46 89 23:58 12.07.2020
67 Clear 8 1014 37 0 2.46 89 23:39 12.07.2020
68 Clear 12 1013 26 0 2.56 71 23:21 12.07.2020
69 Clear 12 1013 26 0 2.56 71 22:39 12.07.2020
70 Clear 13 1013 22 0 1.93 53 22:21 12.07.2020
71 Clear 13 1013 22 0 1.93 53 21:59 12.07.2020
72 Clear 13 1013 22 0 1.93 53 21:40 12.07.2020
73 Clear 13 1013 22 0 1.16 34 21:20 12.07.2020
74 Clear 13 1013 22 0 1.16 34 20:58 12.07.2020
75 Clear 13 1013 22 0 1.16 34 20:40 12.07.2020
76 Clear 13 1014 22 0 0.56 346 20:20 12.07.2020
77 Clear 13 1014 22 0 0.56 346 19:55 12.07.2020
78 Clear 13 1014 22 0 0.56 346 19:37 12.07.2020
79 Clear 13 1015 22 0 0.5 306 19:18 12.07.2020
80 Clear 13 1015 22 0 0.5 306 18:42 12.07.2020
81 Clear 12 1016 23 0 0.93 264 18:20 12.07.2020
82 Clear 12 1016 23 0 0.93 264 17:58 12.07.2020
83 Clear 12 1016 23 0 0.93 264 17:37 12.07.2020
84 Clear 11 1018 25 0 1.59 253 17:19 12.07.2020
85 Clear 11 1018 25 0 1.59 253 16:44 12.07.2020
86 Clear 9 1020 28 0 1.89 250 16:20 12.07.2020
87 Clear 9 1020 28 0 1.89 250 15:43 12.07.2020
88 Clear 7 1021 33 0 1.94 238 15:25 12.07.2020
89 Clear 7 1021 33 0 1.94 238 14:56 12.07.2020
90 Clear 7 1021 33 0 1.94 238 14:37 12.07.2020
91 Clear 2 1021 48 0 1.97 233 14:18 12.07.2020
92 Clear 2 1021 48 0 1.97 233 13:39 12.07.2020
93 Clear -1 1020 50 0 2.22 234 13:20 12.07.2020
94 Clear -1 1020 50 0 2.22 234 12:54 12.07.2020
95 Clear -1 1020 50 0 2.22 234 12:36 12.07.2020
96 Clear -1 1019 50 0 2.02 236 12:18 12.07.2020
97 Clear -1 1019 50 0 2.02 236 12:18 12.07.2020
98 Clear -1 1019 50 0 2.02 236 12:18 12.07.2020
99 Clear -1 1019 50 0 2.02 236 11:44 12.07.2020
100 Clear -1 1019 51 0 1.68 240 11:20 12.07.2020
101 Clear -1 1019 51 0 1.68 240 10:42 12.07.2020
102 Clear -1 1018 53 0 1.3 243 10:22 12.07.2020
103 Clear -1 1018 53 0 1.3 243 09:58 12.07.2020
104 Clear -1 1018 53 0 1.3 243 09:39 12.07.2020
105 Clear -1 1018 51 0 1.42 235 09:19 12.07.2020
106 Clear -1 1018 51 0 1.42 235 08:43 12.07.2020
107 Clear -1 1018 51 0 1.55 249 08:23 12.07.2020
108 Clear -1 1018 51 0 1.55 249 07:58 12.07.2020
109 Clear -1 1018 51 0 1.55 249 07:40 12.07.2020
110 Clear 0 1018 52 0 1.88 252 07:21 12.07.2020
111 Clear 0 1018 52 0 1.88 252 06:49 12.07.2020
112 Clear 1 1018 52 0 2.09 248 06:21 12.07.2020
113 Clear 1 1018 52 0 2.09 248 05:33 12.07.2020
114 Clear 1 1018 52 0 2.11 258 04:55 12.07.2020
115 Clear 2 1017 51 0 2.22 267 04:25 12.07.2020
116 Clear 2 1017 51 0 2.22 267 03:34 12.07.2020
117 Clear 2 1017 51 0 2.22 267 03:34 12.07.2020
118 Clear 3 1016 49 0 2.44 265 02:47 12.07.2020
119 Clear 4 1015 47 0 2.53 254 01:44 12.07.2020
120 Clear 5 1014 45 0 2.52 254 00:49 12.07.2020
121 Clear 6 1013 38 0 2.69 258 00:23 12.07.2020
122 Clear 6 1013 38 0 2.69 258 23:57 11.07.2020
123 Clear 6 1013 38 0 2.69 258 23:39 11.07.2020
124 Clear 10 1011 28 0 3.59 271 23:20 11.07.2020
125 Clear 10 1011 28 0 3.59 271 22:55 11.07.2020
126 Clear 10 1011 28 0 3.59 271 22:37 11.07.2020
127 Clear 11 1011 24 0 4.98 272 22:18 11.07.2020
128 Clear 11 1011 24 0 4.98 272 21:41 11.07.2020
129 Clear 12 1011 23 0 5.96 264 21:23 11.07.2020
130 Clear 12 1011 23 0 5.96 264 20:58 11.07.2020
131 Clear 12 1011 23 0 5.96 264 20:39 11.07.2020
132 Clear 12 1012 23 0 4.15 248 20:20 11.07.2020
133 Clear 12 1012 23 0 4.15 248 19:58 11.07.2020
134 Clear 12 1012 23 0 4.15 248 19:40 11.07.2020
135 Clear 11 1013 25 0 2.19 260 19:21 11.07.2020
136 Clear 11 1013 25 0 2.19 260 18:56 11.07.2020
137 Clear 11 1013 25 0 2.19 260 18:37 11.07.2020
138 Clear 9 1015 27 0 1.69 298 18:19 11.07.2020
139 Clear 9 1015 27 0 1.69 298 17:43 11.07.2020
140 Clear 8 1017 29 0 2.05 315 17:22 11.07.2020
141 Clear 8 1017 29 0 2.05 315 16:59 11.07.2020
142 Clear 8 1017 29 0 2.05 315 16:39 11.07.2020
143 Clear 6 1019 31 0 1.83 317 16:20 11.07.2020
144 Clear 6 1019 31 0 1.83 317 15:57 11.07.2020
145 Clear 6 1019 31 0 1.83 317 15:37 11.07.2020
146 Clear 5 1020 35 0 2.06 303 15:19 11.07.2020
147 Clear 5 1020 35 0 2.06 303 14:47 11.07.2020
148 Clear 1 1021 52 0 1.83 257 14:24 11.07.2020
149 Clear 1 1021 52 0 1.83 257 13:58 11.07.2020
150 Clear 1 1021 52 0 1.83 257 13:40 11.07.2020
151 Clear -2 1021 50 0 2.37 240 13:21 11.07.2020
152 Clear -2 1021 50 0 2.37 240 12:45 11.07.2020
153 Clear -2 1021 50 0 2.37 240 12:45 11.07.2020
154 Clear -2 1020 52 0 2.5 239 12:23 11.07.2020
155 Clear -2 1020 52 0 2.5 239 11:59 11.07.2020
156 Clear -2 1020 52 0 2.5 239 11:41 11.07.2020
157 Clear -2 1019 55 0 2.01 256 11:20 11.07.2020
158 Clear -2 1019 55 0 2.01 256 10:55 11.07.2020
159 Clear -2 1019 55 0 2.01 256 10:36 11.07.2020
160 Clear -2 1019 57 0 1.7 272 10:18 11.07.2020
161 Clear -2 1019 57 0 1.7 272 09:39 11.07.2020
162 Clear -1 1019 57 0 2.1 270 09:19 11.07.2020
163 Clear -1 1019 57 0 2.1 270 08:46 11.07.2020
164 Clear -1 1019 59 0 1.99 270 08:27 11.07.2020
165 Clear -1 1019 59 0 1.99 270 07:56 11.07.2020
166 Clear -1 1019 59 0 1.99 270 07:36 11.07.2020
167 Clear -1 1019 59 0 1.95 267 07:18 11.07.2020
168 Clear 0 1018 60 0 1.79 266 06:27 11.07.2020
169 Clear 0 1018 60 0 1.79 266 05:54 11.07.2020
170 Clear 0 1018 59 0 1.85 274 05:19 11.07.2020
171 Clear 0 1018 59 0 1.85 274 04:50 11.07.2020
172 Clear 1 1018 57 0 1.84 274 04:20 11.07.2020
173 Clear 1 1018 57 0 1.84 274 04:20 11.07.2020
174 Clear 1 1018 57 0 1.84 274 04:20 11.07.2020
175 Clear 2 1017 55 0 2.04 271 02:55 11.07.2020
176 Clouds 3 1015 52 0 2.42 269 02:27 11.07.2020
177 Clouds 4 1014 47 0 2.61 259 01:25 11.07.2020
178 Clouds 4 1014 47 0 2.61 259 00:58 11.07.2020
179 Clouds 4 1014 47 0 2.61 259 00:38 11.07.2020
180 Clouds 6 1012 39 0 3.69 256 00:19 11.07.2020
181 Clouds 6 1012 39 0 3.69 256 23:46 10.07.2020
182 Clouds 10 1011 30 0 6.22 256 23:27 10.07.2020
183 Clouds 10 1011 30 0 6.22 256 22:59 10.07.2020
184 Clouds 10 1011 30 0 6.22 256 22:41 10.07.2020
185 Clear 11 1011 27 0 7.27 254 22:19 10.07.2020
186 Clear 11 1011 27 0 7.27 254 21:40 10.07.2020
187 Clear 12 1011 25 0 7.31 257 21:21 10.07.2020
188 Clear 12 1011 25 0 7.31 257 20:59 10.07.2020
189 Clear 12 1011 25 0 7.31 257 20:40 10.07.2020
190 Clouds 12 1012 25 0 6.2 257 20:21 10.07.2020
191 Clouds 12 1012 25 0 6.2 257 19:57 10.07.2020
192 Clouds 12 1012 25 0 6.2 257 19:39 10.07.2020
193 Clouds 11 1013 24 0 5.27 264 19:19 10.07.2020
194 Clouds 11 1013 24 0 5.27 264 18:41 10.07.2020
195 Clear 10 1015 26 0 3.57 275 18:20 10.07.2020
196 Clear 10 1015 26 0 3.57 275 17:57 10.07.2020
197 Clear 10 1015 26 0 3.57 275 17:57 10.07.2020
198 Clear 10 1015 26 0 3.57 275 17:38 10.07.2020
199 Clear 9 1017 29 0 2.92 282 17:20 10.07.2020
200 Clear 9 1017 29 0 2.92 282 16:42 10.07.2020
201 Clear 7 1018 32 0 2.68 286 16:20 10.07.2020
202 Clear 7 1018 32 0 2.68 286 15:47 10.07.2020
203 Clear 5 1019 38 0 2.3 278 15:26 10.07.2020
204 Clear 5 1019 38 0 2.3 278 14:56 10.07.2020
205 Clear 5 1019 39 0 2.29 279 14:38 10.07.2020
206 Clouds 2 1020 50 0 2.27 256 14:20 10.07.2020
207 Clouds 2 1020 50 0 2.27 256 13:57 10.07.2020
208 Clouds 2 1020 50 0 2.27 256 13:38 10.07.2020
209 Clouds -2 1019 55 0 2.33 249 13:20 10.07.2020
210 Clouds -2 1019 55 0 2.33 249 12:55 10.07.2020
211 Clouds -2 1019 55 0 2.33 249 12:37 10.07.2020
212 Clouds -1 1019 54 0 2.27 244 12:18 10.07.2020
213 Clouds -1 1019 54 0 2.27 244 11:39 10.07.2020
214 Clouds -1 1019 54 0 2.1 250 11:19 10.07.2020
215 Clouds -1 1019 54 0 2.1 250 10:55 10.07.2020
216 Clouds -1 1019 54 0 2.1 250 10:37 10.07.2020
217 Clear -1 1018 56 0 1.63 260 10:18 10.07.2020
218 Clear -1 1018 56 0 1.63 260 09:39 10.07.2020
219 Clear -1 1019 58 0 1.45 279 09:20 10.07.2020
220 Clear -1 1018 59 0 1.38 278 08:58 10.07.2020
221 Clear -1 1018 59 0 1.38 278 08:40 10.07.2020
222 Clear -1 1019 61 0 1.37 284 08:21 10.07.2020
223 Clear -1 1019 61 0 1.37 284 07:44 10.07.2020
224 Clear -1 1019 63 0 1.22 259 07:23 10.07.2020
225 Clear -1 1019 63 0 1.22 259 06:52 10.07.2020
226 Clear -1 1019 63 0 1.22 259 06:52 10.07.2020
227 Clear -1 1019 63 0 1.22 259 06:32 10.07.2020
228 Clear 1 1020 64 0 1.18 303 05:20 10.07.2020
229 Clear 1 1019 61 0 1.23 332 03:43 10.07.2020
230 Clear 2 1019 57 0 1.32 348 02:53 10.07.2020
231 Clear 3 1018 54 0 1.54 358 01:57 10.07.2020
232 Clear 4 1017 47 0 2.22 21 00:54 10.07.2020
233 Clear 6 1016 39 0 2.37 28 00:22 10.07.2020
234 Clear 6 1016 39 0 2.37 28 23:55 09.07.2020
235 Clear 6 1016 39 0 2.37 28 23:37 09.07.2020
236 Clear 9 1014 26 0 2.07 28 23:18 09.07.2020
237 Clear 9 1014 26 0 2.07 28 22:56 09.07.2020
238 Clear 9 1014 26 0 2.07 28 22:38 09.07.2020
239 Clear 10 1014 24 0 1.93 22 22:19 09.07.2020
240 Clear 10 1014 24 0 1.93 22 21:39 09.07.2020
241 Clear 10 1015 23 0 2.02 15 21:20 09.07.2020
242 Clear 10 1015 23 0 2.02 15 20:59 09.07.2020
243 Clear 10 1015 23 0 2.02 15 20:39 09.07.2020
244 Clear 10 1016 24 0 1.53 5 20:21 09.07.2020
245 Clear 10 1016 24 0 1.53 5 19:43 09.07.2020
246 Clear 9 1017 26 0 1.24 343 19:22 09.07.2020
247 Clear 9 1017 26 0 1.24 343 18:57 09.07.2020
248 Clear 9 1017 26 0 1.24 343 18:39 09.07.2020
249 Clear 8 1019 28 0 1.41 323 18:19 09.07.2020
250 Clear 8 1019 28 0 1.41 323 17:43 09.07.2020
251 Clear 7 1021 30 0 1.49 308 17:23 09.07.2020
252 Clear 7 1021 30 0 1.49 308 16:56 09.07.2020
253 Clear 7 1021 30 0 1.49 308 16:38 09.07.2020
254 Clear 5 1022 32 0 1.48 294 16:19 09.07.2020
255 Clear 5 1022 32 0 1.48 294 15:58 09.07.2020
256 Clear 5 1022 32 0 1.48 294 15:37 09.07.2020
257 Clear 3 1023 36 0 1.24 285 15:18 09.07.2020
258 Clear 3 1023 36 0 1.24 285 14:57 09.07.2020
259 Clear 3 1023 36 0 1.24 285 14:39 09.07.2020
260 Clear 3 1023 36 0 1.24 285 14:39 09.07.2020
261 Clear 0 1023 55 0 1.05 292 14:20 09.07.2020
262 Clear 0 1023 55 0 1.05 292 13:56 09.07.2020
263 Clear 0 1023 55 0 1.05 292 13:38 09.07.2020
264 Clear -4 1022 50 0 1.14 284 13:19 09.07.2020
265 Clear -4 1022 50 0 1.14 284 12:42 09.07.2020
266 Clear -4 1022 51 0 1.08 266 12:23 09.07.2020
267 Clear -4 1022 51 0 1.08 266 11:57 09.07.2020
268 Clear -4 1022 51 0 1.08 266 11:39 09.07.2020
269 Clear -4 1021 51 0 1.22 261 11:19 09.07.2020
270 Clear -4 1021 51 0 1.22 261 10:56 09.07.2020
271 Clear -4 1021 51 0 1.22 261 10:38 09.07.2020
272 Clear -3 1021 51 0 1.56 287 10:19 09.07.2020
273 Clear -3 1021 51 0 1.56 287 09:43 09.07.2020
274 Clear -3 1021 52 0 0.92 278 09:23 09.07.2020
275 Clear -3 1020 51 0 1.25 283 08:52 09.07.2020
276 Clear -3 1020 52 0 0.7 301 08:27 09.07.2020
277 Clear -3 1020 52 0 0.7 301 07:56 09.07.2020
278 Clear -3 1020 52 0 0.7 301 07:38 09.07.2020
279 Clear -3 1021 53 0 0.63 340 07:20 09.07.2020
280 Clear -2 1021 53 0 1.48 315 06:21 09.07.2020
281 Clear -2 1021 53 0 1.48 315 05:53 09.07.2020
282 Clear -2 1020 55 0 0.89 250 04:29 09.07.2020
283 Clear -1 1019 57 0 1.36 258 03:19 09.07.2020
284 Clear 0 1018 55 0 2.42 271 01:56 09.07.2020
285 Clear 2 1017 51 0 3.19 264 01:19 09.07.2020
286 Clear 2 1017 51 0 3.19 264 00:41 09.07.2020
287 Clear 4 1015 42 0 4.51 261 00:22 09.07.2020
288 Clear 4 1015 42 0 4.51 261 23:43 08.07.2020
289 Clear 7 1012 31 0 8.79 256 23:25 08.07.2020
290 Clear 7 1012 31 0 8.79 256 22:56 08.07.2020
291 Clear 7 1012 31 0 8.79 256 22:38 08.07.2020
292 Clear 9 1011 29 0 11.75 252 22:19 08.07.2020
293 Clear 9 1011 29 0 11.75 252 21:56 08.07.2020
294 Clear 9 1011 29 0 11.75 252 21:36 08.07.2020
295 Clear 9 1012 29 0 11.22 251 21:18 08.07.2020
296 Clear 9 1012 29 0 11.22 251 20:41 08.07.2020
297 Clear 10 1013 28 0 11.83 248 20:23 08.07.2020
298 Clear 10 1013 28 0 11.83 248 19:56 08.07.2020
299 Clear 10 1013 28 0 11.83 248 19:37 08.07.2020
300 Clear 10 1014 26 0 12.84 247 19:19 08.07.2020
301 Clear 10 1014 26 0 12.84 247 18:42 08.07.2020
302 Clear 9 1015 26 0 13.43 251 18:21 08.07.2020
303 Clear 9 1015 26 0 13.43 251 17:57 08.07.2020
304 Clear 9 1015 26 0 13.43 251 17:39 08.07.2020
305 Clear 9 1017 26 0 12.03 253 17:20 08.07.2020
306 Clear 9 1017 26 0 12.03 253 16:57 08.07.2020
307 Clear 9 1017 26 0 12.03 253 16:38 08.07.2020
308 Clear 7 1019 27 0 7.84 257 16:18 08.07.2020
309 Clear 7 1019 27 0 7.84 257 15:58 08.07.2020
310 Clear 7 1019 27 0 7.84 257 15:38 08.07.2020
311 Clear 3 1020 33 0 4.57 265 15:19 08.07.2020
312 Clear 3 1020 33 0 4.43 268 14:42 08.07.2020
313 Clear 0 1022 48 0 1.95 274 14:23 08.07.2020
314 Clear 0 1022 48 0 1.99 280 13:57 08.07.2020
315 Clear 0 1022 48 0 1.99 280 13:38 08.07.2020
316 Clear -4 1021 46 0 2.02 285 13:18 08.07.2020
317 Clear -4 1021 46 0 2.02 285 12:41 08.07.2020
318 Clear -4 1020 47 0 2.11 285 12:20 08.07.2020
319 Clear -4 1020 47 0 2.11 285 11:55 08.07.2020
320 Clear -4 1020 47 0 2.11 285 11:37 08.07.2020
321 Clear -4 1020 48 0 2.09 291 11:19 08.07.2020
322 Clear -4 1020 48 0 2.09 291 10:42 08.07.2020
323 Clear -3 1019 48 0 2.21 304 10:23 08.07.2020
324 Clear -3 1019 48 0 2.21 304 09:45 08.07.2020
325 Clear -3 1019 48 0 2.37 296 09:25 08.07.2020
326 Clear -2 1019 47 0 2.39 315 08:44 08.07.2020
327 Clear -2 1020 49 0 2.14 290 08:25 08.07.2020
328 Clear -2 1020 49 0 2.14 290 07:57 08.07.2020
329 Clear -2 1020 49 0 2.14 290 07:38 08.07.2020
330 Clear -2 1020 50 0 2.56 268 07:19 08.07.2020
331 Clear -2 1020 50 0 2.56 268 06:43 08.07.2020
332 Clear -1 1019 51 0 3.15 267 06:24 08.07.2020
333 Clear -1 1019 51 0 3.15 267 05:44 08.07.2020
334 Clear 0 1019 50 0 4.09 259 04:44 08.07.2020
335 Clear 1 1018 49 0 4.45 259 03:33 08.07.2020
336 Clear 3 1016 48 0 6.27 259 02:19 08.07.2020
337 Clear 3 1016 48 0 6.27 259 01:38 08.07.2020
338 Clear 4 1014 46 0 8.64 262 00:51 08.07.2020
339 Clear 6 1011 41 0 10.31 265 00:19 08.07.2020
340 Clear 6 1011 41 0 10.31 265 23:43 07.07.2020
341 Clear 9 1008 34 0 13.87 277 23:22 07.07.2020
342 Clear 9 1008 34 0 13.87 277 22:56 07.07.2020
343 Clear 9 1008 34 0 13.87 277 22:38 07.07.2020
344 Clear 11 1006 30 0 16.37 285 22:20 07.07.2020
345 Clear 11 1006 30 0 16.37 285 21:56 07.07.2020
346 Clear 11 1006 30 0 16.37 285 21:38 07.07.2020
347 Clear 12 1006 28 0 16.46 289 21:19 07.07.2020
348 Clear 12 1006 28 0 16.46 289 20:43 07.07.2020
349 Clouds 12 1007 28 0 16.51 291 20:23 07.07.2020
350 Clouds 12 1007 28 0 16.51 291 19:59 07.07.2020
351 Clouds 12 1007 28 0 16.51 291 19:39 07.07.2020
352 Clouds 11 1008 30 0 15.94 296 19:20 07.07.2020
353 Clouds 11 1008 30 0 15.94 296 18:55 07.07.2020
354 Clouds 11 1008 30 0 15.94 296 18:37 07.07.2020
355 Clouds 11 1009 31 0 15.75 299 18:19 07.07.2020
356 Clouds 11 1009 31 0 15.75 299 17:56 07.07.2020
357 Clouds 11 1009 31 0 15.75 299 17:37 07.07.2020
358 Clouds 10 1011 33 0 15.94 301 17:18 07.07.2020
359 Clouds 10 1011 33 0 15.94 301 16:42 07.07.2020
360 Clouds 9 1012 35 0 15.41 301 16:22 07.07.2020
361 Clouds 9 1012 35 0 15.41 301 15:56 07.07.2020
362 Clouds 9 1012 35 0 15.41 301 15:37 07.07.2020
363 Clouds 6 1013 49 0 9.9 305 15:19 07.07.2020
364 Clouds 6 1013 49 0 9.9 305 14:45 07.07.2020
365 Clouds 2 1015 63 0 4.71 302 14:24 07.07.2020
366 Clouds 2 1015 62 0 4.53 296 13:46 07.07.2020
367 Clouds 0 1015 72 0 3.89 299 13:21 07.07.2020
368 Clouds 0 1015 72 0 3.89 299 12:57 07.07.2020
369 Clouds 0 1015 72 0 3.89 299 12:39 07.07.2020
370 Clouds 1 1015 69 0 3.97 301 12:21 07.07.2020
371 Clouds 1 1015 69 0 3.97 301 11:46 07.07.2020
372 Clouds 1 1015 67 0 3.99 296 11:24 07.07.2020
373 Clouds 1 1015 67 0 3.99 296 10:58 07.07.2020
374 Clouds 1 1015 67 0 3.99 296 10:58 07.07.2020
375 Clouds 1 1015 67 0 3.99 296 10:40 07.07.2020
376 Clouds 1 1015 68 0 3.13 299 10:21 07.07.2020
377 Clouds 1 1015 68 0 3.13 299 09:55 07.07.2020
378 Clouds 1 1015 68 0 3.13 299 09:37 07.07.2020
379 Clouds 2 1014 65 0 3.56 263 09:18 07.07.2020
380 Clouds 2 1014 65 0 3.56 263 08:40 07.07.2020
381 Clouds 3 1015 63 0 3.58 260 08:20 07.07.2020
382 Clouds 3 1015 63 0 3.58 260 07:39 07.07.2020
383 Clear 3 1015 67 0 2.99 285 07:20 07.07.2020
384 Clear 3 1015 67 0 2.99 285 06:48 07.07.2020
385 Clear 4 1015 68 0 2.38 307 06:27 07.07.2020
386 Clear 4 1015 68 0 2.38 307 05:51 07.07.2020
387 Clear 4 1015 65 0 1.96 327 05:20 07.07.2020
388 Clear 4 1015 65 0 1.96 327 04:36 07.07.2020
389 Clear 5 1014 59 0 2.1 316 03:35 07.07.2020
390 Clear 7 1011 50 0 2.63 287 02:21 07.07.2020
391 Clear 8 1011 45 0 4.13 283 01:22 07.07.2020
392 Clear 8 1011 45 0 4.13 283 00:42 07.07.2020
393 Clear 10 1009 40 0 6.63 285 00:23 07.07.2020
394 Clear 10 1009 40 0 6.63 285 23:45 06.07.2020
395 Clear 12 1008 35 0 9.73 292 23:26 06.07.2020
396 Clear 12 1008 35 0 9.73 292 22:59 06.07.2020
397 Clear 12 1008 35 0 9.73 292 22:40 06.07.2020
398 Clear 12 1008 35 0 9.73 292 22:40 06.07.2020
399 Clear 14 1007 32 0 10.3 296 22:19 06.07.2020
400 Clear 14 1007 32 0 10.3 296 21:57 06.07.2020
401 Clear 14 1007 32 0 10.3 296 21:37 06.07.2020
402 Clear 14 1008 30 0 10.46 295 21:19 06.07.2020
403 Clear 14 1008 31 0 10.45 296 20:55 06.07.2020
404 Clear 14 1008 31 0 10.45 296 20:36 06.07.2020
405 Clear 15 1009 30 0 9.49 303 20:18 06.07.2020
406 Clear 15 1009 30 0 9.49 303 19:56 06.07.2020
407 Clear 15 1009 30 0 9.49 303 19:37 06.07.2020
408 Clear 14 1010 30 0 8.17 314 19:18 06.07.2020
409 Clear 14 1010 30 0 8.17 314 18:41 06.07.2020
410 Clear 12 1013 35 0 4.82 321 18:23 06.07.2020
411 Clear 12 1013 35 0 4.82 321 17:58 06.07.2020
412 Clear 12 1013 35 0 4.82 321 17:40 06.07.2020
413 Clouds 10 1015 40 0 3.23 321 17:20 06.07.2020
414 Clouds 10 1015 40 0 3.23 321 16:43 06.07.2020
415 Clouds 8 1017 44 0 2.68 318 16:24 06.07.2020
416 Clouds 8 1017 44 0 2.68 318 15:57 06.07.2020
417 Clouds 8 1017 44 0 2.68 318 15:39 06.07.2020
418 Clouds 6 1018 48 0 2.16 325 15:21 06.07.2020
419 Clouds 6 1018 48 0 2.16 325 14:55 06.07.2020
420 Clouds 6 1018 48 0 2.16 325 14:37 06.07.2020
421 Clouds 6 1018 48 0 2.16 325 14:37 06.07.2020
422 Clear 4 1018 59 0 1.59 312 14:18 06.07.2020
423 Clear 4 1018 59 0 1.59 312 13:44 06.07.2020
424 Clear 0 1017 73 0 1.58 307 13:24 06.07.2020
425 Clear 0 1017 73 0 1.58 307 12:56 06.07.2020
426 Clear 0 1017 73 0 1.58 307 12:38 06.07.2020
427 Clear 0 1017 75 0 1.56 310 12:18 06.07.2020
428 Clear 0 1017 75 0 1.56 310 11:57 06.07.2020
429 Clear 0 1017 75 0 1.56 310 11:36 06.07.2020
430 Clear 1 1017 76 0 1.56 314 11:18 06.07.2020
431 Clear 1 1017 76 0 1.56 314 10:41 06.07.2020
432 Clear 1 1017 76 0 1.67 317 10:21 06.07.2020
433 Clear 1 1017 76 0 1.67 317 09:55 06.07.2020
434 Clear 1 1017 76 0 1.67 317 09:37 06.07.2020
435 Clear 1 1016 77 0 1.68 321 09:19 06.07.2020
436 Clear 1 1016 77 0 1.68 321 08:41 06.07.2020
437 Clear 2 1016 73 0 1.82 334 08:23 06.07.2020
438 Clear 2 1016 73 0 1.82 334 07:54 06.07.2020
439 Clear 2 1016 73 0 1.82 334 07:36 06.07.2020
440 Clear 2 1016 68 0 1.83 344 06:57 06.07.2020
441 Clear 2 1016 68 0 1.83 344 06:39 06.07.2020
442 Clear 3 1017 61 0 1.75 346 06:19 06.07.2020
443 Clear 3 1017 58 0 1.33 337 05:29 06.07.2020
444 Clear 3 1017 58 0 1.33 337 04:48 06.07.2020
445 Clear 4 1016 54 0 1.02 306 02:58 06.07.2020
446 Clear 5 1015 52 0 0.38 328 02:19 06.07.2020
447 Clear 6 1014 45 0 1.31 186 01:22 06.07.2020
448 Clear 6 1014 45 0 1.31 186 00:33 06.07.2020
449 Clear 8 1012 39 0 1.19 174 23:59 05.07.2020
450 Clear 8 1012 39 0 1.19 174 23:40 05.07.2020
451 Clear 13 1011 26 0 1.07 282 23:22 05.07.2020
452 Clear 13 1011 26 0 1.07 282 22:58 05.07.2020
453 Clear 13 1011 26 0 1.07 282 22:39 05.07.2020
454 Clear 14 1010 21 0 2.93 297 22:19 05.07.2020
455 Clear 14 1010 21 0 2.93 297 21:57 05.07.2020
456 Clear 14 1010 21 0 2.93 297 21:37 05.07.2020
457 Clear 14 1010 21 0 2.69 320 21:18 05.07.2020
458 Clear 14 1010 21 0 2.4 328 20:56 05.07.2020
459 Clear 14 1010 21 0 2.4 328 20:38 05.07.2020
460 Clear 13 1011 22 0 2.56 342 20:19 05.07.2020
461 Clear 13 1011 22 0 2.56 342 19:42 05.07.2020
462 Clear 12 1013 23 0 1.88 327 19:21 05.07.2020
463 Clear 12 1013 23 0 1.88 327 18:55 05.07.2020
464 Clear 12 1013 23 0 1.88 327 18:37 05.07.2020
465 Clear 11 1014 25 0 1.91 324 18:18 05.07.2020
466 Clear 11 1014 25 0 1.91 324 17:42 05.07.2020
467 Clear 10 1016 27 0 1.85 332 17:19 05.07.2020
468 Clear 10 1016 27 0 1.85 332 16:59 05.07.2020
469 Clear 10 1016 27 0 1.85 332 16:40 05.07.2020
470 Clear 8 1018 30 0 1.69 305 16:21 05.07.2020
471 Clear 8 1018 30 0 1.69 305 15:41 05.07.2020
472 Clear 6 1018 34 0 1.59 267 15:20 05.07.2020
473 Clear 6 1018 34 0 1.59 267 14:57 05.07.2020
474 Clear 6 1018 34 0 1.59 267 14:38 05.07.2020
475 Clouds 2 1018 52 0 1.19 307 14:20 05.07.2020
476 Clouds 2 1018 52 0 1.12 297 13:41 05.07.2020
477 Clouds -2 1017 52 0 1.56 325 13:23 05.07.2020
478 Clouds -2 1017 52 0 1.56 325 12:46 05.07.2020
479 Clouds -1 1016 52 0 1.55 309 12:22 05.07.2020
480 Clouds -1 1016 52 0 1.55 309 11:57 05.07.2020
481 Clouds -1 1016 52 0 1.55 309 11:38 05.07.2020
482 Clouds -1 1016 52 0 1.55 309 11:38 05.07.2020
483 Clouds -1 1016 53 0 1.21 296 11:20 05.07.2020
484 Clouds -1 1016 53 0 1.21 296 10:56 05.07.2020
485 Clouds -1 1016 53 0 1.21 296 10:37 05.07.2020
486 Clear -1 1015 54 0 1.31 281 10:18 05.07.2020
487 Clear -1 1015 54 0 1.31 281 09:42 05.07.2020
488 Clear 0 1015 56 0 1.36 281 09:21 05.07.2020
489 Clear 0 1015 56 0 1.36 281 08:58 05.07.2020
490 Clear 0 1015 56 0 1.36 281 08:38 05.07.2020
491 Clear 0 1015 56 0 1.36 281 08:38 05.07.2020
492 Clear 0 1015 56 0 1.36 281 08:38 05.07.2020
493 Clear 0 1014 57 0 1.48 291 08:19 05.07.2020
494 Clear 0 1014 57 0 1.48 291 07:44 05.07.2020
495 Clear 1 1014 56 0 1.73 302 07:26 05.07.2020
496 Clear 1 1014 56 0 1.73 302 06:49 05.07.2020
497 Clear 2 1015 51 0 2.01 291 04:43 05.07.2020
498 Clear 4 1013 45 0 2.2 265 03:20 05.07.2020
499 Clear 4 1013 45 0 2.2 265 02:41 05.07.2020
500 Clear 5 1012 46 0 2.62 265 01:59 05.07.2020
501 Clear 5 1012 46 0 2.62 265 01:32 05.07.2020
502 Clear 6 1011 42 0 2.76 261 00:53 05.07.2020
503 Clear 6 1011 42 0 2.76 261 00:31 05.07.2020
504 Clear 8 1009 36 0 2.84 252 23:59 04.07.2020
505 Clear 8 1009 36 0 2.84 252 23:41 04.07.2020
506 Clear 12 1007 26 0 3.95 262 23:23 04.07.2020
507 Clear 12 1007 26 0 3.95 262 22:54 04.07.2020
508 Clear 12 1007 26 0 3.95 262 22:36 04.07.2020
509 Clear 14 1006 22 0 4.94 262 22:18 04.07.2020
510 Clear 14 1006 22 0 4.94 262 21:40 04.07.2020
511 Clear 15 1007 20 0 4.86 257 21:22 04.07.2020
512 Clear 15 1006 20 0 4.97 258 20:55 04.07.2020
513 Clear 15 1006 20 0 4.97 258 20:36 04.07.2020
514 Clear 15 1008 19 0 4.77 261 20:18 04.07.2020
515 Clear 15 1008 19 0 4.77 261 19:42 04.07.2020
516 Clear 15 1009 19 0 3.7 274 19:22 04.07.2020
517 Clear 15 1009 19 0 3.7 274 18:55 04.07.2020
518 Clear 15 1009 19 0 3.7 274 18:55 04.07.2020
519 Clear 15 1009 19 0 3.7 274 18:37 04.07.2020
520 Clear 13 1011 21 0 2.68 283 18:18 04.07.2020
521 Clear 13 1011 21 0 2.68 283 17:42 04.07.2020
522 Clear 11 1013 23 0 2.49 284 17:22 04.07.2020
523 Clear 11 1013 23 0 2.49 284 16:57 04.07.2020
524 Clear 11 1013 23 0 2.49 284 16:37 04.07.2020
525 Clear 9 1014 26 0 2.31 280 16:19 04.07.2020
526 Clear 9 1014 26 0 2.31 280 15:46 04.07.2020
527 Clear 7 1015 29 0 1.96 270 15:27 04.07.2020
528 Clear 7 1015 29 0 1.96 270 14:59 04.07.2020
529 Clear 7 1015 29 0 1.96 270 14:59 04.07.2020
530 Clear 7 1015 29 0 1.96 270 14:37 04.07.2020
531 Clear 3 1016 47 0 1.59 276 14:19 04.07.2020
532 Clear 3 1016 47 0 1.59 276 13:57 04.07.2020
533 Clear 3 1016 47 0 1.59 276 13:39 04.07.2020
534 Clear -2 1015 45 0 1.6 285 13:18 04.07.2020
535 Clear -2 1015 45 0 1.6 285 12:42 04.07.2020
536 Clear -1 1014 47 0 1.52 282 12:20 04.07.2020
537 Clear -1 1014 47 0 1.52 282 11:54 04.07.2020
538 Clear -1 1014 47 0 1.52 282 11:36 04.07.2020
539 Clear -1 1014 49 0 1.46 285 11:18 04.07.2020
540 Clear -1 1014 49 0 1.46 285 10:41 04.07.2020
541 Clear -1 1014 49 0 1.71 293 10:21 04.07.2020
542 Clear -1 1014 49 0 1.71 293 09:58 04.07.2020
543 Clear -1 1014 49 0 1.71 293 09:58 04.07.2020
544 Clear -1 1014 49 0 1.71 293 09:37 04.07.2020
545 Clear 0 1014 50 0 1.74 297 09:19 04.07.2020
546 Clear 0 1014 50 0 1.74 297 08:46 04.07.2020
547 Clouds 0 1014 51 0 1.53 284 08:27 04.07.2020
548 Clouds 0 1014 51 0 1.53 284 07:49 04.07.2020
549 Clouds 0 1014 51 0 1.53 284 07:31 04.07.2020
550 Clouds 1 1014 51 0 1.46 276 06:55 04.07.2020
551 Clouds 2 1014 51 0 1.66 279 06:23 04.07.2020
552 Clouds 2 1014 51 0 1.66 279 05:36 04.07.2020
553 Clouds 2 1014 51 0 1.75 280 04:44 04.07.2020
554 Clouds 4 1014 48 0 1.8 251 03:18 04.07.2020
555 Clouds 5 1013 45 0 2.07 247 02:23 04.07.2020
556 Clouds 5 1013 45 0 2.13 245 01:32 04.07.2020
557 Clouds 6 1011 43 0 2.02 260 00:44 04.07.2020
558 Clouds 8 1010 38 0 1.95 259 00:24 04.07.2020
559 Clouds 8 1010 38 0 1.95 259 23:41 03.07.2020
560 Clear 16 1031 19 10000 3.6 230 23:19 03.07.2020
561 Clear 16 1031 19 10000 3.6 230 22:58 03.07.2020
562 Clear 16 1031 19 10000 3.6 230 22:39 03.07.2020
563 Clear 16 1031 19 10000 3.6 230 22:21 03.07.2020
564 Clear 17 1032 17 10000 4.1 230 21:43 03.07.2020
565 Clear 17 1032 17 10000 4.1 230 21:20 03.07.2020
566 Clear 16 1032 21 10000 6.2 240 20:58 03.07.2020
567 Clear 16 1032 21 10000 6.2 240 20:39 03.07.2020
568 Clear 16 1032 21 10000 6.2 240 20:21 03.07.2020
569 Clear 15 1010 21 0 4.02 241 19:42 03.07.2020
570 Clear 12 1033 58 10000 4.1 230 19:21 03.07.2020
571 Clear 12 1033 58 10000 4.1 230 19:21 03.07.2020
572 Clear 12 1033 58 10000 4.1 230 18:57 03.07.2020
573 Clear 12 1033 58 10000 4.1 230 18:39 03.07.2020
574 Clear 11 1033 66 10000 5.1 230 18:21 03.07.2020
575 Clear 11 1033 66 10000 5.1 230 17:44 03.07.2020
576 Clear 11 1033 66 10000 5.1 230 17:23 03.07.2020
577 Clear 10 1015 27 0 1.91 282 16:51 03.07.2020
578 Clear 10 1015 27 0 1.91 282 16:31 03.07.2020
579 Clear 8 1016 31 0 2.35 285 15:57 03.07.2020
580 Clear 8 1016 31 0 2.35 285 15:39 03.07.2020
581 Clear 6 1018 36 0 2.2 287 15:20 03.07.2020
582 Clear 6 1018 36 0 2.2 287 14:55 03.07.2020
583 Clear 6 1018 36 0 2.2 287 14:36 03.07.2020
584 Clear 6 1018 36 0 2.11 288 14:36 03.07.2020
585 Clear 3 1018 51 0 1.97 282 14:18 03.07.2020
586 Clear 3 1018 51 0 1.97 282 13:41 03.07.2020
587 Clear -1 1018 54 0 2.02 283 13:22 03.07.2020
588 Clear -1 1018 54 0 2.02 283 12:43 03.07.2020
589 Clear -1 1017 55 0 1.98 284 12:22 03.07.2020
590 Clear -1 1017 55 0 1.98 284 11:54 03.07.2020
591 Clear -1 1017 55 0 1.98 284 11:36 03.07.2020
592 Clear -1 1016 55 0 1.92 280 11:18 03.07.2020
593 Clear -1 1016 55 0 1.92 280 10:42 03.07.2020
594 Clear 0 1016 56 0 1.9 279 10:21 03.07.2020
595 Clear 0 1016 56 0 1.9 279 09:59 03.07.2020
596 Clear 0 1016 56 0 1.9 279 09:40 03.07.2020
597 Clear 0 1016 56 0 1.82 285 09:21 03.07.2020
598 Clear 0 1016 56 0 1.82 285 08:57 03.07.2020
599 Clear 0 1016 56 0 1.82 285 08:38 03.07.2020
600 Clear 0 1017 56 0 2.14 291 08:18 03.07.2020
601 Clear 0 1017 56 0 2.14 291 07:43 03.07.2020
602 Clear 1 1016 57 0 1.95 292 07:22 03.07.2020
603 Clear 1 1016 57 0 1.95 292 06:37 03.07.2020
604 Clear 2 1016 56 0 1.9 290 05:55 03.07.2020
605 Clear 3 1016 54 0 1.55 273 04:26 03.07.2020
606 Clear 4 1016 51 0 1.82 271 02:57 03.07.2020
607 Clear 4 1016 51 0 1.82 271 02:32 03.07.2020
608 Clear 5 1014 48 0 2.02 263 01:43 03.07.2020
609 Clear 6 1013 46 0 1.78 270 01:20 03.07.2020
610 Clear 6 1013 46 0 1.78 270 01:20 03.07.2020
611 Clear 6 1013 46 0 1.78 270 00:42 03.07.2020
612 Clear 7 1011 41 0 1.86 259 23:59 02.07.2020
613 Clear 7 1011 41 0 1.86 259 23:39 02.07.2020
614 Clear 12 1010 27 0 3.12 253 23:19 02.07.2020
615 Clear 12 1010 27 0 3.12 253 22:56 02.07.2020
616 Clear 12 1010 27 0 3.12 253 22:38 02.07.2020
617 Clear 12 1010 27 0 3.12 253 22:38 02.07.2020
618 Clear 13 1009 23 0 3.65 250 22:19 02.07.2020
619 Clear 13 1009 23 0 3.65 250 21:54 02.07.2020
620 Clear 13 1009 23 0 3.65 250 21:36 02.07.2020
621 Clear 14 1009 22 0 4.18 253 21:18 02.07.2020
622 Clear 14 1009 22 0 4.18 253 20:41 02.07.2020
623 Clear 14 1010 21 0 4.32 257 20:20 02.07.2020
624 Clear 14 1010 21 0 4.32 257 19:56 02.07.2020
625 Clear 14 1010 21 0 4.32 257 19:38 02.07.2020
626 Clear 13 1012 22 0 3.49 267 19:19 02.07.2020
627 Clear 13 1012 22 0 3.49 267 18:56 02.07.2020
628 Clear 13 1012 22 0 3.49 267 18:37 02.07.2020
629 Clear 11 1013 25 0 1.74 285 18:19 02.07.2020
630 Clear 11 1013 25 0 1.74 285 17:39 02.07.2020
631 Clear 10 1015 29 0 2.08 299 17:20 02.07.2020
632 Clear 10 1015 29 0 2.08 299 16:56 02.07.2020
633 Clear 10 1015 29 0 2.08 299 16:37 02.07.2020
634 Clear 7 1017 35 0 2.2 296 16:19 02.07.2020
635 Clear 7 1017 35 0 2.2 296 15:41 02.07.2020
636 Clear 5 1018 41 0 1.94 297 15:21 02.07.2020
637 Clear 5 1018 41 0 1.94 297 14:54 02.07.2020
638 Clear 5 1018 41 0 1.94 297 14:36 02.07.2020
639 Clear 2 1019 56 0 1.72 275 14:18 02.07.2020
640 Clear 2 1019 56 0 1.84 274 13:40 02.07.2020
641 Clear -2 1018 61 0 1.86 280 13:21 02.07.2020
642 Clear -2 1018 61 0 1.86 280 12:59 02.07.2020
643 Clear -2 1018 61 0 1.86 280 12:39 02.07.2020
644 Clear -1 1017 59 0 2.18 290 12:21 02.07.2020
645 Clear -1 1017 59 0 2.18 290 11:44 02.07.2020
646 Clear -1 1016 58 0 1.95 282 11:26 02.07.2020
647 Clear -1 1016 58 0 1.95 282 10:57 02.07.2020
648 Clear -1 1016 58 0 1.95 282 10:39 02.07.2020
649 Clear -1 1016 58 0 1.81 272 10:21 02.07.2020
650 Clear -1 1016 58 0 1.81 272 09:42 02.07.2020
651 Clear 0 1016 58 0 1.7 283 09:21 02.07.2020
652 Clear 0 1016 58 0 1.7 283 08:57 02.07.2020
653 Clear 0 1016 58 0 1.7 283 08:38 02.07.2020
654 Clouds 1 1016 55 0 2.03 258 08:19 02.07.2020
655 Clouds 1 1016 55 0 2.03 258 07:41 02.07.2020
656 Clouds 1 1016 57 0 2.37 268 07:20 02.07.2020
657 Clouds 1 1016 57 0 2.37 268 06:41 02.07.2020
658 Clouds 1 1016 58 0 2.47 271 06:20 02.07.2020
659 Clouds 1 1016 58 0 2.47 271 05:47 02.07.2020
660 Clouds 2 1016 58 0 2.45 274 04:49 02.07.2020
661 Clouds 2 1016 57 0 2.4 279 03:33 02.07.2020
662 Clear 4 1014 51 0 2.21 275 01:49 02.07.2020
663 Clear 6 1011 43 0 2.05 263 00:28 02.07.2020
664 Clear 6 1011 43 0 2.05 263 23:57 01.07.2020
665 Clear 6 1011 43 0 2.05 263 23:38 01.07.2020
666 Clear 11 1009 30 0 4.58 261 23:20 01.07.2020
667 Clear 11 1009 30 0 4.58 261 22:54 01.07.2020
668 Clear 11 1009 30 0 4.58 261 22:36 01.07.2020
669 Clear 12 1009 29 0 6.75 260 22:18 01.07.2020
670 Clear 12 1009 29 0 6.75 260 21:55 01.07.2020
671 Clear 12 1009 29 0 6.75 260 21:37 01.07.2020
672 Clear 12 1009 29 0 8.39 259 21:19 01.07.2020
673 Clear 12 1009 29 0 8.39 259 20:44 01.07.2020
674 Clear 12 1011 27 0 7.86 264 20:25 01.07.2020
675 Clear 12 1011 27 0 7.86 264 19:56 01.07.2020
676 Clear 12 1011 27 0 7.86 264 19:38 01.07.2020
677 Clear 12 1013 27 0 7.3 261 19:20 01.07.2020
678 Clear 12 1013 27 0 7.3 261 18:54 01.07.2020
679 Clear 12 1013 27 0 7.3 261 18:36 01.07.2020
680 Clear 12 1015 28 0 6.69 266 18:18 01.07.2020
681 Clear 12 1015 28 0 6.69 266 17:41 01.07.2020
682 Clear 12 1015 28 0 6.69 266 17:41 01.07.2020
683 Clouds 12 1042 66 10000 2.1 60 17:19 01.07.2020
684 Clouds 12 1042 66 10000 2.1 60 16:48 01.07.2020
685 Clouds 12 1042 66 10000 2.1 60 16:48 01.07.2020
686 Clouds 12 1042 66 10000 2.1 60 16:29 01.07.2020
687 Clouds 12 1042 66 10000 2.1 60 15:58 01.07.2020
688 Clouds 12 1042 66 10000 2.1 60 15:39 01.07.2020
689 Clouds 12 1042 66 10000 2.1 60 15:21 01.07.2020
690 Clouds 12 1042 66 10000 2.1 60 14:45 01.07.2020
691 Clouds 12 1042 66 10000 2.1 60 14:22 01.07.2020
692 Clear 2 1021 58 0 1.95 277 13:59 01.07.2020
693 Clear 2 1021 58 0 1.95 277 13:40 01.07.2020
694 Clear -2 1020 65 0 1.92 285 13:21 01.07.2020
695 Clear -2 1020 65 0 1.92 285 12:58 01.07.2020
696 Clear -2 1020 65 0 1.92 285 12:39 01.07.2020
697 Clear -1 1020 66 0 1.95 286 12:20 01.07.2020
698 Clear -1 1020 66 0 1.95 286 11:55 01.07.2020
699 Clear -1 1020 66 0 1.95 286 11:37 01.07.2020
700 Clear -1 1019 66 0 1.8 280 11:18 01.07.2020
701 Clear -1 1019 66 0 1.8 280 10:41 01.07.2020
702 Clear -1 1019 66 0 2 288 10:23 01.07.2020
703 Clear -1 1019 66 0 2 288 09:59 01.07.2020
704 Clear -1 1019 66 0 2 288 09:37 01.07.2020
705 Clear -1 1019 66 0 2.06 291 09:19 01.07.2020
706 Clear 0 1019 64 0 2.13 289 08:41 01.07.2020
707 Clear 0 1019 64 0 2.15 294 08:23 01.07.2020
708 Clear 0 1019 64 0 2.15 294 07:58 01.07.2020
709 Clear 0 1019 64 0 2.15 294 07:39 01.07.2020
710 Clear 1 1019 63 0 2.01 293 07:20 01.07.2020
711 Clear 1 1019 63 0 2.01 293 06:50 01.07.2020
712 Clear 1 1019 60 0 1.98 294 06:28 01.07.2020
713 Clear 2 1019 57 0 2.04 300 05:23 01.07.2020
714 Clear 3 1019 54 0 1.92 287 03:48 01.07.2020
715 Clear 3 1018 52 0 1.76 288 03:27 01.07.2020
716 Clear 3 1018 52 0 1.76 288 02:41 01.07.2020
717 Clear 4 1018 47 0 1.94 279 01:49 01.07.2020
718 Clear 5 1016 48 0 1.32 260 00:45 01.07.2020
719 Clear 7 1014 41 0 1.57 244 00:25 01.07.2020
720 Clear 7 1014 41 0 1.57 244 23:42 30.06.2020
721 Clear 11 1012 28 0 3.83 255 23:23 30.06.2020
722 Clear 11 1012 28 0 3.83 255 22:59 30.06.2020
723 Clear 11 1012 28 0 3.83 255 22:40 30.06.2020
724 Clear 12 1012 25 0 4.2 243 22:18 30.06.2020
725 Clear 12 1012 25 0 4.2 243 21:41 30.06.2020
726 Clear 12 1012 25 0 4.2 243 21:41 30.06.2020
727 Clear 12 1012 25 0 4.26 245 21:19 30.06.2020
728 Clear 12 1012 25 0 4.26 245 21:19 30.06.2020
729 Clear 12 1012 25 0 4.26 245 20:57 30.06.2020
730 Clear 12 1012 25 0 4.26 245 20:39 30.06.2020
731 Clear 12 1013 25 0 3.58 243 20:20 30.06.2020
732 Clear 12 1013 25 0 3.58 243 19:42 30.06.2020
733 Clear 12 1014 25 0 3.57 245 19:20 30.06.2020
734 Clear 12 1014 25 0 3.57 245 18:46 30.06.2020
735 Clear 12 1016 26 0 4.02 250 18:21 30.06.2020
736 Clear 12 1016 26 0 4.02 250 17:59 30.06.2020
737 Clear 12 1016 26 0 4.02 250 17:38 30.06.2020
738 Clear 11 1017 26 0 5.42 261 17:19 30.06.2020
739 Clear 11 1017 26 0 5.42 261 16:55 30.06.2020
740 Clear 11 1017 26 0 5.42 261 16:36 30.06.2020
741 Clear 9 1018 30 0 5.28 268 16:18 30.06.2020
742 Clear 9 1018 30 0 5.28 268 15:41 30.06.2020
743 Clear 5 1019 40 0 4.67 268 15:22 30.06.2020
744 Clear 5 1019 40 0 4.67 268 14:58 30.06.2020
745 Clear 5 1019 40 0 4.67 268 14:39 30.06.2020
746 Clear 2 1020 54 0 3.72 265 14:18 30.06.2020
747 Clear 2 1020 54 0 3.72 265 14:18 30.06.2020
748 Clear 2 1020 54 0 3.72 265 13:41 30.06.2020
749 Clear -1 1020 59 0 4.35 274 13:21 30.06.2020
750 Clear -1 1020 59 0 4.35 274 12:59 30.06.2020
751 Clear -1 1020 59 0 4.35 274 12:40 30.06.2020
752 Clouds 0 1019 59 0 4.26 274 12:21 30.06.2020
753 Clouds 0 1019 59 0 4.26 274 11:59 30.06.2020
754 Clouds 0 1019 59 0 4.26 274 11:39 30.06.2020
755 Clouds 0 1018 59 0 3.84 261 11:20 30.06.2020
756 Clouds 0 1018 59 0 3.84 261 11:20 30.06.2020
757 Clouds 0 1018 59 0 3.84 261 10:59 30.06.2020
758 Clear 10 1016 28 0 5.26 276 16:44 28.06.2020
759 Clear 8 1018 32 0 3.62 282 16:26 28.06.2020
760 Clear 8 1018 32 0 3.62 282 16:26 28.06.2020
761 Clear 8 1018 32 0 3.62 282 15:58 28.06.2020
762 Clear 8 1018 32 0 3.62 282 15:39 28.06.2020
763 Clear 5 1018 38 0 2.85 289 15:20 28.06.2020
764 Clear 5 1018 38 0 2.85 289 14:55 28.06.2020
765 Clear 5 1018 38 0 2.85 289 14:37 28.06.2020
766 Clear 2 1019 52 0 2.29 285 14:19 28.06.2020
767 Clear 2 1019 52 0 2.38 285 13:38 28.06.2020
768 Clear -1 1018 58 0 2.05 284 13:20 28.06.2020
769 Clear -1 1018 58 0 2.05 284 12:56 28.06.2020
770 Clear -1 1018 58 0 2.05 284 12:37 28.06.2020
771 Clear -1 1018 58 0 2.03 277 12:19 28.06.2020
772 Clear -1 1018 58 0 2.03 277 11:58 28.06.2020
773 Clear -1 1018 58 0 2.03 277 11:39 28.06.2020
774 Clear -1 1018 59 0 1.91 272 11:20 28.06.2020
775 Clear -1 1018 59 0 1.91 272 11:20 28.06.2020
776 Clear -1 1018 59 0 1.91 272 10:57 28.06.2020
777 Clear -1 1018 59 0 1.91 272 10:38 28.06.2020
778 Clear -1 1018 61 0 1.74 278 10:19 28.06.2020
779 Clear -1 1018 61 0 1.74 278 09:40 28.06.2020
780 Clear -1 1017 61 0 1.56 278 09:21 28.06.2020
781 Clear -1 1017 61 0 1.56 278 08:51 28.06.2020
782 Clear -1 1017 61 0 1.56 278 08:32 28.06.2020
783 Clear 0 1017 63 0 1.46 285 07:53 28.06.2020
784 Clear 0 1017 63 0 1.46 285 07:30 28.06.2020
785 Clear 0 1017 63 0 1.73 312 06:53 28.06.2020
786 Clear 0 1017 63 0 1.73 312 06:31 28.06.2020
787 Clear 2 1017 59 0 1.52 306 05:27 28.06.2020
788 Clear 2 1017 58 0 1.02 271 03:45 28.06.2020
789 Clear 3 1016 55 0 1.09 246 02:49 28.06.2020
790 Clear 4 1015 52 0 1.71 242 02:18 28.06.2020
791 Clear 5 1014 47 0 2.16 253 01:27 28.06.2020
792 Clear 5 1014 47 0 2.16 253 00:51 28.06.2020
793 Clear 7 1012 42 0 2.83 257 00:27 28.06.2020
794 Clear 7 1012 42 0 2.83 257 23:43 27.06.2020
795 Clear 11 1011 28 0 5.05 257 23:24 27.06.2020
796 Clear 11 1011 28 0 5.05 257 22:59 27.06.2020
797 Clear 11 1011 28 0 5.05 257 22:41 27.06.2020
798 Clear 12 1010 24 0 6.41 258 22:23 27.06.2020
799 Clear 12 1010 24 0 6.41 258 21:57 27.06.2020
800 Clear 12 1010 24 0 6.41 258 21:57 27.06.2020
801 Clear 12 1010 24 0 6.41 258 21:38 27.06.2020
802 Clear 13 1011 22 0 7.21 264 21:20 27.06.2020
803 Clear 13 1011 22 0 7.21 264 20:45 27.06.2020
804 Clouds 12 1011 23 0 3.86 273 20:19 27.06.2020
805 Clouds 12 1011 23 0 3.86 273 19:57 27.06.2020
806 Clouds 12 1011 23 0 3.86 273 19:37 27.06.2020
807 Clouds 11 1013 27 0 2.48 282 19:19 27.06.2020
808 Clouds 11 1013 27 0 2.48 282 18:47 27.06.2020
809 Clouds 11 1013 27 0 2.48 282 18:47 27.06.2020
810 Clouds 9 1015 30 0 2.23 315 18:28 27.06.2020
811 Clouds 9 1015 30 0 2.23 315 17:59 27.06.2020
812 Clouds 9 1015 30 0 2.23 315 17:40 27.06.2020
813 Clouds 8 1017 33 0 2.13 316 17:20 27.06.2020
814 Clouds 8 1017 33 0 2.13 316 16:56 27.06.2020
815 Clouds 8 1017 33 0 2.13 316 16:38 27.06.2020
816 Clouds 6 1019 37 0 1.86 314 16:18 27.06.2020
817 Clouds 6 1019 37 0 1.86 314 15:42 27.06.2020
818 Clouds 4 1020 42 0 1.63 295 15:23 27.06.2020
819 Clouds 4 1020 42 0 1.63 295 14:55 27.06.2020
820 Clouds 4 1020 42 0 1.63 295 14:37 27.06.2020
821 Clouds 2 1020 58 0 1.58 281 14:18 27.06.2020
822 Clouds 2 1020 58 0 1.58 281 13:39 27.06.2020
823 Clouds -2 1019 63 0 1.47 269 13:20 27.06.2020
824 Clouds -2 1019 63 0 1.47 269 12:58 27.06.2020
825 Clouds -2 1019 63 0 1.47 269 12:40 27.06.2020
826 Clouds -2 1018 65 0 1.45 276 12:21 27.06.2020
827 Clouds -2 1018 65 0 1.45 276 11:57 27.06.2020
828 Clouds -2 1018 65 0 1.45 276 11:37 27.06.2020
829 Clouds -2 1018 66 0 1.34 279 11:18 27.06.2020
830 Clouds -2 1018 66 0 1.34 279 10:40 27.06.2020
831 Clouds -2 1018 67 0 1.39 291 10:19 27.06.2020
832 Clouds -2 1018 67 0 1.39 291 10:19 27.06.2020
833 Clouds -2 1018 67 0 1.39 291 09:57 27.06.2020
834 Clouds -2 1018 67 0 1.39 291 09:37 27.06.2020
835 Clouds -1 1019 68 0 1.38 283 09:19 27.06.2020
836 Clouds -1 1018 67 0 1.29 284 08:41 27.06.2020
837 Clouds -1 1018 68 0 1.44 280 08:22 27.06.2020
838 Clouds -1 1018 68 0 1.44 280 08:22 27.06.2020
839 Clouds -1 1018 68 0 1.44 280 07:46 27.06.2020
840 Clouds 0 1018 68 0 1.39 294 07:25 27.06.2020
841 Clouds 0 1018 68 0 1.39 294 06:51 27.06.2020
842 Clouds 0 1018 68 0 1.39 294 06:33 27.06.2020
843 Clouds 2 1018 63 0 1.99 306 04:24 27.06.2020
844 Clouds 2 1018 63 0 1.99 306 03:59 27.06.2020
845 Clouds 2 1018 63 0 1.99 306 03:41 27.06.2020
846 Clouds 3 1016 60 0 1.84 294 02:42 27.06.2020
847 Clouds 4 1014 56 0 1.98 284 02:22 27.06.2020
848 Clouds 5 1013 49 0 3.73 256 01:24 27.06.2020
849 Clouds 5 1013 49 0 3.73 256 00:42 27.06.2020
850 Clouds 7 1011 42 0 6.83 257 23:47 26.06.2020
851 Clouds 10 1009 34 0 11.19 263 23:27 26.06.2020
852 Clouds 10 1009 34 0 11.19 263 22:58 26.06.2020
853 Clouds 10 1009 34 0 11.19 263 22:39 26.06.2020
854 Clear 11 1008 31 0 11.72 264 22:21 26.06.2020
855 Clear 11 1008 31 0 11.72 264 21:58 26.06.2020
856 Clear 11 1008 31 0 11.72 264 21:39 26.06.2020
857 Clear 12 1009 30 0 13.37 268 21:20 26.06.2020
858 Clear 12 1009 30 0 13.37 268 20:47 26.06.2020
859 Clear 12 1010 30 0 13.26 274 20:27 26.06.2020
860 Clear 12 1010 30 0 13.26 274 19:55 26.06.2020
861 Clear 12 1010 30 0 13.26 274 19:37 26.06.2020
862 Clear 12 1011 30 0 12.15 277 19:18 26.06.2020
863 Clear 12 1011 30 0 12.15 277 18:41 26.06.2020
864 Clear 12 1013 31 0 11.27 279 18:23 26.06.2020
865 Clear 12 1013 31 0 11.27 279 17:45 26.06.2020
866 Clear 10 1015 35 0 8.74 280 17:27 26.06.2020
867 Clear 10 1015 35 0 8.74 280 16:59 26.06.2020
868 Clear 10 1015 35 0 8.74 280 16:41 26.06.2020
869 Clear 7 1016 46 0 5.15 297 16:21 26.06.2020
870 Clear 7 1016 46 0 5.15 297 15:41 26.06.2020
871 Clear 5 1017 54 0 3.94 290 15:21 26.06.2020
872 Clear 5 1017 54 0 3.94 290 14:58 26.06.2020
873 Clear 5 1017 54 0 3.94 290 14:39 26.06.2020
874 Clear 2 1018 66 0 2.5 291 14:21 26.06.2020
875 Clear 2 1018 68 0 2.59 297 13:45 26.06.2020
876 Clear -1 1018 82 0 2.14 291 13:23 26.06.2020
877 Clear -1 1018 82 0 2.14 291 12:56 26.06.2020
878 Clear -1 1018 82 0 2.14 291 12:38 26.06.2020
879 Clear -1 1017 86 0 2.27 295 12:19 26.06.2020
880 Clear -1 1017 86 0 2.27 295 11:56 26.06.2020
881 Clear -1 1017 86 0 2.27 295 11:38 26.06.2020
882 Clear 0 1017 88 0 2.37 304 11:19 26.06.2020
883 Clear 0 1017 88 0 2.37 304 10:56 26.06.2020
884 Clear 0 1017 88 0 2.37 304 10:37 26.06.2020
885 Clear 0 1017 88 0 2.37 304 10:37 26.06.2020
886 Clear 0 1017 88 0 2.37 304 10:37 26.06.2020
887 Clear 0 1017 89 0 2.42 297 10:18 26.06.2020
888 Clear 0 1017 89 0 2.42 297 09:42 26.06.2020
889 Clear 1 1017 90 0 2.26 309 09:22 26.06.2020
890 Clear 1 1017 90 0 2.25 316 08:49 26.06.2020
891 Clear 1 1017 88 0 2.02 329 08:28 26.06.2020
892 Clear 1 1017 88 0 1.96 317 07:49 26.06.2020
893 Clear 1 1018 88 0 2.01 327 07:24 26.06.2020
894 Clear 1 1018 88 0 2.01 327 06:57 26.06.2020
895 Clear 1 1018 88 0 2.01 327 06:35 26.06.2020
896 Clear 2 1018 86 0 1.78 338 05:58 26.06.2020
897 Clear 2 1018 86 0 1.78 338 05:31 26.06.2020
898 Clear 4 1016 71 0 2.28 9 02:42 26.06.2020
899 Clear 4 1015 68 0 1.45 23 02:21 26.06.2020
900 Clear 5 1014 61 0 2.07 28 00:58 26.06.2020
901 Clear 5 1014 61 0 2.07 28 00:39 26.06.2020
902 Clear 7 1013 50 0 3.08 355 23:48 25.06.2020
903 Clear 11 1012 32 0 6.89 323 23:24 25.06.2020
904 Clear 11 1012 32 0 6.89 323 22:59 25.06.2020
905 Clear 11 1012 32 0 6.89 323 22:40 25.06.2020
906 Clear 12 1012 29 0 6.81 333 22:21 25.06.2020
907 Clear 12 1012 29 0 6.81 333 22:21 25.06.2020
908 Clear 12 1012 29 0 6.81 333 21:58 25.06.2020
909 Clear 12 1012 29 0 6.81 333 21:40 25.06.2020
910 Clear 12 1012 29 0 6.81 333 21:40 25.06.2020
911 Clear 12 1012 28 0 7.55 307 21:21 25.06.2020
912 Clear 12 1012 28 0 7.55 307 20:59 25.06.2020
913 Clear 12 1012 28 0 7.55 307 20:41 25.06.2020
914 Clear 11 1013 29 0 4.38 322 20:22 25.06.2020
915 Clear 11 1013 29 0 4.38 322 19:56 25.06.2020
916 Clear 11 1013 29 0 4.38 322 19:37 25.06.2020
917 Clear 10 1015 31 0 4.12 330 19:18 25.06.2020
918 Clear 10 1015 31 0 4.12 330 18:40 25.06.2020
919 Clear 9 1016 32 0 3.66 327 18:21 25.06.2020
920 Clear 9 1016 32 0 3.66 327 17:55 25.06.2020
921 Clear 9 1016 32 0 3.66 327 17:37 25.06.2020
922 Clear 8 1018 34 0 3.7 300 17:19 25.06.2020
923 Clear 8 1018 34 0 3.7 300 17:19 25.06.2020
924 Clear 8 1018 34 0 3.7 300 16:41 25.06.2020
925 Clear 7 1019 36 0 3.92 294 16:21 25.06.2020
926 Clear 7 1019 36 0 3.92 294 15:45 25.06.2020
927 Clear 5 1020 39 0 2.9 285 15:27 25.06.2020
928 Clear 5 1020 39 0 2.9 285 14:58 25.06.2020
929 Clear 5 1020 39 0 2.9 285 14:40 25.06.2020
930 Clear 3 1020 55 0 1.65 298 14:22 25.06.2020
931 Clear 3 1020 55 0 1.65 298 13:56 25.06.2020
932 Clear 3 1020 55 0 1.65 298 13:37 25.06.2020
933 Clear -1 1019 61 0 1.7 289 13:19 25.06.2020
934 Clear -1 1019 61 0 1.7 289 12:44 25.06.2020
935 Clear -1 1019 61 0 1.86 282 12:20 25.06.2020
936 Clear -1 1019 61 0 1.86 282 11:56 25.06.2020
937 Clear -1 1019 61 0 1.86 282 11:38 25.06.2020
938 Clear -1 1018 60 0 1.93 275 11:20 25.06.2020
939 Clear -1 1018 60 0 1.93 275 10:42 25.06.2020
940 Clear 0 1017 60 0 2.14 275 10:23 25.06.2020
941 Clear 0 1017 60 0 2.14 275 09:41 25.06.2020
942 Clear 0 1017 59 0 2.15 271 09:23 25.06.2020
943 Clear 0 1017 60 0 2.01 288 08:47 25.06.2020
944 Clear 1 1017 59 0 2.06 275 08:21 25.06.2020
945 Clear 1 1017 59 0 2.06 275 07:56 25.06.2020
946 Clear 1 1017 59 0 2.06 275 07:38 25.06.2020
947 Clear 1 1017 56 0 1.99 256 07:19 25.06.2020
948 Clear 2 1016 58 0 1.42 250 06:28 25.06.2020
949 Clear 2 1016 58 0 1.42 250 05:55 25.06.2020
950 Clear 2 1015 56 0 1.75 259 05:25 25.06.2020
951 Clear 3 1014 52 0 1.95 247 03:36 25.06.2020
952 Clear 4 1013 49 0 2.05 226 02:44 25.06.2020
953 Clear 4 1012 48 0 2.17 245 02:19 25.06.2020
954 Clear 4 1012 48 0 2.17 245 01:35 25.06.2020
955 Clear 6 1010 44 0 3.43 266 00:50 25.06.2020
956 Clear 7 1009 40 0 5.9 267 00:22 25.06.2020
957 Clear 7 1009 40 0 5.9 267 23:58 24.06.2020
958 Clear 7 1009 40 0 5.9 267 23:38 24.06.2020
959 Clear 10 1007 32 0 8.57 266 23:19 24.06.2020
960 Clear 10 1007 32 0 8.57 266 22:42 24.06.2020
961 Clear 11 1006 29 0 9.91 271 22:21 24.06.2020
962 Clear 11 1006 29 0 9.91 271 21:57 24.06.2020
963 Clear 11 1006 29 0 9.91 271 21:37 24.06.2020
964 Clear 12 1006 28 0 9.89 271 21:19 24.06.2020
965 Clear 12 1006 28 0 9.89 271 20:59 24.06.2020
966 Clear 12 1006 28 0 9.89 271 20:59 24.06.2020
967 Clear 12 1006 28 0 9.89 271 20:40 24.06.2020
968 Clear 13 1007 26 0 10.18 271 20:21 24.06.2020
969 Clear 13 1007 26 0 10.18 271 19:59 24.06.2020
970 Clear 13 1007 26 0 10.18 271 19:39 24.06.2020
971 Clear 13 1009 26 0 8.71 267 19:20 24.06.2020
972 Clear 13 1009 26 0 8.71 267 18:58 24.06.2020
973 Clear 13 1009 26 0 8.71 267 18:39 24.06.2020
974 Clear 13 1009 26 0 8.71 267 18:39 24.06.2020
975 Clear 12 1011 27 0 8.54 264 18:20 24.06.2020
976 Clear 12 1011 27 0 8.54 264 17:56 24.06.2020
977 Clear 12 1011 27 0 8.54 264 17:37 24.06.2020
978 Clear 10 1013 29 0 6.65 269 17:18 24.06.2020
979 Clear 10 1013 29 0 6.65 269 17:18 24.06.2020
980 Clear 10 1013 29 0 6.65 269 16:56 24.06.2020
981 Clear 10 1013 29 0 6.65 269 16:56 24.06.2020
982 Clear 10 1013 29 0 6.65 269 16:37 24.06.2020
983 Clear 8 1015 31 0 4.83 274 16:19 24.06.2020
984 Clear 8 1015 31 0 4.83 274 15:55 24.06.2020
985 Clear 8 1015 31 0 4.83 274 15:37 24.06.2020
986 Clear 6 1015 37 0 4.2 268 15:18 24.06.2020
987 Clear 6 1015 37 0 4.2 268 14:42 24.06.2020
988 Clear 3 1017 48 0 3.19 262 14:22 24.06.2020
989 Clear 3 1017 48 0 3.19 262 13:43 24.06.2020
990 Clear 0 1016 54 0 2.83 259 13:22 24.06.2020
991 Clear 0 1016 54 0 2.83 259 12:55 24.06.2020
992 Clear 0 1016 54 0 2.83 259 12:36 24.06.2020
993 Clear 0 1015 54 0 2.77 263 12:18 24.06.2020
994 Clear 0 1015 54 0 2.77 263 11:42 24.06.2020
995 Clear 0 1014 55 0 2.7 262 11:24 24.06.2020
996 Clear 0 1014 55 0 2.7 262 10:59 24.06.2020
997 Clear 0 1014 55 0 2.7 262 10:40 24.06.2020
998 Clear 0 1014 57 0 2.6 264 10:18 24.06.2020
999 Clear 0 1014 57 0 2.6 264 09:42 24.06.2020
1000 Clear 0 1014 59 0 2.32 273 09:21 24.06.2020
1001 Clear 0 1014 59 0 2.32 273 08:42 24.06.2020
1002 Clear 1 1014 57 0 2.44 275 08:20 24.06.2020
1003 Clear 1 1014 57 0 2.44 275 07:50 24.06.2020
1004 Clear 1 1014 57 0 2.44 275 07:31 24.06.2020
1005 Clear 1 1014 56 0 2.41 273 06:50 24.06.2020
1006 Clear 2 1014 55 0 2.45 268 06:25 24.06.2020
1007 Clear 2 1014 55 0 2.45 268 05:54 24.06.2020
1008 Clear 3 1013 53 0 2.64 268 04:46 24.06.2020
1009 Clear 4 1013 50 0 3.06 261 04:27 24.06.2020
1010 Clear 4 1013 50 0 3.06 261 03:34 24.06.2020
1011 Clear 5 1012 48 0 3.07 262 02:45 24.06.2020
1012 Clear 5 1011 47 0 2.55 265 01:35 24.06.2020
1013 Clear 7 1010 42 0 3.46 271 00:47 24.06.2020
1014 Clear 8 1008 39 0 4.04 255 00:27 24.06.2020
1015 Clear 8 1008 39 0 4.04 255 23:44 23.06.2020
1016 Clear 11 1007 31 0 5.8 257 23:19 23.06.2020
1017 Clear 11 1007 31 0 5.8 257 22:42 23.06.2020
1018 Clear 12 1006 26 0 5.46 262 22:19 23.06.2020
1019 Clear 12 1006 26 0 5.46 262 21:59 23.06.2020
1020 Clear 12 1006 26 0 5.46 262 21:40 23.06.2020
1021 Clear 13 1007 24 0 5.37 262 21:19 23.06.2020
1022 Clear 13 1007 24 0 6.03 262 20:55 23.06.2020
1023 Clear 13 1007 24 0 6.03 262 20:37 23.06.2020
1024 Clear 13 1008 24 0 4.43 264 20:18 23.06.2020
1025 Clear 13 1008 24 0 4.43 264 19:45 23.06.2020
1026 Clear 12 1010 25 0 2.67 272 19:27 23.06.2020
1027 Clear 12 1010 25 0 2.67 272 18:42 23.06.2020
1028 Clear 11 1011 29 0 1.96 280 18:19 23.06.2020
1029 Clear 11 1011 29 0 1.96 280 17:58 23.06.2020
1030 Clear 11 1011 29 0 1.96 280 17:39 23.06.2020
1031 Clear 10 1013 32 0 2.03 297 17:20 23.06.2020
1032 Clear 10 1013 32 0 2.03 297 16:55 23.06.2020
1033 Clear 10 1013 32 0 2.03 297 16:37 23.06.2020
1034 Clear 8 1015 34 0 2.13 297 16:18 23.06.2020
1035 Clear 8 1015 34 0 2.13 297 15:44 23.06.2020
1036 Clear 7 1016 37 0 1.9 282 15:25 23.06.2020
1037 Clear 7 1016 37 0 1.9 282 14:58 23.06.2020
1038 Clear 7 1016 37 0 1.9 282 14:40 23.06.2020
1039 Clear 4 1016 50 0 1.69 273 14:18 23.06.2020
1040 Clear 4 1017 51 0 1.6 283 13:54 23.06.2020
1041 Clear 4 1017 51 0 1.6 283 13:54 23.06.2020
1042 Clear 4 1017 51 0 1.6 283 13:36 23.06.2020
1043 Clear 0 1016 58 0 1.62 286 13:18 23.06.2020
1044 Clear 0 1016 58 0 1.62 286 12:40 23.06.2020
1045 Clear 0 1015 57 0 1.74 283 12:21 23.06.2020
1046 Clear 0 1015 57 0 1.74 283 11:44 23.06.2020
1047 Clear 0 1015 57 0 1.74 283 11:44 23.06.2020
1048 Clear 0 1015 56 0 1.59 267 11:23 23.06.2020
1049 Clear 0 1015 56 0 1.59 267 10:59 23.06.2020
1050 Clear 0 1015 56 0 1.59 267 10:41 23.06.2020
1051 Clear 1 1015 54 0 1.82 243 10:22 23.06.2020
1052 Clear 1 1015 54 0 1.82 243 09:57 23.06.2020
1053 Clear 1 1015 54 0 1.82 243 09:57 23.06.2020
1054 Clear 1 1015 54 0 1.82 243 09:38 23.06.2020
1055 Clear 2 1015 53 0 1.84 240 09:20 23.06.2020
1056 Clear 2 1015 53 0 1.84 240 08:47 23.06.2020
1057 Clear 2 1015 55 0 1.95 252 08:26 23.06.2020
1058 Clear 2 1015 55 0 1.95 252 07:56 23.06.2020
1059 Clear 2 1015 55 0 1.95 252 07:38 23.06.2020
1060 Clear 3 1015 55 0 1.84 267 07:19 23.06.2020
1061 Clear 3 1015 55 0 1.84 267 06:43 23.06.2020
1062 Clear 3 1015 56 0 1.64 268 06:25 23.06.2020
1063 Clear 4 1015 54 0 1.73 264 05:29 23.06.2020
1064 Clear 6 1014 49 0 2.59 249 03:23 23.06.2020
1065 Clear 6 1014 49 0 2.59 249 02:53 23.06.2020
1066 Clear 6 1014 48 0 2.45 253 02:34 23.06.2020
1067 Clear 7 1013 44 0 3.33 262 01:46 23.06.2020
1068 Clear 8 1012 40 0 3.16 270 01:25 23.06.2020
1069 Clear 8 1012 40 0 3.16 270 00:49 23.06.2020
1070 Clear 9 1011 36 0 5.2 259 00:21 23.06.2020
1071 Clear 9 1011 36 0 5.2 259 23:55 22.06.2020
1072 Clear 9 1011 36 0 5.2 259 23:36 22.06.2020
1073 Clear 12 1009 30 0 7.12 252 23:18 22.06.2020
1074 Clear 12 1009 30 0 7.12 252 22:55 22.06.2020
1075 Clear 12 1009 30 0 7.12 252 22:36 22.06.2020
1076 Clear 13 1009 27 0 6.27 253 22:18 22.06.2020
1077 Clear 13 1009 27 0 6.27 253 21:41 22.06.2020
1078 Clear 14 1010 26 0 7.05 250 21:22 22.06.2020
1079 Clear 14 1010 26 0 7.05 250 20:59 22.06.2020
1080 Clear 14 1010 26 0 7.05 250 20:59 22.06.2020
1081 Clear 14 1010 26 0 7.05 250 20:41 22.06.2020
1082 Clear 14 1011 24 0 6.11 252 20:21 22.06.2020
1083 Clear 14 1011 24 0 6.11 252 19:44 22.06.2020
1084 Clear 13 1013 26 0 3.92 268 19:20 22.06.2020
1085 Clear 13 1013 26 0 3.92 268 18:58 22.06.2020
1086 Clear 13 1013 26 0 3.92 268 18:38 22.06.2020
1087 Clear 12 1015 33 0 2.58 301 18:20 22.06.2020
1088 Clear 12 1015 33 0 2.58 301 17:56 22.06.2020
1089 Clear 12 1015 33 0 2.58 301 17:37 22.06.2020
1090 Clouds 10 1017 41 0 2.38 308 17:19 22.06.2020
1091 Clouds 10 1017 41 0 2.38 308 16:43 22.06.2020
1092 Clouds 8 1018 52 0 2.14 308 16:24 22.06.2020
1093 Clouds 8 1018 52 0 2.14 308 15:59 22.06.2020
1094 Clouds 8 1018 52 0 2.14 308 15:40 22.06.2020
1095 Clouds 5 1019 66 0 2.03 315 15:22 22.06.2020
1096 Clouds 5 1019 66 0 2.03 315 14:54 22.06.2020
1097 Clouds 5 1019 66 0 2.03 315 14:36 22.06.2020
1098 Clear 3 1020 77 0 1.16 299 14:18 22.06.2020
1099 Clear 3 1020 77 0 1.16 299 13:39 22.06.2020
1100 Clear 1 1019 92 0 1.22 308 13:21 22.06.2020
1101 Clear 1 1019 92 0 1.22 308 12:57 22.06.2020
1102 Clear 1 1019 92 0 1.22 308 12:39 22.06.2020
1103 Clear 1 1019 92 0 1.22 308 12:39 22.06.2020
1104 Clear 1 1019 91 0 1.34 314 12:21 22.06.2020
1105 Clear 1 1019 91 0 1.34 314 11:37 22.06.2020
1106 Clear 2 1018 90 0 1.7 326 11:19 22.06.2020
1107 Clear 2 1018 90 0 1.7 326 10:57 22.06.2020
1108 Clear 2 1018 90 0 1.7 326 10:38 22.06.2020
1109 Clear 2 1018 88 0 1.89 343 10:19 22.06.2020
1110 Clear 2 1018 88 0 1.89 343 09:56 22.06.2020
1111 Clear 2 1018 88 0 1.89 343 09:38 22.06.2020
1112 Clear 3 1018 87 0 1.73 356 09:18 22.06.2020
1113 Clear 3 1018 87 0 1.73 356 08:54 22.06.2020
1114 Clear 3 1018 87 0 1.73 356 08:36 22.06.2020
1115 Clear 3 1018 81 0 1.74 4 08:18 22.06.2020
1116 Clear 3 1018 81 0 1.74 4 07:45 22.06.2020
1117 Clear 4 1019 75 0 1.87 11 07:24 22.06.2020
1118 Clear 4 1019 75 0 1.87 11 06:38 22.06.2020
1119 Clear 5 1019 68 0 1.87 19 06:19 22.06.2020
1120 Clear 5 1019 68 0 1.87 19 05:41 22.06.2020
1121 Clear 7 1017 50 0 1.36 51 03:22 22.06.2020
1122 Clear 7 1016 48 0 1.02 80 01:48 22.06.2020
1123 Clear 8 1014 42 0 2.02 93 00:54 22.06.2020
1124 Clear 10 1012 35 0 3.63 97 00:29 22.06.2020
1125 Clear 10 1012 35 0 3.63 97 23:56 21.06.2020
1126 Clear 10 1012 35 0 3.63 97 23:37 21.06.2020
1127 Clear 14 1010 25 0 5.29 108 23:19 21.06.2020
1128 Clear 14 1010 25 0 5.29 108 22:55 21.06.2020
1129 Clear 14 1010 25 0 5.29 108 22:36 21.06.2020
1130 Clear 15 1010 23 0 5.18 114 22:18 21.06.2020
1131 Clear 15 1010 23 0 5.18 114 21:55 21.06.2020
1132 Clear 15 1010 23 0 5.18 114 21:37 21.06.2020
1133 Clear 15 1009 21 0 4.49 117 21:18 21.06.2020
1134 Clear 15 1009 21 0 4.49 117 20:54 21.06.2020
1135 Clear 15 1009 21 0 4.49 117 20:36 21.06.2020
1136 Clear 15 1010 21 0 3.07 138 20:18 21.06.2020
1137 Clear 15 1010 21 0 3.07 138 19:41 21.06.2020
1138 Clear 15 1012 21 0 2.04 179 19:20 21.06.2020
1139 Clear 15 1012 21 0 2.04 179 18:56 21.06.2020
1140 Clear 15 1012 21 0 2.04 179 18:38 21.06.2020
1141 Clear 14 1014 23 0 2.18 222 18:19 21.06.2020
1142 Clear 14 1014 23 0 2.18 222 17:55 21.06.2020
1143 Clear 14 1014 23 0 2.18 222 17:36 21.06.2020
1144 Clear 13 1015 27 0 2.54 238 17:18 21.06.2020
1145 Clear 13 1015 27 0 2.54 238 16:40 21.06.2020
1146 Clear 12 1017 31 0 2.67 246 16:22 21.06.2020
1147 Clear 12 1017 31 0 2.67 246 15:42 21.06.2020
1148 Clear 9 1018 36 0 2.64 240 15:24 21.06.2020
1149 Clear 9 1018 36 0 2.64 240 14:59 21.06.2020
1150 Clear 9 1018 36 0 2.64 240 14:59 21.06.2020
1151 Clear 9 1018 36 0 2.64 240 14:38 21.06.2020
1152 Clear 6 1018 46 0 2.57 228 14:20 21.06.2020
1153 Clear 6 1018 46 0 2.57 228 13:56 21.06.2020
1154 Clear 6 1018 46 0 2.57 228 13:56 21.06.2020
1155 Clear 6 1018 46 0 2.57 228 13:38 21.06.2020
1156 Clear 2 1017 52 0 2.51 229 13:19 21.06.2020
1157 Clear 2 1017 52 0 2.51 229 12:44 21.06.2020
1158 Clear 2 1017 54 0 2.3 232 12:25 21.06.2020
1159 Clear 2 1017 54 0 2.3 232 11:55 21.06.2020
1160 Clear 2 1017 54 0 2.3 232 11:36 21.06.2020
1161 Clear 3 1016 54 0 2.11 237 11:18 21.06.2020
1162 Clear 3 1016 54 0 2.11 237 10:54 21.06.2020
1163 Clear 3 1016 54 0 2.11 237 10:36 21.06.2020
1164 Clear 3 1016 55 0 2 236 10:18 21.06.2020
1165 Clear 3 1016 55 0 2 236 09:40 21.06.2020
1166 Clear 4 1015 54 0 1.71 239 09:19 21.06.2020
1167 Clear 4 1015 54 0 1.71 239 08:55 21.06.2020
1168 Clear 4 1015 54 0 1.71 239 08:37 21.06.2020
1169 Clear 4 1015 52 0 1.86 238 08:19 21.06.2020
1170 Clear 4 1015 52 0 1.86 238 07:41 21.06.2020
1171 Clear 5 1015 51 0 1.79 239 07:22 21.06.2020
1172 Clear 5 1015 51 0 1.79 239 06:48 21.06.2020
1173 Clear 6 1015 50 0 1.88 239 05:59 21.06.2020
1174 Clear 6 1015 50 0 1.88 239 05:30 21.06.2020
1175 Clear 6 1016 52 0 1.27 262 03:40 21.06.2020
1176 Clear 7 1015 52 0 0.53 277 03:18 21.06.2020
1177 Clear 8 1014 49 0 0.36 152 02:19 21.06.2020
1178 Clear 9 1013 45 0 0.98 120 01:24 21.06.2020
1179 Clear 9 1013 45 0 0.98 120 00:56 21.06.2020
1180 Clear 9 1013 45 0 0.98 120 00:38 21.06.2020
1181 Clear 10 1012 40 0 0.96 96 00:19 21.06.2020
1182 Clear 10 1012 40 0 0.96 96 23:44 20.06.2020
1183 Clear 14 1011 26 0 0.76 54 23:22 20.06.2020
1184 Clear 14 1011 26 0 0.76 54 22:56 20.06.2020
1185 Clear 14 1011 26 0 0.76 54 22:38 20.06.2020
1186 Clear 15 1010 24 0 0.55 10 22:18 20.06.2020
1187 Clear 15 1010 24 0 0.55 10 21:56 20.06.2020
1188 Clear 15 1010 24 0 0.55 10 21:38 20.06.2020
1189 Clear 15 1011 24 0 0.89 340 21:19 20.06.2020
1190 Clear 15 1011 24 0 1 336 20:57 20.06.2020
1191 Clear 15 1011 24 0 1 336 20:38 20.06.2020
1192 Clear 15 1012 24 0 1.2 338 20:19 20.06.2020
1193 Clear 15 1012 24 0 1.2 338 19:44 20.06.2020
1194 Clear 14 1013 25 0 1.32 341 19:25 20.06.2020
1195 Clear 14 1013 25 0 1.32 341 18:58 20.06.2020
1196 Clear 14 1013 25 0 1.32 341 18:40 20.06.2020
1197 Clear 13 1015 26 0 1.28 335 18:19 20.06.2020
1198 Clear 13 1015 26 0 1.28 335 17:56 20.06.2020
1199 Clear 13 1015 26 0 1.28 335 17:38 20.06.2020
1200 Clear 12 1016 28 0 1.05 322 17:19 20.06.2020
1201 Clear 12 1016 28 0 1.05 322 16:41 20.06.2020
1202 Clear 11 1018 30 0 0.9 281 16:19 20.06.2020
1203 Clear 11 1018 30 0 0.9 281 15:57 20.06.2020
1204 Clear 11 1018 30 0 0.9 281 15:38 20.06.2020
1205 Clear 10 1018 34 0 1.02 231 15:18 20.06.2020
1206 Clear 10 1018 34 0 1.02 231 14:42 20.06.2020
1207 Clear 6 1018 49 0 1.25 212 14:21 20.06.2020
1208 Clear 6 1018 49 0 1.25 212 13:42 20.06.2020
1209 Clear 2 1018 57 0 1.23 219 13:21 20.06.2020
1210 Clear 2 1018 57 0 1.23 219 12:57 20.06.2020
1211 Clear 2 1018 57 0 1.23 219 12:38 20.06.2020
1212 Clear 2 1017 58 0 1.17 226 12:19 20.06.2020
1213 Clear 2 1017 58 0 1.17 226 11:55 20.06.2020
1214 Clear 2 1017 58 0 1.17 226 11:36 20.06.2020
1215 Clear 2 1016 57 0 1.11 219 11:18 20.06.2020
1216 Clear 2 1016 57 0 1.11 219 10:42 20.06.2020
1217 Clear 3 1016 57 0 1.06 225 10:20 20.06.2020
1218 Clear 3 1016 57 0 1.06 225 09:54 20.06.2020
1219 Clear 3 1016 57 0 1.06 225 09:36 20.06.2020
1220 Clear 3 1016 57 0 1.02 236 09:18 20.06.2020
1221 Clear 3 1016 57 0 0.92 242 08:43 20.06.2020
1222 Clear 4 1016 55 0 1.02 238 08:25 20.06.2020
1223 Clear 4 1016 55 0 1.02 238 07:51 20.06.2020
1224 Clear 4 1016 53 0 1.22 227 07:26 20.06.2020
1225 Clear 4 1016 53 0 1.22 227 06:53 20.06.2020
1226 Clear 5 1016 51 0 1.5 223 06:23 20.06.2020
1227 Clear 5 1016 51 0 1.5 223 05:50 20.06.2020
1228 Clear 6 1016 49 0 1.75 226 04:50 20.06.2020
1229 Clear 8 1015 44 0 1.52 210 02:27 20.06.2020
1230 Clear 8 1015 44 0 1.52 210 01:48 20.06.2020
1231 Clear 9 1013 42 0 1.44 199 00:52 20.06.2020
1232 Clear 10 1012 38 0 1.21 190 00:21 20.06.2020
1233 Clear 10 1012 38 0 1.21 190 23:55 19.06.2020
1234 Clear 10 1012 38 0 1.21 190 23:37 19.06.2020
1235 Clear 15 1011 26 0 1.12 187 23:18 19.06.2020
1236 Clear 15 1011 26 0 1.12 187 22:40 19.06.2020
1237 Clear 15 1010 23 0 1.26 210 22:22 19.06.2020
1238 Clear 15 1010 23 0 1.26 210 21:58 19.06.2020
1239 Clear 15 1010 23 0 0.95 230 21:38 19.06.2020
1240 Clear 16 1011 23 0 1.57 225 21:18 19.06.2020
1241 Clear 15 1011 23 0 1.17 244 20:58 19.06.2020
1242 Clear 15 1011 23 0 1.17 244 20:40 19.06.2020
1243 Clear 15 1012 23 0 1.37 253 20:21 19.06.2020
1244 Clear 15 1012 23 0 1.37 253 19:57 19.06.2020
1245 Clear 15 1012 23 0 1.37 253 19:39 19.06.2020
1246 Clear 14 1013 25 0 1.33 253 19:21 19.06.2020
1247 Clear 14 1013 25 0 1.33 253 18:42 19.06.2020
1248 Clear 13 1014 27 0 1.47 269 18:22 19.06.2020
1249 Clear 13 1014 27 0 1.47 269 17:59 19.06.2020
1250 Clear 13 1014 27 0 1.47 269 17:40 19.06.2020
1251 Clear 12 1016 29 0 1.72 273 17:22 19.06.2020
1252 Clear 12 1016 29 0 1.72 273 16:56 19.06.2020
1253 Clear 12 1016 29 0 1.72 273 16:37 19.06.2020
1254 Clear 10 1018 32 0 2.01 268 16:19 19.06.2020
1255 Clear 10 1018 32 0 2.01 268 15:43 19.06.2020
1256 Clear 8 1019 36 0 1.91 251 15:24 19.06.2020
1257 Clear 8 1019 36 0 1.91 251 14:56 19.06.2020
1258 Clear 8 1019 36 0 1.91 251 14:38 19.06.2020
1259 Clear 5 1019 49 0 1.97 236 14:19 19.06.2020
1260 Clear 5 1019 49 0 1.97 236 13:45 19.06.2020
1261 Clear 1 1019 57 0 1.9 238 13:26 19.06.2020
1262 Clear 1 1019 57 0 1.9 238 12:49 19.06.2020
1263 Clear 2 1018 56 0 2.08 234 12:24 19.06.2020
1264 Clear 2 1018 56 0 2.08 234 11:59 19.06.2020
1265 Clear 2 1018 56 0 2.08 234 11:40 19.06.2020
1266 Clear 2 1018 54 0 2.19 233 11:19 19.06.2020
1267 Clear 2 1018 54 0 2.19 233 10:55 19.06.2020
1268 Clear 2 1018 54 0 2.19 233 10:55 19.06.2020
1269 Clear 2 1018 54 0 2.19 233 10:37 19.06.2020
1270 Clear 2 1018 54 0 1.83 233 10:18 19.06.2020
1271 Clear 2 1018 54 0 1.83 233 09:42 19.06.2020
1272 Clear 3 1018 54 0 1.71 212 09:21 19.06.2020
1273 Clear 3 1018 54 0 1.71 212 08:55 19.06.2020
1274 Clear 3 1018 54 0 1.71 212 08:37 19.06.2020
1275 Clear 3 1017 53 0 1.76 230 08:19 19.06.2020
1276 Clear 3 1017 53 0 1.76 230 07:40 19.06.2020
1277 Clear 4 1018 54 0 1.76 253 07:21 19.06.2020
1278 Clear 4 1018 54 0 1.76 253 06:44 19.06.2020
1279 Clear 4 1017 54 0 1.26 257 06:19 19.06.2020
1280 Clear 4 1018 54 0 0.75 249 04:30 19.06.2020
1281 Clear 6 1017 50 0 0.34 339 03:29 19.06.2020
1282 Clear 7 1015 45 0 0.93 105 01:23 19.06.2020
1283 Clear 7 1015 45 0 0.93 105 00:42 19.06.2020
1284 Clear 9 1013 40 0 1.56 88 00:22 19.06.2020
1285 Clear 9 1013 40 0 1.56 88 23:56 18.06.2020
1286 Clear 9 1013 40 0 1.56 88 23:37 18.06.2020
1287 Clear 13 1012 27 0 1.33 65 23:19 18.06.2020
1288 Clear 13 1012 27 0 1.33 65 22:39 18.06.2020
1289 Clear 14 1012 24 0 0.88 28 22:20 18.06.2020
1290 Clear 14 1012 24 0 0.88 28 21:56 18.06.2020
1291 Clear 14 1012 24 0 0.88 28 21:36 18.06.2020
1292 Clouds 14 1013 24 0 0.76 347 21:18 18.06.2020
1293 Clouds 13 1013 25 0 0.78 335 20:40 18.06.2020
1294 Clouds 13 1014 25 0 1.18 330 20:20 18.06.2020
1295 Clouds 13 1014 25 0 1.18 330 19:56 18.06.2020
1296 Clouds 13 1014 25 0 1.18 330 19:38 18.06.2020
1297 Clouds 12 1015 26 0 1.38 329 19:19 18.06.2020
1298 Clouds 12 1015 26 0 1.38 329 18:38 18.06.2020
1299 Clouds 11 1017 28 0 1.35 320 18:19 18.06.2020
1300 Clouds 11 1017 28 0 1.35 320 17:46 18.06.2020
1301 Clouds 10 1018 30 0 1.33 312 17:26 18.06.2020
1302 Clouds 10 1018 30 0 1.33 312 16:59 18.06.2020
1303 Clouds 10 1018 30 0 1.33 312 16:41 18.06.2020
1304 Clouds 9 1019 32 0 1.09 301 16:23 18.06.2020
1305 Clouds 9 1019 32 0 1.09 301 15:57 18.06.2020
1306 Clouds 9 1019 32 0 1.09 301 15:39 18.06.2020
1307 Clouds 7 1020 35 0 1.21 280 15:20 18.06.2020
1308 Clouds 7 1020 35 0 1.21 280 14:56 18.06.2020
1309 Clouds 7 1020 35 0 1.21 280 14:37 18.06.2020
1310 Clouds 4 1021 53 0 1.05 271 14:19 18.06.2020
1311 Clouds 4 1020 52 0 0.89 289 13:47 18.06.2020
1312 Clouds 0 1020 60 0 0.77 220 13:28 18.06.2020
1313 Clouds 0 1020 60 0 0.77 220 12:57 18.06.2020
1314 Clouds 0 1020 60 0 0.77 220 12:39 18.06.2020
1315 Clouds 0 1018 68 0 1.24 201 12:20 18.06.2020
1316 Clouds 0 1018 68 0 1.24 201 11:57 18.06.2020
1317 Clouds 0 1018 68 0 1.24 201 11:38 18.06.2020
1318 Clouds 1 1018 61 0 1.57 277 11:18 18.06.2020
1319 Clouds 1 1018 61 0 1.57 277 10:40 18.06.2020
1320 Clouds 2 1017 59 0 2.29 288 10:19 18.06.2020
1321 Clouds 2 1017 59 0 2.29 288 09:46 18.06.2020
1322 Clouds 2 1017 59 0 2.43 284 09:27 18.06.2020
1323 Clouds 2 1017 58 0 2.7 298 08:58 18.06.2020
1324 Clouds 2 1017 58 0 2.7 298 08:38 18.06.2020
1325 Clouds 3 1017 56 0 2.79 289 08:19 18.06.2020
1326 Clouds 3 1017 56 0 2.79 289 07:45 18.06.2020
1327 Clouds 4 1017 54 0 3.13 281 07:25 18.06.2020
1328 Clouds 4 1017 54 0 3.13 281 06:42 18.06.2020
1329 Clouds 5 1017 52 0 3.17 247 05:31 18.06.2020
1330 Clouds 6 1017 51 0 2.82 245 04:20 18.06.2020
1331 Clouds 9 1014 47 0 3.17 249 01:49 18.06.2020
1332 Clouds 10 1012 44 0 4.14 267 01:27 18.06.2020
1333 Clouds 10 1012 44 0 4.14 267 00:54 18.06.2020
1334 Clouds 10 1012 44 0 4.14 267 00:32 18.06.2020
1335 Clouds 11 1011 40 0 6.1 281 23:56 17.06.2020
1336 Clouds 11 1011 40 0 6.1 281 23:38 17.06.2020
1337 Clouds 13 1009 33 0 9.04 282 23:19 17.06.2020
1338 Clouds 13 1009 33 0 9.04 282 22:57 17.06.2020
1339 Clouds 13 1009 33 0 9.04 282 22:57 17.06.2020
1340 Clouds 13 1009 33 0 9.04 282 22:37 17.06.2020
1341 Clouds 13 1009 33 0 9.04 282 22:37 17.06.2020
1342 Clear 15 1009 28 0 9.63 287 22:19 17.06.2020
1343 Clear 15 1009 28 0 9.63 287 21:40 17.06.2020
1344 Clear 16 1008 27 0 9.34 295 21:22 17.06.2020
1345 Clear 16 1008 27 0 9.34 295 20:57 17.06.2020
1346 Clear 16 1008 27 0 9.34 295 20:38 17.06.2020
1347 Clear 16 1009 27 0 9.69 299 20:19 17.06.2020
1348 Clear 16 1009 27 0 9.69 299 19:44 17.06.2020
1349 Clear 16 1010 28 0 9.77 299 19:23 17.06.2020
1350 Clear 16 1010 28 0 9.77 299 18:56 17.06.2020
1351 Clear 16 1010 28 0 9.77 299 18:38 17.06.2020
1352 Clear 14 1012 33 0 6.99 312 18:20 17.06.2020
1353 Clear 14 1012 33 0 6.99 312 17:42 17.06.2020
1354 Clear 12 1015 39 0 4.94 310 17:22 17.06.2020
1355 Clear 12 1015 39 0 4.94 310 16:57 17.06.2020
1356 Clear 12 1015 39 0 4.94 310 16:38 17.06.2020
1357 Clear 10 1016 44 0 3.34 304 16:20 17.06.2020
1358 Clear 10 1016 44 0 3.34 304 15:56 17.06.2020
1359 Clear 10 1016 44 0 3.34 304 15:38 17.06.2020
1360 Clear 8 1017 50 0 2.5 290 15:18 17.06.2020
1361 Clear 8 1017 50 0 2.5 290 14:55 17.06.2020
1362 Clear 8 1017 50 0 2.5 290 14:36 17.06.2020
1363 Clouds 6 1018 59 0 1.83 286 14:18 17.06.2020
1364 Clouds 6 1018 59 0 1.83 286 13:41 17.06.2020
1365 Clouds 4 1017 67 0 1.69 288 13:21 17.06.2020
1366 Clouds 4 1017 67 0 1.69 288 12:58 17.06.2020
1367 Clouds 4 1017 67 0 1.69 288 12:40 17.06.2020
1368 Clouds 4 1017 67 0 1.63 288 12:20 17.06.2020
1369 Clouds 4 1017 67 0 1.63 288 11:44 17.06.2020
1370 Clouds 5 1017 64 0 1.95 280 11:24 17.06.2020
1371 Clouds 5 1017 64 0 1.95 280 10:55 17.06.2020
1372 Clouds 5 1017 64 0 1.95 280 10:37 17.06.2020
1373 Clouds 5 1016 62 0 2 282 10:18 17.06.2020
1374 Clouds 5 1016 62 0 2 282 09:54 17.06.2020
1375 Clouds 5 1016 62 0 2 282 09:36 17.06.2020
1376 Clear 5 1016 61 0 1.67 267 09:18 17.06.2020
1377 Clear 5 1016 61 0 1.67 267 08:42 17.06.2020
1378 Clear 6 1016 59 0 1.72 260 08:19 17.06.2020
1379 Clear 6 1016 59 0 1.72 260 07:43 17.06.2020
1380 Clear 6 1016 57 0 1.55 262 07:23 17.06.2020
1381 Clear 6 1016 57 0 1.55 262 06:58 17.06.2020
1382 Clear 6 1016 57 0 1.55 262 06:39 17.06.2020
1383 Clear 7 1016 56 0 1.3 253 06:21 17.06.2020
1384 Clear 7 1016 56 0 1.3 253 05:48 17.06.2020
1385 Clear 7 1016 54 0 1.46 246 04:36 17.06.2020
1386 Clouds 9 1013 49 0 1.49 257 01:55 17.06.2020
1387 Clouds 10 1012 46 0 1.76 262 00:49 17.06.2020
1388 Clouds 10 1012 46 0 1.76 262 00:30 17.06.2020
1389 Clear 12 1011 41 0 2.03 289 23:58 16.06.2020
1390 Clear 12 1011 41 0 2.03 289 23:40 16.06.2020
1391 Clear 15 1010 32 0 3.9 325 23:22 16.06.2020
1392 Clear 15 1010 32 0 3.9 325 22:57 16.06.2020
1393 Clear 15 1010 32 0 3.9 325 22:38 16.06.2020
1394 Clear 15 1009 30 0 4.05 329 22:19 16.06.2020
1395 Clear 15 1009 30 0 4.05 329 21:57 16.06.2020
1396 Clear 15 1009 30 0 4.05 329 21:39 16.06.2020
1397 Clear 15 1009 31 0 3.18 336 21:20 16.06.2020
1398 Clouds 15 1009 31 0 3.12 339 20:43 16.06.2020
1399 Clouds 14 1010 33 0 2.78 342 20:22 16.06.2020
1400 Clouds 14 1010 33 0 2.78 342 19:58 16.06.2020
1401 Clouds 14 1010 33 0 2.78 342 19:40 16.06.2020
1402 Clouds 14 1012 34 0 2.9 344 19:22 16.06.2020
1403 Clouds 14 1012 34 0 2.9 344 18:56 16.06.2020
1404 Clouds 14 1012 34 0 2.9 344 18:38 16.06.2020
1405 Clouds 13 1014 37 0 2.77 338 18:20 16.06.2020
1406 Clouds 13 1014 37 0 2.77 338 17:55 16.06.2020
1407 Clouds 13 1014 37 0 2.77 338 17:37 16.06.2020
1408 Clouds 12 1016 41 0 2.22 330 17:18 16.06.2020
1409 Clouds 12 1016 41 0 2.22 330 16:55 16.06.2020
1410 Clouds 12 1016 41 0 2.22 330 16:37 16.06.2020
1411 Clouds 10 1018 47 0 1.61 327 16:18 16.06.2020
1412 Clouds 10 1018 47 0 1.61 327 15:55 16.06.2020
1413 Clouds 10 1018 47 0 1.61 327 15:37 16.06.2020
1414 Clouds 9 1019 51 0 1.12 316 15:19 16.06.2020
1415 Clouds 9 1019 51 0 1.12 316 14:42 16.06.2020
1416 Clouds 7 1019 59 0 0.97 317 14:23 16.06.2020
1417 Clouds 7 1019 59 0 0.99 326 13:50 16.06.2020
1418 Clouds 4 1019 69 0 0.98 303 13:27 16.06.2020
1419 Clouds 4 1019 69 0 0.98 303 12:57 16.06.2020
1420 Clouds 4 1019 69 0 0.98 303 12:39 16.06.2020
1421 Clouds 4 1018 68 0 0.63 281 12:21 16.06.2020
1422 Clouds 4 1018 68 0 0.63 281 11:55 16.06.2020
1423 Clouds 4 1018 68 0 0.63 281 11:37 16.06.2020
1424 Clouds 4 1018 68 0 0.38 235 11:19 16.06.2020
1425 Clouds 4 1018 68 0 0.38 235 10:43 16.06.2020
1426 Clouds 5 1018 66 0 0.66 225 10:21 16.06.2020
1427 Clouds 5 1018 66 0 0.66 225 09:58 16.06.2020
1428 Clouds 5 1018 66 0 0.66 225 09:40 16.06.2020
1429 Clouds 5 1018 64 0 0.98 218 09:21 16.06.2020
1430 Clouds 5 1018 68 0 0.67 228 08:45 16.06.2020
1431 Clouds 5 1018 68 0 0.78 228 08:26 16.06.2020
1432 Clouds 5 1018 68 0 0.78 228 07:50 16.06.2020
1433 Clouds 6 1018 67 0 0.76 245 07:27 16.06.2020
1434 Clouds 6 1018 67 0 0.76 245 06:54 16.06.2020
1435 Clouds 6 1019 67 0 0.79 256 06:27 16.06.2020
1436 Clouds 6 1019 67 0 0.79 256 05:39 16.06.2020
1437 Clear 7 1019 66 0 0.44 304 04:39 16.06.2020
1438 Clear 8 1019 61 0 0.55 33 02:59 16.06.2020
1439 Clear 8 1018 60 0 0.97 62 01:59 16.06.2020
1440 Clear 8 1018 60 0 0.97 62 01:30 16.06.2020
1441 Clear 9 1016 55 0 1.53 84 00:45 16.06.2020
1442 Clear 11 1014 46 0 2.54 95 00:21 16.06.2020
1443 Clear 11 1014 46 0 2.54 95 23:43 15.06.2020
1444 Clear 14 1013 34 0 2.21 93 23:23 15.06.2020
1445 Clear 14 1013 34 0 2.21 93 22:55 15.06.2020
1446 Clear 14 1013 34 0 2.21 93 22:37 15.06.2020
1447 Clear 14 1013 32 0 1.18 85 22:18 15.06.2020
1448 Clear 14 1013 32 0 1.18 85 22:18 15.06.2020
1449 Clear 14 1013 32 0 1.18 85 21:55 15.06.2020
1450 Clear 14 1013 32 0 1.18 85 21:37 15.06.2020
1451 Clear 14 1013 32 0 1.18 85 21:37 15.06.2020
1452 Clear 14 1013 32 0 0.73 32 21:19 15.06.2020
1453 Clear 14 1013 32 0 0.82 32 20:55 15.06.2020
1454 Clear 14 1013 32 0 0.82 32 20:37 15.06.2020
1455 Clear 14 1014 32 0 1.03 346 20:19 15.06.2020
1456 Clear 14 1014 32 0 1.03 346 19:55 15.06.2020
1457 Clear 14 1014 32 0 1.03 346 19:37 15.06.2020
1458 Clear 13 1015 34 0 1.31 320 19:18 15.06.2020
1459 Clear 13 1015 34 0 1.31 320 18:44 15.06.2020
1460 Clear 12 1017 37 0 1.47 310 18:22 15.06.2020
1461 Clear 12 1017 37 0 1.47 310 17:59 15.06.2020
1462 Clear 12 1017 37 0 1.47 310 17:41 15.06.2020
1463 Clear 11 1019 41 0 1.56 304 17:20 15.06.2020
1464 Clear 11 1019 41 0 1.56 304 16:58 15.06.2020
1465 Clear 11 1019 41 0 1.56 304 16:40 15.06.2020
1466 Clear 10 1020 46 0 1.61 298 16:18 15.06.2020
1467 Clear 10 1020 46 0 1.61 298 15:56 15.06.2020
1468 Clear 10 1020 46 0 1.61 298 15:36 15.06.2020
1469 Clear 9 1021 51 0 1.35 275 15:18 15.06.2020
1470 Clear 9 1021 51 0 1.35 275 14:41 15.06.2020
1471 Clear 6 1021 62 0 1.17 267 14:20 15.06.2020
1472 Clear 6 1021 62 0 1.17 267 13:59 15.06.2020
1473 Clear 6 1021 62 0 1.17 267 13:39 15.06.2020
1474 Clear 2 1020 80 0 1.09 274 13:20 15.06.2020
1475 Clear 2 1020 80 0 1.09 274 12:55 15.06.2020
1476 Clear 2 1020 80 0 1.09 274 12:36 15.06.2020
1477 Clear 3 1020 78 0 1 283 12:18 15.06.2020
1478 Clear 3 1020 78 0 1 283 11:43 15.06.2020
1479 Clear 3 1019 76 0 0.91 278 11:24 15.06.2020
1480 Clear 3 1019 76 0 0.91 278 10:44 15.06.2020
1481 Clear 4 1019 75 0 0.85 269 10:22 15.06.2020
1482 Clear 4 1019 75 0 0.85 269 09:48 15.06.2020
1483 Clear 4 1019 74 0 0.7 266 09:27 15.06.2020
1484 Clear 4 1019 74 0 0.77 284 08:58 15.06.2020
1485 Clear 4 1019 74 0 0.77 284 08:39 15.06.2020
1486 Clouds 4 1019 75 0 0.58 285 08:20 15.06.2020
1487 Clouds 4 1019 75 0 0.58 285 07:45 15.06.2020
1488 Clouds 5 1019 76 0 0.56 282 07:26 15.06.2020
1489 Clouds 5 1019 76 0 0.56 282 06:48 15.06.2020
1490 Clouds 5 1020 76 0 0.76 305 06:25 15.06.2020
1491 Clouds 5 1020 76 0 0.76 305 05:46 15.06.2020
1492 Clouds 6 1020 75 0 1.05 315 05:25 15.06.2020
1493 Clear 6 1020 74 0 0.99 326 04:20 15.06.2020
1494 Clear 6 1020 74 0 0.99 326 03:41 15.06.2020
1495 Clear 6 1019 73 0 1.21 334 02:53 15.06.2020
1496 Clear 8 1018 65 0 1.44 305 01:53 15.06.2020
1497 Clear 8 1018 65 0 1.44 305 01:32 15.06.2020
1498 Clear 8 1017 60 0 1.55 285 00:58 15.06.2020
1499 Clear 8 1017 60 0 1.55 285 00:39 15.06.2020
1500 Clear 10 1015 52 0 2.58 266 00:20 15.06.2020
1501 Clear 10 1015 52 0 2.58 266 23:46 14.06.2020
1502 Clear 12 1014 42 0 3.76 275 23:24 14.06.2020
1503 Clear 12 1014 42 0 3.76 275 22:58 14.06.2020
1504 Clear 12 1014 42 0 3.76 275 22:39 14.06.2020
1505 Clear 13 1014 38 0 4.2 292 22:20 14.06.2020
1506 Clear 13 1014 38 0 4.2 292 21:57 14.06.2020
1507 Clear 13 1014 38 0 4.2 292 21:57 14.06.2020
1508 Clear 13 1014 38 0 4.2 292 21:38 14.06.2020
1509 Clear 14 1014 36 0 4.44 308 21:19 14.06.2020
1510 Clear 14 1014 36 0 4.44 308 21:19 14.06.2020
1511 Clear 14 1014 36 0 4.44 308 21:19 14.06.2020
1512 Clear 14 1014 36 0 4.44 308 20:58 14.06.2020
1513 Clear 14 1014 36 0 4.44 308 20:38 14.06.2020
1514 Clouds 13 1015 38 0 3.84 327 20:20 14.06.2020
1515 Clouds 13 1015 38 0 3.84 327 19:59 14.06.2020
1516 Clouds 13 1015 38 0 3.84 327 19:38 14.06.2020
1517 Clouds 12 1017 43 0 3.04 339 19:19 14.06.2020
1518 Clouds 12 1017 43 0 3.04 339 18:57 14.06.2020
1519 Clouds 12 1017 43 0 3.04 339 18:57 14.06.2020
1520 Clouds 12 1017 43 0 3.04 339 18:38 14.06.2020
1521 Clouds 10 1019 49 0 2.81 334 18:20 14.06.2020
1522 Clouds 10 1019 49 0 2.81 334 17:57 14.06.2020
1523 Clouds 10 1019 49 0 2.81 334 17:38 14.06.2020
1524 Clouds 8 1021 57 0 2.48 335 17:19 14.06.2020
1525 Clouds 8 1021 57 0 2.48 335 16:41 14.06.2020
1526 Clouds 6 1023 67 0 2.85 341 16:21 14.06.2020
1527 Clouds 6 1023 67 0 2.85 341 15:59 14.06.2020
1528 Clouds 6 1023 67 0 2.85 341 15:40 14.06.2020
1529 Clouds 5 1023 76 0 2.86 347 15:18 14.06.2020
1530 Clouds 5 1023 76 0 2.86 347 14:58 14.06.2020
1531 Clouds 5 1023 76 0 2.86 347 14:40 14.06.2020
1532 Clouds 3 1024 88 0 2.33 356 14:21 14.06.2020
1533 Clouds 3 1024 88 0 2.33 356 13:55 14.06.2020
1534 Clouds 3 1024 88 0 2.33 356 13:37 14.06.2020
1535 Clouds 2 1023 93 0 2.4 4 13:19 14.06.2020
1536 Clouds 2 1023 93 0 2.4 4 12:55 14.06.2020
1537 Clouds 2 1023 93 0 2.4 4 12:37 14.06.2020
1538 Clouds 3 1022 89 0 2.75 4 12:18 14.06.2020
1539 Clouds 3 1022 89 0 2.75 4 11:55 14.06.2020
1540 Clouds 3 1022 89 0 2.75 4 11:37 14.06.2020
1541 Clouds 4 1022 87 0 2.56 358 11:18 14.06.2020
1542 Clouds 4 1022 87 0 2.56 358 10:41 14.06.2020
1543 Clouds 3 1022 90 0 2.34 3 10:19 14.06.2020
1544 Clouds 3 1022 90 0 2.34 3 09:45 14.06.2020
1545 Clouds 3 1022 91 0 2.16 2 09:24 14.06.2020
1546 Clouds 3 1022 91 0 2.16 2 08:44 14.06.2020
1547 Clouds 3 1022 90 0 1.97 8 08:22 14.06.2020
1548 Clouds 3 1022 90 0 1.97 8 08:00 14.06.2020
1549 Clouds 3 1022 90 0 1.97 8 07:41 14.06.2020
1550 Clouds 3 1023 91 0 1.93 13 07:23 14.06.2020
1551 Clear 4 1023 90 0 1.93 22 06:26 14.06.2020
1552 Clear 4 1023 90 0 1.93 22 05:40 14.06.2020
1553 Clear 4 1023 89 0 1.78 30 04:53 14.06.2020
1554 Clear 4 1023 88 0 2.11 34 04:28 14.06.2020
1555 Clear 5 1022 85 0 2.25 30 02:54 14.06.2020
1556 Clouds 6 1021 80 0 2.86 25 02:23 14.06.2020
1557 Clouds 6 1021 80 0 2.86 25 01:36 14.06.2020
1558 Clouds 6 1019 75 0 3.54 16 00:55 14.06.2020
1559 Clouds 6 1019 75 0 3.54 16 00:36 14.06.2020
1560 Clouds 7 1018 68 0 4.74 17 00:18 14.06.2020
1561 Clouds 7 1018 68 0 4.74 17 23:41 13.06.2020
1562 Clouds 9 1016 57 0 5.78 16 23:23 13.06.2020
1563 Clouds 9 1016 57 0 5.78 16 22:56 13.06.2020
1564 Clouds 9 1016 57 0 5.78 16 22:37 13.06.2020
1565 Clouds 10 1016 52 0 5.74 21 22:18 13.06.2020
1566 Clouds 10 1016 52 0 5.74 21 21:43 13.06.2020
1567 Clouds 10 1015 51 0 5.77 24 21:25 13.06.2020
1568 -273 0 0 0 0 0 20:59 13.06.2020
1569 Clouds 11 1016 50 0 5.75 27 20:41 13.06.2020
1570 Clear 11 1016 48 0 5.75 30 20:19 13.06.2020
1571 Clear 11 1016 48 0 5.75 30 19:42 13.06.2020
1572 Clear 11 1017 47 0 5.42 25 19:21 13.06.2020
1573 Clear 11 1017 47 0 5.42 25 18:59 13.06.2020
1574 Clear 11 1017 47 0 5.42 25 18:41 13.06.2020
1575 Clear 11 1019 46 0 4.52 26 18:21 13.06.2020
1576 Clear 11 1019 46 0 4.52 26 18:21 13.06.2020
1577 Clear 11 1019 46 0 4.52 26 17:59 13.06.2020
1578 Clear 11 1019 46 0 4.52 26 17:41 13.06.2020
1579 Clear 10 1020 48 0 3.2 38 17:22 13.06.2020
1580 Clear 10 1020 48 0 3.2 38 16:56 13.06.2020
1581 Clear 10 1020 48 0 3.2 38 16:38 13.06.2020
1582 Clear 9 1021 49 0 2.38 52 16:19 13.06.2020
1583 Clear 9 1021 49 0 2.38 52 15:44 13.06.2020
1584 Clear 8 1021 50 0 1.57 57 15:26 13.06.2020
1585 Clear 8 1021 50 0 1.57 57 14:58 13.06.2020
1586 Clear 8 1021 50 0 1.57 57 14:39 13.06.2020
1587 Clouds 6 1021 59 0 1.04 72 14:20 13.06.2020
1588 Clouds 6 1021 59 0 1.04 72 13:44 13.06.2020
1589 Clouds 2 1020 76 0 0.58 77 13:26 13.06.2020
1590 Clouds 2 1020 76 0 0.58 77 12:45 13.06.2020
1591 Clouds 2 1019 74 0 0.42 110 12:27 13.06.2020
1592 Clouds 2 1019 74 0 0.42 110 11:59 13.06.2020
1593 Clouds 2 1019 74 0 0.42 110 11:40 13.06.2020
1594 Clouds 3 1018 70 0 0.75 166 11:19 13.06.2020
1595 Clouds 3 1018 70 0 0.75 166 10:58 13.06.2020
1596 Clouds 3 1018 70 0 0.75 166 10:39 13.06.2020
1597 Clouds 3 1017 68 0 0.96 191 10:20 13.06.2020
1598 Clouds 3 1017 68 0 0.96 191 09:45 13.06.2020
1599 Clouds 3 1017 67 0 0.64 218 09:27 13.06.2020
1600 Clouds 3 1017 67 0 0.64 218 08:56 13.06.2020
1601 Clouds 3 1017 67 0 0.64 218 08:37 13.06.2020
1602 Clouds 4 1016 65 0 0.73 251 08:19 13.06.2020
1603 Clouds 4 1016 65 0 0.73 251 07:42 13.06.2020
1604 Clouds 4 1016 63 0 0.94 258 07:24 13.06.2020
1605 Clouds 4 1016 63 0 0.94 258 06:44 13.06.2020
1606 Clouds 5 1016 59 0 1.27 251 06:25 13.06.2020
1607 Clouds 6 1016 56 0 1.61 246 05:28 13.06.2020
1608 Clouds 6 1016 56 0 1.61 246 04:35 13.06.2020
1609 Clouds 7 1015 54 0 1.92 237 03:33 13.06.2020
1610 Clouds 7 1014 52 0 2.09 236 02:39 13.06.2020
1611 Clouds 8 1013 49 0 2.65 235 01:48 13.06.2020
1612 Clouds 9 1011 47 0 1.97 219 01:22 13.06.2020
1613 Clouds 9 1011 47 0 1.97 219 00:53 13.06.2020
1614 Clouds 10 1010 43 0 2.26 223 00:27 13.06.2020
1615 Clouds 10 1010 43 0 2.26 223 23:58 12.06.2020
1616 Clouds 10 1010 43 0 2.26 223 23:38 12.06.2020
1617 Clouds 14 1008 30 0 2.21 271 23:18 12.06.2020
1618 Clouds 14 1008 30 0 2.21 271 22:42 12.06.2020
1619 Clouds 15 1008 29 0 1.86 300 22:19 12.06.2020
1620 Clouds 15 1008 29 0 1.86 300 21:59 12.06.2020
1621 Clouds 15 1008 29 0 1.86 300 21:40 12.06.2020
1622 Clouds 15 1008 29 0 2.11 294 21:21 12.06.2020
1623 Clouds 15 1008 29 0 2.11 294 20:56 12.06.2020
1624 Clouds 15 1008 29 0 2.11 294 20:37 12.06.2020
1625 Clouds 15 1009 30 0 2.66 299 20:19 12.06.2020
1626 Clouds 15 1009 30 0 2.66 299 19:40 12.06.2020
1627 Clouds 14 1011 33 0 2.56 297 19:21 12.06.2020
1628 Clouds 14 1011 33 0 2.56 297 18:58 12.06.2020
1629 Clouds 14 1011 33 0 2.56 297 18:37 12.06.2020
1630 Clouds 13 1013 37 0 2.07 290 18:18 12.06.2020
1631 Clouds 13 1013 37 0 2.07 290 17:43 12.06.2020
1632 Clouds 11 1015 42 0 2.13 285 17:25 12.06.2020
1633 Clouds 11 1015 42 0 2.13 285 16:47 12.06.2020
1634 Clouds 9 1016 49 0 2.15 289 16:22 12.06.2020
1635 Clouds 9 1016 49 0 2.15 289 15:53 12.06.2020
1636 Clear 7 1017 56 0 2.15 286 15:29 12.06.2020
1637 Clear 7 1017 56 0 2.15 286 14:59 12.06.2020
1638 Clear 7 1017 56 0 2.15 286 14:41 12.06.2020
1639 Clouds 5 1017 65 0 2 278 14:22 12.06.2020
1640 Clouds 5 1018 65 0 2.09 273 13:56 12.06.2020
1641 Clouds 5 1018 65 0 2.09 273 13:37 12.06.2020
1642 Clouds 2 1017 79 0 1.92 262 13:18 12.06.2020
1643 Clouds 2 1017 79 0 1.92 262 12:39 12.06.2020
1644 Clouds 2 1016 75 0 2.13 255 12:19 12.06.2020
1645 Clouds 2 1016 75 0 2.13 255 11:44 12.06.2020
1646 Clouds 3 1016 72 0 2.22 252 11:23 12.06.2020
1647 Clouds 3 1016 72 0 2.22 252 10:56 12.06.2020
1648 Clouds 3 1016 72 0 2.22 252 10:38 12.06.2020
1649 Clouds 3 1016 69 0 2.21 256 10:19 12.06.2020
1650 Clouds 3 1016 69 0 2.21 256 09:44 12.06.2020
1651 Clouds 4 1015 66 0 2.23 258 09:20 12.06.2020
1652 Clouds 4 1015 66 0 2.23 258 08:41 12.06.2020
1653 Clouds 5 1015 62 0 2.33 253 08:23 12.06.2020
1654 Clouds 5 1015 62 0 2.33 253 07:42 12.06.2020
1655 Clouds 5 1015 58 0 2.68 246 07:24 12.06.2020
1656 Clouds 5 1015 58 0 2.68 246 06:43 12.06.2020
1657 Clouds 6 1015 55 0 2.81 242 06:22 12.06.2020
1658 Clouds 6 1015 55 0 2.81 242 05:49 12.06.2020
1659 Clouds 6 1015 54 0 2.05 251 05:24 12.06.2020
1660 Clear 7 1015 51 0 2.19 249 03:55 12.06.2020
1661 Clear 7 1014 49 0 2.05 251 02:43 12.06.2020
1662 Clear 8 1012 46 0 2.94 251 01:47 12.06.2020
1663 Clear 9 1011 42 0 3.46 252 01:20 12.06.2020
1664 Clear 9 1011 42 0 3.46 252 00:40 12.06.2020
1665 Clear 11 1010 36 0 3.66 281 00:21 12.06.2020
1666 Clear 11 1010 36 0 3.66 281 23:58 11.06.2020
1667 Clear 11 1010 36 0 3.66 281 23:39 11.06.2020
1668 Clear 15 1008 27 0 5.62 311 23:20 11.06.2020
1669 Clear 15 1008 27 0 5.62 311 22:56 11.06.2020
1670 Clear 15 1008 27 0 5.62 311 22:38 11.06.2020
1671 Clear 15 1008 27 0 5.62 311 22:38 11.06.2020
1672 Clear 16 1008 24 0 6.24 323 22:19 11.06.2020
1673 Clear 16 1008 24 0 6.24 323 21:43 11.06.2020
1674 Clear 17 1008 23 0 6.35 324 21:20 11.06.2020
1675 Clear 17 1008 23 0 6.69 331 20:59 11.06.2020
1676 Clear 17 1008 23 0 6.69 331 20:41 11.06.2020
1677 Clear 16 1009 24 0 5.27 339 20:21 11.06.2020
1678 Clear 16 1009 24 0 5.27 339 19:44 11.06.2020
1679 Clear 15 1011 28 0 3.7 338 19:23 11.06.2020
1680 Clear 15 1011 28 0 3.7 338 18:57 11.06.2020
1681 Clear 15 1011 28 0 3.7 338 18:39 11.06.2020
1682 Clear 14 1013 30 0 2.88 318 18:20 11.06.2020
1683 Clear 14 1013 30 0 2.88 318 17:56 11.06.2020
1684 Clear 14 1013 30 0 2.88 318 17:37 11.06.2020
1685 Clear 13 1015 33 0 2.34 306 17:19 11.06.2020
1686 Clear 13 1015 33 0 2.34 306 16:45 11.06.2020
1687 Clear 13 1015 33 0 2.34 306 16:45 11.06.2020
1688 Clear 11 1017 36 0 1.96 297 16:27 11.06.2020
1689 Clear 11 1017 36 0 1.96 297 15:59 11.06.2020
1690 Clear 11 1017 36 0 1.96 297 15:41 11.06.2020
1691 Clear 9 1018 40 0 1.58 292 15:23 11.06.2020
1692 Clear 9 1018 40 0 1.58 292 14:55 11.06.2020
1693 Clear 9 1018 40 0 1.58 292 14:36 11.06.2020
1694 Clouds 6 1018 53 0 1.28 293 14:18 11.06.2020
1695 Clouds 6 1018 53 0 1.28 293 13:54 11.06.2020
1696 Clouds 6 1018 53 0 1.28 293 13:36 11.06.2020
1697 Clouds 2 1017 64 0 1.23 292 13:18 11.06.2020
1698 Clouds 2 1017 64 0 1.23 292 12:39 11.06.2020
1699 Clouds 3 1016 62 0 1.15 291 12:20 11.06.2020
1700 Clouds 3 1016 62 0 1.15 291 11:59 11.06.2020
1701 Clouds 3 1016 62 0 1.15 291 11:40 11.06.2020
1702 Clouds 3 1016 60 0 1.22 284 11:22 11.06.2020
1703 Clouds 3 1016 60 0 1.22 284 10:57 11.06.2020
1704 Clouds 3 1016 60 0 1.22 284 10:39 11.06.2020
1705 Clouds 3 1016 60 0 1.22 284 10:39 11.06.2020
1706 Clouds 3 1016 60 0 1.23 280 10:18 11.06.2020
1707 Clouds 3 1016 60 0 1.23 280 09:43 11.06.2020
1708 Clouds 4 1016 58 0 1.18 250 09:25 11.06.2020
1709 Clouds 4 1016 58 0 1.18 250 08:44 11.06.2020
1710 Clouds 5 1016 56 0 1.38 235 08:21 11.06.2020
1711 Clouds 5 1016 56 0 1.38 235 07:59 11.06.2020
1712 Clouds 5 1016 56 0 1.38 235 07:41 11.06.2020
1713 Clouds 5 1016 55 0 1.47 235 07:22 11.06.2020
1714 Clouds 5 1016 55 0 1.47 235 06:31 11.06.2020
1715 Clouds 6 1016 54 0 1.76 239 05:50 11.06.2020
1716 Clouds 7 1016 50 0 2 238 03:59 11.06.2020
1717 Clouds 7 1015 49 0 1.88 242 03:25 11.06.2020
1718 Clouds 7 1015 49 0 1.88 242 02:45 11.06.2020
1719 Clouds 8 1013 48 0 1.67 234 01:56 11.06.2020
1720 Clouds 8 1013 48 0 1.67 234 01:34 11.06.2020
1721 Clouds 9 1012 45 0 1.91 220 00:52 11.06.2020
1722 Clouds 9 1012 45 0 1.91 220 00:32 11.06.2020
1723 Clouds 10 1011 41 0 3.07 222 23:56 10.06.2020
1724 Clouds 10 1011 41 0 3.07 222 23:56 10.06.2020
1725 Clouds 10 1011 41 0 3.07 222 23:37 10.06.2020
1726 Clouds 14 1010 29 0 2.17 252 23:18 10.06.2020
1727 Clouds 14 1010 29 0 2.17 252 22:40 10.06.2020
1728 Clouds 15 1010 27 0 1.29 314 22:22 10.06.2020
1729 Clouds 15 1010 27 0 1.29 314 21:59 10.06.2020
1730 Clouds 15 1010 27 0 1.29 314 21:41 10.06.2020
1731 Clouds 15 1010 27 0 1.8 345 21:19 10.06.2020
1732 Clouds 15 1010 27 0 1.8 345 20:58 10.06.2020
1733 Clouds 15 1010 27 0 1.8 345 20:40 10.06.2020
1734 Clouds 15 1011 27 0 1.95 332 20:22 10.06.2020
1735 Clouds 15 1011 27 0 1.95 332 19:59 10.06.2020
1736 Clouds 15 1011 27 0 1.95 332 19:38 10.06.2020
1737 Clouds 14 1012 29 0 1.81 321 19:18 10.06.2020
1738 Clouds 14 1012 29 0 1.81 321 18:54 10.06.2020
1739 Clouds 14 1012 29 0 1.81 321 18:36 10.06.2020
1740 Clouds 13 1014 32 0 1.85 313 18:18 10.06.2020
1741 Clouds 13 1014 32 0 1.85 313 17:41 10.06.2020
1742 Clouds 11 1016 36 0 1.91 312 17:21 10.06.2020
1743 Clouds 11 1016 36 0 1.91 312 16:59 10.06.2020
1744 Clouds 11 1016 36 0 1.91 312 16:41 10.06.2020
1745 Clouds 10 1018 41 0 1.8 302 16:22 10.06.2020
1746 Clouds 10 1018 41 0 1.8 302 15:59 10.06.2020
1747 Clouds 10 1018 41 0 1.8 302 15:38 10.06.2020
1748 Clouds 8 1018 46 0 1.43 287 15:20 10.06.2020
1749 Clouds 8 1018 46 0 1.43 287 14:41 10.06.2020
1750 Clouds 5 1018 59 0 1.2 277 14:22 10.06.2020
1751 Clouds 5 1018 59 0 1.2 277 13:58 10.06.2020
1752 Clouds 5 1018 59 0 1.2 277 13:39 10.06.2020
1753 Clouds 1 1017 73 0 1.22 284 13:21 10.06.2020
1754 Clouds 1 1017 73 0 1.22 284 12:42 10.06.2020
1755 Clouds 1 1017 72 0 1.33 288 12:20 10.06.2020
1756 Clouds 1 1017 72 0 1.33 288 11:56 10.06.2020
1757 Clouds 1 1017 72 0 1.33 288 11:38 10.06.2020
1758 Clouds 2 1017 70 0 1.31 281 11:19 10.06.2020
1759 Clouds 2 1017 70 0 1.31 281 10:55 10.06.2020
1760 Clouds 2 1017 70 0 1.31 281 10:36 10.06.2020
1761 Clear 2 1017 67 0 1.4 273 10:18 10.06.2020
1762 Clear 2 1017 67 0 1.4 273 09:40 10.06.2020
1763 Clear 3 1017 65 0 1.45 268 09:22 10.06.2020
1764 Clouds 3 1017 63 0 1.52 258 08:44 10.06.2020
1765 Clouds 3 1016 62 0 1.41 256 08:23 10.06.2020
1766 Clouds 3 1016 62 0 1.41 256 07:54 10.06.2020
1767 Clouds 3 1016 62 0 1.41 256 07:36 10.06.2020
1768 Clouds 4 1016 60 0 1.37 266 07:18 10.06.2020
1769 Clouds 4 1016 60 0 1.37 266 06:44 10.06.2020
1770 Clouds 4 1016 58 0 1.41 280 06:19 10.06.2020
1771 Clouds 4 1016 58 0 1.41 280 05:55 10.06.2020
1772 Clouds 5 1016 54 0 1.56 269 05:23 10.06.2020
1773 Clouds 5 1016 54 0 1.56 269 04:32 10.06.2020
1774 Clouds 6 1016 50 0 1.83 244 02:50 10.06.2020
1775 Clouds 7 1015 48 0 2.22 245 01:54 10.06.2020
1776 Clouds 7 1015 48 0 2.22 245 01:35 10.06.2020
1777 Clouds 8 1014 45 0 2.27 248 00:39 10.06.2020
1778 Clouds 9 1012 41 0 2.66 252 00:21 10.06.2020
1779 Clouds 9 1012 41 0 2.66 252 23:55 09.06.2020
1780 Clouds 9 1012 41 0 2.66 252 23:37 09.06.2020
1781 Clouds 13 1011 31 0 3.38 257 23:18 09.06.2020
1782 Clouds 13 1011 31 0 3.38 257 22:55 09.06.2020
1783 Clouds 13 1011 31 0 3.38 257 22:36 09.06.2020
1784 Clouds 14 1011 27 0 3.22 259 22:18 09.06.2020
1785 Clouds 14 1011 27 0 3.22 259 21:55 09.06.2020
1786 Clouds 14 1011 27 0 3.22 259 21:36 09.06.2020
1787 Clouds 14 1012 26 0 2.11 268 21:18 09.06.2020
1788 Clouds 14 1012 26 0 2.11 268 20:56 09.06.2020
1789 Clouds 14 1012 26 0 2.11 268 20:37 09.06.2020
1790 Clouds 14 1013 26 0 1.87 276 20:18 09.06.2020
1791 Clouds 14 1013 26 0 1.87 276 19:55 09.06.2020
1792 Clouds 14 1013 26 0 1.87 276 19:36 09.06.2020
1793 Clouds 13 1015 27 0 1.76 282 19:18 09.06.2020
1794 Clouds 13 1015 27 0 1.76 282 18:44 09.06.2020
1795 Clouds 12 1016 29 0 1.92 288 18:25 09.06.2020
1796 Clouds 12 1016 29 0 1.92 288 17:57 09.06.2020
1797 Clouds 12 1016 29 0 1.92 288 17:39 09.06.2020
1798 Clouds 11 1018 32 0 2.12 290 17:21 09.06.2020
1799 Clouds 11 1018 32 0 2.12 290 16:55 09.06.2020
1800 Clouds 11 1018 32 0 2.12 290 16:36 09.06.2020
1801 Clouds 10 1020 36 0 1.99 272 16:18 09.06.2020
1802 Clouds 10 1020 36 0 1.99 272 15:40 09.06.2020
1803 Clear 8 1021 42 0 1.98 251 15:21 09.06.2020
1804 Clear 8 1021 42 0 1.98 251 14:57 09.06.2020
1805 Clear 8 1021 42 0 1.98 251 14:38 09.06.2020
1806 Clouds 5 1021 54 0 1.74 249 14:19 09.06.2020
1807 Clouds 5 1021 54 0 1.74 249 13:54 09.06.2020
1808 Clouds 5 1021 54 0 1.74 249 13:36 09.06.2020
1809 Clouds 5 1021 54 0 1.74 249 13:36 09.06.2020
1810 Clouds 0 1020 68 0 1.59 253 13:18 09.06.2020
1811 Clouds 0 1020 68 0 1.59 253 12:41 09.06.2020
1812 Clouds 1 1019 69 0 1.56 261 12:20 09.06.2020
1813 Clouds 1 1019 69 0 1.56 261 11:56 09.06.2020
1814 Clouds 1 1019 69 0 1.56 261 11:38 09.06.2020
1815 Clouds 1 1018 68 0 1.54 256 11:19 09.06.2020
1816 Clouds 1 1018 68 0 1.54 256 10:54 09.06.2020
1817 Clouds 1 1018 68 0 1.54 256 10:36 09.06.2020
1818 Clouds 1 1018 68 0 1.55 254 10:18 09.06.2020
1819 Clouds 1 1018 68 0 1.55 254 09:40 09.06.2020
1820 Clouds 2 1019 66 0 1.56 262 09:19 09.06.2020
1821 Clouds 2 1018 66 0 1.44 268 08:40 09.06.2020
1822 Clear 2 1019 64 0 1.49 274 08:21 09.06.2020
1823 Clear 2 1019 64 0 1.49 274 07:59 09.06.2020
1824 Clear 2 1019 64 0 1.49 274 07:36 09.06.2020
1825 Clear 3 1019 62 0 1.54 277 07:18 09.06.2020
1826 Clear 3 1019 62 0 1.54 277 06:51 09.06.2020
1827 Clear 3 1019 60 0 1.5 274 06:27 09.06.2020
1828 Clouds 4 1019 59 0 1.28 277 04:39 09.06.2020
1829 Clear 5 1018 55 0 1.28 287 02:52 09.06.2020
1830 Clouds 6 1018 52 0 1.51 289 01:40 09.06.2020
1831 Clouds 7 1017 50 0 1.07 262 01:19 09.06.2020
1832 Clouds 7 1017 50 0 1.07 262 00:44 09.06.2020
1833 Clouds 8 1015 44 0 1.84 247 00:20 09.06.2020
1834 Clouds 8 1015 44 0 1.84 247 23:54 08.06.2020
1835 Clouds 8 1015 44 0 1.84 247 23:36 08.06.2020
1836 Clouds 12 1014 34 0 4.03 250 23:18 08.06.2020
1837 Clouds 12 1014 34 0 4.03 250 22:41 08.06.2020
1838 Clouds 13 1013 31 0 5.69 253 22:21 08.06.2020
1839 Clouds 13 1013 31 0 5.69 253 21:58 08.06.2020
1840 Clouds 13 1013 31 0 5.69 253 21:39 08.06.2020
1841 Clouds 14 1014 28 0 6.5 247 21:21 08.06.2020
1842 Clouds 14 1014 28 0 6.39 247 20:56 08.06.2020
1843 Clouds 14 1014 28 0 6.39 247 20:37 08.06.2020
1844 Clouds 14 1015 27 0 6.81 249 20:19 08.06.2020
1845 Clouds 14 1015 27 0 6.81 249 19:44 08.06.2020
1846 Clouds 14 1016 27 0 6.07 254 19:22 08.06.2020
1847 Clouds 14 1016 27 0 6.07 254 18:59 08.06.2020
1848 Clouds 14 1016 27 0 6.07 254 18:40 08.06.2020
1849 Clouds 13 1018 28 0 4.66 262 18:18 08.06.2020
1850 Clouds 13 1018 28 0 4.66 262 17:55 08.06.2020
1851 Clouds 13 1018 28 0 4.66 262 17:37 08.06.2020
1852 Clouds 11 1020 33 0 3.59 270 17:18 08.06.2020
1853 Clouds 11 1020 33 0 3.59 270 16:44 08.06.2020
1854 Clouds 9 1021 41 0 2.94 277 16:23 08.06.2020
1855 Clouds 9 1021 41 0 2.94 277 15:46 08.06.2020
1856 Clouds 7 1022 51 0 2.35 271 15:23 08.06.2020
1857 Clouds 7 1022 51 0 2.35 271 14:59 08.06.2020
1858 Clouds 7 1022 51 0 2.35 271 14:41 08.06.2020
1859 Clouds 4 1023 64 0 2.2 250 14:22 08.06.2020
1860 Clouds 5 1023 64 0 2.28 248 13:56 08.06.2020
1861 Clouds 5 1023 64 0 2.28 248 13:38 08.06.2020
1862 Clouds 1 1022 80 0 1.88 260 13:19 08.06.2020
1863 Clouds 1 1022 80 0 1.88 260 12:40 08.06.2020
1864 Clouds 1 1021 81 0 1.93 259 12:19 08.06.2020
1865 Clouds 1 1021 81 0 1.93 259 11:42 08.06.2020
1866 Clouds 2 1020 78 0 1.96 262 11:24 08.06.2020
1867 Clouds 2 1020 78 0 1.96 262 10:59 08.06.2020
1868 Clouds 2 1020 78 0 1.96 262 10:40 08.06.2020
1869 Clouds 2 1020 78 0 1.95 265 10:21 08.06.2020
1870 Clouds 2 1020 78 0 1.95 265 09:59 08.06.2020
1871 Clouds 2 1020 78 0 1.95 265 09:41 08.06.2020
1872 Clouds 3 1020 75 0 1.9 273 09:23 08.06.2020
1873 Clouds 3 1020 75 0 1.9 273 08:48 08.06.2020
1874 Clouds 3 1020 74 0 1.63 271 08:23 08.06.2020
1875 Clouds 3 1020 74 0 1.63 271 07:48 08.06.2020
1876 Clouds 4 1020 72 0 1.51 271 07:24 08.06.2020
1877 Clouds 4 1020 72 0 1.51 271 06:54 08.06.2020
1878 Clouds 4 1020 72 0 1.51 271 06:36 08.06.2020
1879 Clouds 4 1020 70 0 1.38 280 05:54 08.06.2020
1880 Clouds 5 1020 67 0 1.45 279 04:35 08.06.2020
1881 Clouds 5 1020 67 0 1.45 279 04:35 08.06.2020
1882 Clouds 6 1019 62 0 2 270 02:56 08.06.2020
1883 Clear 7 1019 59 0 2.1 260 02:25 08.06.2020
1884 Clear 7 1019 59 0 2.1 260 01:40 08.06.2020
1885 Clear 7 1017 55 0 2.21 250 00:41 08.06.2020
1886 Clear 9 1016 50 0 2.9 251 00:19 08.06.2020
1887 Clear 9 1016 50 0 2.9 251 23:38 07.06.2020
1888 Clear 11 1014 40 0 6.39 258 23:18 07.06.2020
1889 Clear 11 1014 40 0 6.39 258 22:55 07.06.2020
1890 Clear 11 1014 40 0 6.39 258 22:36 07.06.2020
1891 Clear 13 1013 37 0 6.76 261 22:18 07.06.2020
1892 Clear 13 1013 37 0 6.76 261 21:57 07.06.2020
1893 Clear 13 1013 37 0 6.76 261 21:36 07.06.2020
1894 Clear 13 1013 37 0 6.76 261 21:36 07.06.2020
1895 Clear 13 1014 35 0 7.58 261 21:18 07.06.2020
1896 Clear 13 1014 35 0 7.58 261 21:18 07.06.2020
1897 Clouds 13 1014 35 0 7.77 264 20:39 07.06.2020
1898 Clouds 13 1015 35 0 7.67 266 20:20 07.06.2020
1899 Clouds 13 1015 35 0 7.67 266 19:57 07.06.2020
1900 Clouds 13 1015 35 0 7.67 266 19:38 07.06.2020
1901 Clouds 13 1016 35 0 6.62 267 19:19 07.06.2020
1902 Clouds 13 1016 35 0 6.62 267 18:59 07.06.2020
1903 Clouds 13 1016 35 0 6.62 267 18:38 07.06.2020
1904 Clouds 12 1018 36 0 5.65 268 18:19 07.06.2020
1905 Clouds 12 1018 36 0 5.65 268 17:57 07.06.2020
1906 Clouds 12 1018 36 0 5.65 268 17:38 07.06.2020
1907 Clouds 10 1020 44 0 3.39 279 17:19 07.06.2020
1908 Clouds 10 1020 44 0 3.39 279 16:42 07.06.2020
1909 Clouds 7 1022 53 0 3.31 286 16:21 07.06.2020
1910 Clouds 7 1022 53 0 3.31 286 15:42 07.06.2020
1911 Clouds 5 1023 61 0 2.9 289 15:22 07.06.2020
1912 Clouds 5 1023 61 0 2.9 289 14:41 07.06.2020
1913 Clouds 3 1024 73 0 2.17 281 14:22 07.06.2020
1914 Clouds 3 1024 73 0 2.06 278 13:49 07.06.2020
1915 Clouds 0 1023 89 0 2.04 277 13:22 07.06.2020
1916 Clouds 0 1023 89 0 2.04 277 12:57 07.06.2020
1917 Clouds 0 1023 89 0 2.04 277 12:39 07.06.2020
1918 Clouds 0 1023 89 0 2.04 277 12:39 07.06.2020
1919 Clouds 0 1023 89 0 2.05 279 12:20 07.06.2020
1920 Clouds 0 1023 89 0 2.05 279 11:55 07.06.2020
1921 Clouds 0 1023 89 0 2.05 279 11:36 07.06.2020
1922 Clouds 0 1022 88 0 2.05 282 11:18 07.06.2020
1923 Clouds 0 1022 88 0 2.05 282 10:45 07.06.2020
1924 Clouds 1 1022 85 0 2.08 282 10:21 07.06.2020
1925 Clouds 1 1022 85 0 2.08 282 09:59 07.06.2020
1926 Clouds 1 1022 85 0 2.08 282 09:39 07.06.2020
1927 Clouds 1 1022 85 0 2.08 282 09:39 07.06.2020
1928 Clouds 1 1021 82 0 2.18 286 09:20 07.06.2020
1929 Clouds 1 1021 82 0 2.18 286 08:58 07.06.2020
1930 Clouds 1 1021 82 0 2.18 286 08:39 07.06.2020
1931 Clouds 2 1021 79 0 2.27 283 08:21 07.06.2020
1932 Clouds 2 1021 79 0 2.27 283 08:21 07.06.2020
1933 Clouds 2 1021 79 0 2.27 283 07:39 07.06.2020
1934 Clouds 3 1021 76 0 2.28 285 06:55 07.06.2020
1935 Clouds 3 1021 74 0 2.07 288 05:54 07.06.2020
1936 Clouds 4 1020 68 0 2.23 252 04:22 07.06.2020
1937 Clouds 4 1020 68 0 2.23 252 03:48 07.06.2020
1938 Clouds 5 1018 63 0 2.87 255 02:19 07.06.2020
1939 Clouds 6 1017 59 0 3.17 261 01:26 07.06.2020
1940 Clouds 6 1017 59 0 3.17 261 00:48 07.06.2020
1941 Clouds 8 1015 53 0 4.17 264 00:21 07.06.2020
1942 Clouds 8 1015 53 0 4.17 264 23:59 06.06.2020
1943 Clouds 8 1015 53 0 4.17 264 23:38 06.06.2020
1944 Clouds 11 1013 42 0 7.43 270 23:20 06.06.2020
1945 Clouds 11 1013 42 0 7.43 270 22:57 06.06.2020
1946 Clouds 11 1013 42 0 7.43 270 22:39 06.06.2020
1947 Clear 12 1013 38 0 8.41 272 22:19 06.06.2020
1948 Clear 12 1013 38 0 8.41 272 21:56 06.06.2020
1949 Clear 12 1013 38 0 8.41 272 21:37 06.06.2020
1950 Clouds 12 1013 36 0 8.5 271 21:19 06.06.2020
1951 Clouds 12 1013 36 0 8.5 271 20:40 06.06.2020
1952 Clouds 13 1014 36 0 8.94 267 20:20 06.06.2020
1953 Clouds 13 1014 36 0 8.94 267 19:58 06.06.2020
1954 Clouds 13 1014 36 0 8.94 267 19:40 06.06.2020
1955 Clouds 13 1016 36 0 9.13 270 19:21 06.06.2020
1956 Clouds 13 1016 36 0 9.13 270 18:56 06.06.2020
1957 Clouds 13 1016 36 0 9.13 270 18:37 06.06.2020
1958 Clouds 11 1018 41 0 6.03 279 18:18 06.06.2020
1959 Clouds 11 1018 41 0 6.03 279 17:43 06.06.2020
1960 Clouds 9 1020 47 0 4.31 291 17:20 06.06.2020
1961 Clouds 9 1020 47 0 4.31 291 16:56 06.06.2020
1962 Clouds 9 1020 47 0 4.31 291 16:38 06.06.2020
1963 Clouds 7 1021 53 0 3.09 288 16:20 06.06.2020
1964 Clouds 7 1021 53 0 3.09 288 15:44 06.06.2020
1965 Clouds 5 1022 58 0 2.34 290 15:20 06.06.2020
1966 Clouds 5 1022 58 0 2.34 290 14:58 06.06.2020
1967 Clouds 5 1022 58 0 2.34 290 14:38 06.06.2020
1968 Clouds 3 1023 68 0 1.99 291 14:19 06.06.2020
1969 Clouds 3 1023 68 0 2.1 292 13:47 06.06.2020
1970 Clouds 1 1022 80 0 1.86 281 13:19 06.06.2020
1971 Clouds 1 1022 80 0 1.86 281 12:57 06.06.2020
1972 Clouds 1 1022 80 0 1.86 281 12:57 06.06.2020
1973 Clouds 1 1022 80 0 1.86 281 12:39 06.06.2020
1974 Clouds 1 1021 78 0 2 273 12:19 06.06.2020
1975 Clouds 1 1021 78 0 2 273 11:54 06.06.2020
1976 Clouds 1 1021 78 0 2 273 11:36 06.06.2020
1977 Clouds 1 1021 77 0 2.08 279 11:18 06.06.2020
1978 Clouds 1 1021 77 0 2.08 279 10:55 06.06.2020
1979 Clouds 1 1021 77 0 2.08 279 10:36 06.06.2020
1980 Clouds 1 1021 76 0 2.25 273 10:18 06.06.2020
1981 Clouds 1 1021 76 0 2.25 273 09:43 06.06.2020
1982 Clouds 1 1020 71 0 2.06 286 09:24 06.06.2020
1983 Clouds 1 1020 71 0 2.06 286 08:48 06.06.2020
1984 Clouds 2 1021 66 0 2.57 280 08:25 06.06.2020
1985 Clouds 2 1021 66 0 2.57 280 07:57 06.06.2020
1986 Clouds 2 1021 66 0 2.57 280 07:39 06.06.2020
1987 Clouds 2 1021 65 0 2.28 284 07:20 06.06.2020
1988 Clouds 2 1021 65 0 2.28 284 06:45 06.06.2020
1989 Clouds 3 1021 65 0 2.02 292 06:26 06.06.2020
1990 Clouds 3 1021 65 0 2.02 292 05:44 06.06.2020
1991 Clouds 3 1021 63 0 1.66 288 05:24 06.06.2020
1992 Clouds 3 1020 61 0 1.98 265 04:24 06.06.2020
1993 Clouds 4 1020 58 0 2.92 259 02:36 06.06.2020
1994 Clouds 6 1017 54 0 3.06 248 01:24 06.06.2020
1995 Clouds 6 1017 54 0 3.06 248 00:59 06.06.2020
1996 Clouds 6 1017 54 0 3.06 248 00:41 06.06.2020
1997 Clouds 7 1015 49 0 4.65 275 00:22 06.06.2020
1998 Clouds 7 1015 49 0 4.65 275 23:40 05.06.2020
1999 Clouds 10 1014 39 0 8.2 281 23:21 05.06.2020
2000 Clouds 10 1014 39 0 8.2 281 22:58 05.06.2020
2001 Clouds 10 1014 39 0 8.2 281 22:40 05.06.2020
2002 Clouds 11 1013 34 0 10.34 287 22:22 05.06.2020
2003 Clouds 11 1013 34 0 10.34 287 21:55 05.06.2020
2004 Clouds 11 1013 34 0 10.34 287 21:37 05.06.2020
2005 Clouds 12 1014 32 0 10.81 284 21:18 05.06.2020
2006 Clouds 12 1014 32 0 10.81 284 20:45 05.06.2020
2007 Clouds 12 1014 32 0 11.8 282 20:23 05.06.2020
2008 Clouds 12 1014 32 0 11.8 282 19:59 05.06.2020
2009 Clouds 12 1014 32 0 11.8 282 19:39 05.06.2020
2010 Clouds 12 1016 31 0 11.68 278 19:21 05.06.2020
2011 Clouds 12 1016 31 0 11.68 278 18:40 05.06.2020
2012 Clear 12 1017 30 0 11.47 279 18:21 05.06.2020
2013 Clear 12 1017 30 0 11.47 279 18:21 05.06.2020
2014 Clear 12 1017 30 0 11.47 279 17:59 05.06.2020
2015 Clear 12 1017 30 0 11.47 279 17:41 05.06.2020
2016 Clear 11 1019 30 0 9.8 280 17:20 05.06.2020
2017 Clear 11 1019 30 0 9.8 280 16:57 05.06.2020
2018 Clear 11 1019 30 0 9.8 280 16:37 05.06.2020
2019 Clear 7 1020 38 0 4.99 289 16:19 05.06.2020
2020 Clear 7 1020 38 0 4.99 289 16:19 05.06.2020
2021 Clear 7 1020 38 0 4.99 289 15:38 05.06.2020
2022 Clear 5 1021 39 0 4.29 288 15:20 05.06.2020
2023 Clear 5 1021 39 0 4.29 288 14:57 05.06.2020
2024 Clear 5 1021 39 0 4.29 288 14:39 05.06.2020
2025 Clouds 2 1022 51 0 2.48 270 14:21 05.06.2020
2026 Clouds 2 1022 51 0 2.48 270 13:46 05.06.2020
2027 Clouds -1 1022 56 0 2.25 279 13:27 05.06.2020
2028 Clouds -1 1022 56 0 2.25 279 12:57 05.06.2020
2029 Clouds -1 1022 56 0 2.25 279 12:38 05.06.2020
2030 Clouds 0 1021 55 0 2.87 268 12:19 05.06.2020
2031 Clouds 0 1021 55 0 2.87 268 11:43 05.06.2020
2032 Clouds 0 1020 56 0 3.61 258 11:24 05.06.2020
2033 Clouds 0 1020 56 0 3.61 258 10:58 05.06.2020
2034 Clouds 0 1020 56 0 3.61 258 10:39 05.06.2020
2035 Clouds 0 1020 56 0 3.32 261 10:20 05.06.2020
2036 Clouds 0 1020 56 0 3.32 261 09:57 05.06.2020
2037 Clouds 0 1020 56 0 3.32 261 09:39 05.06.2020
2038 Clouds 1 1020 54 0 2.71 273 09:19 05.06.2020
2039 Clouds 0 1019 54 0 2.3 283 08:57 05.06.2020
2040 Clouds 0 1019 54 0 2.3 283 08:39 05.06.2020
2041 Clouds 0 1020 59 0 2.32 290 08:18 05.06.2020
2042 Clouds 0 1020 59 0 2.32 290 07:50 05.06.2020
2043 Clouds 0 1020 59 0 2.32 290 07:31 05.06.2020
2044 Clouds 0 1020 61 0 2.5 304 06:48 05.06.2020
2045 Clouds 1 1019 62 0 2.34 293 05:23 05.06.2020
2046 Clouds 2 1018 62 0 2.33 301 04:28 05.06.2020
2047 Clouds 2 1018 62 0 2.33 301 03:30 05.06.2020
2048 Clouds 3 1018 57 0 2.89 271 02:30 05.06.2020
2049 Clouds 3 1017 55 0 3.4 256 01:59 05.06.2020
2050 Clouds 3 1017 55 0 3.4 256 01:33 05.06.2020
2051 Clouds 4 1015 52 0 4.07 258 00:46 05.06.2020
2052 Clouds 6 1013 45 0 6.71 288 00:22 05.06.2020
2053 Clouds 6 1013 45 0 6.71 288 23:58 04.06.2020
2054 Clouds 6 1013 45 0 6.71 288 23:40 04.06.2020
2055 Clouds 8 1011 38 0 12.73 291 23:21 04.06.2020
2056 Clouds 8 1011 38 0 12.73 291 22:42 04.06.2020
2057 Clouds 10 1011 37 0 13.79 296 22:21 04.06.2020
2058 Clouds 10 1011 37 0 13.79 296 21:58 04.06.2020
2059 Clouds 10 1011 37 0 13.79 296 21:39 04.06.2020
2060 Clouds 10 1011 37 0 13.96 299 21:20 04.06.2020
2061 Clouds 10 1011 37 0 13.96 299 20:57 04.06.2020
2062 Clouds 10 1011 37 0 13.96 299 20:39 04.06.2020
2063 Clouds 10 1011 37 0 13.96 299 20:39 04.06.2020
2064 Clouds 10 1012 40 0 14.44 301 20:20 04.06.2020
2065 Clouds 10 1012 40 0 14.44 301 19:55 04.06.2020
2066 Clouds 10 1012 40 0 14.44 301 19:37 04.06.2020
2067 Clouds 10 1013 39 0 14.07 301 19:19 04.06.2020
2068 Clouds 10 1013 39 0 14.07 301 18:39 04.06.2020
2069 Clouds 10 1015 40 0 13.38 304 18:21 04.06.2020
2070 Clouds 10 1015 40 0 13.38 304 17:59 04.06.2020
2071 Clouds 10 1015 40 0 13.38 304 17:41 04.06.2020
2072 Clouds 9 1017 42 0 11.22 307 17:20 04.06.2020
2073 Clouds 9 1017 42 0 11.22 307 16:41 04.06.2020
2074 Clouds 6 1018 53 0 7.51 315 16:20 04.06.2020
2075 Clouds 6 1018 53 0 7.51 315 15:47 04.06.2020
2076 Clouds 4 1019 62 0 5.7 308 15:27 04.06.2020
2077 Clouds 4 1019 62 0 5.7 308 14:58 04.06.2020
2078 Clouds 4 1019 62 0 5.7 308 14:38 04.06.2020
2079 Clouds 2 1020 73 0 2.65 308 14:19 04.06.2020
2080 Clouds 1 1020 75 0 2.43 315 13:43 04.06.2020
2081 Clouds -1 1019 85 0 2.49 312 13:21 04.06.2020
2082 Clouds -1 1019 85 0 2.49 312 13:21 04.06.2020
2083 Clouds -1 1019 85 0 2.49 312 12:59 04.06.2020
2084 Clouds -1 1019 85 0 2.49 312 12:41 04.06.2020
2085 Clouds -1 1019 83 0 3.32 310 12:23 04.06.2020
2086 Clouds -1 1019 83 0 3.32 310 11:59 04.06.2020
2087 Clouds -1 1019 83 0 3.32 310 11:38 04.06.2020
2088 Clouds 0 1018 82 0 3.22 305 11:20 04.06.2020
2089 Clouds 0 1018 82 0 3.22 305 10:57 04.06.2020
2090 Clouds 0 1018 82 0 3.22 305 10:38 04.06.2020
2091 Clouds -1 1018 81 0 2.68 305 10:19 04.06.2020
2092 Clouds -1 1018 81 0 2.68 305 09:43 04.06.2020
2093 Clouds 0 1019 80 0 2.04 309 09:24 04.06.2020
2094 Clouds -1 1019 80 0 1.43 302 08:46 04.06.2020
2095 Clouds 0 1019 79 0 1.34 269 08:26 04.06.2020
2096 Clouds 0 1019 79 0 1.34 269 07:48 04.06.2020
2097 Clouds 0 1019 79 0 1.51 264 07:28 04.06.2020
2098 Clouds 0 1019 79 0 1.51 264 06:44 04.06.2020
2099 Clouds 0 1019 79 0 1.51 264 06:44 04.06.2020
2100 Clouds 0 1018 77 0 1.37 281 06:25 04.06.2020
2101 Clouds 0 1018 77 0 1.37 281 05:39 04.06.2020
2102 Clouds 1 1018 76 0 1.62 275 05:20 04.06.2020
2103 Clouds 2 1016 67 0 3.13 260 03:25 04.06.2020
2104 Clouds 3 1015 61 0 3.69 255 01:57 04.06.2020
2105 Clouds 4 1013 57 0 3.44 270 01:20 04.06.2020
2106 Clouds 4 1013 57 0 3.44 270 00:49 04.06.2020
2107 Clouds 6 1012 49 0 7.06 291 23:55 03.06.2020
2108 Clouds 6 1012 49 0 7.06 291 23:36 03.06.2020
2109 Clouds 8 1010 42 0 10.26 295 23:18 03.06.2020
2110 Clouds 8 1010 42 0 10.26 295 22:39 03.06.2020
2111 Clouds 8 1009 42 0 10.9 295 22:19 03.06.2020
2112 Clouds 8 1009 42 0 10.9 295 21:58 03.06.2020
2113 Clouds 8 1009 42 0 10.9 295 21:39 03.06.2020
2114 Clouds 9 1009 41 0 12.05 293 21:21 03.06.2020
2115 Clear 9 1009 41 0 12.01 290 20:56 03.06.2020
2116 Clear 9 1009 41 0 12.01 290 20:38 03.06.2020
2117 Clear 9 1010 39 0 12.87 290 20:19 03.06.2020
2118 Clear 9 1010 39 0 12.87 290 19:56 03.06.2020
2119 Clear 9 1010 39 0 12.87 290 19:37 03.06.2020
2120 Clear 9 1012 37 0 12.38 294 19:19 03.06.2020
2121 Clear 9 1012 37 0 12.38 294 18:54 03.06.2020
2122 Clear 9 1012 37 0 12.38 294 18:36 03.06.2020
2123 Clear 9 1013 37 0 12.02 293 18:18 03.06.2020
2124 Clear 9 1013 37 0 12.02 293 17:41 03.06.2020
2125 Clear 8 1016 39 0 11.25 292 17:21 03.06.2020
2126 Clear 8 1016 39 0 11.25 292 16:55 03.06.2020
2127 Clear 8 1016 39 0 11.25 292 16:37 03.06.2020
2128 Clear 5 1017 48 0 6.78 290 16:18 03.06.2020
2129 Clear 5 1017 48 0 6.78 290 15:41 03.06.2020
2130 Clear 2 1018 67 0 4.52 289 15:21 03.06.2020
2131 Clear 2 1018 67 0 4.52 289 14:57 03.06.2020
2132 Clear 2 1018 67 0 4.52 289 14:37 03.06.2020
2133 Clear 0 1019 77 0 3.64 278 14:19 03.06.2020
2134 Clear 0 1019 77 0 3.64 278 13:38 03.06.2020
2135 Clear -2 1019 80 0 3.38 274 13:19 03.06.2020
2136 Clear -2 1019 80 0 3.38 274 12:43 03.06.2020
2137 Clear -2 1018 79 0 3.45 276 12:21 03.06.2020
2138 Clear -2 1018 79 0 3.45 276 11:47 03.06.2020
2139 Clouds -2 1018 79 0 3.3 277 11:27 03.06.2020
2140 Clouds -2 1018 79 0 3.3 277 10:58 03.06.2020
2141 Clouds -2 1018 79 0 3.3 277 10:39 03.06.2020
2142 Clear -2 1018 81 0 2.89 283 10:21 03.06.2020
2143 Clear -2 1018 81 0 2.89 283 09:44 03.06.2020
2144 Clear -1 1018 82 0 2.71 279 09:20 03.06.2020
2145 Clear -1 1018 77 0 3.13 285 08:58 03.06.2020
2146 Clear -1 1018 77 0 3.13 285 08:58 03.06.2020
2147 Clear -1 1018 77 0 3.13 285 08:40 03.06.2020
2148 Clear 0 1018 80 0 3.04 285 08:19 03.06.2020
2149 Clear 0 1018 80 0 3.04 285 07:42 03.06.2020
2150 Clear 0 1018 81 0 2.67 279 07:20 03.06.2020
2151 Clear 0 1018 81 0 2.67 279 06:52 03.06.2020
2152 Clear 0 1018 81 0 2.67 279 06:30 03.06.2020
2153 Clear 1 1018 77 0 2.71 282 05:47 03.06.2020
2154 Clear 2 1018 71 0 2.75 282 04:56 03.06.2020
2155 Clear 2 1017 68 0 2.46 277 03:50 03.06.2020
2156 Clear 3 1017 65 0 2.58 264 02:57 03.06.2020
2157 Clear 4 1016 61 0 2.58 269 01:52 03.06.2020
2158 Clear 4 1014 60 0 2.23 281 00:43 03.06.2020
2159 Clear 5 1012 55 0 3.73 268 00:25 03.06.2020
2160 Clear 5 1012 55 0 3.73 268 23:51 02.06.2020
2161 Clear 8 1011 46 0 7.13 258 23:28 02.06.2020
2162 Clear 8 1011 46 0 7.13 258 22:57 02.06.2020
2163 Clear 8 1011 46 0 7.13 258 22:38 02.06.2020
2164 Clear 9 1011 40 0 7.61 265 22:19 02.06.2020
2165 Clear 9 1011 40 0 7.61 265 21:56 02.06.2020
2166 Clear 9 1011 40 0 7.61 265 21:37 02.06.2020
2167 Clear 10 1012 38 0 8.24 270 21:19 02.06.2020
2168 Clear 10 1012 38 0 8.16 272 20:57 02.06.2020
2169 Clear 10 1012 38 0 8.16 272 20:39 02.06.2020
2170 Clear 10 1013 39 0 8.18 274 20:20 02.06.2020
2171 Clear 10 1013 39 0 8.18 274 19:43 02.06.2020
2172 Clear 9 1015 40 0 8.62 274 19:25 02.06.2020
2173 Clear 9 1015 40 0 8.62 274 18:57 02.06.2020
2174 Clear 9 1015 40 0 8.62 274 18:39 02.06.2020
2175 Clear 8 1017 41 0 8.49 274 18:20 02.06.2020
2176 Clear 8 1017 41 0 8.49 274 17:55 02.06.2020
2177 Clear 8 1017 41 0 8.49 274 17:37 02.06.2020
2178 Clear 8 1019 42 0 7.91 274 17:18 02.06.2020
2179 Clear 8 1019 42 0 7.91 274 16:41 02.06.2020
2180 Clear 6 1020 47 0 7.44 281 16:21 02.06.2020
2181 Clear 6 1020 47 0 7.44 281 15:58 02.06.2020
2182 Clear 6 1020 47 0 7.44 281 15:38 02.06.2020
2183 Clear 4 1021 59 0 5.09 283 15:20 02.06.2020
2184 Clear 4 1021 59 0 5.09 283 14:45 02.06.2020
2185 Clear 1 1022 75 0 3.72 280 14:27 02.06.2020
2186 Clear 1 1022 76 0 3.42 278 13:55 02.06.2020
2187 Clear 1 1022 76 0 3.42 278 13:36 02.06.2020
2188 Clear -1 1022 83 0 2.78 280 13:18 02.06.2020
2189 Clear -1 1022 83 0 2.78 280 12:54 02.06.2020
2190 Clear -1 1022 83 0 2.78 280 12:36 02.06.2020
2191 Clear -1 1021 82 0 2.65 280 12:18 02.06.2020
2192 Clear -1 1021 82 0 2.65 280 11:40 02.06.2020
2193 Clear -1 1021 82 0 2.49 285 11:21 02.06.2020
2194 Clear -1 1021 82 0 2.49 285 10:55 02.06.2020
2195 Clear -1 1021 82 0 2.49 285 10:37 02.06.2020
2196 Clear 0 1021 80 0 2.68 289 10:18 02.06.2020
2197 Clear 0 1021 80 0 2.68 289 09:42 02.06.2020
2198 Clear 0 1021 77 0 3.09 285 09:21 02.06.2020
2199 Clear 0 1021 77 0 3.09 285 08:53 02.06.2020
2200 Clear 0 1021 75 0 3.19 283 08:28 02.06.2020
2201 Clear 0 1021 75 0 3.19 283 07:58 02.06.2020
2202 Clear 0 1021 75 0 3.19 283 07:32 02.06.2020
2203 Clear 1 1021 74 0 3.04 287 06:59 02.06.2020
2204 Clear 1 1021 74 0 3.04 287 06:37 02.06.2020
2205 Clouds 2 1021 72 0 3.38 280 05:37 02.06.2020
2206 Clouds 3 1020 70 0 5.66 254 04:23 02.06.2020
2207 Clouds 3 1020 68 0 5.57 248 02:37 02.06.2020
2208 Clouds 4 1018 64 0 7.14 244 01:53 02.06.2020
2209 Clouds 5 1016 63 0 4.75 252 00:51 02.06.2020
2210 Clouds 6 1014 60 0 7.58 262 00:21 02.06.2020
2211 Clouds 6 1014 60 0 7.58 262 23:39 01.06.2020
2212 Clouds 8 1012 51 0 11.97 269 23:20 01.06.2020
2213 Clouds 8 1012 51 0 11.97 269 22:58 01.06.2020
2214 Clouds 8 1012 51 0 11.97 269 22:39 01.06.2020
2215 Clouds 9 1011 46 0 13.82 281 22:19 01.06.2020
2216 Clouds 9 1011 46 0 13.82 281 21:42 01.06.2020
2217 Clouds 10 1011 44 0 13.58 283 21:22 01.06.2020
2218 Clouds 10 1011 44 0 13.58 283 20:59 01.06.2020
2219 Clouds 10 1011 44 0 13.58 283 20:41 01.06.2020
2220 Clear 10 1012 42 0 13.88 289 20:21 01.06.2020
2221 Clear 10 1012 42 0 13.88 289 19:59 01.06.2020
2222 Clear 10 1012 42 0 13.88 289 19:41 01.06.2020
2223 Clear 11 1014 41 0 14.4 292 19:20 01.06.2020
2224 Clear 11 1014 41 0 14.4 292 19:20 01.06.2020
2225 Clear 11 1014 41 0 14.4 292 18:58 01.06.2020
2226 Clear 11 1014 41 0 14.4 292 18:38 01.06.2020
2227 Clear 11 1015 41 0 14.53 293 18:19 01.06.2020
2228 Clear 11 1015 41 0 14.53 293 17:42 01.06.2020
2229 Clear 10 1017 43 0 12.33 295 17:22 01.06.2020
2230 Clear 10 1017 43 0 12.33 295 16:58 01.06.2020
2231 Clear 10 1017 43 0 12.33 295 16:39 01.06.2020
2232 Clear 8 1019 49 0 10.7 295 16:19 01.06.2020
2233 Clear 8 1019 49 0 10.7 295 15:55 01.06.2020
2234 Clear 8 1019 49 0 10.7 295 15:36 01.06.2020
2235 Clear 5 1020 61 0 7.25 302 15:18 01.06.2020
2236 Clear 5 1020 61 0 7.25 302 14:55 01.06.2020
2237 Clear 5 1020 61 0 7.25 302 14:36 01.06.2020
2238 Clouds 3 1020 71 0 3.27 295 14:18 01.06.2020
2239 Clear 3 1021 70 0 2.68 281 13:41 01.06.2020
2240 Clear 0 1020 86 0 1.9 296 13:21 01.06.2020
2241 Clear 0 1020 86 0 1.9 296 12:58 01.06.2020
2242 Clear 0 1020 86 0 1.9 296 12:40 01.06.2020
2243 Clear 0 1020 86 0 1.9 296 12:40 01.06.2020
2244 Clear 1 1020 84 0 1.92 294 12:21 01.06.2020
2245 Clear 1 1020 84 0 1.92 294 11:56 01.06.2020
2246 Clear 1 1020 84 0 1.92 294 11:36 01.06.2020
2247 Clear 1 1020 81 0 1.9 286 11:18 01.06.2020
2248 Clear 1 1020 81 0 1.9 286 10:54 01.06.2020
2249 Clear 1 1020 81 0 1.9 286 10:36 01.06.2020
2250 Clear 2 1020 78 0 1.88 282 10:18 01.06.2020
2251 Clear 2 1020 78 0 1.88 282 09:43 01.06.2020
2252 Clear 2 1020 75 0 1.69 273 09:24 01.06.2020
2253 Clear 2 1019 75 0 1.74 274 08:54 01.06.2020
2254 Clear 2 1019 75 0 1.74 274 08:31 01.06.2020
2255 Clouds 3 1020 73 0 1.7 287 07:57 01.06.2020
2256 Clouds 3 1020 73 0 1.7 287 07:38 01.06.2020
2257 Clouds 3 1020 69 0 1.94 299 07:20 01.06.2020
2258 Clouds 3 1020 69 0 1.94 299 06:49 01.06.2020
2259 Clouds 4 1019 66 0 2.09 311 05:54 01.06.2020
2260 Clouds 4 1019 66 0 1.07 327 04:56 01.06.2020
2261 Clouds 5 1019 62 0 1.56 238 03:55 01.06.2020
2262 Clouds 5 1019 62 0 1.56 238 03:35 01.06.2020
2263 Clouds 6 1018 55 0 3.11 217 02:34 01.06.2020
2264 Clouds 7 1016 52 0 2.34 224 01:38 01.06.2020
2265 Clouds 8 1015 51 0 2.66 263 01:18 01.06.2020
2266 Clouds 8 1015 51 0 2.66 263 00:40 01.06.2020
2267 Clear 9 1013 45 0 6.28 279 00:21 01.06.2020
2268 Clear 9 1013 45 0 6.28 279 23:59 31.05.2020
2269 Clear 9 1013 45 0 6.28 279 23:40 31.05.2020
2270 Clear 11 1012 38 0 9.64 288 23:22 31.05.2020
2271 Clear 11 1012 38 0 9.64 288 22:58 31.05.2020
2272 Clear 11 1012 38 0 9.64 288 22:40 31.05.2020
2273 Clear 13 1012 34 0 9.92 291 22:21 31.05.2020
2274 Clear 13 1012 34 0 9.92 291 21:56 31.05.2020
2275 Clear 13 1012 34 0 9.92 291 21:38 31.05.2020
2276 Clear 13 1012 33 0 9.94 290 21:19 31.05.2020
2277 Clear 13 1012 33 0 9.94 290 20:42 31.05.2020
2278 Clouds 14 1013 33 0 9.29 296 20:23 31.05.2020
2279 Clouds 14 1013 33 0 9.29 296 19:56 31.05.2020
2280 Clouds 14 1013 33 0 9.29 296 19:37 31.05.2020
2281 Clouds 13 1015 35 0 7.15 301 19:19 31.05.2020
2282 Clouds 13 1015 35 0 7.15 301 18:44 31.05.2020
2283 Clear 11 1017 41 0 4.25 317 18:25 31.05.2020
2284 Clear 11 1017 41 0 4.25 317 17:58 31.05.2020
2285 Clear 11 1017 41 0 4.25 317 17:39 31.05.2020
2286 Clouds 12 1042 66 10000 2.1 60 17:20 31.05.2020
2287 Clouds 12 1042 66 10000 2.1 60 16:41 31.05.2020
2288 Clouds 12 1042 66 10000 2.1 60 16:21 31.05.2020
2289 Clouds 12 1042 66 10000 2.1 60 15:41 31.05.2020
2290 Clouds 12 1042 66 10000 2.1 60 15:23 31.05.2020
2291 Clear 7 1020 60 0 1.68 322 14:59 31.05.2020
2292 Clear 7 1020 60 0 1.68 322 14:40 31.05.2020
2293 Clouds 5 1020 64 0 0.97 273 14:19 31.05.2020
2294 Clouds 5 1020 64 0 0.97 273 13:55 31.05.2020
2295 Clouds 5 1020 64 0 0.97 273 13:37 31.05.2020
2296 Clouds 2 1020 80 0 0.76 270 13:18 31.05.2020
2297 Clouds 2 1020 80 0 0.76 270 12:43 31.05.2020
2298 Clear 2 1019 79 0 0.76 272 12:24 31.05.2020
2299 Clear 2 1019 79 0 0.76 272 11:56 31.05.2020
2300 Clear 2 1019 79 0 0.76 272 11:38 31.05.2020
2301 Clear 3 1019 78 0 0.63 282 11:19 31.05.2020
2302 Clear 3 1019 78 0 0.63 282 10:44 31.05.2020
2303 Clear 3 1018 76 0 0.57 279 10:26 31.05.2020
2304 Clear 3 1018 76 0 0.57 279 09:58 31.05.2020
2305 Clear 3 1018 76 0 0.57 279 09:40 31.05.2020
2306 Clear 4 1018 74 0 0.77 300 09:20 31.05.2020
2307 Clear 4 1018 74 0 0.77 300 08:43 31.05.2020
2308 Clouds 4 1018 72 0 0.98 303 08:24 31.05.2020
2309 Clouds 4 1018 72 0 0.98 303 07:50 31.05.2020
2310 Clouds 5 1018 67 0 1.55 319 07:22 31.05.2020
2311 Clouds 5 1018 67 0 1.55 319 06:57 31.05.2020
2312 Clouds 5 1018 67 0 1.55 319 06:57 31.05.2020
2313 Clouds 5 1018 67 0 1.55 319 06:36 31.05.2020
2314 Clouds 6 1018 66 0 1.38 331 05:55 31.05.2020
2315 Clouds 6 1018 66 0 1.38 331 05:37 31.05.2020
2316 Clear 6 1017 62 0 1.66 10 04:18 31.05.2020
2317 Clear 6 1017 62 0 1.66 10 03:45 31.05.2020
2318 Clear 7 1016 60 0 1.38 359 02:50 31.05.2020
2319 Clouds 8 1015 55 0 1.74 19 01:46 31.05.2020
2320 Clouds 9 1014 51 0 2.01 20 00:46 31.05.2020
2321 Clouds 10 1012 46 0 2.16 18 00:28 31.05.2020
2322 Clouds 10 1012 46 0 2.16 18 23:43 30.05.2020
2323 Clouds 13 1010 35 0 4.02 19 23:25 30.05.2020
2324 Clouds 13 1010 35 0 4.02 19 22:58 30.05.2020
2325 Clouds 13 1010 35 0 4.02 19 22:40 30.05.2020
2326 Clouds 14 1009 32 0 3.68 5 22:21 30.05.2020
2327 Clouds 14 1009 32 0 3.68 5 21:55 30.05.2020
2328 Clouds 14 1009 32 0 3.68 5 21:36 30.05.2020
2329 Clear 14 1010 31 0 2.98 357 21:18 30.05.2020
2330 Clear 14 1010 31 0 2.98 357 20:54 30.05.2020
2331 Clear 14 1010 31 0 2.98 357 20:36 30.05.2020
2332 Clouds 13 1011 32 0 2.92 342 20:18 30.05.2020
2333 Clouds 13 1011 32 0 2.92 342 19:41 30.05.2020
2334 Clouds 13 1012 33 0 3.41 341 19:21 30.05.2020
2335 Clouds 13 1012 33 0 3.41 341 18:44 30.05.2020
2336 Clouds 12 1014 33 0 3.05 347 18:21 30.05.2020
2337 Clouds 12 1014 33 0 3.05 347 17:46 30.05.2020
2338 Clouds 11 1015 35 0 2.27 347 17:26 30.05.2020
2339 Clouds 11 1015 35 0 2.27 347 16:59 30.05.2020
2340 Clouds 11 1015 35 0 2.27 347 16:59 30.05.2020
2341 Clouds 11 1015 35 0 2.27 347 16:41 30.05.2020
2342 Clouds 10 1017 38 0 1.66 345 16:21 30.05.2020
2343 Clouds 10 1017 38 0 1.66 345 15:45 30.05.2020
2344 Clouds 8 1018 42 0 0.93 331 15:26 30.05.2020
2345 Clouds 8 1018 42 0 0.93 331 14:46 30.05.2020
2346 Clouds 6 1018 54 0 0.6 267 14:27 30.05.2020
2347 Clouds 6 1018 54 0 0.66 277 13:46 30.05.2020
2348 Clouds 1 1017 71 0 0.52 283 13:27 30.05.2020
2349 Clouds 1 1017 71 0 0.52 283 12:57 30.05.2020
2350 Clouds 1 1017 71 0 0.52 283 12:39 30.05.2020
2351 Clouds 1 1017 69 0 0.64 314 12:19 30.05.2020
2352 Clouds 1 1017 69 0 0.64 314 11:41 30.05.2020
2353 Clouds 2 1016 67 0 0.68 293 11:23 30.05.2020
2354 Clouds 2 1016 67 0 0.68 293 10:58 30.05.2020
2355 Clouds 2 1016 67 0 0.68 293 10:58 30.05.2020
2356 Clouds 2 1016 67 0 0.68 293 10:38 30.05.2020
2357 Clear 2 1016 65 0 0.6 281 10:20 30.05.2020
2358 Clear 2 1016 65 0 0.6 281 09:44 30.05.2020
2359 Clear 3 1016 64 0 0.58 269 09:25 30.05.2020
2360 Clear 3 1016 65 0 0.7 274 08:44 30.05.2020
2361 Clear 3 1016 65 0 0.7 274 08:44 30.05.2020
2362 Clear 3 1016 64 0 0.88 294 08:26 30.05.2020
2363 Clear 3 1016 64 0 0.88 294 07:40 30.05.2020
2364 Clear 4 1016 62 0 1.06 310 07:19 30.05.2020
2365 Clear 4 1016 62 0 1.06 310 06:30 30.05.2020
2366 Clear 4 1016 61 0 0.79 330 05:52 30.05.2020
2367 Clear 5 1016 60 0 0.25 338 04:59 30.05.2020
2368 Clear 6 1016 55 0 0.39 252 02:53 30.05.2020
2369 Clear 7 1015 52 0 0.5 22 02:23 30.05.2020
2370 Clear 8 1014 48 0 0.76 99 00:45 30.05.2020
2371 Clear 9 1013 43 0 0.85 133 00:25 30.05.2020
2372 Clear 9 1013 43 0 0.85 133 23:59 29.05.2020
2373 Clear 9 1013 43 0 0.85 133 23:38 29.05.2020
2374 Clear 13 1012 29 0 0.54 86 23:19 29.05.2020
2375 Clear 13 1012 29 0 0.54 86 22:56 29.05.2020
2376 Clear 13 1012 29 0 0.54 86 22:37 29.05.2020
2377 Clear 13 1011 27 0 0.7 22 22:18 29.05.2020
2378 Clear 13 1011 27 0 0.7 22 21:41 29.05.2020
2379 Clear 13 1011 27 0 0.7 22 21:41 29.05.2020
2380 Clear 13 1011 27 0 0.84 339 21:21 29.05.2020
2381 Clear 13 1011 27 0 0.79 331 20:58 29.05.2020
2382 Clear 13 1011 27 0 0.79 331 20:39 29.05.2020
2383 Clouds 13 1012 28 0 0.84 313 20:19 29.05.2020
2384 Clouds 13 1012 28 0 0.84 313 19:44 29.05.2020
2385 Clear 12 1014 29 0 1 296 19:26 29.05.2020
2386 Clear 12 1014 29 0 1 296 18:49 29.05.2020
2387 Clear 12 1015 30 0 1.6 284 18:24 29.05.2020
2388 Clear 12 1015 30 0 1.6 284 17:59 29.05.2020
2389 Clear 12 1015 30 0 1.6 284 17:40 29.05.2020
2390 Clear 11 1017 32 0 1.69 283 17:21 29.05.2020
2391 Clear 11 1017 32 0 1.69 283 16:58 29.05.2020
2392 Clear 11 1017 32 0 1.69 283 16:40 29.05.2020
2393 Clear 9 1018 35 0 1.47 283 16:21 29.05.2020
2394 Clear 9 1018 35 0 1.47 283 15:54 29.05.2020
2395 Clear 9 1018 35 0 1.47 283 15:36 29.05.2020
2396 Clear 8 1019 39 0 1.69 256 15:18 29.05.2020
2397 Clear 8 1019 39 0 1.69 256 15:18 29.05.2020
2398 Clear 8 1019 39 0 1.69 256 14:39 29.05.2020
2399 Clouds 6 1019 49 0 1.74 237 14:20 29.05.2020
2400 Clouds 6 1019 49 0 1.73 240 13:43 29.05.2020
2401 Clouds 1 1018 63 0 1.34 242 13:24 29.05.2020
2402 Clouds 1 1018 63 0 1.34 242 12:58 29.05.2020
2403 Clouds 1 1018 63 0 1.34 242 12:40 29.05.2020
2404 Clouds 1 1017 63 0 1.08 242 12:21 29.05.2020
2405 Clouds 1 1017 63 0 1.08 242 11:45 29.05.2020
2406 Clouds 1 1017 63 0 1.09 255 11:26 29.05.2020
2407 Clouds 1 1017 63 0 1.09 255 10:56 29.05.2020
2408 Clouds 1 1017 63 0 1.09 255 10:36 29.05.2020
2409 Clouds 2 1017 63 0 0.83 272 10:18 29.05.2020
2410 Clouds 2 1017 63 0 0.83 272 09:43 29.05.2020
2411 Clouds 2 1016 62 0 0.76 302 09:20 29.05.2020
2412 Clouds 2 1016 62 0 0.76 302 09:20 29.05.2020
2413 Clouds 2 1016 62 0 0.76 302 08:48 29.05.2020
2414 Clear 3 1016 61 0 0.96 280 08:26 29.05.2020
2415 Clear 3 1016 61 0 0.96 280 07:59 29.05.2020
2416 Clear 3 1016 61 0 0.96 280 07:39 29.05.2020
2417 Clear 4 1017 61 0 0.94 269 07:21 29.05.2020
2418 Clear 4 1017 61 0 0.94 269 06:46 29.05.2020
2419 Clear 4 1017 59 0 0.86 260 06:27 29.05.2020
2420 Clear 4 1017 59 0 0.86 260 05:46 29.05.2020
2421 Clear 6 1016 55 0 0.66 234 02:36 29.05.2020
2422 Clear 7 1015 53 0 0.37 51 01:30 29.05.2020
2423 Clear 8 1014 49 0 0.82 79 00:55 29.05.2020
2424 Clear 8 1014 49 0 0.82 79 00:34 29.05.2020
2425 Clear 9 1012 44 0 1.01 111 23:59 28.05.2020
2426 Clear 9 1012 44 0 1.01 111 23:39 28.05.2020
2427 Clear 13 1011 29 0 0.56 121 23:19 28.05.2020
2428 Clear 13 1011 29 0 0.56 121 23:19 28.05.2020
2429 Clear 13 1011 29 0 0.56 121 22:44 28.05.2020
2430 Clear 13 1010 27 0 0.26 86 22:26 28.05.2020
2431 Clear 13 1010 27 0 0.26 86 21:57 28.05.2020
2432 Clear 13 1010 27 0 0.26 86 21:39 28.05.2020
2433 Clear 13 1010 27 0 0.53 12 21:20 28.05.2020
2434 Clear 13 1010 27 0 0.47 355 20:57 28.05.2020
2435 Clear 13 1010 27 0 0.47 355 20:39 28.05.2020
2436 Clear 13 1011 27 0 0.9 327 20:18 28.05.2020
2437 Clear 13 1011 27 0 0.9 327 19:55 28.05.2020
2438 Clear 13 1011 27 0 0.9 327 19:37 28.05.2020
2439 Clear 13 1012 28 0 0.98 320 19:19 28.05.2020
2440 Clear 13 1012 28 0 0.98 320 18:42 28.05.2020
2441 Clear 12 1014 30 0 0.68 324 18:23 28.05.2020
2442 Clear 12 1014 30 0 0.68 324 17:56 28.05.2020
2443 Clear 12 1014 30 0 0.68 324 17:38 28.05.2020
2444 Clear 11 1016 33 0 1.15 293 17:18 28.05.2020
2445 Clear 11 1016 33 0 1.15 293 16:44 28.05.2020
2446 Clear 10 1017 36 0 1.67 288 16:20 28.05.2020
2447 Clear 10 1017 36 0 1.67 288 15:46 28.05.2020
2448 Clear 8 1018 41 0 1.27 279 15:25 28.05.2020
2449 Clear 8 1018 41 0 1.27 279 14:59 28.05.2020
2450 Clear 8 1018 41 0 1.27 279 14:40 28.05.2020
2451 Clear 6 1018 53 0 0.98 265 14:21 28.05.2020
2452 Clear 6 1018 53 0 0.98 265 13:44 28.05.2020
2453 Clear 1 1017 72 0 0.95 273 13:25 28.05.2020
2454 Clear 1 1017 72 0 0.95 273 12:43 28.05.2020
2455 Clear 1 1017 71 0 0.86 269 12:19 28.05.2020
2456 Clear 1 1017 71 0 0.86 269 11:54 28.05.2020
2457 Clear 1 1017 71 0 0.86 269 11:36 28.05.2020
2458 Clear 1 1017 71 0 0.67 256 11:18 28.05.2020
2459 Clear 1 1017 71 0 0.67 256 10:42 28.05.2020
2460 Clear 2 1017 70 0 0.81 264 10:23 28.05.2020
2461 Clear 2 1017 70 0 0.81 264 09:41 28.05.2020
2462 Clear 2 1016 69 0 0.98 271 09:22 28.05.2020
2463 Clear 2 1016 69 0 0.98 271 08:57 28.05.2020
2464 Clear 2 1016 69 0 0.98 271 08:39 28.05.2020
2465 Clear 3 1017 68 0 1.11 279 08:20 28.05.2020
2466 Clear 3 1017 68 0 1.11 279 07:41 28.05.2020
2467 Clear 3 1017 66 0 1.21 290 07:23 28.05.2020
2468 Clear 3 1017 66 0 1.21 290 06:44 28.05.2020
2469 Clear 4 1018 64 0 1.26 304 06:26 28.05.2020
2470 Clear 4 1018 64 0 1.26 304 05:38 28.05.2020
2471 Clear 4 1018 61 0 1.19 334 04:36 28.05.2020
2472 Clear 5 1018 59 0 1.12 360 03:53 28.05.2020
2473 Clear 6 1017 57 0 0.93 31 02:55 28.05.2020
2474 Clear 6 1017 53 0 1.16 78 01:57 28.05.2020
2475 Clear 6 1017 53 0 1.16 78 01:35 28.05.2020
2476 Clear 7 1016 49 0 1.77 86 00:47 28.05.2020
2477 Clear 9 1014 43 0 2.28 78 00:19 28.05.2020
2478 Clear 9 1014 43 0 2.28 78 23:56 27.05.2020
2479 Clear 9 1014 43 0 2.28 78 23:37 27.05.2020
2480 Clear 12 1013 31 0 2.73 65 23:19 27.05.2020
2481 Clear 12 1013 31 0 2.73 65 22:41 27.05.2020
2482 Clear 13 1013 28 0 2.44 62 22:23 27.05.2020
2483 Clear 13 1013 28 0 2.44 62 21:56 27.05.2020
2484 Clear 13 1013 28 0 2.44 62 21:38 27.05.2020
2485 Clear 14 1014 27 0 2.06 58 21:20 27.05.2020
2486 Clear 14 1014 27 0 2.04 58 20:58 27.05.2020
2487 Clear 14 1014 27 0 2.04 58 20:58 27.05.2020
2488 Clear 14 1014 27 0 2.04 58 20:39 27.05.2020
2489 Clear 13 1015 26 0 1.38 51 20:19 27.05.2020
2490 Clear 13 1015 26 0 1.38 51 19:45 27.05.2020
2491 Clear 13 1016 26 0 0.84 38 19:21 27.05.2020
2492 Clear 13 1016 26 0 0.84 38 18:45 27.05.2020
2493 Clear 12 1017 28 0 0.4 41 18:21 27.05.2020
2494 Clear 12 1017 28 0 0.4 41 17:59 27.05.2020
2495 Clear 12 1017 28 0 0.4 41 17:40 27.05.2020
2496 Clear 11 1019 29 0 0.25 298 17:22 27.05.2020
2497 Clear 11 1019 29 0 0.25 298 16:56 27.05.2020
2498 Clear 11 1019 29 0 0.25 298 16:38 27.05.2020
2499 Clear 10 1020 33 0 0.76 254 16:19 27.05.2020
2500 Clear 10 1020 33 0 0.76 254 15:48 27.05.2020
2501 Clear 8 1021 38 0 1.18 243 15:23 27.05.2020
2502 Clear 8 1021 38 0 1.18 243 14:55 27.05.2020
2503 Clear 8 1021 38 0 1.22 244 14:37 27.05.2020
2504 Clear 6 1022 50 0 1.29 220 14:19 27.05.2020
2505 Clear 6 1022 50 0 1.29 220 13:41 27.05.2020
2506 Clear 1 1021 68 0 1.18 226 13:23 27.05.2020
2507 Clear 1 1021 68 0 1.18 226 12:42 27.05.2020
2508 Clear 1 1020 67 0 1.18 224 12:24 27.05.2020
2509 Clear 1 1020 67 0 1.18 224 11:58 27.05.2020
2510 Clear 1 1020 67 0 1.18 224 11:37 27.05.2020
2511 Clear 1 1020 68 0 1.19 225 11:19 27.05.2020
2512 Clear 1 1020 68 0 1.19 225 10:44 27.05.2020
2513 Clear 2 1020 69 0 1.22 231 10:24 27.05.2020
2514 Clear 2 1020 69 0 1.22 231 09:58 27.05.2020
2515 Clear 2 1020 69 0 1.22 231 09:39 27.05.2020
2516 Clear 2 1020 68 0 1.28 232 09:20 27.05.2020
2517 Clear 2 1020 68 0 1.28 232 08:43 27.05.2020
2518 Clear 3 1020 68 0 1.25 234 08:25 27.05.2020
2519 Clear 3 1020 68 0 1.25 234 07:57 27.05.2020
2520 Clear 3 1020 68 0 1.25 234 07:38 27.05.2020
2521 Clear 3 1021 68 0 1.08 246 07:20 27.05.2020
2522 Clear 3 1021 68 0 1.08 246 06:41 27.05.2020
2523 Clear 3 1021 66 0 0.95 257 06:19 27.05.2020
2524 Clear 3 1021 66 0 0.95 257 05:47 27.05.2020
2525 Clear 4 1021 62 0 0.47 274 04:20 27.05.2020
2526 Clear 5 1021 61 0 0.25 39 02:30 27.05.2020
2527 Clear 6 1021 57 0 0.87 69 01:53 27.05.2020
2528 Clear 7 1020 53 0 1.43 74 01:24 27.05.2020
2529 Clear 7 1020 53 0 1.43 74 00:45 27.05.2020
2530 Clear 8 1018 47 0 1.98 78 00:20 27.05.2020
2531 Clear 8 1018 47 0 1.98 78 23:44 26.05.2020
2532 Clear 11 1017 35 0 2.74 81 23:26 26.05.2020
2533 Clear 11 1017 35 0 2.74 81 23:00 26.05.2020
2534 Clear 11 1017 35 0 2.74 81 22:39 26.05.2020
2535 Clear 12 1017 31 0 2.82 84 22:21 26.05.2020
2536 Clear 12 1017 31 0 2.82 84 21:58 26.05.2020
2537 Clear 12 1017 31 0 2.82 84 21:39 26.05.2020
2538 Clear 13 1017 29 0 2.35 80 21:20 26.05.2020
2539 Clear 13 1017 30 0 2.11 70 20:43 26.05.2020
2540 Clear 13 1018 30 0 1.34 63 20:22 26.05.2020
2541 Clear 13 1018 30 0 1.34 63 19:58 26.05.2020
2542 Clear 13 1018 30 0 1.34 63 19:38 26.05.2020
2543 Clear 12 1020 31 0 0.8 53 19:19 26.05.2020
2544 Clear 12 1020 31 0 0.8 53 18:43 26.05.2020
2545 Clear 11 1022 33 0 0.56 51 18:24 26.05.2020
2546 Clear 11 1022 33 0 0.56 51 17:59 26.05.2020
2547 Clear 11 1022 33 0 0.56 51 17:38 26.05.2020
2548 Clear 10 1023 36 0 0.3 24 17:20 26.05.2020
2549 Clear 10 1023 36 0 0.3 24 16:45 26.05.2020
2550 Clear 9 1025 39 0 0.34 312 16:20 26.05.2020
2551 Clear 9 1025 39 0 0.34 312 15:56 26.05.2020
2552 Clear 9 1025 39 0 0.34 312 15:38 26.05.2020
2553 Clear 7 1025 44 0 0.63 285 15:19 26.05.2020
2554 Clear 7 1025 44 0 0.63 285 14:43 26.05.2020
2555 Clear 5 1026 55 0 0.59 242 14:24 26.05.2020
2556 Clear 5 1026 55 0 0.59 242 13:57 26.05.2020
2557 Clear 5 1026 55 0 0.59 242 13:39 26.05.2020
2558 Clear 0 1025 79 0 0.5 243 13:21 26.05.2020
2559 Clear 0 1025 79 0 0.5 243 12:43 26.05.2020
2560 Clear 0 1024 78 0 0.65 251 12:22 26.05.2020
2561 Clear 0 1024 78 0 0.65 251 11:59 26.05.2020
2562 Clear 0 1024 78 0 0.65 251 11:40 26.05.2020
2563 Clear 0 1024 77 0 0.63 232 11:19 26.05.2020
2564 Clear 0 1024 77 0 0.63 232 10:44 26.05.2020
2565 Clear 1 1024 77 0 0.76 235 10:19 26.05.2020
2566 Clear 1 1024 77 0 0.76 235 09:55 26.05.2020
2567 Clear 1 1024 76 0 0.76 238 09:37 26.05.2020
2568 Clear 1 1024 76 0 0.71 254 09:18 26.05.2020
2569 Clear 1 1024 76 0 0.71 254 08:39 26.05.2020
2570 Clear 2 1024 74 0 0.82 298 08:21 26.05.2020
2571 Clear 2 1024 74 0 0.82 298 07:41 26.05.2020
2572 Clear 2 1024 72 0 0.86 308 07:22 26.05.2020
2573 Clear 2 1024 72 0 0.86 308 06:52 26.05.2020
2574 Clear 3 1025 70 0 0.73 320 06:28 26.05.2020
2575 Clear 3 1025 70 0 0.73 320 05:41 26.05.2020
2576 Clear 3 1025 66 0 0.65 330 05:18 26.05.2020
2577 Clear 3 1025 66 0 0.65 330 04:47 26.05.2020
2578 Clear 4 1025 64 0 0.62 349 04:28 26.05.2020
2579 Clear 4 1025 64 0 0.62 349 03:34 26.05.2020
2580 Clear 5 1025 62 0 0.84 15 02:34 26.05.2020
2581 Clear 5 1024 58 0 0.99 54 01:43 26.05.2020
2582 Clear 6 1022 53 0 1.34 53 00:40 26.05.2020
2583 Clear 8 1020 48 0 1.79 63 00:21 26.05.2020
2584 -273 0 0 0 0 0 23:59 25.05.2020
2585 Clear 8 1020 48 0 1.79 63 23:38 25.05.2020
2586 Clear 11 1019 36 0 3.95 94 23:20 25.05.2020
2587 Clear 11 1019 36 0 3.95 94 22:56 25.05.2020
2588 Clear 11 1019 36 0 3.95 94 22:37 25.05.2020
2589 Clear 11 1019 36 0 3.95 94 22:37 25.05.2020
2590 Clear 12 1019 32 0 5.12 104 22:19 25.05.2020
2591 Clear 12 1019 32 0 5.12 104 21:58 25.05.2020
2592 Clear 12 1019 32 0 5.12 104 21:38 25.05.2020
2593 Clear 13 1019 30 0 5.5 109 21:19 25.05.2020
2594 Clear 12 1019 30 0 5.65 109 20:58 25.05.2020
2595 Clear 12 1019 30 0 5.65 109 20:40 25.05.2020
2596 Clear 13 1019 28 0 4.45 112 20:20 25.05.2020
2597 Clear 13 1019 28 0 4.45 112 19:55 25.05.2020
2598 Clear 13 1019 28 0 4.45 112 19:37 25.05.2020
2599 Clear 13 1020 28 0 3.54 116 19:18 25.05.2020
2600 Clear 13 1020 28 0 3.54 116 18:43 25.05.2020
2601 Clear 12 1022 29 0 2.29 114 18:21 25.05.2020
2602 Clear 12 1022 29 0 2.29 114 17:55 25.05.2020
2603 Clear 12 1022 29 0 2.29 114 17:37 25.05.2020
2604 Clear 11 1023 30 0 1.75 129 17:18 25.05.2020
2605 Clear 11 1023 30 0 1.75 129 16:41 25.05.2020
2606 Clear 10 1024 31 0 1.48 146 16:22 25.05.2020
2607 Clear 10 1024 31 0 1.48 146 15:58 25.05.2020
2608 Clear 10 1024 31 0 1.48 146 15:40 25.05.2020
2609 Clear 8 1025 35 0 1.29 175 15:18 25.05.2020
2610 Clear 8 1025 35 0 1.29 175 15:18 25.05.2020
2611 Clear 8 1025 35 0 1.29 175 14:43 25.05.2020
2612 Clear 6 1025 49 0 1.32 191 14:24 25.05.2020
2613 Clear 6 1025 49 0 1.32 191 13:57 25.05.2020
2614 Clear 6 1025 49 0 1.32 191 13:38 25.05.2020
2615 Clear 0 1023 62 0 1.34 200 13:19 25.05.2020
2616 Clear 0 1023 62 0 1.34 200 12:54 25.05.2020
2617 Clear 0 1023 62 0 1.34 200 12:36 25.05.2020
2618 Clear 0 1023 61 0 1.44 208 12:18 25.05.2020
2619 Clear 0 1023 61 0 1.44 208 11:38 25.05.2020
2620 Clear 1 1022 59 0 1.45 214 11:19 25.05.2020
2621 Clear 1 1022 59 0 1.45 214 10:54 25.05.2020
2622 Clear 1 1022 59 0 1.45 214 10:36 25.05.2020
2623 Clear 1 1022 60 0 1.4 224 10:18 25.05.2020
2624 Clear 1 1022 60 0 1.4 224 09:41 25.05.2020
2625 Clear 1 1022 60 0 1.4 224 09:41 25.05.2020
2626 Clear 1 1021 61 0 1.23 240 09:19 25.05.2020
2627 Clear 1 1021 61 0 1.23 240 08:59 25.05.2020
2628 Clear 1 1021 61 0 1.23 240 08:38 25.05.2020
2629 Clear 2 1021 63 0 1.05 230 08:19 25.05.2020
2630 Clear 2 1021 63 0 1.05 230 07:46 25.05.2020
2631 Clear 2 1022 64 0 0.9 233 07:21 25.05.2020
2632 Clear 2 1022 64 0 0.9 233 06:54 25.05.2020
2633 Clear 2 1022 64 0 0.9 233 06:33 25.05.2020
2634 Clear 4 1023 58 0 0.95 321 04:19 25.05.2020
2635 Clear 4 1022 56 0 0.59 334 03:23 25.05.2020
2636 Clear 4 1022 56 0 0.59 334 02:45 25.05.2020
2637 Clear 5 1021 56 0 0.42 51 01:59 25.05.2020
2638 Clear 5 1021 56 0 0.42 51 01:40 25.05.2020
2639 Clear 6 1020 51 0 1.07 69 00:45 25.05.2020
2640 Clear 7 1019 45 0 1.55 91 00:23 25.05.2020
2641 Clear 7 1019 45 0 1.55 91 23:57 24.05.2020
2642 Clear 7 1019 45 0 1.55 91 23:38 24.05.2020
2643 Clear 11 1018 30 0 2.06 108 23:19 24.05.2020
2644 Clear 11 1018 30 0 2.06 108 22:42 24.05.2020
2645 Clear 11 1018 30 0 2.06 108 22:42 24.05.2020
2646 Clear 12 1018 28 0 2.23 114 22:20 24.05.2020
2647 Clear 12 1018 28 0 2.23 114 21:59 24.05.2020
2648 Clear 12 1018 28 0 2.23 114 21:40 24.05.2020
2649 Clear 12 1018 27 0 2.36 131 21:22 24.05.2020
2650 Clear 12 1018 27 0 2.36 131 20:57 24.05.2020
2651 Clear 12 1018 27 0 2.36 131 20:38 24.05.2020
2652 Clear 12 1019 26 0 2.33 133 20:18 24.05.2020
2653 Clear 12 1019 26 0 2.33 133 19:56 24.05.2020
2654 Clear 12 1019 26 0 2.33 133 19:36 24.05.2020
2655 Clear 11 1020 27 0 1.34 140 19:18 24.05.2020
2656 Clear 11 1020 27 0 1.34 140 18:42 24.05.2020
2657 Clear 10 1022 29 0 1.02 160 18:23 24.05.2020
2658 Clear 10 1022 29 0 1.02 160 17:57 24.05.2020
2659 Clear 10 1022 29 0 1.02 160 17:38 24.05.2020
2660 Clear 9 1023 32 0 0.7 197 17:19 24.05.2020
2661 Clear 9 1023 32 0 0.7 197 16:54 24.05.2020
2662 Clear 9 1023 32 0 0.7 197 16:36 24.05.2020
2663 Clear 8 1024 35 0 0.73 261 16:18 24.05.2020
2664 Clear 8 1024 35 0 0.73 261 15:40 24.05.2020
2665 Clear 6 1025 39 0 1.1 262 15:21 24.05.2020
2666 Clear 6 1025 39 0 1.1 262 14:59 24.05.2020
2667 Clear 6 1025 39 0 1.1 262 14:40 24.05.2020
2668 Clear 4 1026 49 0 1.48 228 14:21 24.05.2020
2669 Clear 4 1026 49 0 1.48 228 14:21 24.05.2020
2670 Clear 4 1026 49 0 1.48 228 13:55 24.05.2020
2671 Clear 4 1026 49 0 1.48 228 13:37 24.05.2020
2672 Clear 0 1025 65 0 1.56 207 13:19 24.05.2020
2673 Clear 0 1025 65 0 1.56 207 12:56 24.05.2020
2674 Clear 0 1025 65 0 1.56 207 12:37 24.05.2020
2675 Clear -1 1024 65 0 1.41 212 12:19 24.05.2020
2676 Clear -1 1024 65 0 1.41 212 11:54 24.05.2020
2677 Clear -1 1024 65 0 1.41 212 11:36 24.05.2020
2678 Clear 0 1024 66 0 1.63 208 11:18 24.05.2020
2679 Clear 0 1024 66 0 1.63 208 10:42 24.05.2020
2680 Clear 0 1024 66 0 2.02 207 10:23 24.05.2020
2681 Clear 0 1024 66 0 2.02 207 09:58 24.05.2020
2682 Clear 0 1024 66 0 2.02 207 09:40 24.05.2020
2683 Clear 1 1024 66 0 1.81 210 09:18 24.05.2020
2684 Clear 1 1024 66 0 1.81 210 08:43 24.05.2020
2685 Clear 1 1024 66 0 1.57 200 08:24 24.05.2020
2686 Clear 1 1024 66 0 1.57 200 07:59 24.05.2020
2687 Clear 1 1024 66 0 1.57 200 07:40 24.05.2020
2688 Clear 1 1024 65 0 1.56 181 07:21 24.05.2020
2689 Clear 1 1024 65 0 1.56 181 06:45 24.05.2020
2690 Clear 2 1024 61 0 1.63 169 05:50 24.05.2020
2691 Clear 3 1024 55 0 2.03 190 03:59 24.05.2020
2692 Clear 3 1024 55 0 2.03 190 03:40 24.05.2020
2693 Clear 4 1023 52 0 2.78 236 02:30 24.05.2020
2694 Clear 5 1021 50 0 2.97 245 01:39 24.05.2020
2695 Clear 6 1020 47 0 3.13 219 00:39 24.05.2020
2696 Clear 8 1018 41 0 5.11 213 00:20 24.05.2020
2697 Clear 8 1018 41 0 5.11 213 23:43 23.05.2020
2698 Clear 11 1016 32 0 8.96 226 23:21 23.05.2020
2699 Clear 11 1016 32 0 8.96 226 22:57 23.05.2020
2700 Clear 11 1016 32 0 8.96 226 22:37 23.05.2020
2701 Clear 12 1015 29 0 8.76 233 22:19 23.05.2020
2702 Clear 12 1015 29 0 8.76 233 21:57 23.05.2020
2703 Clear 12 1015 29 0 8.76 233 21:37 23.05.2020
2704 Clear 13 1016 28 0 8.31 237 21:19 23.05.2020
2705 Clear 13 1015 28 0 8.37 236 20:56 23.05.2020
2706 Clear 13 1015 28 0 8.37 236 20:37 23.05.2020
2707 Clear 13 1016 27 0 8.58 235 20:18 23.05.2020
2708 Clear 13 1016 27 0 8.58 235 19:41 23.05.2020
2709 Clear 13 1018 26 0 8.23 234 19:19 23.05.2020
2710 Clear 13 1018 26 0 8.23 234 18:57 23.05.2020
2711 Clear 13 1018 26 0 8.23 234 18:39 23.05.2020
2712 Clear 13 1020 26 0 6.98 253 18:21 23.05.2020
2713 Clear 13 1020 26 0 6.98 253 17:55 23.05.2020
2714 Clear 13 1020 26 0 6.98 253 17:37 23.05.2020
2715 Clear 11 1022 28 0 5.25 272 17:19 23.05.2020
2716 Clear 11 1022 28 0 5.25 272 16:56 23.05.2020
2717 Clear 11 1022 28 0 5.25 272 16:37 23.05.2020
2718 Clear 9 1023 33 0 2.92 286 16:19 23.05.2020
2719 Clear 9 1023 33 0 2.92 286 15:42 23.05.2020
2720 Clear 7 1023 39 0 2.28 288 15:23 23.05.2020
2721 Clear 7 1023 39 0 2.28 288 14:57 23.05.2020
2722 Clear 7 1023 39 0 2.28 288 14:57 23.05.2020
2723 Clear 7 1023 39 0 2.28 288 14:38 23.05.2020
2724 Clear 4 1024 47 0 1.7 283 14:20 23.05.2020
2725 Clear 4 1024 48 0 1.67 281 13:40 23.05.2020
2726 Clear 0 1023 64 0 1.45 282 13:19 23.05.2020
2727 Clear 0 1023 64 0 1.45 282 12:56 23.05.2020
2728 Clear 0 1023 64 0 1.45 282 12:37 23.05.2020
2729 Clear 0 1023 63 0 1.48 288 12:18 23.05.2020
2730 Clear 0 1023 63 0 1.48 288 11:43 23.05.2020
2731 Clear 0 1022 63 0 1.61 291 11:21 23.05.2020
2732 Clear 0 1022 63 0 1.61 291 10:57 23.05.2020
2733 Clear 0 1022 63 0 1.61 291 10:39 23.05.2020
2734 Clear 0 1022 64 0 1.6 291 10:20 23.05.2020
2735 Clear 0 1022 64 0 1.6 291 09:58 23.05.2020
2736 Clear 0 1022 64 0 1.6 291 09:39 23.05.2020
2737 Clear 0 1022 65 0 1.48 301 09:21 23.05.2020
2738 Clear 0 1022 65 0 1.48 301 08:43 23.05.2020
2739 Clear 1 1021 66 0 1.38 301 08:20 23.05.2020
2740 Clear 1 1021 66 0 1.38 301 07:54 23.05.2020
2741 Clear 1 1021 66 0 1.38 301 07:31 23.05.2020
2742 Clear 1 1021 66 0 1.34 291 06:56 23.05.2020
2743 Clear 1 1021 66 0 1.34 291 06:37 23.05.2020
2744 Clear 2 1021 62 0 1.5 273 05:26 23.05.2020
2745 Clear 3 1021 59 0 1.64 262 03:30 23.05.2020
2746 Clear 4 1020 55 0 2.21 254 02:58 23.05.2020
2747 Clouds 5 1019 52 0 2.69 253 01:58 23.05.2020
2748 Clouds 6 1018 48 0 2.3 263 01:26 23.05.2020
2749 Clouds 6 1018 48 0 2.3 263 00:47 23.05.2020
2750 Clouds 7 1016 44 0 2.28 270 00:26 23.05.2020
2751 Clouds 7 1016 44 0 2.28 270 23:58 22.05.2020
2752 Clouds 7 1016 44 0 2.28 270 23:39 22.05.2020
2753 Clouds 7 1016 44 0 2.28 270 23:39 22.05.2020
2754 Clouds 11 1015 30 0 2.6 263 23:19 22.05.2020
2755 Clouds 11 1015 30 0 2.6 263 22:55 22.05.2020
2756 Clouds 11 1015 30 0 2.6 263 22:55 22.05.2020
2757 Clouds 11 1015 30 0 2.6 263 22:37 22.05.2020
2758 Clouds 12 1014 26 0 3.39 246 22:18 22.05.2020
2759 Clouds 12 1014 26 0 3.39 246 21:42 22.05.2020
2760 Clouds 12 1014 25 0 3.74 238 21:21 22.05.2020
2761 Clouds 12 1014 24 0 2.23 234 20:54 22.05.2020
2762 Clouds 12 1014 24 0 2.23 234 20:36 22.05.2020
2763 Clouds 12 1015 23 0 1.67 264 20:18 22.05.2020
2764 Clouds 12 1015 23 0 1.67 264 19:41 22.05.2020
2765 Clouds 12 1015 23 0 1.67 264 19:41 22.05.2020
2766 Clouds 12 1017 25 0 2.02 301 19:23 22.05.2020
2767 Clouds 12 1017 25 0 2.02 301 18:40 22.05.2020
2768 Clouds 11 1019 28 0 2.28 308 18:21 22.05.2020
2769 Clouds 11 1019 28 0 2.28 308 17:59 22.05.2020
2770 Clouds 11 1019 28 0 2.28 308 17:39 22.05.2020
2771 Clouds 9 1020 33 0 2.86 310 17:18 22.05.2020
2772 Clouds 9 1020 33 0 2.86 310 16:45 22.05.2020
2773 Clouds 7 1021 38 0 2.95 303 16:21 22.05.2020
2774 Clouds 7 1021 38 0 2.95 303 15:59 22.05.2020
2775 Clouds 7 1021 38 0 2.95 303 15:41 22.05.2020
2776 Clouds 6 1022 45 0 2.89 294 15:21 22.05.2020
2777 Clouds 6 1022 45 0 2.89 294 14:44 22.05.2020
2778 Clouds 3 1023 54 0 2.23 279 14:25 22.05.2020
2779 Clouds 3 1023 54 0 2.29 287 13:49 22.05.2020
2780 Clouds 0 1023 71 0 2.1 279 13:22 22.05.2020
2781 Clouds 0 1023 71 0 2.1 279 12:59 22.05.2020
2782 Clouds 0 1023 71 0 2.1 279 12:39 22.05.2020
2783 Clouds 0 1022 73 0 2.08 266 12:20 22.05.2020
2784 Clouds 0 1022 73 0 2.08 266 11:44 22.05.2020
2785 Clear 0 1022 73 0 2.17 263 11:21 22.05.2020
2786 Clear 0 1022 73 0 2.17 263 11:21 22.05.2020
2787 Clear 0 1022 73 0 2.17 263 10:56 22.05.2020
2788 Clear 0 1022 73 0 2.17 263 10:38 22.05.2020
2789 Clear 1 1021 73 0 2.16 274 10:19 22.05.2020
2790 Clear 1 1021 73 0 2.16 274 10:19 22.05.2020
2791 Clear 1 1021 73 0 2.16 274 09:46 22.05.2020
2792 Clear 1 1021 71 0 2.36 273 09:21 22.05.2020
2793 Clear 2 1021 69 0 2.41 265 08:57 22.05.2020
2794 Clear 2 1021 69 0 2.41 265 08:39 22.05.2020
2795 Clouds 2 1021 69 0 2.39 266 08:18 22.05.2020
2796 Clouds 2 1021 69 0 2.39 266 07:48 22.05.2020
2797 Clouds 2 1021 68 0 2.6 260 07:22 22.05.2020
2798 Clouds 2 1021 68 0 2.6 260 06:46 22.05.2020
2799 Clouds 3 1021 66 0 2.77 265 06:28 22.05.2020
2800 Clouds 3 1021 66 0 2.77 265 05:35 22.05.2020
2801 Clouds 4 1020 61 0 3.56 275 04:48 22.05.2020
2802 Clouds 5 1020 58 0 4.2 266 03:51 22.05.2020
2803 Clouds 5 1020 58 0 4.2 266 03:32 22.05.2020
2804 Clouds 6 1017 52 0 4.91 245 02:23 22.05.2020
2805 Clouds 7 1017 51 0 4.96 248 01:42 22.05.2020
2806 Clouds 7 1015 50 0 3 246 01:20 22.05.2020
2807 Clouds 7 1015 50 0 3 246 00:33 22.05.2020
2808 Clouds 8 1013 46 0 3.83 274 23:57 21.05.2020
2809 Clouds 8 1013 46 0 3.83 274 23:39 21.05.2020
2810 Clouds 11 1011 38 0 7.98 286 23:21 21.05.2020
2811 Clouds 11 1011 38 0 7.98 286 22:57 21.05.2020
2812 Clouds 11 1011 38 0 7.98 286 22:37 21.05.2020
2813 Clouds 12 1011 35 0 9.57 286 22:19 21.05.2020
2814 Clouds 12 1011 35 0 9.57 286 21:47 21.05.2020
2815 Clouds 13 1011 34 0 9.61 290 21:27 21.05.2020
2816 Clouds 13 1011 34 0 9.61 290 20:57 21.05.2020
2817 Clouds 13 1011 34 0 9.61 290 20:39 21.05.2020
2818 Clouds 14 1012 33 0 9.72 292 20:21 21.05.2020
2819 Clouds 14 1012 33 0 9.72 292 19:40 21.05.2020
2820 Clouds 13 1013 33 0 8.02 302 19:20 21.05.2020
2821 Clouds 13 1013 33 0 8.02 302 18:57 21.05.2020
2822 Clouds 13 1013 33 0 8.02 302 18:36 21.05.2020
2823 Clouds 12 1015 35 0 5.39 322 18:18 21.05.2020
2824 Clouds 12 1015 35 0 5.39 322 17:54 21.05.2020
2825 Clouds 12 1015 35 0 5.39 322 17:36 21.05.2020
2826 Clouds 10 1017 37 0 4.94 316 17:18 21.05.2020
2827 Clouds 10 1017 37 0 4.94 316 16:40 21.05.2020
2828 Clouds 9 1019 39 0 4.12 296 16:21 21.05.2020
2829 Clouds 9 1019 39 0 4.12 296 15:41 21.05.2020
2830 Clouds 7 1019 43 0 2.75 289 15:22 21.05.2020
2831 Clouds 7 1019 43 0 2.75 289 14:41 21.05.2020
2832 Clouds 5 1020 52 0 2.07 290 14:23 21.05.2020
2833 Clouds 5 1020 52 0 2.07 290 13:56 21.05.2020
2834 Clouds 5 1020 52 0 2.07 290 13:37 21.05.2020
2835 Clouds 1 1019 68 0 2.28 280 13:18 21.05.2020
2836 Clouds 1 1019 68 0 2.28 280 12:39 21.05.2020
2837 Clouds 1 1018 65 0 2.26 263 12:20 21.05.2020
2838 Clouds 1 1018 65 0 2.26 263 11:57 21.05.2020
2839 Clouds 1 1018 65 0 2.26 263 11:39 21.05.2020
2840 Clouds 1 1018 65 0 2.22 257 11:20 21.05.2020
2841 Clouds 1 1018 65 0 2.22 257 10:43 21.05.2020
2842 Clouds 1 1018 66 0 2.13 265 10:23 21.05.2020
2843 Clouds 1 1018 66 0 2.13 265 09:59 21.05.2020
2844 Clouds 1 1018 66 0 2.13 265 09:40 21.05.2020
2845 Clouds 1 1018 66 0 2.13 265 09:40 21.05.2020
2846 Clouds 1 1018 66 0 2.13 265 09:40 21.05.2020
2847 Clouds 2 1018 66 0 2.04 268 09:22 21.05.2020
2848 Clouds 2 1018 66 0 2.03 272 08:56 21.05.2020
2849 Clouds 2 1018 66 0 2.03 272 08:37 21.05.2020
2850 Clouds 2 1018 65 0 1.87 278 08:19 21.05.2020
2851 Clouds 2 1018 65 0 1.87 278 07:41 21.05.2020
2852 Clouds 3 1018 63 0 1.89 283 07:22 21.05.2020
2853 Clouds 3 1018 63 0 1.89 283 06:37 21.05.2020
2854 Clouds 3 1018 63 0 1.49 287 05:50 21.05.2020
2855 Clear 5 1017 56 0 2.18 250 04:18 21.05.2020
2856 Clear 5 1017 55 0 2.04 241 03:21 21.05.2020
2857 Clear 5 1017 56 0 2.1 238 02:31 21.05.2020
2858 Clear 6 1015 54 0 2.21 242 01:51 21.05.2020
2859 Clear 7 1014 50 0 2.6 263 01:24 21.05.2020
2860 Clear 7 1014 50 0 2.6 263 00:55 21.05.2020
2861 Clear 8 1013 44 0 3.83 274 00:27 21.05.2020
2862 Clear 8 1013 44 0 3.83 274 23:59 20.05.2020
2863 Clear 8 1013 44 0 3.83 274 23:40 20.05.2020
2864 Clear 11 1011 35 0 6.87 281 23:19 20.05.2020
2865 Clear 11 1011 35 0 6.87 281 22:43 20.05.2020
2866 Clear 13 1011 31 0 8.06 280 22:25 20.05.2020
2867 Clear 13 1011 31 0 8.06 280 21:58 20.05.2020
2868 Clear 13 1011 31 0 8.06 280 21:39 20.05.2020
2869 Clear 14 1012 28 0 7.7 283 21:20 20.05.2020
2870 Clear 13 1011 29 0 8.22 281 20:44 20.05.2020
2871 Clear 14 1012 28 0 8.07 281 20:24 20.05.2020
2872 Clear 14 1012 28 0 8.07 281 19:44 20.05.2020
2873 Clear 14 1014 27 0 8.19 278 19:25 20.05.2020
2874 Clear 14 1014 27 0 8.19 278 18:59 20.05.2020
2875 Clear 14 1014 27 0 8.19 278 18:41 20.05.2020
2876 Clear 12 1016 30 0 5.34 290 18:21 20.05.2020
2877 Clear 12 1016 30 0 5.34 290 17:41 20.05.2020
2878 Clear 10 1018 36 0 3.8 302 17:22 20.05.2020
2879 Clear 10 1018 36 0 3.8 302 16:55 20.05.2020
2880 Clear 10 1018 36 0 3.8 302 16:37 20.05.2020
2881 Clear 8 1019 42 0 3.41 299 16:18 20.05.2020
2882 Clear 8 1019 42 0 3.41 299 15:43 20.05.2020
2883 Clear 8 1019 42 0 3.41 299 15:43 20.05.2020
2884 Clear 6 1020 48 0 3.3 289 15:25 20.05.2020
2885 Clear 6 1020 48 0 3.3 289 14:45 20.05.2020
2886 Clear 3 1020 60 0 2.52 277 14:23 20.05.2020
2887 Clear 3 1020 60 0 2.36 278 13:55 20.05.2020
2888 Clear 3 1020 60 0 2.36 278 13:37 20.05.2020
2889 Clear 0 1020 76 0 2.09 276 13:18 20.05.2020
2890 Clear 0 1020 76 0 2.09 276 12:42 20.05.2020
2891 Clear 0 1019 75 0 2.17 275 12:21 20.05.2020
2892 Clear 0 1019 75 0 2.17 275 11:38 20.05.2020
2893 Clear 1 1019 72 0 2.22 277 11:20 20.05.2020
2894 Clear 1 1019 72 0 2.22 277 10:55 20.05.2020
2895 Clear 1 1019 72 0 2.22 277 10:37 20.05.2020
2896 Clear 1 1019 71 0 2.18 279 10:18 20.05.2020
2897 Clear 1 1019 71 0 2.18 279 09:41 20.05.2020
2898 Clear 2 1018 70 0 2.15 287 09:20 20.05.2020
2899 Clear 2 1018 70 0 2.15 287 08:42 20.05.2020
2900 Clear 3 1018 67 0 2.11 294 08:19 20.05.2020
2901 Clear 3 1018 67 0 2.11 294 07:50 20.05.2020
2902 Clear 3 1019 64 0 2.26 301 07:25 20.05.2020
2903 Clear 3 1019 64 0 2.26 301 06:55 20.05.2020
2904 Clear 4 1018 63 0 1.63 306 06:20 20.05.2020
2905 Clear 4 1018 62 0 1 296 04:59 20.05.2020
2906 Clear 5 1018 58 0 1.19 258 04:19 20.05.2020
2907 Clear 5 1018 58 0 1.19 258 03:36 20.05.2020
2908 Clear 7 1015 53 0 1.17 237 01:57 20.05.2020
2909 Clear 7 1014 50 0 2.29 263 01:24 20.05.2020
2910 Clear 7 1014 50 0 2.29 263 00:41 20.05.2020
2911 Clear 9 1012 45 0 4.8 279 00:22 20.05.2020
2912 Clear 9 1012 45 0 4.8 279 23:38 19.05.2020
2913 Clear 11 1011 38 0 7.29 285 23:19 19.05.2020
2914 Clear 11 1011 38 0 7.29 285 22:55 19.05.2020
2915 Clear 11 1011 38 0 7.29 285 22:37 19.05.2020
2916 Clear 12 1011 35 0 8.14 288 22:18 19.05.2020
2917 Clear 12 1011 35 0 8.14 288 21:55 19.05.2020
2918 Clear 12 1011 36 0 8.4 289 21:36 19.05.2020
2919 Clear 13 1011 34 0 9.32 290 21:18 19.05.2020
2920 Clear 13 1011 34 0 9.32 290 20:56 19.05.2020
2921 Clear 13 1011 34 0 9.32 290 20:37 19.05.2020
2922 Clear 13 1012 33 0 10.02 292 20:19 19.05.2020
2923 Clear 13 1012 33 0 10.02 292 19:38 19.05.2020
2924 Clear 13 1014 33 0 9.36 295 19:20 19.05.2020
2925 Clear 13 1014 33 0 9.36 295 18:45 19.05.2020
2926 Clear 12 1016 37 0 6.56 309 18:23 19.05.2020
2927 Clear 12 1016 37 0 6.56 309 17:59 19.05.2020
2928 Clear 12 1016 37 0 6.56 309 17:40 19.05.2020
2929 Clear 10 1018 43 0 5.14 312 17:20 19.05.2020
2930 Clear 10 1018 43 0 5.14 312 16:56 19.05.2020
2931 Clear 10 1018 43 0 5.14 312 16:37 19.05.2020
2932 Clear 8 1019 47 0 3.57 303 16:19 19.05.2020
2933 Clear 8 1019 47 0 3.57 303 15:43 19.05.2020
2934 Clear 7 1020 52 0 2.65 292 15:20 19.05.2020
2935 Clear 7 1020 52 0 2.65 292 14:55 19.05.2020
2936 Clear 7 1020 52 0 2.65 292 14:37 19.05.2020
2937 Clear 5 1021 60 0 2.07 279 14:19 19.05.2020
2938 Clear 5 1021 59 0 1.9 281 13:56 19.05.2020
2939 Clear 5 1021 59 0 1.9 281 13:37 19.05.2020
2940 Clear 2 1020 74 0 1.78 273 13:19 19.05.2020
2941 Clear 2 1020 74 0 1.78 273 12:56 19.05.2020
2942 Clear 2 1020 74 0 1.78 273 12:36 19.05.2020
2943 Clear 2 1020 74 0 1.78 273 12:36 19.05.2020
2944 Clear 2 1020 72 0 1.77 280 12:18 19.05.2020
2945 Clear 2 1020 72 0 1.77 280 11:42 19.05.2020
2946 Clear 2 1020 70 0 1.85 280 11:22 19.05.2020
2947 Clear 2 1020 70 0 1.85 280 10:57 19.05.2020
2948 Clear 2 1020 70 0 1.85 280 10:39 19.05.2020
2949 Clear 2 1020 70 0 1.85 280 10:39 19.05.2020
2950 Clear 3 1020 68 0 1.89 278 10:21 19.05.2020
2951 Clear 3 1020 68 0 1.89 278 09:44 19.05.2020
2952 Clear 3 1019 67 0 1.98 260 09:25 19.05.2020
2953 Clear 4 1019 65 0 2.06 263 08:47 19.05.2020
2954 Clear 4 1019 66 0 1.94 265 08:25 19.05.2020
2955 Clear 4 1019 66 0 1.94 265 07:57 19.05.2020
2956 Clear 4 1019 66 0 1.94 265 07:37 19.05.2020
2957 Clear 5 1020 66 0 1.53 272 07:19 19.05.2020
2958 Clear 5 1020 66 0 1.53 272 06:40 19.05.2020
2959 Clear 5 1020 65 0 0.86 270 06:18 19.05.2020
2960 Clear 5 1020 65 0 0.86 270 05:39 19.05.2020
2961 Clear 6 1020 63 0 0.84 257 04:50 19.05.2020
2962 Clear 7 1019 57 0 1.14 240 02:59 19.05.2020
2963 Clouds 8 1016 51 0 1.74 242 01:21 19.05.2020
2964 Clouds 8 1016 51 0 1.74 242 00:40 19.05.2020
2965 Clouds 9 1015 45 0 3.34 253 00:18 19.05.2020
2966 Clouds 9 1015 45 0 3.34 253 23:40 18.05.2020
2967 Clouds 12 1014 37 0 5.9 269 23:20 18.05.2020
2968 Clouds 12 1014 37 0 5.9 269 22:59 18.05.2020
2969 Clouds 12 1014 37 0 5.9 269 22:39 18.05.2020
2970 Clouds 13 1013 33 0 7.45 281 22:20 18.05.2020
2971 Clouds 13 1013 33 0 7.45 281 21:43 18.05.2020
2972 Clouds 13 1014 33 0 5.66 300 21:22 18.05.2020
2973 Clouds 13 1013 33 0 6.53 294 20:58 18.05.2020
2974 Clouds 13 1013 33 0 6.53 294 20:39 18.05.2020
2975 Clear 13 1014 32 0 6.05 303 20:20 18.05.2020
2976 Clear 13 1014 32 0 6.05 303 19:56 18.05.2020
2977 Clear 13 1015 33 0 5.45 302 19:38 18.05.2020
2978 Clear 12 1016 35 0 4.04 317 19:18 18.05.2020
2979 Clear 12 1016 35 0 4.04 317 18:44 18.05.2020
2980 Clear 11 1018 38 0 4.11 312 18:22 18.05.2020
2981 Clear 11 1018 39 0 4.25 316 17:40 18.05.2020
2982 Clear 10 1020 41 0 3.31 308 17:18 18.05.2020
2983 Clear 10 1019 41 0 3.16 308 16:57 18.05.2020
2984 Clear 10 1020 41 0 3.31 308 16:38 18.05.2020
2985 Clear 9 1021 46 0 2.35 297 16:18 18.05.2020
2986 Clear 9 1021 46 0 2.35 297 15:57 18.05.2020
2987 Clear 9 1021 46 0 2.35 297 15:37 18.05.2020
2988 Clear 8 1021 51 0 1.75 282 15:19 18.05.2020
2989 Clear 8 1021 51 0 1.75 282 14:47 18.05.2020
2990 Clear 6 1022 60 0 1.46 269 14:25 18.05.2020
2991 Clear 6 1022 60 0 1.17 271 13:59 18.05.2020
2992 Clear 6 1022 60 0 1.17 271 13:39 18.05.2020
2993 Clear 2 1021 78 0 1 276 13:20 18.05.2020
2994 Clear 2 1021 78 0 1 276 12:57 18.05.2020
2995 Clear 2 1021 78 0 1 276 12:39 18.05.2020
2996 Clear 2 1021 77 0 1.06 278 12:19 18.05.2020
2997 Clear 2 1021 77 0 1.06 278 11:47 18.05.2020
2998 Clear 3 1020 76 0 0.94 279 11:27 18.05.2020
2999 Clear 3 1020 76 0 0.94 279 10:59 18.05.2020
3000 Clear 3 1020 76 0 0.94 279 10:40 18.05.2020
3001 Clear 3 1020 74 0 0.99 286 10:22 18.05.2020
3002 Clear 3 1020 74 0 0.99 286 09:44 18.05.2020
3003 Clear 4 1020 71 0 1.24 292 09:25 18.05.2020
3004 Clear 4 1020 71 0 1.24 292 08:46 18.05.2020
3005 Clouds 4 1020 69 0 1.27 299 08:27 18.05.2020
3006 Clouds 4 1020 69 0 1.27 299 07:58 18.05.2020
3007 Clouds 4 1020 69 0 1.27 299 07:39 18.05.2020
3008 Clouds 5 1020 67 0 1.12 307 07:20 18.05.2020
3009 Clouds 5 1020 67 0 1.12 307 06:45 18.05.2020
3010 Clouds 5 1020 65 0 1.08 316 05:50 18.05.2020
3011 Clouds 6 1020 62 0 0.96 315 05:26 18.05.2020
3012 Clouds 6 1020 60 0 1.12 317 03:37 18.05.2020
3013 Clouds 6 1020 60 0 1.12 317 03:37 18.05.2020
3014 Clouds 8 1020 55 0 2.09 328 02:31 18.05.2020
3015 Clouds 8 1019 52 0 3.21 320 01:32 18.05.2020
3016 Clouds 10 1015 46 0 2.12 78 00:27 18.05.2020
3017 Clouds 10 1015 46 0 2.12 78 23:58 17.05.2020
3018 Clouds 10 1015 46 0 2.12 78 23:58 17.05.2020
3019 Clouds 10 1015 46 0 2.12 78 23:58 17.05.2020
3020 Clouds 10 1015 46 0 2.12 78 23:40 17.05.2020
3021 Clouds 11 1014 40 0 1.66 118 23:20 17.05.2020
3022 Clouds 11 1014 40 0 1.66 118 22:57 17.05.2020
3023 Clouds 11 1014 40 0 1.66 118 22:38 17.05.2020
3024 Clouds 12 1013 37 0 0.36 193 22:20 17.05.2020
3025 Clouds 12 1013 37 0 0.36 193 21:57 17.05.2020
3026 Clouds 12 1013 37 0 0.36 193 21:39 17.05.2020
3027 Clouds 12 1013 36 0 1.41 310 21:19 17.05.2020
3028 Clouds 12 1013 36 0 1.41 310 20:42 17.05.2020
3029 Clouds 12 1014 35 0 2.04 321 20:22 17.05.2020
3030 Clouds 12 1014 35 0 2.04 321 19:58 17.05.2020
3031 Clouds 12 1014 35 0 2.04 321 19:40 17.05.2020
3032 Clear 12 1016 36 0 2.41 312 19:22 17.05.2020
3033 Clear 12 1016 36 0 2.41 312 18:55 17.05.2020
3034 Clear 12 1016 36 0 2.41 312 18:37 17.05.2020
3035 Clear 11 1017 37 0 2.64 307 18:19 17.05.2020
3036 Clear 11 1017 37 0 2.64 307 17:40 17.05.2020
3037 Clear 10 1019 40 0 2.07 303 17:21 17.05.2020
3038 Clear 10 1019 40 0 2.07 303 16:55 17.05.2020
3039 Clear 10 1019 40 0 2.07 303 16:37 17.05.2020
3040 Clear 9 1020 43 0 1.67 300 16:19 17.05.2020
3041 Clear 9 1020 43 0 1.67 300 15:41 17.05.2020
3042 Clear 7 1021 50 0 1.48 305 15:23 17.05.2020
3043 Clear 7 1021 50 0 1.48 305 14:56 17.05.2020
3044 Clear 7 1021 50 0 1.48 305 14:37 17.05.2020
3045 Clear 5 1021 59 0 1.18 296 14:19 17.05.2020
3046 Clear 5 1021 59 0 1.18 296 13:41 17.05.2020
3047 Clear 1 1021 78 0 1.13 301 13:20 17.05.2020
3048 Clear 3 1021 69 0 0.5 316 04:54 17.05.2020
3049 Clear 4 1022 67 0 0.45 1 03:30 17.05.2020
3050 Clear 5 1021 63 0 1.1 80 02:24 17.05.2020
3051 Clear 5 1021 63 0 1.1 80 01:50 17.05.2020
3052 Clear 6 1020 59 0 2.12 87 00:45 17.05.2020
3053 Clear 7 1018 51 0 2.79 64 00:24 17.05.2020
3054 Clear 7 1018 51 0 2.79 64 23:42 16.05.2020
3055 Clear 10 1017 38 0 2.76 47 23:23 16.05.2020
3056 Clear 10 1017 38 0 2.76 47 22:59 16.05.2020
3057 Clear 10 1017 38 0 2.76 47 22:41 16.05.2020
3058 Clear 10 1017 35 0 2.4 17 22:22 16.05.2020
3059 Clear 10 1017 35 0 2.4 17 21:56 16.05.2020
3060 Clear 10 1017 35 0 2.4 17 21:37 16.05.2020
3061 Clear 10 1017 34 0 2.04 11 21:19 16.05.2020
3062 Clear 10 1017 34 0 2.04 11 20:55 16.05.2020
3063 Clear 10 1017 34 0 2.04 11 20:36 16.05.2020
3064 Clear 10 1018 35 0 1.89 10 20:18 16.05.2020
3065 Clear 10 1018 35 0 1.89 10 19:42 16.05.2020
3066 Clear 10 1020 36 0 1.66 6 19:23 16.05.2020
3067 Clear 10 1020 36 0 1.66 6 19:23 16.05.2020
3068 Clear 10 1020 36 0 1.66 6 18:57 16.05.2020
3069 Clear 10 1020 36 0 1.66 6 18:38 16.05.2020
3070 Clear 9 1022 39 0 1.45 8 18:20 16.05.2020
3071 Clear 9 1022 39 0 1.45 8 17:42 16.05.2020
3072 Clear 8 1024 42 0 1.24 6 17:21 16.05.2020
3073 Clear 8 1024 42 0 1.24 6 17:21 16.05.2020
3074 Clear 8 1024 42 0 1.24 6 16:45 16.05.2020
3075 Clear 7 1025 46 0 0.88 10 16:25 16.05.2020
3076 Clear 7 1025 46 0 0.88 10 15:59 16.05.2020
3077 Clear 7 1025 46 0 0.88 10 15:41 16.05.2020
3078 Clear 5 1025 52 0 0.32 325 15:21 16.05.2020
3079 Clear 5 1025 52 0 0.32 325 14:58 16.05.2020
3080 Clear 5 1025 52 0 0.32 325 14:38 16.05.2020
3081 Clear 3 1026 60 0 0.3 288 14:19 16.05.2020
3082 Clear 3 1026 60 0 0.3 288 13:42 16.05.2020
3083 Clear -1 1025 81 0 0.03 204 13:24 16.05.2020
3084 Clear -1 1025 81 0 0.03 204 12:59 16.05.2020
3085 Clear -1 1025 81 0 0.03 204 12:40 16.05.2020
3086 Clear -1 1025 80 0 0.27 151 12:19 16.05.2020
3087 Clear -1 1025 80 0 0.27 151 11:42 16.05.2020
3088 Clear -1 1024 82 0 0.21 192 11:23 16.05.2020
3089 Clear -1 1024 82 0 0.21 192 10:58 16.05.2020
3090 Clear -1 1024 82 0 0.21 192 10:40 16.05.2020
3091 Clear 0 1024 83 0 0.3 296 10:21 16.05.2020
3092 Clear 0 1024 83 0 0.3 296 09:56 16.05.2020
3093 Clear 0 1024 83 0 0.3 296 09:38 16.05.2020
3094 Clear 0 1023 83 0 0.17 293 09:18 16.05.2020
3095 Clear 0 1023 83 0 0.17 293 08:42 16.05.2020
3096 Clouds 0 1024 82 0 0.26 317 08:19 16.05.2020
3097 Clouds 0 1024 82 0 0.26 317 07:43 16.05.2020
3098 Clouds 1 1024 80 0 0.15 113 07:24 16.05.2020
3099 Clouds 1 1024 80 0 0.15 113 06:49 16.05.2020
3100 Clouds 2 1024 74 0 0.82 115 06:24 16.05.2020
3101 Clouds 2 1024 74 0 0.82 115 05:56 16.05.2020
3102 Clouds 2 1024 69 0 1.29 109 05:29 16.05.2020
3103 Clouds 3 1024 65 0 1.28 109 03:35 16.05.2020
3104 Clouds 4 1023 58 0 1.57 118 02:59 16.05.2020
3105 Clear 4 1022 56 0 1.53 121 02:20 16.05.2020
3106 Clouds 5 1022 56 0 1.58 120 01:44 16.05.2020
3107 Clouds 5 1021 52 0 1.81 113 01:22 16.05.2020
3108 Clouds 5 1021 52 0 1.81 113 00:44 16.05.2020
3109 Clear 6 1019 47 0 2.79 103 00:21 16.05.2020
3110 Clear 6 1019 47 0 2.79 103 23:41 15.05.2020
3111 Clear 9 1018 37 0 3.93 100 23:20 15.05.2020
3112 Clear 9 1018 37 0 3.93 100 23:20 15.05.2020
3113 Clear 9 1018 37 0 3.93 100 22:57 15.05.2020
3114 Clear 9 1018 37 0 3.93 100 22:38 15.05.2020
3115 Clear 10 1017 34 0 2.31 90 22:18 15.05.2020
3116 Clear 10 1017 34 0 2.31 90 21:40 15.05.2020
3117 Clear 10 1017 33 0 1.27 72 21:21 15.05.2020
3118 Clear 10 1017 33 0 1.43 78 21:21 15.05.2020
3119 Clear 10 1017 33 0 1.27 72 20:59 15.05.2020
3120 Clear 10 1017 33 0 1.27 72 20:40 15.05.2020
3121 Clouds 10 1018 32 0 0.46 64 20:22 15.05.2020
3122 Clear 10 1018 32 0 0.74 69 19:56 15.05.2020
3123 Clear 10 1018 32 0 0.74 69 19:37 15.05.2020
3124 Clear 10 1018 32 0 0.74 69 19:37 15.05.2020
3125 Clouds 9 1019 32 0 0.21 43 19:19 15.05.2020
3126 Clear 10 1019 32 0 0.38 77 18:43 15.05.2020
3127 Clear 9 1021 33 0 0.11 320 18:24 15.05.2020
3128 Clear 9 1021 33 0 0.11 320 17:40 15.05.2020
3129 Clear 8 1022 35 0 0.22 264 17:20 15.05.2020
3130 Clear 8 1022 35 0 0.22 264 16:58 15.05.2020
3131 Clouds 8 1022 35 0 0.46 266 16:39 15.05.2020
3132 Clear 6 1023 37 0 0.57 271 16:19 15.05.2020
3133 Clear 6 1023 37 0 0.57 271 15:55 15.05.2020
3134 Clouds 6 1023 38 0 0.76 267 15:37 15.05.2020
3135 Clear 5 1024 41 0 1.07 273 15:18 15.05.2020
3136 Clouds 5 1024 43 0 1.22 279 14:42 15.05.2020
3137 Clear 3 1024 50 0 1.08 272 14:24 15.05.2020
3138 Clear 3 1024 50 0 1.08 272 13:58 15.05.2020
3139 Clear 3 1024 50 0 1.08 272 13:39 15.05.2020
3140 Clear -1 1024 68 0 1.08 267 13:20 15.05.2020
3141 Clear -1 1024 68 0 1.08 267 12:40 15.05.2020
3142 Clear -1 1024 68 0 1.08 267 12:40 15.05.2020
3143 Clear -1 1023 68 0 1.27 262 12:19 15.05.2020
3144 Clear -1 1023 68 0 1.27 262 12:19 15.05.2020
3145 Clear -1 1023 68 0 1.27 262 11:57 15.05.2020
3146 Clear -1 1023 68 0 1.27 262 11:38 15.05.2020
3147 Clear -1 1022 71 0 1.43 265 11:20 15.05.2020
3148 Clear -1 1022 71 0 1.43 265 10:58 15.05.2020
3149 Clear -1 1022 71 0 1.43 265 10:39 15.05.2020
3150 Clear -1 1022 73 0 1.37 261 10:21 15.05.2020
3151 Clear -1 1022 73 0 1.37 261 09:58 15.05.2020
3152 Clear -1 1022 73 0 1.37 261 09:37 15.05.2020
3153 Clear -1 1022 77 0 1.17 271 09:18 15.05.2020
3154 Clear -1 1022 77 0 1.17 271 08:54 15.05.2020
3155 Clear -1 1022 77 0 1.17 271 08:36 15.05.2020
3156 Clear 0 1022 79 0 1.36 304 08:18 15.05.2020
3157 Clear 0 1022 79 0 1.36 304 07:42 15.05.2020
3158 Clear 1 1022 72 0 1.77 313 07:23 15.05.2020
3159 Clear 1 1022 72 0 1.77 313 06:35 15.05.2020
3160 Clear 1 1022 65 0 1.62 288 05:40 15.05.2020
3161 Clear 2 1022 59 0 1.41 234 03:52 15.05.2020
3162 Clear 2 1022 59 0 1.41 234 03:31 15.05.2020
3163 Clouds 4 1020 55 0 1.89 261 01:38 15.05.2020
3164 Clouds 5 1019 50 0 2.75 257 01:19 15.05.2020
3165 Clouds 5 1019 50 0 2.75 257 00:44 15.05.2020
3166 Clouds 7 1017 43 0 3.84 260 00:23 15.05.2020
3167 Clouds 7 1017 43 0 3.84 260 23:43 14.05.2020
3168 Clouds 9 1016 34 0 5.96 263 23:20 14.05.2020
3169 Clouds 9 1016 34 0 5.96 263 22:55 14.05.2020
3170 Clouds 9 1016 34 0 5.96 263 22:37 14.05.2020
3171 Clouds 10 1015 32 0 6.42 261 22:19 14.05.2020
3172 Clouds 10 1015 32 0 6.42 261 21:42 14.05.2020
3173 Clouds 11 1015 30 0 6.88 262 21:20 14.05.2020
3174 Clouds 11 1015 30 0 6.88 262 20:59 14.05.2020
3175 Clouds 11 1015 30 0 6.88 262 20:59 14.05.2020
3176 Clouds 11 1015 30 0 6.88 262 20:41 14.05.2020
3177 Clouds 11 1016 30 0 6.54 261 20:20 14.05.2020
3178 Clouds 11 1016 30 0 6.54 261 19:58 14.05.2020
3179 Clouds 11 1016 30 0 6.54 261 19:39 14.05.2020
3180 Clouds 10 1018 30 0 6.2 259 19:20 14.05.2020
3181 Clouds 10 1018 30 0 6.2 259 18:58 14.05.2020
3182 Clouds 10 1018 30 0 6.2 259 18:38 14.05.2020
3183 Clouds 10 1020 30 0 5.98 275 18:20 14.05.2020
3184 Clouds 10 1020 30 0 5.98 275 17:58 14.05.2020
3185 Clouds 10 1020 30 0 5.98 275 17:37 14.05.2020
3186 Clouds 8 1022 34 0 4.37 293 17:19 14.05.2020
3187 Clouds 8 1022 34 0 4.37 293 16:57 14.05.2020
3188 Clouds 8 1022 34 0 4.37 293 16:38 14.05.2020
3189 Clouds 6 1023 41 0 3.41 294 16:19 14.05.2020
3190 Clouds 6 1023 41 0 3.41 294 15:56 14.05.2020
3191 Clouds 6 1023 41 0 3.41 294 15:36 14.05.2020
3192 Clear 4 1023 49 0 2.52 283 15:18 14.05.2020
3193 Clear 4 1023 49 0 2.52 283 14:40 14.05.2020
3194 Clouds 2 1024 59 0 2.1 279 14:20 14.05.2020
3195 Clouds 2 1024 59 0 2.1 279 14:20 14.05.2020
3196 Clouds 2 1024 59 0 2.1 279 13:57 14.05.2020
3197 Clouds 2 1024 59 0 2.1 279 13:39 14.05.2020
3198 Clouds -1 1024 71 0 1.91 276 13:20 14.05.2020
3199 Clouds -1 1024 71 0 1.91 276 12:58 14.05.2020
3200 Clouds -1 1024 71 0 1.91 276 12:39 14.05.2020
3201 Clouds -1 1023 71 0 2.02 272 12:20 14.05.2020
3202 Clouds -1 1023 71 0 2.02 272 11:58 14.05.2020
3203 Clouds -1 1023 71 0 2.02 272 11:39 14.05.2020
3204 Clouds 0 1023 72 0 2.08 278 11:20 14.05.2020
3205 Clouds 0 1023 72 0 2.08 278 10:55 14.05.2020
3206 Clouds 0 1023 72 0 2.08 278 10:36 14.05.2020
3207 Clouds 0 1023 72 0 2.26 282 10:18 14.05.2020
3208 Clouds 0 1023 72 0 2.26 282 09:42 14.05.2020
3209 Clouds 0 1022 71 0 2.21 289 09:22 14.05.2020
3210 Clear 0 1022 70 0 2.32 287 08:41 14.05.2020
3211 Clouds 1 1022 69 0 2.24 292 08:21 14.05.2020
3212 Clouds 1 1022 69 0 2.24 292 07:46 14.05.2020
3213 Clouds 2 1022 67 0 1.99 295 07:25 14.05.2020
3214 Clouds 2 1022 67 0 1.99 295 06:55 14.05.2020
3215 Clouds 2 1022 67 0 1.99 295 06:31 14.05.2020
3216 Clouds 2 1022 65 0 1.78 283 05:57 14.05.2020
3217 Clouds 2 1022 65 0 1.78 283 05:35 14.05.2020
3218 Clouds 3 1022 63 0 1.72 263 04:32 14.05.2020
3219 Clouds 4 1020 63 0 1.28 297 03:28 14.05.2020
3220 Clouds 4 1020 63 0 1.28 297 02:42 14.05.2020
3221 Clouds 4 1019 60 0 1.38 307 02:18 14.05.2020
3222 Clouds 6 1018 54 0 3.5 269 01:28 14.05.2020
3223 Clouds 6 1018 54 0 3.5 269 00:50 14.05.2020
3224 Clouds 7 1016 48 0 5.51 274 00:25 14.05.2020
3225 Clouds 7 1016 48 0 5.51 274 23:44 13.05.2020
3226 Clouds 9 1015 42 0 8.78 271 23:22 13.05.2020
3227 Clouds 9 1015 42 0 8.78 271 22:56 13.05.2020
3228 Clouds 9 1015 42 0 8.78 271 22:37 13.05.2020
3229 Clouds 10 1014 37 0 10.34 275 22:18 13.05.2020
3230 Clouds 10 1014 37 0 10.34 275 21:56 13.05.2020
3231 Clouds 10 1014 37 0 10.34 275 21:38 13.05.2020
3232 Clouds 10 1014 35 0 9.25 275 21:18 13.05.2020
3233 Clouds 10 1014 35 0 9.25 275 20:41 13.05.2020
3234 Clouds 11 1015 34 0 9 272 20:23 13.05.2020
3235 Clouds 11 1015 34 0 9 272 19:44 13.05.2020
3236 Clouds 11 1017 33 0 7.69 270 19:25 13.05.2020
3237 Clouds 11 1017 33 0 7.69 270 18:58 13.05.2020
3238 Clouds 11 1017 33 0 7.69 270 18:40 13.05.2020
3239 Clouds 10 1019 36 0 6.4 264 18:21 13.05.2020
3240 Clouds 10 1019 36 0 6.4 264 17:39 13.05.2020
3241 Clouds 9 1021 38 0 5.08 267 17:20 13.05.2020
3242 Clouds 9 1021 38 0 5.08 267 16:58 13.05.2020
3243 Clouds 9 1021 38 0 5.08 267 16:39 13.05.2020
3244 Clouds 7 1023 44 0 4.23 276 16:19 13.05.2020
3245 Clouds 7 1023 44 0 4.23 276 16:19 13.05.2020
3246 Clouds 7 1023 44 0 4.23 276 15:43 13.05.2020
3247 Clouds 4 1023 52 0 3.84 278 15:20 13.05.2020
3248 Clouds 4 1023 52 0 3.84 278 14:59 13.05.2020
3249 Clouds 4 1023 52 0 3.84 278 14:41 13.05.2020
3250 Clouds 2 1023 64 0 2.62 272 14:22 13.05.2020
3251 Clouds 2 1023 64 0 2.62 272 13:58 13.05.2020
3252 Clouds 2 1023 64 0 2.62 272 13:39 13.05.2020
3253 Clouds 0 1023 76 0 2.17 281 13:20 13.05.2020
3254 Clouds 0 1023 76 0 2.17 281 12:57 13.05.2020
3255 Clouds 0 1023 76 0 2.17 281 12:38 13.05.2020
3256 Clouds 0 1022 76 0 2.22 290 12:18 13.05.2020
3257 Clouds 0 1022 76 0 2.22 290 11:55 13.05.2020
3258 Clouds 0 1022 76 0 2.22 290 11:36 13.05.2020
3259 Clouds 0 1022 76 0 2.19 300 11:18 13.05.2020
3260 Clouds 0 1022 76 0 2.19 300 10:56 13.05.2020
3261 Clouds 0 1022 76 0 2.19 300 10:37 13.05.2020
3262 Clouds 0 1021 76 0 2.06 294 10:18 13.05.2020
3263 Clouds 0 1021 76 0 2.06 294 09:41 13.05.2020
3264 Clouds 1 1021 76 0 1.81 289 09:22 13.05.2020
3265 Clouds 1 1021 75 0 1.9 293 08:54 13.05.2020
3266 Clouds 1 1021 75 0 1.9 293 08:36 13.05.2020
3267 Clouds 1 1020 73 0 1.97 290 08:18 13.05.2020
3268 Clouds 1 1020 73 0 1.97 290 07:42 13.05.2020
3269 Clouds 2 1020 71 0 2.13 295 07:24 13.05.2020
3270 Clouds 2 1020 71 0 2.13 295 06:47 13.05.2020
3271 Clouds 3 1020 67 0 2.15 292 06:27 13.05.2020
3272 Clouds 3 1020 63 0 2.33 281 04:50 13.05.2020
3273 Clouds 5 1018 56 0 2.09 262 03:27 13.05.2020
3274 Clouds 5 1018 55 0 2.32 251 02:32 13.05.2020
3275 Clouds 6 1016 53 0 2.2 258 01:37 13.05.2020
3276 Clouds 7 1014 49 0 2.86 262 00:50 13.05.2020
3277 Clouds 9 1012 43 0 5.58 270 00:20 13.05.2020
3278 Clouds 9 1012 43 0 5.58 270 23:40 12.05.2020
3279 Clouds 11 1011 37 0 9.1 271 23:21 12.05.2020
3280 Clouds 11 1011 37 0 9.1 271 22:58 12.05.2020
3281 Clouds 11 1011 37 0 9.1 271 22:40 12.05.2020
3282 Clouds 12 1010 34 0 10.51 271 22:21 12.05.2020
3283 Clouds 12 1010 34 0 10.51 271 21:56 12.05.2020
3284 Clouds 12 1010 34 0 10.51 271 21:37 12.05.2020
3285 Clouds 13 1011 31 0 10.46 277 21:19 12.05.2020
3286 Clouds 13 1011 31 0 10.46 277 20:57 12.05.2020
3287 Clouds 13 1011 31 0 10.46 277 20:38 12.05.2020
3288 Clouds 13 1012 30 0 10.38 280 20:20 12.05.2020
3289 Clouds 13 1012 30 0 10.38 280 19:56 12.05.2020
3290 Clouds 13 1012 30 0 10.38 280 19:37 12.05.2020
3291 Clouds 13 1013 30 0 11.05 283 19:19 12.05.2020
3292 Clouds 13 1013 30 0 11.05 283 18:43 12.05.2020
3293 Clouds 13 1015 30 0 10.46 287 18:24 12.05.2020
3294 Clouds 13 1015 30 0 10.46 287 17:59 12.05.2020
3295 Clouds 13 1015 30 0 10.46 287 17:41 12.05.2020
3296 Clouds 11 1017 35 0 6.32 286 17:22 12.05.2020
3297 Clouds 11 1017 35 0 6.32 286 16:47 12.05.2020
3298 Clear 8 1019 43 0 4.57 296 16:24 12.05.2020
3299 Clear 8 1019 43 0 4.57 296 15:56 12.05.2020
3300 Clear 8 1019 43 0 4.57 296 15:37 12.05.2020
3301 Clear 6 1019 51 0 3.33 281 15:19 12.05.2020
3302 Clear 6 1019 51 0 3.33 281 14:55 12.05.2020
3303 Clear 6 1019 51 0 3.33 281 14:36 12.05.2020
3304 Clear 4 1020 59 0 2.59 280 14:18 12.05.2020
3305 Clouds 4 1020 59 0 2.41 282 13:57 12.05.2020
3306 Clouds 4 1020 59 0 2.41 282 13:39 12.05.2020
3307 Clouds 2 1020 72 0 2.02 284 13:19 12.05.2020
3308 Clouds 2 1020 72 0 2.02 284 13:19 12.05.2020
3309 Clouds 2 1020 72 0 2.02 284 12:57 12.05.2020
3310 Clouds 2 1020 72 0 2.02 284 12:39 12.05.2020
3311 Clear 2 1019 71 0 2.09 285 12:21 12.05.2020
3312 Clear 2 1019 71 0 2.09 285 11:57 12.05.2020
3313 Clear 2 1019 71 0 2.09 285 11:38 12.05.2020
3314 Clear 2 1019 68 0 2.26 284 11:20 12.05.2020
3315 Clear 2 1019 68 0 2.26 284 10:56 12.05.2020
3316 Clear 2 1019 68 0 2.26 284 10:38 12.05.2020
3317 Clear 3 1019 67 0 2.25 281 10:19 12.05.2020
3318 Clear 3 1019 67 0 2.25 281 09:57 12.05.2020
3319 Clear 3 1019 67 0 2.25 281 09:38 12.05.2020
3320 Clear 3 1019 67 0 2.25 281 09:38 12.05.2020
3321 Clear 3 1018 66 0 2.1 288 09:20 12.05.2020
3322 Clear 3 1019 66 0 2.16 288 08:42 12.05.2020
3323 Clear 4 1019 63 0 2.11 283 08:21 12.05.2020
3324 Clear 4 1019 63 0 2.11 283 07:57 12.05.2020
3325 Clear 4 1019 63 0 2.11 283 07:39 12.05.2020
3326 Clear 5 1019 59 0 2.19 269 07:19 12.05.2020
3327 Clear 5 1019 59 0 2.19 269 06:38 12.05.2020
3328 Clear 5 1019 59 0 2.19 269 06:38 12.05.2020
3329 Clear 5 1019 55 0 2.42 260 06:19 12.05.2020
3330 Clear 5 1019 55 0 2.42 260 05:45 12.05.2020
3331 Clear 7 1018 51 0 1.64 274 03:57 12.05.2020
3332 Clear 7 1017 49 0 2.15 274 03:21 12.05.2020
3333 Clear 8 1016 46 0 3.61 277 02:27 12.05.2020
3334 Clear 8 1016 45 0 3.72 277 01:46 12.05.2020
3335 Clear 9 1014 42 0 5.92 276 00:59 12.05.2020
3336 Clear 11 1013 38 0 5.12 280 00:24 12.05.2020
3337 Clear 11 1013 38 0 5.12 280 23:57 11.05.2020
3338 Clear 11 1013 38 0 5.12 280 23:38 11.05.2020
3339 Clear 13 1012 30 0 5.17 278 23:19 11.05.2020
3340 Clear 13 1012 30 0 5.17 278 22:57 11.05.2020
3341 Clear 13 1012 30 0 5.17 278 22:39 11.05.2020
3342 Clear 13 1012 30 0 5.17 278 22:39 11.05.2020
3343 Clear 14 1011 29 0 5.22 277 22:19 11.05.2020
3344 Clear 14 1011 29 0 5.22 277 21:55 11.05.2020
3345 Clear 14 1011 28 0 5.67 278 21:37 11.05.2020
3346 Clear 15 1011 27 0 5.47 287 21:18 11.05.2020
3347 Clear 15 1011 27 0 5.47 287 20:56 11.05.2020
3348 Clear 15 1011 27 0 5.47 287 20:38 11.05.2020
3349 Clear 14 1012 27 0 3.81 293 20:18 11.05.2020
3350 Clear 14 1012 27 0 3.81 293 19:41 11.05.2020
3351 Clear 14 1013 28 0 2.81 277 19:22 11.05.2020
3352 Clear 14 1013 28 0 2.81 277 18:58 11.05.2020
3353 Clear 14 1013 28 0 2.81 277 18:39 11.05.2020
3354 Clear 13 1014 29 0 2.51 263 18:20 11.05.2020
3355 Clear 13 1014 29 0 2.51 263 17:58 11.05.2020
3356 Clear 13 1014 29 0 2.51 263 17:40 11.05.2020
3357 Clear 12 1015 33 0 1.93 280 17:21 11.05.2020
3358 Clear 12 1015 33 0 1.93 280 16:57 11.05.2020
3359 Clear 12 1015 33 0 1.93 280 16:38 11.05.2020
3360 Clear 10 1017 36 0 2.17 275 16:19 11.05.2020
3361 Clear 10 1017 36 0 2.17 275 15:42 11.05.2020
3362 Clear 8 1017 40 0 2.17 276 15:21 11.05.2020
3363 Clear 8 1017 40 0 2.17 276 14:59 11.05.2020
3364 Clear 8 1017 40 0 2.17 276 14:41 11.05.2020
3365 Clouds 6 1017 47 0 1.93 272 14:22 11.05.2020
3366 Clear 6 1018 48 0 1.81 290 13:58 11.05.2020
3367 Clear 6 1018 48 0 1.81 290 13:39 11.05.2020
3368 Clouds 3 1017 65 0 1.48 277 13:18 11.05.2020
3369 Clouds 3 1017 65 0 1.48 277 12:56 11.05.2020
3370 Clouds 3 1017 65 0 1.48 277 12:38 11.05.2020
3371 Clear 3 1016 62 0 1.56 262 12:19 11.05.2020
3372 Clear 3 1016 62 0 1.56 262 11:54 11.05.2020
3373 Clear 3 1016 62 0 1.56 262 11:36 11.05.2020
3374 Clouds 3 1015 61 0 1.59 252 11:18 11.05.2020
3375 Clouds 3 1015 61 0 1.59 252 10:54 11.05.2020
3376 Clouds 3 1015 61 0 1.59 252 10:36 11.05.2020
3377 Clear 4 1015 59 0 1.61 253 10:18 11.05.2020
3378 Clear 4 1015 59 0 1.61 253 09:41 11.05.2020
3379 Clear 5 1014 57 0 1.65 246 09:20 11.05.2020
3380 Clear 5 1014 57 0 1.65 246 08:57 11.05.2020
3381 Clear 5 1014 57 0 1.65 246 08:38 11.05.2020
3382 Clear 5 1015 54 0 1.83 250 08:18 11.05.2020
3383 Clear 5 1015 54 0 1.83 250 07:47 11.05.2020
3384 Clear 6 1015 51 0 2.15 248 07:28 11.05.2020
3385 Clear 6 1015 51 0 2.15 248 06:51 11.05.2020
3386 Clear 7 1014 48 0 2.36 243 06:18 11.05.2020
3387 Clear 8 1014 45 0 2.74 240 05:28 11.05.2020
3388 Clear 8 1014 45 0 2.74 240 04:35 11.05.2020
3389 Clear 8 1013 43 0 2.72 236 03:35 11.05.2020
3390 Clear 9 1013 40 0 3.09 243 02:34 11.05.2020
3391 Clouds 10 1011 39 0 3.86 242 01:46 11.05.2020
3392 Clear 11 1010 37 0 5.83 247 00:53 11.05.2020
3393 Clear 13 1008 35 0 5.43 258 00:21 11.05.2020
3394 Clear 13 1008 35 0 5.43 258 23:45 10.05.2020
3395 Clear 15 1007 29 0 7.13 263 23:26 10.05.2020
3396 Clear 15 1007 29 0 7.13 263 22:57 10.05.2020
3397 Clear 15 1007 29 0 7.13 263 22:39 10.05.2020
3398 Clear 16 1007 28 0 7.38 269 22:20 10.05.2020
3399 Clear 16 1007 28 0 7.38 269 21:44 10.05.2020
3400 Clear 17 1007 26 0 5.91 267 21:20 10.05.2020
3401 Clear 17 1007 26 0 6.54 269 20:56 10.05.2020
3402 Clear 17 1007 26 0 6.54 269 20:38 10.05.2020
3403 Clouds 17 1008 26 0 5.64 258 20:20 10.05.2020
3404 Clouds 17 1008 26 0 5.64 258 19:54 10.05.2020
3405 Clouds 17 1008 26 0 5.64 258 19:36 10.05.2020
3406 Clouds 17 1009 27 0 4.79 268 19:18 10.05.2020
3407 Clouds 17 1009 27 0 4.79 268 18:54 10.05.2020
3408 Clouds 17 1009 27 0 4.79 268 18:36 10.05.2020
3409 Clouds 15 1011 30 0 2.51 289 18:18 10.05.2020
3410 Clouds 15 1011 30 0 2.51 289 17:41 10.05.2020
3411 Clouds 13 1013 33 0 2.23 293 17:22 10.05.2020
3412 Clouds 13 1013 33 0 2.23 293 16:59 10.05.2020
3413 Clouds 13 1013 33 0 2.23 293 16:41 10.05.2020
3414 Clouds 12 1015 36 0 2.24 298 16:19 10.05.2020
3415 Clouds 12 1015 36 0 2.24 298 15:57 10.05.2020
3416 Clouds 12 1015 36 0 2.24 298 15:36 10.05.2020
3417 Clear 10 1015 40 0 1.99 303 15:18 10.05.2020
3418 Clear 10 1015 40 0 1.99 303 14:55 10.05.2020
3419 Clear 10 1015 40 0 1.99 303 14:37 10.05.2020
3420 Clear 9 1016 46 0 1.89 297 14:18 10.05.2020
3421 Clear 9 1016 46 0 1.89 297 13:39 10.05.2020
3422 Clear 5 1016 62 0 1.44 286 13:21 10.05.2020
3423 Clear 5 1016 62 0 1.44 286 12:59 10.05.2020
3424 Clear 5 1016 62 0 1.44 286 12:41 10.05.2020
3425 Clear 5 1015 64 0 1.16 271 12:21 10.05.2020
3426 Clear 5 1015 64 0 1.16 271 11:58 10.05.2020
3427 Clear 5 1015 64 0 1.16 271 11:39 10.05.2020
3428 Clear 5 1015 64 0 1.22 274 11:20 10.05.2020
3429 Clear 5 1015 64 0 1.22 274 10:48 10.05.2020
3430 Clear 5 1015 64 0 1.22 274 10:29 10.05.2020
3431 Clear 5 1015 64 0 1.15 272 09:59 10.05.2020
3432 Clear 5 1015 64 0 1.15 272 09:41 10.05.2020
3433 Clear 6 1015 63 0 0.99 283 09:22 10.05.2020
3434 Clear 6 1015 63 0 0.99 283 08:55 10.05.2020
3435 Clear 6 1015 61 0 1.06 296 08:25 10.05.2020
3436 Clear 6 1015 61 0 1.06 296 07:59 10.05.2020
3437 Clear 6 1015 61 0 1.06 296 07:38 10.05.2020
3438 Clear 7 1015 60 0 0.9 307 07:19 10.05.2020
3439 Clear 7 1015 60 0 0.9 307 06:50 10.05.2020
3440 Clear 7 1015 58 0 0.8 309 06:23 10.05.2020
3441 Clear 7 1015 58 0 0.8 309 05:44 10.05.2020
3442 Clear 8 1016 57 0 0.53 298 04:42 10.05.2020
3443 Clear 8 1015 55 0 0.42 1 04:23 10.05.2020
3444 Clear 8 1015 55 0 0.42 1 03:43 10.05.2020
3445 Clear 9 1015 52 0 0.92 49 02:55 10.05.2020
3446 Clear 9 1014 50 0 1.32 80 02:24 10.05.2020
3447 Clear 9 1014 50 0 1.32 80 02:24 10.05.2020
3448 Clear 10 1014 50 0 1.3 74 01:57 10.05.2020
3449 Clear 10 1014 50 0 1.3 74 01:57 10.05.2020
3450 Clear 10 1014 50 0 1.3 74 01:39 10.05.2020
3451 Clear 10 1013 47 0 1.93 106 01:18 10.05.2020
3452 Clear 10 1013 47 0 1.93 106 00:42 10.05.2020
3453 Clear 12 1012 39 0 2.4 88 00:20 10.05.2020
3454 Clear 12 1012 39 0 2.4 88 23:40 09.05.2020
3455 Clear 15 1011 29 0 2.02 62 23:21 09.05.2020
3456 Clear 15 1011 29 0 2.02 62 22:57 09.05.2020
3457 Clear 15 1011 29 0 2.02 62 22:38 09.05.2020
3458 Clear 15 1011 27 0 1.41 33 22:20 09.05.2020
3459 Clear 15 1011 27 0 1.41 33 21:55 09.05.2020
3460 Clear 15 1011 27 0 1.41 33 21:37 09.05.2020
3461 Clear 15 1010 26 0 1.4 353 21:19 09.05.2020
3462 Clear 15 1010 26 0 1.4 353 20:55 09.05.2020
3463 Clear 15 1010 26 0 1.4 353 20:36 09.05.2020
3464 Clear 15 1011 27 0 1.09 343 20:18 09.05.2020
3465 Clear 15 1011 27 0 1.09 343 19:40 09.05.2020
3466 Clear 14 1013 29 0 1 332 19:20 09.05.2020
3467 Clear 14 1013 29 0 1 332 18:55 09.05.2020
3468 Clear 14 1013 29 0 1 332 18:55 09.05.2020
3469 Clear 14 1013 29 0 1 332 18:37 09.05.2020
3470 Clear 13 1015 32 0 1.03 314 18:18 09.05.2020
3471 Clear 13 1015 32 0 1.03 314 18:18 09.05.2020
3472 Clear 13 1015 32 0 1.03 314 17:42 09.05.2020
3473 Clear 12 1017 36 0 1.42 302 17:22 09.05.2020
3474 Clear 12 1017 36 0 1.42 302 16:41 09.05.2020
3475 Clear 11 1019 42 0 1.73 306 16:20 09.05.2020
3476 Clear 11 1019 42 0 1.73 306 15:58 09.05.2020
3477 Clear 11 1019 42 0 1.73 306 15:39 09.05.2020
3478 Clear 9 1019 49 0 1.56 301 15:21 09.05.2020
3479 Clear 9 1019 49 0 1.56 301 14:43 09.05.2020
3480 Clear 7 1020 58 0 1.08 282 14:20 09.05.2020
3481 Clear 7 1019 58 0 1.02 284 13:59 09.05.2020
3482 Clear 7 1019 58 0 1.02 284 13:41 09.05.2020
3483 Clear 3 1019 76 0 0.92 281 13:21 09.05.2020
3484 Clear 3 1019 76 0 0.92 281 12:57 09.05.2020
3485 Clear 3 1019 76 0 0.92 281 12:57 09.05.2020
3486 Clear 3 1019 76 0 0.92 281 12:39 09.05.2020
3487 Clear 3 1018 78 0 0.83 290 12:21 09.05.2020
3488 Clear 3 1018 78 0 0.83 290 11:43 09.05.2020
3489 Clear 3 1018 76 0 1.06 296 11:20 09.05.2020
3490 Clear 3 1018 76 0 1.06 296 10:48 09.05.2020
3491 Clear 4 1018 74 0 0.94 299 10:27 09.05.2020
3492 Clear 4 1018 74 0 0.94 299 09:59 09.05.2020
3493 Clear 4 1018 74 0 0.94 299 09:41 09.05.2020
3494 Clear 4 1018 72 0 1.06 301 09:19 09.05.2020
3495 Clear 4 1018 72 0 1.06 301 08:52 09.05.2020
3496 Clear 4 1018 72 0 1.06 301 08:33 09.05.2020
3497 Clear 5 1019 70 0 1.23 313 07:55 09.05.2020
3498 Clear 5 1019 70 0 1.23 313 07:37 09.05.2020
3499 Clear 6 1019 67 0 0.96 320 07:19 09.05.2020
3500 Clear 6 1019 65 0 1.12 316 06:26 09.05.2020
3501 Clear 6 1019 65 0 1.12 316 05:50 09.05.2020
3502 Clear 6 1020 63 0 0.89 334 04:58 09.05.2020
3503 Clear 7 1020 60 0 1.01 9 03:39 09.05.2020
3504 Clear 8 1020 58 0 1.13 41 02:53 09.05.2020
3505 Clear 8 1020 58 0 1.13 41 02:29 09.05.2020
3506 Clear 8 1019 57 0 1.42 74 01:48 09.05.2020
3507 Clear 9 1017 53 0 2.32 85 01:20 09.05.2020
3508 Clear 9 1017 53 0 2.32 85 00:42 09.05.2020
3509 Clear 11 1016 45 0 3.08 72 00:18 09.05.2020
3510 Clear 11 1016 45 0 3.08 72 23:43 08.05.2020
3511 Clear 13 1015 36 0 2.83 49 23:25 08.05.2020
3512 Clear 13 1015 36 0 2.83 49 22:55 08.05.2020
3513 Clear 13 1015 36 0 2.83 49 22:37 08.05.2020
3514 Clear 14 1015 33 0 2.07 23 22:19 08.05.2020
3515 Clear 14 1015 33 0 2.07 23 21:54 08.05.2020
3516 Clear 14 1015 33 0 2.07 23 21:36 08.05.2020
3517 Clear 14 1015 33 0 1.73 10 21:18 08.05.2020
3518 Clear 14 1014 33 0 1.41 12 20:55 08.05.2020
3519 Clear 14 1014 33 0 1.41 12 20:37 08.05.2020
3520 Clear 13 1015 34 0 1.42 1 20:19 08.05.2020
3521 Clear 13 1015 34 0 1.42 1 19:42 08.05.2020
3522 Clear 13 1017 35 0 1.53 356 19:21 08.05.2020
3523 Clear 13 1017 35 0 1.53 356 18:46 08.05.2020
3524 Clear 13 1017 35 0 1.53 356 18:46 08.05.2020
3525 Clear 12 1019 38 0 1.59 354 18:28 08.05.2020
3526 Clear 12 1019 38 0 1.59 354 17:43 08.05.2020
3527 Clear 11 1020 41 0 1.45 354 17:20 08.05.2020
3528 Clear 11 1020 41 0 1.45 354 16:56 08.05.2020
3529 Clear 11 1020 41 0 1.45 354 16:38 08.05.2020
3530 Clear 10 1022 47 0 1.17 350 16:19 08.05.2020
3531 Clear 10 1022 47 0 1.17 350 15:43 08.05.2020
3532 Clear 8 1023 54 0 0.82 333 15:22 08.05.2020
3533 Clear 8 1023 54 0 0.82 333 14:57 08.05.2020
3534 Clear 8 1023 54 0 0.82 333 14:39 08.05.2020
3535 Clear 6 1023 63 0 0.53 293 14:19 08.05.2020
3536 Clear 6 1023 63 0 0.53 293 13:56 08.05.2020
3537 Clear 6 1023 63 0 0.53 293 13:38 08.05.2020
3538 Clear 3 1023 81 0 0.48 268 13:18 08.05.2020
3539 Clear 3 1023 81 0 0.48 268 12:44 08.05.2020
3540 Clear 3 1022 82 0 0.53 274 12:23 08.05.2020
3541 Clear 3 1022 82 0 0.53 274 11:55 08.05.2020
3542 Clear 3 1022 82 0 0.53 274 11:36 08.05.2020
3543 Clear 3 1021 80 0 0.49 271 11:18 08.05.2020
3544 Clear 3 1021 80 0 0.49 271 10:43 08.05.2020
3545 Clear 3 1021 79 0 0.44 261 10:21 08.05.2020
3546 Clear 3 1021 79 0 0.44 261 09:59 08.05.2020
3547 Clear 3 1021 79 0 0.44 261 09:40 08.05.2020
3548 Clear 4 1021 80 0 0.55 230 09:19 08.05.2020
3549 Clear 4 1021 80 0 0.55 230 08:45 08.05.2020
3550 Clear 4 1021 82 0 0.55 219 08:24 08.05.2020
3551 Clear 4 1021 82 0 0.55 219 07:45 08.05.2020
3552 Clear 4 1021 84 0 0.51 251 07:25 08.05.2020
3553 Clear 4 1021 84 0 0.51 251 06:53 08.05.2020
3554 Clear 5 1021 84 0 0.67 301 06:25 08.05.2020
3555 Clear 5 1021 84 0 0.67 301 05:59 08.05.2020
3556 Clear 5 1022 82 0 1.13 321 04:56 08.05.2020
3557 Clear 6 1021 75 0 1.16 38 02:59 08.05.2020
3558 Clouds 7 1020 72 0 1.62 57 02:24 08.05.2020
3559 Clouds 7 1020 71 0 1.75 56 01:38 08.05.2020
3560 Clouds 8 1019 66 0 2.15 60 01:19 08.05.2020
3561 Clouds 8 1019 66 0 2.15 60 00:46 08.05.2020
3562 Clouds 9 1017 57 0 3.19 65 00:24 08.05.2020
3563 Clouds 9 1017 57 0 3.19 65 23:46 07.05.2020
3564 Clouds 10 1016 47 0 3.16 87 23:24 07.05.2020
3565 Clouds 10 1016 47 0 3.16 87 22:59 07.05.2020
3566 Clouds 10 1016 47 0 3.16 87 22:41 07.05.2020
3567 Clouds 12 1015 40 0 3.65 100 22:20 07.05.2020
3568 Clouds 12 1015 40 0 3.65 100 21:57 07.05.2020
3569 Clouds 12 1015 40 0 3.65 100 21:38 07.05.2020
3570 Clouds 14 1015 32 0 1.96 112 21:19 07.05.2020
3571 Clouds 14 1015 32 0 1.96 112 21:19 07.05.2020
3572 Clouds 14 1015 32 0 1.96 112 20:57 07.05.2020
3573 Clouds 14 1015 32 0 1.96 112 20:37 07.05.2020
3574 Clouds 13 1016 30 0 0.95 132 20:19 07.05.2020
3575 Clouds 13 1016 30 0 0.95 132 19:46 07.05.2020
3576 Clouds 12 1017 31 0 0.38 202 19:22 07.05.2020
3577 Clouds 12 1017 31 0 0.38 202 18:55 07.05.2020
3578 Clouds 12 1017 31 0 0.38 202 18:36 07.05.2020
3579 Clouds 12 1017 31 0 0.38 202 18:36 07.05.2020
3580 Clouds 11 1019 34 0 0.77 289 18:18 07.05.2020
3581 Clouds 11 1019 34 0 0.77 289 17:41 07.05.2020
3582 Clouds 10 1021 38 0 0.91 289 17:20 07.05.2020
3583 Clouds 10 1021 38 0 0.91 289 16:43 07.05.2020
3584 Clouds 9 1022 45 0 1.38 285 16:19 07.05.2020
3585 Clouds 9 1022 45 0 1.38 285 15:57 07.05.2020
3586 Clouds 9 1022 45 0 1.38 285 15:39 07.05.2020
3587 Clouds 7 1023 53 0 1.49 296 15:18 07.05.2020
3588 Clouds 7 1023 53 0 1.49 296 14:57 07.05.2020
3589 Clouds 7 1023 53 0 1.49 296 14:39 07.05.2020
3590 Clouds 6 1023 59 0 0.92 256 14:18 07.05.2020
3591 Clouds 6 1023 59 0 0.92 256 13:42 07.05.2020
3592 Clouds 3 1023 74 0 1.19 226 13:24 07.05.2020
3593 Clouds 3 1023 74 0 1.19 226 12:43 07.05.2020
3594 Clouds 3 1022 80 0 1.34 226 12:20 07.05.2020
3595 Clouds 3 1022 80 0 1.34 226 11:57 07.05.2020
3596 Clouds 3 1022 80 0 1.34 226 11:38 07.05.2020
3597 Clouds 3 1022 85 0 0.98 247 11:20 07.05.2020
3598 Clouds 3 1022 85 0 0.98 247 10:40 07.05.2020
3599 Clouds 3 1022 88 0 1.13 309 10:21 07.05.2020
3600 Clouds 3 1022 88 0 1.13 309 09:41 07.05.2020
3601 Clear 3 1021 80 0 1.3 347 09:20 07.05.2020
3602 Clear 3 1021 80 0 1.3 347 08:56 07.05.2020
3603 Clear 3 1021 80 0 1.3 347 08:38 07.05.2020
3604 Clouds 3 1022 79 0 0.46 339 08:19 07.05.2020
3605 Clouds 3 1022 79 0 0.46 339 07:43 07.05.2020
3606 Clouds 4 1022 82 0 0.44 273 07:25 07.05.2020
3607 Clouds 4 1022 82 0 0.44 273 06:48 07.05.2020
3608 Clouds 4 1022 83 0 1.12 272 06:24 07.05.2020
3609 Clouds 4 1022 83 0 1.12 272 05:30 07.05.2020
3610 Clouds 5 1022 80 0 1.94 3 03:55 07.05.2020
3611 Clouds 6 1021 77 0 2.46 32 03:25 07.05.2020
3612 Clouds 6 1021 77 0 2.46 32 02:53 07.05.2020
3613 Clouds 6 1020 76 0 2.62 48 01:45 07.05.2020
3614 Clouds 7 1019 67 0 2.09 53 01:24 07.05.2020
3615 Clouds 7 1019 67 0 2.09 53 00:47 07.05.2020
3616 Clouds 10 1017 47 0 1.08 340 00:28 07.05.2020
3617 Clouds 10 1017 47 0 1.08 340 23:48 06.05.2020
3618 Clouds 13 1016 34 0 3.35 263 23:26 06.05.2020
3619 Clouds 13 1016 34 0 3.35 263 22:58 06.05.2020
3620 Clouds 13 1016 34 0 3.35 263 22:40 06.05.2020
3621 Clouds 14 1016 32 0 4.01 247 22:20 06.05.2020
3622 Clouds 14 1016 32 0 4.01 247 21:58 06.05.2020
3623 Clouds 14 1016 32 0 4.01 247 21:40 06.05.2020
3624 Clouds 14 1016 32 0 4.01 247 21:40 06.05.2020
3625 Clouds 15 1016 30 0 4.79 246 21:21 06.05.2020
3626 Clouds 15 1016 30 0 4.79 246 21:21 06.05.2020
3627 Clouds 15 1016 30 0 5.07 252 20:54 06.05.2020
3628 Clouds 15 1016 30 0 5.07 252 20:36 06.05.2020
3629 Clouds 15 1017 29 0 5.91 272 20:18 06.05.2020
3630 Clouds 15 1017 29 0 5.91 272 19:55 06.05.2020
3631 Clouds 15 1017 29 0 5.91 272 19:36 06.05.2020
3632 Clouds 15 1018 32 0 5.4 292 19:18 06.05.2020
3633 Clouds 15 1018 32 0 5.4 292 18:54 06.05.2020
3634 Clouds 15 1018 32 0 5.4 292 18:36 06.05.2020
3635 Clouds 12 1019 41 0 3.64 315 18:18 06.05.2020
3636 Clouds 12 1019 41 0 3.64 315 17:54 06.05.2020
3637 Clouds 12 1019 41 0 3.64 315 17:54 06.05.2020
3638 Clouds 12 1019 41 0 3.64 315 17:36 06.05.2020
3639 Clouds 10 1021 49 0 3.17 325 17:18 06.05.2020
3640 Clouds 10 1021 49 0 3.17 325 16:54 06.05.2020
3641 Clouds 10 1021 49 0 3.17 325 16:36 06.05.2020
3642 Clouds 8 1022 62 0 2.9 336 16:18 06.05.2020
3643 Clouds 8 1022 62 0 2.9 336 15:42 06.05.2020
3644 Clouds 7 1022 73 0 2.51 344 15:22 06.05.2020
3645 Clouds 7 1022 73 0 2.51 344 14:56 06.05.2020
3646 Clouds 7 1022 73 0 2.51 344 14:38 06.05.2020
3647 Clouds 5 1022 85 0 1.71 349 14:18 06.05.2020
3648 Clouds 5 1022 85 0 1.71 349 13:57 06.05.2020
3649 Clouds 5 1022 85 0 1.71 349 13:37 06.05.2020
3650 Clouds 4 1021 95 0 1.33 345 13:18 06.05.2020
3651 Clouds 4 1021 95 0 1.33 345 12:42 06.05.2020
3652 Clear 3 1020 94 0 1.18 336 12:24 06.05.2020
3653 Clear 3 1020 94 0 1.18 336 11:41 06.05.2020
3654 Clear 3 1019 93 0 1.15 2 11:22 06.05.2020
3655 Clear 3 1019 93 0 1.15 2 10:58 06.05.2020
3656 Clear 3 1019 93 0 1.15 2 10:39 06.05.2020
3657 Clear 4 1019 90 0 1.56 11 10:19 06.05.2020
3658 Clear 4 1019 90 0 1.56 11 10:19 06.05.2020
3659 Clear 4 1019 90 0 1.56 11 09:57 06.05.2020
3660 Clear 4 1019 90 0 1.56 11 09:37 06.05.2020
3661 Clear 5 1019 86 0 1.73 6 09:19 06.05.2020
3662 Clear 5 1019 86 0 1.73 6 08:42 06.05.2020
3663 Clear 5 1019 82 0 1.72 15 08:20 06.05.2020
3664 Clear 5 1019 82 0 1.72 15 07:56 06.05.2020
3665 Clear 5 1019 82 0 1.72 15 07:37 06.05.2020
3666 Clear 6 1019 74 0 1.99 26 07:18 06.05.2020
3667 Clear 6 1019 74 0 1.99 26 06:45 06.05.2020
3668 Clear 6 1019 68 0 1.7 36 06:20 06.05.2020
3669 Clear 6 1019 68 0 1.7 36 05:37 06.05.2020
3670 Clouds 7 1018 63 0 1.44 42 04:50 06.05.2020
3671 Clear 7 1018 60 0 1.29 58 03:50 06.05.2020
3672 Clouds 8 1017 56 0 1.16 71 03:24 06.05.2020
3673 Clouds 8 1017 56 0 1.16 71 02:51 06.05.2020
3674 Clouds 8 1016 55 0 1.16 89 02:22 06.05.2020
3675 Clouds 8 1016 55 0 1.16 89 01:42 06.05.2020
3676 Clouds 8 1014 54 0 1.52 98 01:20 06.05.2020
3677 Clouds 8 1014 54 0 1.52 98 00:44 06.05.2020
3678 Clouds 10 1012 47 0 1.36 114 00:19 06.05.2020
3679 Clouds 10 1012 47 0 1.36 114 23:41 05.05.2020
3680 Clouds 13 1011 36 0 1.61 276 23:19 05.05.2020
3681 Clouds 13 1011 36 0 1.61 276 22:55 05.05.2020
3682 Clouds 13 1011 36 0 1.61 276 22:37 05.05.2020
3683 Clouds 14 1010 33 0 4.23 287 22:18 05.05.2020
3684 Clouds 14 1010 33 0 4.23 287 21:41 05.05.2020
3685 Clouds 14 1011 34 0 3.69 291 21:21 05.05.2020
3686 Clouds 14 1011 34 0 3.69 291 21:21 05.05.2020
3687 Clouds 14 1011 34 0 3.69 291 20:59 05.05.2020
3688 Clouds 14 1011 34 0 3.69 291 20:40 05.05.2020
3689 Clouds 14 1011 34 0 3.4 298 20:20 05.05.2020
3690 Clouds 14 1011 34 0 3.4 298 19:59 05.05.2020
3691 Clouds 14 1011 34 0 3.4 298 19:38 05.05.2020
3692 Clouds 14 1013 35 0 3.31 301 19:20 05.05.2020
3693 Clouds 14 1013 35 0 3.31 301 18:56 05.05.2020
3694 Clouds 14 1013 35 0 3.31 301 18:38 05.05.2020
3695 Clouds 13 1014 36 0 2.68 303 18:19 05.05.2020
3696 Clouds 13 1014 36 0 2.68 303 17:44 05.05.2020
3697 Clouds 11 1015 38 0 2.16 286 17:25 05.05.2020
3698 Clouds 11 1015 38 0 2.16 286 16:59 05.05.2020
3699 Clouds 11 1015 38 0 2.16 286 16:38 05.05.2020
3700 Clouds 11 1016 39 0 2.22 267 16:19 05.05.2020
3701 Clouds 11 1016 39 0 2.22 267 15:57 05.05.2020
3702 Clouds 11 1016 39 0 2.22 267 15:38 05.05.2020
3703 Clouds 9 1017 42 0 2.14 248 15:20 05.05.2020
3704 Clouds 9 1017 42 0 2.14 248 14:55 05.05.2020
3705 Clouds 9 1017 42 0 2.14 248 14:37 05.05.2020
3706 Clouds 8 1017 49 0 2.16 234 14:18 05.05.2020
3707 Clouds 8 1017 49 0 2.16 234 13:55 05.05.2020
3708 Clouds 8 1017 49 0 2.16 234 13:36 05.05.2020
3709 Clouds 6 1017 57 0 2.03 221 13:18 05.05.2020
3710 Clouds 6 1017 13 0 2.03 221 12:43 05.05.2020
3711 Clouds 5 1016 13 0 2.38 223 12:25 05.05.2020
3712 Clouds 5 1016 13 0 2.38 223 11:59 05.05.2020
3713 Clouds 5 1016 13 0 2.38 223 11:40 05.05.2020
3714 Clouds 6 1015 13 0 2.18 237 11:19 05.05.2020
3715 Clouds 6 1015 13 0 2.18 237 10:55 05.05.2020
3716 Clouds 6 1015 13 0 2.18 237 10:37 05.05.2020
3717 Clouds 6 1015 15 0 1.87 237 10:18 05.05.2020
3718 Clouds 6 1015 15 0 1.87 237 09:44 05.05.2020
3719 Clouds 6 1015 16 0 1.45 241 09:26 05.05.2020
3720 Clouds 6 1015 16 0 1.45 241 08:58 05.05.2020
3721 Clouds 6 1015 16 0 1.45 241 08:39 05.05.2020
3722 Clouds 7 1015 17 0 1.29 279 08:18 05.05.2020
3723 Clouds 7 1015 17 0 1.29 279 07:43 05.05.2020
3724 Clouds 7 1015 17 0 1.1 315 07:21 05.05.2020
3725 Clouds 7 1015 17 0 1.1 315 06:58 05.05.2020
3726 Clouds 7 1015 17 0 1.1 315 06:39 05.05.2020
3727 Clouds 8 1015 17 0 1.03 341 05:56 05.05.2020
3728 Clouds 8 1014 16 0 1.02 344 05:25 05.05.2020
3729 Clouds 9 1013 15 0 0.51 125 02:41 05.05.2020
3730 Clouds 11 1011 16 0 0.94 149 00:57 05.05.2020
3731 Clouds 11 1011 16 0 0.94 149 00:37 05.05.2020
3732 Rain 12 1009 13 0 1.25 139 23:55 04.05.2020
3733 Rain 12 1009 13 0 1.25 139 23:36 04.05.2020
3734 Rain 15 1008 8 0 1.62 212 23:18 04.05.2020
3735 Rain 15 1008 8 0 1.62 212 23:18 04.05.2020
3736 Rain 15 1008 8 0 1.62 212 22:54 04.05.2020
3737 Rain 15 1008 8 0 1.62 212 22:36 04.05.2020
3738 Clouds 16 1007 7 0 1.81 259 22:18 04.05.2020
3739 Clouds 16 1007 7 0 1.81 259 22:18 04.05.2020
3740 Clouds 16 1007 7 0 1.81 259 21:43 04.05.2020
3741 Clouds 16 1007 7 0 1.81 259 21:43 04.05.2020
3742 Clouds 16 1007 7 0 1.48 345 21:20 04.05.2020
3743 Clouds 16 1007 7 0 1.48 345 21:20 04.05.2020
3744 Clouds 16 1007 7 0 1.48 345 20:42 04.05.2020
3745 Clouds 16 1008 29 0 1.76 344 20:21 04.05.2020
3746 Clouds 16 1008 7 0 1.76 344 19:58 04.05.2020
3747 Clouds 16 1008 29 0 1.76 344 19:40 04.05.2020
3748 Clouds 15 1010 29 0 1.46 313 19:18 04.05.2020
3749 Clouds 15 1010 29 0 1.46 313 18:39 04.05.2020
3750 Clouds 14 1011 7 0 1.83 295 18:21 04.05.2020
3751 Clouds 14 1011 7 0 1.83 295 17:58 04.05.2020
3752 Clouds 14 1011 7 0 1.83 295 17:40 04.05.2020
3753 Clouds 14 1013 8 0 1.79 294 17:21 04.05.2020
3754 Clouds 14 1013 31 0 1.79 294 16:59 04.05.2020
3755 Clouds 14 1013 31 0 1.79 294 16:41 04.05.2020
3756 Clouds 13 1015 8 0 2.07 287 16:19 04.05.2020
3757 Clouds 13 1015 33 0 2.07 287 16:19 04.05.2020
3758 Clouds 13 1015 8 0 2.07 287 15:43 04.05.2020
3759 Clouds 11 1016 9 0 1.89 276 15:24 04.05.2020
3760 Clouds 11 1016 9 0 1.89 276 14:54 04.05.2020
3761 Clouds 11 1016 9 0 1.89 276 14:54 04.05.2020
3762 Clouds 11 1016 9 0 1.89 276 14:54 04.05.2020
3763 Clouds 11 1016 9 0 1.89 276 14:54 04.05.2020
3764 Clouds 11 1016 9 0 1.89 276 14:31 04.05.2020
3765 Clouds 11 1015 9 0 1.97 284 14:31 04.05.2020
3766 Clouds 11 1015 9 0 1.97 284 14:31 04.05.2020
3767 Clouds 11 1015 9 0 1.97 284 14:30 04.05.2020
3768 Clouds 11 1016 9 0 1.89 276 14:30 04.05.2020
3769 Clouds 10 1016 12 0 1.42 274 13:40 04.05.2020
3770 Clouds 10 1016 12 0 1.42 274 13:40 04.05.2020
3771 Clouds 10 1016 12 0 1.42 274 13:40 04.05.2020
3772 Clouds 10 1016 12 0 1.42 274 13:40 04.05.2020
3773 Clouds 10 1016 12 0 1.42 274 13:40 04.05.2020
3774 Clouds 7 1016 18 0 1.27 280 12:44 04.05.2020
3775 Clouds 7 1016 18 0 1.27 280 12:44 04.05.2020
3776 Clouds 7 1016 18 0 1.27 280 12:44 04.05.2020
3777 Clouds 7 1016 18 0 1.27 280 12:44 04.05.2020
3778 Clouds 7 1015 19 0 1.18 281 11:29 04.05.2020
3779 Clouds 7 1015 19 0 1.18 281 11:29 04.05.2020
3780 Clouds 7 1015 19 0 1.18 281 11:29 04.05.2020
3781 Clouds 7 1014 21 0 1.15 285 09:32 04.05.2020
3782 Clouds 7 1014 21 0 1.15 285 09:32 04.05.2020
3783 Clouds 7 1014 21 0 1.15 285 09:32 04.05.2020
3784 Clouds 8 1014 21 0 1.23 290 07:59 04.05.2020
3785 Clouds 8 1014 21 0 1.23 290 07:40 04.05.2020
3786 Clouds 8 1015 22 0 1.26 277 06:31 04.05.2020
3787 Clouds 8 1015 22 0 1.26 277 06:31 04.05.2020
3788 Clouds 8 1015 22 0 1.26 277 06:31 04.05.2020
3789 Clouds 8 1015 22 0 1.26 277 06:31 04.05.2020
3790 Clouds 8 1015 22 0 1.26 277 06:31 04.05.2020
3791 Clouds 9 1015 23 0 0.97 330 04:55 04.05.2020
3792 Clouds 10 1014 21 0 1.21 1 03:18 04.05.2020
3793 Clouds 8 1014 23 0 0.97 325 02:30 04.05.2020
3794 Rain 9 1013 21 0 3.04 12 00:36 04.05.2020
3795 Rain 9 1013 21 0 3.04 12 00:36 04.05.2020
3796 Clouds 12 1011 15 0 4.61 27 23:45 03.05.2020
3797 Clouds 14 1010 11 0 1.85 121 23:24 03.05.2020
3798 Clouds 14 1010 11 0 1.85 121 22:56 03.05.2020
3799 Clouds 14 1010 11 0 1.85 121 22:38 03.05.2020
3800 Clouds 15 1010 10 0 0.72 101 22:18 03.05.2020
3801 Clouds 15 1010 10 0 0.72 101 21:41 03.05.2020
3802 Clouds 15 1010 10 0 1.77 20 21:20 03.05.2020
3803 Clouds 15 1010 10 0 1.77 20 20:47 03.05.2020
3804 Clouds 15 1011 10 0 1.66 2 20:23 03.05.2020
3805 Clouds 15 1011 10 0 1.66 2 19:55 03.05.2020
3806 Clouds 15 1011 10 0 1.66 2 19:55 03.05.2020
3807 Clouds 15 1011 10 0 1.66 2 19:36 03.05.2020
3808 Clouds 15 1013 10 0 1.46 349 19:18 03.05.2020
3809 Clouds 15 1013 10 0 1.46 349 18:39 03.05.2020
3810 Clouds 14 1015 10 0 1.36 335 18:20 03.05.2020
3811 Clouds 14 1015 10 0 1.36 335 17:42 03.05.2020
3812 Clouds 13 1017 12 0 1.28 293 17:22 03.05.2020
3813 Clouds 13 1017 12 0 1.28 293 16:58 03.05.2020
3814 Clouds 13 1017 12 0 1.28 293 16:39 03.05.2020
3815 Clouds 11 1018 15 0 1.42 283 16:18 03.05.2020
3816 Clouds 11 1018 15 0 1.42 283 15:56 03.05.2020
3817 Clouds 11 1018 15 0 1.42 283 15:37 03.05.2020
3818 Clouds 11 1018 15 0 1.42 283 15:37 03.05.2020
3819 Clouds 11 1018 15 0 1.42 283 15:37 03.05.2020
3820 Clouds 10 1019 18 0 1.65 280 15:19 03.05.2020
3821 Clouds 10 1019 18 0 1.65 280 14:54 03.05.2020
3822 Clouds 10 1019 18 0 1.65 280 14:36 03.05.2020
3823 Clouds 8 1019 23 0 1.37 302 14:18 03.05.2020
3824 Clouds 8 1019 23 0 1.37 302 13:37 03.05.2020
3825 Clouds 8 1019 23 0 1.37 302 13:37 03.05.2020
3826 Clouds 8 1019 23 0 1.37 302 13:37 03.05.2020
3827 Clouds 8 1019 23 0 1.37 302 13:37 03.05.2020
3828 Clouds 6 1019 26 0 1.09 308 12:52 03.05.2020
3829 Clouds 6 1018 26 0 1.09 315 12:27 03.05.2020
3830 Clouds 6 1018 26 0 1.09 315 12:27 03.05.2020
3831 Clouds 6 1018 26 0 1.09 315 11:57 03.05.2020
3832 Clouds 6 1018 26 0 1.09 315 11:39 03.05.2020
3833 Clouds 7 1017 26 0 1.02 331 11:20 03.05.2020
3834 Clouds 7 1017 26 0 1.02 331 10:54 03.05.2020
3835 Clouds 7 1018 26 0 1.12 357 10:25 03.05.2020
3836 Clouds 7 1018 26 0 1.12 357 09:41 03.05.2020
3837 Clouds 7 1018 26 0 1.12 357 09:41 03.05.2020
3838 Clouds 7 1018 26 0 1.56 355 08:59 03.05.2020
3839 Clouds 7 1018 26 0 1.56 355 08:59 03.05.2020
3840 Clouds 7 1018 26 0 1.56 355 08:35 03.05.2020
3841 Clouds 8 1018 25 0 1.55 354 07:44 03.05.2020
3842 Clouds 8 1018 25 0 1.55 354 07:44 03.05.2020
3843 Clouds 8 1018 25 0 1.55 354 07:44 03.05.2020
3844 Clouds 8 1018 25 0 1.55 354 07:44 03.05.2020
3845 Clouds 8 1018 25 0 1.55 354 07:44 03.05.2020
3846 Clouds 8 1018 25 0 1.66 349 06:44 03.05.2020
3847 Rain 9 1018 25 0 1.58 351 05:56 03.05.2020
3848 Rain 9 1018 25 0 1.58 351 05:37 03.05.2020
3849 Rain 10 1018 23 0 1.54 30 04:28 03.05.2020
3850 Rain 10 1018 23 0 1.54 30 03:39 03.05.2020
3851 Rain 9 1017 23 0 2.18 4 02:32 03.05.2020
3852 Rain 10 1016 22 0 2.4 24 01:59 03.05.2020
3853 Rain 10 1016 22 0 2.4 24 01:39 03.05.2020
3854 Rain 10 1015 22 0 2.58 42 01:21 03.05.2020
3855 Rain 10 1015 22 0 2.58 42 00:38 03.05.2020
3856 Rain 11 1014 21 0 2.82 46 00:20 03.05.2020
3857 Rain 11 1014 21 0 2.82 46 23:46 02.05.2020
3858 Rain 12 1013 19 0 2.86 45 23:27 02.05.2020
3859 Rain 12 1013 19 0 2.86 45 22:57 02.05.2020
3860 Rain 12 1013 19 0 2.86 45 22:39 02.05.2020
3861 Rain 14 1013 15 0 1.92 80 22:20 02.05.2020
3862 Rain 14 1013 15 0 1.92 80 21:41 02.05.2020
3863 Clear 15 1013 14 0 1.54 48 21:20 02.05.2020
3864 Clear 15 1013 14 0 1.54 48 20:58 02.05.2020
3865 Clear 15 1013 14 0 1.54 48 20:38 02.05.2020
3866 Rain 14 1014 14 0 1.08 22 20:20 02.05.2020
3867 Rain 14 1014 14 0 1.08 22 19:59 02.05.2020
3868 Rain 14 1014 14 0 1.08 22 19:39 02.05.2020
3869 Clouds 13 1016 15 0 1.29 357 19:20 02.05.2020
3870 Clouds 13 1016 15 0 1.29 357 18:56 02.05.2020
3871 Clouds 13 1016 15 0 1.29 357 18:38 02.05.2020
3872 Clouds 12 1018 16 0 1.73 359 18:20 02.05.2020
3873 Clouds 12 1018 16 0 1.73 359 17:56 02.05.2020
3874 Clouds 12 1018 16 0 1.73 359 17:38 02.05.2020
3875 Clouds 11 1020 18 0 2.01 357 17:19 02.05.2020
3876 Clouds 11 1020 18 0 2.01 357 16:54 02.05.2020
3877 Clouds 11 1020 18 0 2.01 357 16:36 02.05.2020
3878 Clouds 10 1022 20 0 2.17 351 16:18 02.05.2020
3879 Clouds 10 1022 20 0 2.17 351 15:41 02.05.2020
3880 Clouds 8 1023 22 0 2.21 346 15:19 02.05.2020
3881 Clouds 8 1023 22 0 2.21 346 14:42 02.05.2020
3882 Clouds 7 1023 24 0 2.01 344 14:24 02.05.2020
3883 Clouds 7 1023 24 0 2.15 326 13:59 02.05.2020
3884 Clouds 7 1023 24 0 2.15 326 13:39 02.05.2020
3885 Clouds 6 1022 26 0 2.2 331 13:19 02.05.2020
3886 Clouds 6 1022 26 0 2.2 331 12:41 02.05.2020
3887 Clouds 6 1022 27 0 2.03 336 12:22 02.05.2020
3888 Clouds 6 1022 27 0 2.03 336 11:57 02.05.2020
3889 Clouds 6 1022 27 0 2.03 336 11:39 02.05.2020
3890 Clouds 6 1021 28 0 1.95 335 11:20 02.05.2020
3891 Clouds 6 1021 28 0 1.95 335 10:54 02.05.2020
3892 Clouds 6 1021 28 0 1.95 335 10:36 02.05.2020
3893 Clouds 6 1021 29 0 2.05 346 10:18 02.05.2020
3894 Clouds 6 1021 29 0 2.05 346 10:18 02.05.2020
3895 Clouds 6 1021 29 0 2.05 346 09:54 02.05.2020
3896 Clouds 6 1021 29 0 2.05 346 09:36 02.05.2020
3897 Clouds 6 1021 29 0 2.06 351 09:18 02.05.2020
3898 Clouds 6 1021 29 0 2.06 351 08:41 02.05.2020
3899 Clouds 6 1021 29 0 2.08 354 08:22 02.05.2020
3900 Clouds 6 1021 29 0 2.08 354 07:46 02.05.2020
3901 Clear 6 1021 29 0 2.12 13 07:27 02.05.2020
3902 Clear 6 1021 29 0 2.12 13 06:47 02.05.2020
3903 Clear 8 1022 27 0 1.85 33 05:28 02.05.2020
3904 Clear 8 1022 27 0 1.85 33 04:37 02.05.2020
3905 Clear 8 1021 26 0 1.17 59 03:59 02.05.2020
3906 Clear 9 1021 25 0 1.61 57 02:43 02.05.2020
3907 Rain 9 1019 23 0 2.5 42 02:19 02.05.2020
3908 Rain 9 1019 23 0 2.22 46 01:33 02.05.2020
3909 Rain 10 1018 22 0 2.4 62 00:45 02.05.2020
3910 Rain 11 1017 21 0 2.86 65 00:24 02.05.2020
3911 Rain 11 1017 21 0 2.86 65 23:57 01.05.2020
3912 Rain 11 1017 21 0 2.86 65 23:37 01.05.2020
3913 Rain 13 1016 17 0 4.01 54 23:19 01.05.2020
3914 Rain 13 1016 17 0 4.01 54 22:40 01.05.2020
3915 Rain 14 1015 13 0 3.39 39 22:21 01.05.2020
3916 Rain 14 1015 13 0 3.39 39 21:59 01.05.2020
3917 Rain 14 1015 13 0 3.39 39 21:41 01.05.2020
3918 Clouds 14 1015 13 0 2.82 17 21:21 01.05.2020
3919 Clouds 14 1015 13 0 2.82 17 20:58 01.05.2020
3920 Clouds 14 1015 13 0 2.82 17 20:40 01.05.2020
3921 Clouds 14 1016 13 0 2.54 2 20:20 01.05.2020
3922 Clouds 14 1016 13 0 2.54 2 20:20 01.05.2020
3923 Clouds 14 1016 13 0 2.54 2 19:59 01.05.2020
3924 Clouds 14 1016 13 0 2.54 2 19:41 01.05.2020
3925 Clouds 13 1018 14 0 2.26 359 19:21 01.05.2020
3926 Clouds 13 1018 14 0 2.26 359 19:21 01.05.2020
3927 Clouds 13 1018 14 0 2.26 359 18:56 01.05.2020
3928 Clouds 13 1018 14 0 2.26 359 18:38 01.05.2020
3929 Clouds 12 1020 17 0 2.21 355 18:19 01.05.2020
3930 Clouds 12 1020 17 0 2.21 355 18:19 01.05.2020
3931 Clouds 12 1020 17 0 2.21 355 17:41 01.05.2020
3932 Clouds 12 1042 66 10000 2.1 60 17:22 01.05.2020
3933 Clouds 12 1042 66 10000 2.1 60 16:58 01.05.2020
3934 Clouds 12 1042 66 10000 2.1 60 16:40 01.05.2020
3935 Clouds 12 1042 66 10000 2.1 60 16:21 01.05.2020
3936 Clouds 12 1042 66 10000 2.1 60 16:20 01.05.2020
3937 Clouds 12 1042 66 10000 2.1 60 15:57 01.05.2020
3938 Clouds 12 1042 66 10000 2.1 60 15:39 01.05.2020
3939 Clouds 12 1042 66 10000 2.1 60 15:20 01.05.2020
3940 Clouds 12 1042 66 10000 2.1 60 14:44 01.05.2020
3941 Clouds 12 1042 66 10000 2.1 60 14:25 01.05.2020
3942 Clouds 7 1023 28 0 1.65 3 13:57 01.05.2020
3943 Clouds 7 1023 28 0 1.65 3 13:39 01.05.2020
3944 Clouds 5 1022 30 0 1.35 7 13:21 01.05.2020
3945 Clouds 5 1022 30 0 1.35 7 12:56 01.05.2020
3946 Clouds 5 1022 30 0 1.35 7 12:37 01.05.2020
3947 Clouds 5 1021 30 0 1.28 10 12:18 01.05.2020
3948 Clouds 5 1021 30 0 1.28 10 11:42 01.05.2020
3949 Clouds 5 1021 30 0 1.28 10 11:42 01.05.2020
3950 Clouds 6 1020 29 0 1.27 12 11:23 01.05.2020
3951 Clouds 6 1020 29 0 1.27 12 10:58 01.05.2020
3952 Clouds 6 1020 29 0 1.27 12 10:39 01.05.2020
3953 Clouds 6 1020 28 0 1.2 359 10:20 01.05.2020
3954 Clouds 6 1020 28 0 1.2 359 10:20 01.05.2020
3955 Clouds 6 1020 28 0 1.2 359 09:44 01.05.2020
3956 Clouds 6 1020 28 0 1.2 359 09:44 01.05.2020
3957 Clouds 7 1020 28 0 0.89 351 09:20 01.05.2020
3958 Clouds 6 1020 28 0 0.94 338 08:59 01.05.2020
3959 Clouds 6 1020 28 0 0.94 338 08:41 01.05.2020
3960 Clouds 7 1020 28 0 1.17 339 08:22 01.05.2020
3961 Clouds 7 1020 28 0 1.17 339 07:46 01.05.2020
3962 Clouds 7 1020 26 0 1.28 352 07:23 01.05.2020
3963 Clouds 7 1020 26 0 1.28 352 06:51 01.05.2020
3964 Clouds 8 1020 25 0 1.22 11 05:36 01.05.2020
3965 Clouds 8 1020 25 0 0.88 50 04:47 01.05.2020
3966 Clear 9 1019 24 0 1.47 88 03:25 01.05.2020
3967 Clear 9 1019 24 0 1.47 88 02:45 01.05.2020
3968 Clouds 10 1017 23 0 1.78 82 02:25 01.05.2020
3969 Clouds 11 1015 21 0 2.53 79 01:29 01.05.2020
3970 Clouds 11 1015 21 0 2.53 79 00:59 01.05.2020
3971 Clouds 11 1015 21 0 2.53 79 00:37 01.05.2020
3972 Clouds 11 1015 21 0 2.53 79 00:37 01.05.2020
3973 Clouds 12 1014 17 0 2.96 96 00:19 01.05.2020
3974 Clouds 12 1014 17 0 2.96 96 23:55 30.04.2020
3975 Clouds 12 1014 17 0 2.96 96 23:37 30.04.2020
3976 Clouds 15 1013 11 0 3.34 96 23:18 30.04.2020
3977 Clouds 15 1013 11 0 3.34 96 22:41 30.04.2020
3978 Clear 16 1013 7 0 1.99 87 22:21 30.04.2020
3979 Clear 16 1013 7 0 1.99 87 21:57 30.04.2020
3980 Clouds 16 1013 7 0 1.62 81 21:38 30.04.2020
3981 Clouds 16 1013 7 0 0.67 32 21:19 30.04.2020
3982 Clouds 16 1013 7 0 0.67 32 20:54 30.04.2020
3983 Clouds 16 1013 7 0 0.67 32 20:36 30.04.2020
3984 Clouds 15 1014 7 0 0.92 335 20:18 30.04.2020
3985 Clouds 15 1014 7 0 0.92 335 19:43 30.04.2020
3986 Clouds 15 1015 7 0 1.26 331 19:24 30.04.2020
3987 Clouds 15 1015 7 0 1.26 331 18:56 30.04.2020
3988 Clouds 15 1015 7 0 1.26 331 18:37 30.04.2020
3989 Clouds 14 1017 8 0 1.35 326 18:19 30.04.2020
3990 Clouds 14 1017 8 0 1.35 326 17:56 30.04.2020
3991 Clouds 14 1017 8 0 1.35 326 17:38 30.04.2020
3992 Clouds 13 1019 9 0 1.22 316 17:19 30.04.2020
3993 Clouds 13 1019 9 0 1.22 316 16:54 30.04.2020
3994 Clouds 13 1019 9 0 1.22 316 16:36 30.04.2020
3995 Clouds 12 1021 11 0 1.06 289 16:18 30.04.2020
3996 Clouds 12 1021 11 0 1.06 289 15:44 30.04.2020
3997 Clouds 10 1021 14 0 1.13 256 15:23 30.04.2020
3998 Clouds 10 1021 14 0 1.13 256 14:43 30.04.2020
3999 Clouds 8 1021 18 0 1.04 246 14:22 30.04.2020
4000 Clouds 8 1021 17 0 0.96 252 13:59 30.04.2020
4001 Clouds 8 1021 17 0 0.96 252 13:41 30.04.2020
4002 Clear 4 1020 23 0 0.7 261 13:23 30.04.2020
4003 Clear 4 1020 23 0 0.7 261 12:59 30.04.2020
4004 Clear 4 1020 23 0 0.7 261 12:41 30.04.2020
4005 Clear 4 1020 24 0 0.74 245 12:19 30.04.2020
4006 Clear 4 1020 24 0 0.74 245 11:38 30.04.2020
4007 Clear 4 1019 25 0 0.74 247 11:19 30.04.2020
4008 Clear 4 1019 25 0 0.74 247 10:58 30.04.2020
4009 Clear 4 1019 25 0 0.74 247 10:39 30.04.2020
4010 Clear 5 1020 27 0 0.87 261 10:21 30.04.2020
4011 Clear 5 1020 27 0 0.87 261 09:56 30.04.2020
4012 Clear 5 1020 27 0 0.87 261 09:38 30.04.2020
4013 Clear 5 1019 27 0 0.96 273 09:19 30.04.2020
4014 Clear 5 1019 27 0 0.96 273 08:45 30.04.2020
4015 Clear 6 1019 28 0 1.23 293 08:26 30.04.2020
4016 Clear 6 1019 28 0 1.23 293 07:44 30.04.2020
4017 Clear 6 1019 28 0 1.23 293 07:44 30.04.2020
4018 Clear 6 1020 28 0 1.7 315 07:25 30.04.2020
4019 Clear 6 1020 28 0 1.7 315 06:53 30.04.2020
4020 Clear 7 1020 27 0 2.2 342 06:26 30.04.2020
4021 Clear 7 1020 27 0 2.2 342 05:46 30.04.2020
4022 Clear 7 1020 27 0 2.17 352 04:43 30.04.2020
4023 Clear 8 1020 27 0 1.94 12 04:19 30.04.2020
4024 Clear 9 1019 26 0 1.54 21 02:48 30.04.2020
4025 Clear 9 1018 25 0 1.71 50 02:26 30.04.2020
4026 Clear 9 1018 25 0 1.71 50 01:37 30.04.2020
4027 Rain 9 1016 24 0 2.04 59 00:42 30.04.2020
4028 Rain 10 1015 22 0 3.16 56 00:20 30.04.2020
4029 Rain 10 1015 22 0 3.16 56 23:58 29.04.2020
4030 Rain 10 1015 22 0 3.16 56 23:39 29.04.2020
4031 Rain 11 1014 19 0 3.47 62 23:21 29.04.2020
4032 Rain 11 1014 19 0 3.47 62 22:54 29.04.2020
4033 Rain 11 1014 19 0 3.47 62 22:36 29.04.2020
4034 Rain 13 1013 17 0 2.72 40 22:18 29.04.2020
4035 Rain 12 1013 17 0 2.73 41 21:38 29.04.2020
4036 Rain 13 1014 16 0 2.76 7 21:19 29.04.2020
4037 Rain 13 1014 16 0 2.76 7 20:57 29.04.2020
4038 Rain 13 1014 16 0 2.76 7 20:38 29.04.2020
4039 Clear 13 1015 15 0 3.2 359 20:18 29.04.2020
4040 Clear 13 1015 15 0 3.2 359 19:43 29.04.2020
4041 Clear 13 1017 15 0 3.31 1 19:22 29.04.2020
4042 Clear 13 1017 15 0 3.31 1 18:57 29.04.2020
4043 Clear 13 1017 15 0 3.31 1 18:39 29.04.2020
4044 Clear 12 1019 16 0 3.31 5 18:19 29.04.2020
4045 Clear 12 1019 16 0 3.31 5 17:42 29.04.2020
4046 Clear 11 1021 17 0 3.27 10 17:22 29.04.2020
4047 Clear 11 1021 17 0 3.27 10 16:57 29.04.2020
4048 Clear 11 1021 17 0 3.27 10 16:36 29.04.2020
4049 Clear 10 1022 19 0 2.69 19 16:18 29.04.2020
4050 Clear 10 1022 19 0 2.69 19 15:55 29.04.2020
4051 Clear 10 1022 19 0 2.69 19 15:37 29.04.2020
4052 Clear 9 1022 20 0 1.92 33 15:18 29.04.2020
4053 Clear 9 1022 20 0 1.92 33 14:43 29.04.2020
4054 Clear 7 1023 23 0 1.61 52 14:25 29.04.2020
4055 Clear 7 1023 23 0 1.61 52 13:57 29.04.2020
4056 Clear 7 1023 23 0 1.61 52 13:38 29.04.2020
4057 Clear 6 1022 26 0 1.33 62 13:19 29.04.2020
4058 Clear 6 1022 26 0 1.33 62 12:55 29.04.2020
4059 Clear 6 1022 26 0 1.33 62 12:37 29.04.2020
4060 Clear 5 1021 26 0 1.13 62 12:18 29.04.2020
4061 Clear 5 1021 26 0 1.13 62 11:38 29.04.2020
4062 Clear 6 1020 25 0 1.36 60 11:20 29.04.2020
4063 Clear 6 1020 25 0 1.36 60 11:20 29.04.2020
4064 Clear 6 1020 25 0 1.36 60 11:20 29.04.2020
4065 Clear 6 1020 25 0 1.36 60 11:20 29.04.2020
4066 Clear 6 1020 25 0 1.36 60 10:54 29.04.2020
4067 Clear 6 1020 25 0 1.36 60 10:36 29.04.2020
4068 Clear 7 1019 24 0 1.59 59 10:18 29.04.2020
4069 Clear 7 1019 24 0 1.59 59 09:41 29.04.2020
4070 Clear 7 1019 23 0 1.54 56 09:21 29.04.2020
4071 Clear 7 1019 23 0 1.64 44 08:44 29.04.2020
4072 Clear 8 1019 23 0 1.53 49 08:26 29.04.2020
4073 Clear 8 1019 23 0 1.53 49 07:56 29.04.2020
4074 Clear 8 1019 23 0 1.53 49 07:37 29.04.2020
4075 Clear 8 1018 22 0 1.53 50 07:18 29.04.2020
4076 Clear 8 1018 22 0 1.53 50 06:45 29.04.2020
4077 Rain 9 1018 22 0 1.55 32 06:26 29.04.2020
4078 Clear 9 1018 21 0 1.64 36 05:20 29.04.2020
4079 Clear 10 1018 21 0 1.38 48 04:20 29.04.2020
4080 Clear 10 1018 21 0 1.38 48 03:54 29.04.2020
4081 Clear 10 1017 21 0 1.2 38 02:30 29.04.2020
4082 Clouds 11 1015 19 0 1.38 65 01:37 29.04.2020
4083 Clouds 12 1013 16 0 3.36 58 01:19 29.04.2020
4084 Clouds 12 1013 16 0 3.36 58 00:38 29.04.2020
4085 Clouds 14 1012 12 0 2.16 78 00:18 29.04.2020
4086 Clouds 14 1012 12 0 2.16 78 23:45 28.04.2020
4087 Clouds 15 1010 10 0 2.89 118 23:22 28.04.2020
4088 Clouds 15 1010 10 0 2.89 118 22:40 28.04.2020
4089 Clouds 15 1010 10 0 2.89 118 22:40 28.04.2020
4090 Clear 16 1010 9 0 2.73 125 22:22 28.04.2020
4091 Clear 16 1010 9 0 2.73 125 22:22 28.04.2020
4092 -273 0 0 0 0 0 21:59 28.04.2020
4093 -273 0 0 0 0 0 21:59 28.04.2020
4094 Clear 16 1010 9 0 2.73 125 21:41 28.04.2020
4095 Clear 16 1010 9 0 2.89 116 21:41 28.04.2020
4096 Clear 16 1010 7 0 0.63 159 21:23 28.04.2020
4097 Clear 16 1010 7 0 0.63 159 20:59 28.04.2020
4098 Clear 16 1010 7 0 0.63 159 20:59 28.04.2020
4099 Clear 16 1010 7 0 0.63 159 20:40 28.04.2020
4100 Clear 16 1011 7 0 0.66 251 20:21 28.04.2020
4101 Clear 16 1011 7 0 0.66 251 19:58 28.04.2020
4102 Clear 16 1011 7 0 0.66 251 19:39 28.04.2020
4103 Clear 15 1012 8 0 1 263 19:20 28.04.2020
4104 Clear 15 1012 8 0 1 263 18:57 28.04.2020
4105 Clear 15 1012 8 0 1 263 18:38 28.04.2020
4106 Clear 15 1014 9 0 1.1 270 18:18 28.04.2020
4107 Clear 15 1014 9 0 1.1 270 17:38 28.04.2020
4108 Clear 13 1016 11 0 1.6 266 17:19 28.04.2020
4109 Clear 13 1016 11 0 1.6 266 16:58 28.04.2020
4110 Clear 13 1016 11 0 1.6 266 16:40 28.04.2020
4111 Clear 13 1016 11 0 1.6 266 16:40 28.04.2020
4112 Clear 12 1018 13 0 1.69 267 16:22 28.04.2020
4113 Clear 12 1018 13 0 1.69 267 15:56 28.04.2020
4114 Clear 12 1018 13 0 1.69 267 15:38 28.04.2020
4115 Clear 10 1018 17 0 1.46 276 15:20 28.04.2020
4116 Clear 10 1018 17 0 1.46 276 14:56 28.04.2020
4117 Clear 10 1018 17 0 1.46 276 14:56 28.04.2020
4118 Clear 10 1018 16 0 1.43 277 14:38 28.04.2020
4119 Clear 8 1019 20 0 1.17 279 14:19 28.04.2020
4120 Clear 8 1019 20 0 1.09 273 13:56 28.04.2020
4121 Clear 8 1019 20 0 1.09 273 13:37 28.04.2020
4122 Clear 6 1019 25 0 0.88 275 13:19 28.04.2020
4123 Clear 6 1019 25 0 0.88 275 12:43 28.04.2020
4124 Clear 6 1019 25 0 0.88 275 12:43 28.04.2020
4125 Clear 5 1018 26 0 0.86 279 12:23 28.04.2020
4126 Clear 5 1018 26 0 0.86 279 11:43 28.04.2020
4127 Clear 6 1018 26 0 0.8 283 11:23 28.04.2020
4128 Clear 6 1018 26 0 0.8 283 10:58 28.04.2020
4129 Clear 6 1018 26 0 0.8 283 10:38 28.04.2020
4130 Clear 6 1018 26 0 0.8 283 10:38 28.04.2020
4131 Clear 6 1018 26 0 0.79 286 10:19 28.04.2020
4132 Clear 6 1018 26 0 0.79 286 09:55 28.04.2020
4133 Clear 6 1018 26 0 0.79 286 09:36 28.04.2020
4134 Clear 6 1018 27 0 1.26 297 09:18 28.04.2020
4135 Clear 6 1018 27 0 1.17 294 08:40 28.04.2020
4136 Clear 6 1018 27 0 1.23 281 08:22 28.04.2020
4137 Clear 6 1018 27 0 1.23 281 07:44 28.04.2020
4138 Clear 6 1018 27 0 1.23 281 07:44 28.04.2020
4139 Clear 6 1018 27 0 1.23 281 07:44 28.04.2020
4140 Clear 7 1018 27 0 1.27 306 07:19 28.04.2020
4141 Clear 7 1018 27 0 1.27 306 06:44 28.04.2020
4142 Clear 7 1019 27 0 1.68 334 05:57 28.04.2020
4143 Clear 7 1019 27 0 1.68 334 05:38 28.04.2020
4144 Clear 8 1019 27 0 2.12 354 04:39 28.04.2020
4145 Clear 9 1018 26 0 2.19 14 02:59 28.04.2020
4146 Clouds 9 1017 25 0 1.95 45 02:27 28.04.2020
4147 Clouds 10 1016 24 0 2.4 67 01:23 28.04.2020
4148 Clouds 10 1016 24 0 2.4 67 00:51 28.04.2020
4149 Rain 11 1015 22 0 3.05 72 00:20 28.04.2020
4150 Rain 11 1015 22 0 3.05 72 23:44 27.04.2020
4151 Rain 13 1014 18 0 3.54 56 23:23 27.04.2020
4152 Rain 13 1014 18 0 3.54 56 22:55 27.04.2020
4153 Rain 12 1014 20 0 3.24 65 22:37 27.04.2020
4154 Rain 14 1013 16 0 3.18 49 22:18 27.04.2020
4155 Rain 14 1013 16 0 3.18 49 21:55 27.04.2020
4156 Rain 14 1013 16 0 3.18 49 21:37 27.04.2020
4157 Clouds 14 1014 14 0 2.57 37 21:18 27.04.2020
4158 Clouds 14 1014 14 0 2.57 37 20:43 27.04.2020
4159 Rain 14 1015 14 0 1.94 18 20:22 27.04.2020
4160 Rain 14 1015 14 0 1.94 18 19:58 27.04.2020
4161 Rain 14 1015 14 0 1.94 18 19:39 27.04.2020
4162 Clear 13 1017 14 0 2.08 360 19:20 27.04.2020
4163 Clear 13 1017 14 0 2.08 360 18:57 27.04.2020
4164 Clear 13 1017 14 0 2.08 360 18:39 27.04.2020
4165 Clear 12 1019 16 0 1.9 356 18:19 27.04.2020
4166 Clear 12 1019 16 0 1.9 356 17:43 27.04.2020
4167 Clear 11 1020 18 0 1.63 1 17:21 27.04.2020
4168 Clear 11 1020 18 0 1.63 1 16:58 27.04.2020
4169 Clear 11 1020 18 0 1.63 1 16:39 27.04.2020
4170 Clear 11 1020 18 0 1.63 1 16:39 27.04.2020
4171 Clear 9 1022 21 0 1.59 348 16:20 27.04.2020
4172 Clear 9 1022 21 0 1.59 348 15:56 27.04.2020
4173 Clear 9 1022 21 0 1.59 348 15:38 27.04.2020
4174 Clear 9 1022 21 0 1.59 348 15:38 27.04.2020
4175 Clouds 6 1023 26 0 1.32 358 15:18 27.04.2020
4176 Clouds 6 1023 26 0 1.32 358 14:42 27.04.2020
4177 Clouds 6 1023 26 0 1.32 358 14:42 27.04.2020
4178 Clouds 6 1023 26 0 1.4 350 14:23 27.04.2020
4179 Clouds 6 1023 26 0 1.4 350 13:59 27.04.2020
4180 Clouds 6 1023 26 0 1.4 350 13:41 27.04.2020
4181 Clouds 6 1023 26 0 1.4 350 13:20 27.04.2020
4182 Clouds 6 1023 26 0 1.4 350 12:56 27.04.2020
4183 Clouds 6 1023 26 0 1.4 350 12:38 27.04.2020
4184 Clouds 5 1022 29 0 1.26 337 12:18 27.04.2020
4185 Clouds 5 1022 29 0 1.26 337 11:41 27.04.2020
4186 Clouds 5 1022 29 0 1.26 337 11:19 27.04.2020
4187 Clouds 5 1022 29 0 1.26 337 10:56 27.04.2020
4188 Clouds 5 1022 29 0 1.26 337 10:38 27.04.2020
4189 Clouds 5 1022 29 0 1.26 337 10:19 27.04.2020
4190 Clouds 5 1022 29 0 1.26 337 09:43 27.04.2020
4191 Clear 5 1022 29 0 1.67 14 09:19 27.04.2020
4192 Clear 5 1022 29 0 1.67 14 08:56 27.04.2020
4193 Clear 5 1022 29 0 1.67 14 08:36 27.04.2020
4194 Clear 5 1022 29 0 1.67 14 08:18 27.04.2020
4195 Clear 5 1022 29 0 1.67 14 07:44 27.04.2020
4196 Clear 5 1022 29 0 1.67 14 07:19 27.04.2020
4197 Clear 5 1022 29 0 1.67 14 06:44 27.04.2020
4198 Clear 7 1022 27 0 1.65 31 06:24 27.04.2020
4199 Clear 7 1022 27 0 1.65 31 05:49 27.04.2020
4200 Clear 7 1022 27 0 1.65 31 04:41 27.04.2020
4201 Clear 7 1022 27 0 1.65 31 03:49 27.04.2020
4202 Rain 8 1019 25 0 2.4 40 02:48 27.04.2020
4203 Rain 8 1019 25 0 2.87 44 01:34 27.04.2020
4204 Rain 8 1019 25 0 2.87 44 00:56 27.04.2020
4205 Rain 11 1015 20 0 5.5 44 00:20 27.04.2020
4206 Rain 11 1015 20 0 5.5 44 23:56 26.04.2020
4207 Rain 11 1015 20 0 5.5 44 23:37 26.04.2020
4208 Rain 11 1015 20 0 5.5 44 23:19 26.04.2020
4209 Rain 11 1015 20 0 5.5 44 22:58 26.04.2020
4210 Rain 11 1015 20 0 5.5 44 22:39 26.04.2020
4211 Rain 11 1015 20 0 5.5 44 22:19 26.04.2020
4212 Rain 11 1015 20 0 5.5 44 21:57 26.04.2020
4213 Rain 11 1015 21 0 5.06 39 21:37 26.04.2020
4214 Rain 13 1016 17 0 4.35 47 21:18 26.04.2020
4215 Rain 13 1016 17 0 4.35 47 20:42 26.04.2020
4216 Rain 13 1016 17 0 4.35 47 20:23 26.04.2020
4217 Rain 13 1016 17 0 4.35 47 19:59 26.04.2020
4218 Rain 13 1016 17 0 4.35 47 19:38 26.04.2020
4219 Rain 13 1016 17 0 4.35 47 19:38 26.04.2020
4220 Rain 13 1016 17 0 4.35 47 19:20 26.04.2020
4221 Rain 13 1016 17 0 4.35 47 18:57 26.04.2020
4222 Rain 13 1016 17 0 4.35 47 18:39 26.04.2020
4223 Clouds 11 1020 21 0 2.94 57 18:21 26.04.2020
4224 Clouds 11 1020 21 0 2.94 57 17:42 26.04.2020
4225 Clouds 11 1020 21 0 2.94 57 17:22 26.04.2020
4226 Clouds 11 1020 21 0 2.94 57 16:55 26.04.2020
4227 Clouds 11 1020 21 0 2.94 57 16:37 26.04.2020
4228 Clouds 11 1020 21 0 2.94 57 16:18 26.04.2020
4229 Clouds 11 1020 21 0 2.94 57 15:55 26.04.2020
4230 Clouds 11 1020 21 0 2.94 57 15:36 26.04.2020
4231 Clear 7 1021 29 0 1.24 44 15:18 26.04.2020
4232 Clear 7 1021 28 0 1.2 39 14:40 26.04.2020
4233 Clear 7 1021 28 0 1.2 39 14:19 26.04.2020
4234 Clear 7 1021 28 0 1.2 39 14:19 26.04.2020
4235 Clear 7 1021 28 0 1.2 39 13:58 26.04.2020
4236 Clear 7 1021 28 0 1.2 39 13:39 26.04.2020
4237 Clear 7 1021 28 0 1.2 39 13:21 26.04.2020
4238 Clear 7 1021 28 0 1.2 39 12:55 26.04.2020
4239 Clear 7 1021 28 0 1.2 39 12:37 26.04.2020
4240 Clear 5 1019 30 0 1.25 20 12:18 26.04.2020
4241 Clear 5 1019 30 0 1.25 20 11:54 26.04.2020
4242 Clear 5 1019 30 0 1.25 20 11:36 26.04.2020
4243 Clear 5 1019 30 0 1.25 20 11:18 26.04.2020
4244 Clear 5 1019 30 0 1.25 20 10:41 26.04.2020
4245 Clear 5 1019 30 0 1.25 20 10:23 26.04.2020
4246 Clear 5 1019 30 0 1.25 20 09:57 26.04.2020
4247 Clear 5 1019 30 0 1.25 20 09:37 26.04.2020
4248 Rain 7 1018 27 0 1.26 20 09:19 26.04.2020
4249 Rain 7 1018 27 0 1.26 20 08:41 26.04.2020
4250 Rain 7 1018 27 0 1.26 20 08:22 26.04.2020
4251 Rain 7 1018 27 0 1.26 20 07:48 26.04.2020
4252 Rain 7 1018 27 0 1.26 20 07:24 26.04.2020
4253 Rain 7 1018 27 0 1.26 20 06:50 26.04.2020
4254 Clouds 8 1017 24 0 1.38 13 06:25 26.04.2020
4255 Clouds 8 1017 24 0 1.38 13 05:51 26.04.2020
4256 Clouds 8 1017 24 0 1.38 13 05:32 26.04.2020
4257 Clouds 8 1017 24 0 1.38 13 04:39 26.04.2020
4258 Clouds 8 1017 24 0 1.38 13 03:40 26.04.2020
4259 Clouds 10 1015 19 0 1.89 43 02:38 26.04.2020
4260 Clouds 10 1015 19 0 1.89 43 02:19 26.04.2020
4261 Clouds 10 1015 19 0 1.89 43 01:37 26.04.2020
4262 Clouds 10 1015 19 0 1.89 43 00:41 26.04.2020
4263 Clouds 15 1011 9 0 2.73 65 00:21 26.04.2020
4264 Clouds 15 1011 9 0 2.73 65 23:57 25.04.2020
4265 Clouds 15 1011 9 0 2.73 65 23:37 25.04.2020
4266 Clouds 15 1011 9 0 2.73 65 23:18 25.04.2020
4267 Clouds 15 1011 9 0 2.73 65 22:42 25.04.2020
4268 Clouds 15 1011 9 0 2.73 65 22:21 25.04.2020
4269 Clouds 15 1011 9 0 2.73 65 21:59 25.04.2020
4270 Clouds 15 1011 9 0 2.84 64 21:39 25.04.2020
4271 Clouds 15 1011 9 0 2.87 69 21:19 25.04.2020
4272 Clouds 15 1011 9 0 2.87 69 20:55 25.04.2020
4273 Clouds 15 1011 9 0 2.87 69 20:37 25.04.2020
4274 Clouds 15 1011 9 0 2.87 69 20:18 25.04.2020
4275 Clouds 15 1011 9 0 2.87 69 19:40 25.04.2020
4276 Clouds 15 1011 9 0 2.87 69 19:22 25.04.2020
4277 Clouds 15 1011 9 0 2.87 69 18:57 25.04.2020
4278 Clouds 15 1011 9 0 2.87 69 18:38 25.04.2020
4279 Clouds 13 1015 9 0 0.86 83 18:19 25.04.2020
4280 Clouds 13 1015 9 0 0.86 83 17:55 25.04.2020
4281 Clouds 13 1015 9 0 0.86 83 17:37 25.04.2020
4282 Clouds 13 1015 9 0 0.86 83 17:18 25.04.2020
4283 Clouds 13 1015 9 0 0.86 83 16:48 25.04.2020
4284 Clouds 13 1015 9 0 0.86 83 16:28 25.04.2020
4285 Clouds 13 1015 9 0 0.86 83 15:58 25.04.2020
4286 Clouds 13 1015 9 0 0.86 83 15:39 25.04.2020
4287 Clear 9 1017 12 0 1.49 238 15:19 25.04.2020
4288 Clear 9 1017 12 0 1.49 238 14:57 25.04.2020
4289 Clear 9 1017 12 0 1.49 238 14:38 25.04.2020
4290 Clouds 9 1017 13 0 1.46 241 14:19 25.04.2020
4291 Clouds 9 1017 13 0 1.46 241 13:43 25.04.2020
4292 Clouds 9 1017 13 0 1.46 241 13:19 25.04.2020
4293 Clouds 9 1017 13 0 1.46 241 12:58 25.04.2020
4294 Clouds 9 1017 13 0 1.46 241 12:39 25.04.2020
4295 Clear 5 1015 18 0 1.25 253 12:20 25.04.2020
4296 Clear 5 1015 18 0 1.25 253 11:55 25.04.2020
4297 Clear 5 1015 18 0 1.25 253 11:37 25.04.2020
4298 Clear 5 1015 18 0 1.25 253 11:19 25.04.2020
4299 Clear 5 1015 18 0 1.25 253 10:42 25.04.2020
4300 Clear 5 1015 18 0 1.25 253 10:22 25.04.2020
4301 Clear 5 1015 18 0 1.25 253 09:47 25.04.2020
4302 Clear 7 1014 18 0 1.09 284 09:28 25.04.2020
4303 Clear 7 1014 18 0 1.09 284 08:58 25.04.2020
4304 Clear 7 1014 18 0 1.09 284 08:38 25.04.2020
4305 Clear 7 1014 18 0 1.08 292 08:20 25.04.2020
4306 Clear 7 1014 18 0 1.09 284 07:50 25.04.2020
4307 Clear 7 1014 18 0 1.09 284 07:28 25.04.2020
4308 Clear 7 1014 18 0 1.09 284 06:47 25.04.2020
4309 Clear 8 1014 20 0 0.56 311 06:18 25.04.2020
4310 Clear 8 1014 20 0 0.56 311 05:39 25.04.2020
4311 Clear 8 1014 19 0 0.47 302 04:57 25.04.2020
4312 Clear 10 1012 16 0 1.11 267 02:59 25.04.2020
4313 Clear 10 1012 16 0 1.11 267 02:20 25.04.2020
4314 Clear 10 1012 16 0 1.11 267 01:53 25.04.2020
4315 Clear 10 1012 16 0 1.11 267 01:34 25.04.2020
4316 Clear 10 1012 16 0 1.11 267 00:55 25.04.2020
4317 Clear 10 1012 16 0 1.11 267 00:32 25.04.2020
4318 Clear 15 1008 8 0 2.34 54 23:44 24.04.2020
4319 Clear 15 1008 8 0 2.34 54 23:24 24.04.2020
4320 Clear 15 1008 8 0 2.34 54 22:59 24.04.2020
4321 Clear 15 1008 8 0 2.34 54 22:39 24.04.2020
4322 Clear 15 1008 8 0 2.34 54 22:19 24.04.2020
4323 Clear 15 1008 8 0 2.34 54 22:19 24.04.2020
4324 Clear 15 1008 8 0 2.34 54 21:55 24.04.2020
4325 Clear 15 1008 8 0 1.97 54 21:37 24.04.2020
4326 Clear 15 1010 7 0 1.51 27 21:19 24.04.2020
4327 Clear 15 1010 7 0 1.51 27 20:56 24.04.2020
4328 Clear 15 1010 7 0 1.51 27 20:37 24.04.2020
4329 Clear 15 1010 7 0 1.51 27 20:18 24.04.2020
4330 Clear 15 1010 7 0 1.51 27 19:40 24.04.2020
4331 Clear 15 1010 7 0 1.51 27 19:40 24.04.2020
4332 Clear 15 1010 7 0 1.51 27 19:21 24.04.2020
4333 Clear 15 1010 7 0 1.51 27 18:45 24.04.2020
4334 Clear 13 1015 8 0 0.56 342 18:27 24.04.2020
4335 Clear 13 1015 8 0 0.56 342 17:58 24.04.2020
4336 Clear 13 1015 8 0 0.56 342 17:58 24.04.2020
4337 Clear 13 1015 8 0 0.56 342 17:38 24.04.2020
4338 Clear 13 1015 8 0 0.56 342 17:19 24.04.2020
4339 Clear 13 1015 8 0 0.56 342 16:58 24.04.2020
4340 Clear 13 1015 8 0 0.56 342 16:40 24.04.2020
4341 Clear 13 1015 8 0 0.56 342 16:21 24.04.2020
4342 Clear 13 1015 8 0 0.56 342 15:42 24.04.2020
4343 Clear 13 1015 8 0 0.56 342 15:42 24.04.2020
4344 Clear 8 1017 13 0 1.56 265 15:21 24.04.2020
4345 Clear 8 1017 13 0 1.56 265 14:57 24.04.2020
4346 Clear 8 1017 13 0 1.56 265 14:38 24.04.2020
4347 Clear 8 1017 13 0 1.74 264 14:19 24.04.2020
4348 Clear 8 1017 13 0 1.56 265 14:19 24.04.2020
4349 Clear 8 1017 13 0 1.74 264 13:41 24.04.2020
4350 Clear 8 1017 13 0 1.74 264 13:41 24.04.2020
4351 Clear 8 1017 13 0 1.74 264 13:22 24.04.2020
4352 Clear 8 1017 13 0 1.74 264 12:59 24.04.2020
4353 Clear 8 1017 13 0 1.74 264 12:40 24.04.2020
4354 Clear 5 1015 18 0 1.57 277 12:20 24.04.2020
4355 Clear 5 1015 18 0 1.57 277 11:55 24.04.2020
4356 Clear 5 1015 18 0 1.57 277 11:36 24.04.2020
4357 Clear 5 1015 18 0 1.57 277 11:18 24.04.2020
4358 Clear 5 1015 18 0 1.57 277 10:38 24.04.2020
4359 Clear 5 1015 18 0 1.57 277 10:20 24.04.2020
4360 Clear 5 1015 18 0 1.57 277 09:58 24.04.2020
4361 Clear 5 1015 18 0 1.57 277 09:39 24.04.2020
4362 Clear 6 1015 21 0 1.22 286 09:20 24.04.2020
4363 Clear 6 1015 21 0 1.22 286 08:43 24.04.2020
4364 Clear 6 1015 21 0 1.22 286 08:23 24.04.2020
4365 Clear 6 1015 21 0 1.22 286 07:59 24.04.2020
4366 Clear 6 1015 21 0 1.22 286 07:41 24.04.2020
4367 Clear 6 1015 21 0 1.22 286 07:23 24.04.2020
4368 Clear 6 1015 21 0 1.22 286 06:48 24.04.2020
4369 Clear 6 1015 21 0 1.22 286 06:30 24.04.2020
4370 Clear 8 1016 23 0 1.37 347 05:40 24.04.2020
4371 Clear 8 1016 23 0 1.37 347 03:57 24.04.2020
4372 Clear 9 1014 22 0 1.47 42 02:56 24.04.2020
4373 Clear 9 1014 22 0 1.47 42 02:37 24.04.2020
4374 Clear 9 1014 22 0 1.38 47 01:47 24.04.2020
4375 Clear 9 1014 22 0 1.38 47 00:58 24.04.2020
4376 Rain 13 1011 12 0 2.52 55 00:21 24.04.2020
4377 Rain 13 1011 12 0 2.52 55 00:21 24.04.2020
4378 Rain 13 1011 12 0 2.52 55 23:54 23.04.2020
4379 Rain 13 1011 12 0 2.52 55 23:36 23.04.2020
4380 Rain 13 1011 12 0 2.52 55 23:18 23.04.2020
4381 Rain 13 1011 12 0 2.52 55 22:54 23.04.2020
4382 Rain 13 1011 12 0 2.52 55 22:36 23.04.2020
4383 Rain 13 1011 12 0 2.52 55 22:18 23.04.2020
4384 Rain 13 1011 12 0 2.52 55 21:54 23.04.2020
4385 Rain 13 1011 12 0 2.57 57 21:36 23.04.2020
4386 Clear 14 1012 10 0 3.03 54 21:18 23.04.2020
4387 Clear 14 1012 10 0 3.03 54 20:41 23.04.2020
4388 Clear 14 1012 10 0 3.03 54 20:21 23.04.2020
4389 Clear 14 1012 10 0 3.03 54 19:56 23.04.2020
4390 Clear 14 1012 10 0 3.03 54 19:38 23.04.2020
4391 Clear 14 1012 10 0 3.03 54 19:20 23.04.2020
4392 Clear 14 1012 10 0 3.03 54 18:55 23.04.2020
4393 Clear 14 1012 10 0 3.03 54 18:36 23.04.2020
4394 Clear 12 1018 12 0 1.59 39 18:18 23.04.2020
4395 Clear 12 1018 12 0 1.59 39 17:55 23.04.2020
4396 Clear 12 1018 12 0 1.59 39 17:36 23.04.2020
4397 Clear 12 1018 12 0 1.59 39 17:18 23.04.2020
4398 Clear 12 1018 12 0 1.59 39 16:42 23.04.2020
4399 Clear 12 1018 12 0 1.59 39 16:19 23.04.2020
4400 Clear 12 1018 12 0 1.59 39 15:42 23.04.2020
4401 Clear 7 1020 19 0 0.82 319 15:23 23.04.2020
4402 Clear 7 1020 19 0 0.82 319 14:58 23.04.2020
4403 Clear 7 1020 19 0 0.82 319 14:38 23.04.2020
4404 Clear 7 1020 20 0 0.81 318 14:20 23.04.2020
4405 Clear 7 1020 20 0 0.81 318 13:56 23.04.2020
4406 Clear 7 1020 20 0 0.81 318 13:38 23.04.2020
4407 Clear 7 1020 20 0 0.81 318 13:19 23.04.2020
4408 Clear 7 1020 20 0 0.81 318 12:44 23.04.2020
4409 Clear 4 1018 27 0 0.77 317 12:25 23.04.2020
4410 Clear 4 1018 27 0 0.77 317 11:58 23.04.2020
4411 Clear 4 1018 27 0 0.77 317 11:40 23.04.2020
4412 Clear 4 1018 27 0 0.77 317 11:21 23.04.2020
4413 Clear 4 1018 27 0 0.77 317 10:42 23.04.2020
4414 Clear 4 1018 27 0 0.77 317 10:24 23.04.2020
4415 Clear 4 1018 27 0 0.77 317 09:55 23.04.2020
4416 Clear 4 1018 27 0 0.77 317 09:37 23.04.2020
4417 Clear 6 1018 28 0 1 336 09:18 23.04.2020
4418 Clear 6 1018 28 0 1 336 08:45 23.04.2020
4419 Clear 6 1018 28 0 1 336 08:27 23.04.2020
4420 Clear 6 1018 28 0 1 336 07:43 23.04.2020
4421 Clear 6 1018 28 0 1 336 07:23 23.04.2020
4422 Clear 6 1018 28 0 1 336 06:49 23.04.2020
4423 Clear 7 1019 27 0 1.26 33 06:27 23.04.2020
4424 Clear 7 1019 27 0 1.26 33 05:31 23.04.2020
4425 Clear 7 1019 27 0 1.26 33 04:53 23.04.2020
4426 Rain 8 1017 24 0 1.88 46 02:25 23.04.2020
4427 Rain 8 1017 23 0 1.84 44 01:49 23.04.2020
4428 Rain 8 1017 23 0 1.84 44 01:28 23.04.2020
4429 Rain 8 1017 23 0 1.84 44 00:47 23.04.2020
4430 Rain 12 1013 12 0 1.6 68 00:22 23.04.2020
4431 Rain 12 1013 12 0 1.6 68 23:50 22.04.2020
4432 Rain 12 1013 12 0 1.6 68 23:24 22.04.2020
4433 Rain 12 1013 12 0 1.6 68 22:57 22.04.2020
4434 Rain 12 1013 12 0 1.6 68 22:37 22.04.2020
4435 Rain 12 1013 12 0 1.6 68 22:19 22.04.2020
4436 Rain 12 1013 12 0 1.6 68 21:56 22.04.2020
4437 Rain 12 1013 12 0 1.6 68 21:37 22.04.2020
4438 Rain 13 1014 11 0 1.71 57 21:19 22.04.2020
4439 Rain 13 1014 11 0 1.71 57 20:43 22.04.2020
4440 Rain 13 1014 11 0 1.71 57 20:43 22.04.2020
4441 Rain 13 1014 11 0 1.71 57 20:20 22.04.2020
4442 Rain 13 1014 11 0 1.71 57 19:58 22.04.2020
4443 Rain 13 1014 11 0 1.71 57 19:39 22.04.2020
4444 Rain 13 1014 11 0 1.71 57 19:19 22.04.2020
4445 Rain 13 1014 11 0 1.71 57 18:59 22.04.2020
4446 Rain 13 1014 11 0 1.71 57 18:41 22.04.2020
4447 Clear 11 1020 14 0 1.54 20 18:22 22.04.2020
4448 Clear 11 1020 14 0 1.54 20 17:58 22.04.2020
4449 Clear 11 1020 14 0 1.54 20 17:39 22.04.2020
4450 Clear 11 1020 14 0 1.54 20 17:21 22.04.2020
4451 Clear 11 1020 14 0 1.54 20 16:46 22.04.2020
4452 Clear 11 1020 14 0 1.54 20 16:28 22.04.2020
4453 Clear 11 1020 14 0 1.54 20 15:54 22.04.2020
4454 Clear 11 1020 14 0 1.54 20 15:36 22.04.2020
4455 Clouds 6 1022 24 0 1.33 336 15:18 22.04.2020
4456 Clouds 6 1022 24 0 1.33 336 15:18 22.04.2020
4457 Clouds 6 1022 24 0 1.33 336 14:41 22.04.2020
4458 Clouds 6 1022 24 0 1.33 336 14:41 22.04.2020
4459 Clouds 6 1022 22 0 1.13 320 14:21 22.04.2020
4460 Clouds 6 1022 22 0 1.13 320 13:59 22.04.2020
4461 Clouds 6 1022 22 0 1.13 320 13:40 22.04.2020
4462 Clouds 6 1022 22 0 1.13 320 13:19 22.04.2020
4463 Clouds 6 1022 22 0 1.13 320 12:42 22.04.2020
4464 Clouds 4 1020 28 0 1.2 355 12:23 22.04.2020
4465 Clouds 4 1020 28 0 1.2 355 11:57 22.04.2020
4466 Clouds 4 1020 28 0 1.2 355 11:37 22.04.2020
4467 Clouds 4 1020 28 0 1.2 355 11:18 22.04.2020
4468 Clouds 4 1020 28 0 1.2 355 11:18 22.04.2020
4469 Clouds 4 1020 28 0 1.2 355 10:41 22.04.2020
4470 Clouds 4 1020 28 0 1.2 355 10:23 22.04.2020
4471 Clouds 4 1020 28 0 1.2 355 09:43 22.04.2020
4472 Clouds 5 1020 29 0 1.08 21 09:24 22.04.2020
4473 Clouds 5 1021 28 0 1.18 15 08:59 22.04.2020
4474 Clouds 5 1021 28 0 1.18 15 08:59 22.04.2020
4475 Clouds 5 1021 28 0 1.18 15 08:41 22.04.2020
4476 Clouds 5 1021 28 0 1.18 15 08:41 22.04.2020
4477 Clouds 5 1021 28 0 1.18 15 08:23 22.04.2020
4478 Clouds 5 1021 28 0 1.18 15 07:54 22.04.2020
4479 Clouds 5 1021 28 0 1.18 15 07:33 22.04.2020
4480 Clouds 5 1021 28 0 1.18 15 06:59 22.04.2020
4481 Clouds 5 1021 28 0 1.18 15 06:39 22.04.2020
4482 Rain 6 1021 27 0 1.77 42 05:39 22.04.2020
4483 Rain 6 1021 27 0 1.77 42 04:42 22.04.2020
4484 Rain 7 1019 24 0 2.3 41 02:59 22.04.2020
4485 Rain 8 1019 23 0 2.26 46 02:18 22.04.2020
4486 Rain 8 1019 23 0 2.26 46 01:38 22.04.2020
4487 Rain 8 1019 23 0 2.26 46 01:19 22.04.2020
4488 Rain 8 1019 23 0 2.26 46 00:41 22.04.2020
4489 Rain 11 1015 16 0 1.87 49 00:20 22.04.2020
4490 Rain 11 1015 16 0 1.87 49 23:44 21.04.2020
4491 Rain 11 1015 16 0 1.87 49 23:22 21.04.2020
4492 Rain 11 1015 16 0 1.87 49 22:58 21.04.2020
4493 Rain 11 1015 16 0 1.87 49 22:39 21.04.2020
4494 Rain 11 1015 16 0 1.87 49 22:19 21.04.2020
4495 Rain 11 1015 16 0 1.87 49 21:43 21.04.2020
4496 Rain 11 1016 15 0 1.36 46 21:24 21.04.2020
4497 Rain 11 1016 15 0 1.36 46 20:59 21.04.2020
4498 Rain 11 1016 15 0 1.36 46 20:40 21.04.2020
4499 Rain 11 1016 16 0 0.94 70 20:22 21.04.2020
4500 Rain 11 1016 15 0 1.36 46 19:58 21.04.2020
4501 Rain 11 1016 16 0 0.94 70 19:38 21.04.2020
4502 Rain 11 1016 15 0 1.36 46 19:18 21.04.2020
4503 Rain 11 1016 16 0 0.94 70 18:55 21.04.2020
4504 Rain 11 1016 15 0 1.36 46 18:36 21.04.2020
4505 Clear 11 1020 15 0 2.26 63 18:18 21.04.2020
4506 Clear 11 1020 15 0 2.26 63 17:39 21.04.2020
4507 Clear 11 1020 14 0 1.87 65 17:20 21.04.2020
4508 Clear 11 1020 15 0 2.26 63 16:56 21.04.2020
4509 Clear 11 1020 15 0 2.26 63 16:37 21.04.2020
4510 Clear 11 1020 15 0 2.26 63 16:18 21.04.2020
4511 Clear 11 1020 15 0 2.26 63 15:55 21.04.2020
4512 Clear 11 1020 15 0 2.26 63 15:37 21.04.2020
4513 Clear 7 1023 20 0 1.11 308 15:18 21.04.2020
4514 Clear 7 1023 20 0 1.11 308 14:45 21.04.2020
4515 Clear 7 1023 20 0 1.11 308 14:24 21.04.2020
4516 Clear 7 1023 20 0 1.11 308 13:56 21.04.2020
4517 Clear 7 1023 20 0 1.11 308 13:56 21.04.2020
4518 Clear 7 1023 20 0 1.11 308 13:37 21.04.2020
4519 Clear 7 1023 20 0 1.11 308 13:18 21.04.2020
4520 Clear 7 1023 20 0 1.11 308 13:18 21.04.2020
4521 Clear 7 1023 20 0 1.11 308 12:39 21.04.2020
4522 Clear 4 1021 26 0 0.67 315 12:19 21.04.2020
4523 Clear 4 1021 26 0 0.67 315 11:57 21.04.2020
4524 Clear 4 1021 26 0 0.67 315 11:39 21.04.2020
4525 Clear 4 1021 26 0 0.67 315 11:19 21.04.2020
4526 Clear 4 1021 26 0 0.67 315 10:59 21.04.2020
4527 Clear 4 1021 26 0 0.67 315 10:40 21.04.2020
4528 Clear 4 1021 26 0 0.67 315 10:22 21.04.2020
4529 Clear 4 1021 26 0 0.67 315 09:58 21.04.2020
4530 Clear 4 1021 26 0 0.67 315 09:36 21.04.2020
4531 Clear 5 1021 25 0 1.25 352 09:18 21.04.2020
4532 Clear 5 1021 25 0 1.25 352 08:43 21.04.2020
4533 Clear 5 1021 25 0 1.25 352 08:25 21.04.2020
4534 Clear 5 1021 25 0 1.25 352 07:52 21.04.2020
4535 Clear 5 1021 25 0 1.25 352 07:27 21.04.2020
4536 Clear 5 1021 25 0 1.25 352 06:51 21.04.2020
4537 Clear 5 1021 25 0 1.25 352 06:51 21.04.2020
4538 Clear 5 1021 25 0 1.25 352 06:33 21.04.2020
4539 Clear 6 1022 24 0 1.56 35 05:50 21.04.2020
4540 Clear 6 1022 24 0 1.56 35 04:57 21.04.2020
4541 Clear 6 1022 24 0 1.56 35 03:46 21.04.2020
4542 Clouds 7 1019 22 0 2.42 49 02:42 21.04.2020
4543 Clouds 7 1019 22 0 2.42 49 01:31 21.04.2020
4544 Clouds 7 1019 22 0 2.42 49 00:38 21.04.2020
4545 Clouds 11 1015 14 0 2.65 36 00:18 21.04.2020
4546 Clouds 11 1015 14 0 2.65 36 23:43 20.04.2020
4547 Clouds 11 1015 14 0 2.65 36 23:21 20.04.2020
4548 Clouds 11 1015 14 0 2.65 36 22:55 20.04.2020
4549 Clouds 11 1015 14 0 2.65 36 22:36 20.04.2020
4550 Clouds 11 1015 14 0 2.65 36 22:18 20.04.2020
4551 Clouds 11 1015 14 0 2.65 36 22:18 20.04.2020
4552 Clouds 11 1015 14 0 2.65 36 21:54 20.04.2020
4553 Clouds 11 1015 14 0 2.71 34 21:36 20.04.2020
4554 Clouds 11 1015 14 0 2.65 36 21:36 20.04.2020
4555 Clouds 12 1015 13 0 1.82 66 21:18 20.04.2020
4556 Clouds 12 1015 13 0 1.82 66 20:42 20.04.2020
4557 Clouds 12 1015 13 0 1.82 66 20:20 20.04.2020
4558 Clouds 12 1015 13 0 1.82 66 19:59 20.04.2020
4559 Clouds 12 1015 13 0 1.82 66 19:41 20.04.2020
4560 Clouds 12 1015 13 0 1.82 66 19:22 20.04.2020
4561 Clouds 12 1015 13 0 1.82 66 18:59 20.04.2020
4562 Clouds 12 1015 13 0 1.82 66 18:40 20.04.2020
4563 Clear 11 1021 14 0 2.08 59 18:20 20.04.2020
4564 Clear 11 1021 14 0 2.08 59 17:54 20.04.2020
4565 Clear 11 1021 14 0 2.08 59 17:36 20.04.2020
4566 Clear 11 1021 14 0 2.08 59 17:18 20.04.2020
4567 Clear 11 1021 14 0 2.08 59 16:43 20.04.2020
4568 Clear 11 1021 14 0 2.08 59 16:21 20.04.2020
4569 Clear 11 1021 14 0 2.08 59 15:57 20.04.2020
4570 Clear 11 1021 14 0 2.08 59 15:39 20.04.2020
4571 Clear 6 1022 20 0 1 310 15:20 20.04.2020
4572 Clear 6 1022 20 0 1 310 14:42 20.04.2020
4573 Clear 6 1022 20 0 0.98 314 14:20 20.04.2020
4574 Clear 6 1022 20 0 0.98 314 13:59 20.04.2020
4575 Clear 6 1022 20 0 0.98 314 13:40 20.04.2020
4576 Clear 6 1022 20 0 0.98 314 13:22 20.04.2020
4577 Clear 6 1022 20 0 0.98 314 12:44 20.04.2020
4578 Clear 3 1022 24 0 0.86 316 12:25 20.04.2020
4579 Clear 3 1022 24 0 0.86 316 11:59 20.04.2020
4580 Clear 3 1022 24 0 0.86 316 11:39 20.04.2020
4581 Clear 3 1022 24 0 0.86 316 11:20 20.04.2020
4582 Clear 3 1022 24 0 0.86 316 10:56 20.04.2020
4583 Clear 3 1022 24 0 0.86 316 10:38 20.04.2020
4584 Clear 3 1022 24 0 0.86 316 10:19 20.04.2020
4585 Clear 3 1022 24 0 0.86 316 09:44 20.04.2020
4586 Clear 5 1021 24 0 1.04 357 09:26 20.04.2020
4587 -273 0 0 0 0 0 08:59 20.04.2020
4588 Clear 5 1021 25 0 0.99 356 08:41 20.04.2020
4589 Clear 5 1021 25 0 0.99 356 08:19 20.04.2020
4590 Clear 5 1021 25 0 0.99 356 07:52 20.04.2020
4591 Clear 5 1021 25 0 0.99 356 07:29 20.04.2020
4592 Clear 5 1021 25 0 0.99 356 06:55 20.04.2020
4593 Clear 5 1021 25 0 0.99 356 06:36 20.04.2020
4594 Clear 6 1022 24 0 1.45 38 05:38 20.04.2020
4595 Clear 6 1022 24 0 1.45 38 03:49 20.04.2020
4596 Rain 7 1019 21 0 2.28 46 02:44 20.04.2020
4597 Rain 7 1019 21 0 1.87 60 01:37 20.04.2020
4598 Rain 7 1019 21 0 1.87 60 01:19 20.04.2020
4599 Rain 7 1019 21 0 1.87 60 00:36 20.04.2020
4600 Clouds 11 1016 14 0 2.25 67 23:57 19.04.2020
4601 Clouds 11 1016 14 0 2.25 67 23:38 19.04.2020
4602 Clouds 11 1016 14 0 2.25 67 23:19 19.04.2020
4603 Clouds 11 1016 14 0 2.25 67 22:41 19.04.2020
4604 Clouds 11 1016 14 0 2.25 67 22:23 19.04.2020
4605 Clouds 11 1016 14 0 2.25 67 21:58 19.04.2020
4606 Clouds 11 1016 14 0 2.25 67 21:40 19.04.2020
4607 Clear 12 1016 12 0 2.59 69 21:21 19.04.2020
4608 Clear 12 1016 12 0 2.59 69 20:55 19.04.2020
4609 Clear 12 1016 12 0 2.59 69 20:37 19.04.2020
4610 Clear 12 1016 12 0 2.59 69 20:19 19.04.2020
4611 Clear 12 1016 12 0 2.59 69 19:41 19.04.2020
4612 Clear 12 1016 12 0 2.59 69 19:23 19.04.2020
4613 Clear 12 1016 12 0 2.59 69 18:58 19.04.2020
4614 Clear 12 1016 12 0 2.59 69 18:40 19.04.2020
4615 Clear 12 1016 12 0 2.59 69 18:40 19.04.2020
4616 Clear 10 1021 13 0 2.01 84 18:21 19.04.2020
4617 Clear 10 1021 13 0 2.01 84 17:59 19.04.2020
4618 Clear 10 1021 13 0 2.01 84 17:40 19.04.2020
4619 Clear 10 1021 13 0 2.01 84 17:22 19.04.2020
4620 Clear 10 1021 13 0 2.01 84 16:58 19.04.2020
4621 Clear 10 1021 13 0 2.01 84 16:39 19.04.2020
4622 Clear 10 1021 13 0 2.01 84 16:21 19.04.2020
4623 Clear 10 1021 13 0 2.01 84 15:54 19.04.2020
4624 Clear 10 1021 13 0 2.01 84 15:36 19.04.2020
4625 Clear 6 1023 19 0 0.61 298 15:18 19.04.2020
4626 Clear 6 1023 19 0 0.61 298 14:38 19.04.2020
4627 Clear 6 1023 19 0 0.88 298 14:20 19.04.2020
4628 Clear 6 1023 19 0 0.88 298 13:54 19.04.2020
4629 Clear 6 1023 19 0 0.88 298 13:36 19.04.2020
4630 Clear 6 1023 19 0 0.88 298 13:18 19.04.2020
4631 Clear 6 1023 19 0 0.88 298 12:42 19.04.2020
4632 Clear 3 1023 25 0 0.84 295 12:23 19.04.2020
4633 Clear 3 1023 25 0 0.84 295 11:39 19.04.2020
4634 Clear 3 1023 25 0 0.84 295 11:20 19.04.2020
4635 Clear 3 1023 25 0 0.84 295 10:59 19.04.2020
4636 Clear 3 1023 25 0 0.84 295 10:41 19.04.2020
4637 Clear 3 1023 25 0 0.84 295 10:20 19.04.2020
4638 Clear 3 1023 25 0 0.84 295 09:51 19.04.2020
4639 Clear 3 1023 25 0 0.84 295 09:32 19.04.2020
4640 Clear 4 1023 25 0 0.82 292 08:59 19.04.2020
4641 Clear 4 1023 25 0 0.82 292 08:38 19.04.2020
4642 Clear 4 1023 25 0 0.82 292 08:18 19.04.2020
4643 Clouds 4 1022 26 0 0.94 288 07:45 19.04.2020
4644 Clear 4 1023 25 0 0.82 292 07:25 19.04.2020
4645 Clear 4 1023 25 0 0.82 292 06:55 19.04.2020
4646 Clouds 4 1024 24 0 1.22 345 06:19 19.04.2020
4647 Clouds 4 1024 24 0 1.22 345 04:56 19.04.2020
4648 Rain 5 1022 23 0 2.34 38 03:24 19.04.2020
4649 Rain 5 1022 24 0 2.25 31 02:22 19.04.2020
4650 Rain 5 1022 24 0 2.25 31 01:39 19.04.2020
4651 Rain 5 1022 24 0 2.25 31 01:21 19.04.2020
4652 Rain 5 1022 24 0 2.25 31 00:40 19.04.2020
4653 Rain 7 1019 19 0 3.83 33 00:19 19.04.2020
4654 Rain 7 1019 19 0 3.83 33 23:42 18.04.2020
4655 Rain 7 1019 19 0 3.83 33 23:19 18.04.2020
4656 Rain 7 1019 19 0 3.83 33 22:43 18.04.2020
4657 Rain 7 1019 19 0 3.83 33 22:43 18.04.2020
4658 Rain 7 1019 19 0 3.83 33 22:24 18.04.2020
4659 Rain 7 1019 19 0 3.83 33 21:58 18.04.2020
4660 Rain 7 1019 19 0 3.83 33 21:39 18.04.2020
4661 Clear 10 1019 14 0 3.56 61 21:21 18.04.2020
4662 Clear 10 1019 14 0 3.56 61 20:58 18.04.2020
4663 Clear 10 1019 14 0 3.56 61 20:40 18.04.2020
4664 Clear 10 1019 14 0 3.56 61 20:20 18.04.2020
4665 Clear 10 1019 14 0 3.56 61 19:42 18.04.2020
4666 Clear 10 1019 14 0 3.56 61 19:24 18.04.2020
4667 Clear 10 1019 14 0 3.56 61 18:40 18.04.2020
4668 Clear 8 1024 17 0 2.31 69 18:20 18.04.2020
4669 Clear 8 1024 17 0 2.31 69 17:58 18.04.2020
4670 Clear 8 1024 17 0 2.31 69 17:40 18.04.2020
4671 Clear 8 1024 17 0 2.31 69 17:20 18.04.2020
4672 Clear 8 1024 17 0 2.31 69 16:43 18.04.2020
4673 Clear 8 1024 17 0 2.31 69 16:22 18.04.2020
4674 Clear 8 1024 17 0 2.31 69 15:58 18.04.2020
4675 Clear 8 1024 17 0 2.31 69 15:38 18.04.2020
4676 Clouds 3 1026 23 0 0.64 135 15:19 18.04.2020
4677 Clouds 3 1026 23 0 0.64 135 14:44 18.04.2020
4678 Clouds 3 1026 23 0 0.64 135 14:25 18.04.2020
4679 Clouds 3 1026 24 0 0.65 116 13:54 18.04.2020
4680 Clouds 3 1026 24 0 0.65 116 13:36 18.04.2020
4681 Clouds 3 1026 24 0 0.65 116 13:18 18.04.2020
4682 Clouds 3 1026 24 0 0.65 116 12:41 18.04.2020
4683 Clouds 1 1025 27 0 0.4 57 12:22 18.04.2020
4684 Clouds 1 1025 27 0 0.4 57 11:43 18.04.2020
4685 Clouds 1 1025 27 0 0.4 57 11:23 18.04.2020
4686 Clouds 1 1025 27 0 0.4 57 10:57 18.04.2020
4687 Clouds 1 1025 27 0 0.4 57 10:37 18.04.2020
4688 Clouds 1 1025 27 0 0.4 57 10:18 18.04.2020
4689 Clouds 1 1025 27 0 0.4 57 10:18 18.04.2020
4690 Clouds 1 1025 27 0 0.4 57 09:42 18.04.2020
4691 Clouds 3 1025 26 0 0.44 335 09:23 18.04.2020
4692 Clouds 3 1025 26 0 0.43 7 08:56 18.04.2020
4693 Clouds 3 1025 26 0 0.43 7 08:38 18.04.2020
4694 Clouds 3 1025 26 0 0.43 7 08:18 18.04.2020
4695 Clouds 3 1025 26 0 0.43 7 07:37 18.04.2020
4696 Clouds 3 1025 26 0 0.43 7 07:37 18.04.2020
4697 Clouds 3 1025 26 0 0.43 7 06:59 18.04.2020
4698 Clouds 4 1026 25 0 1.18 331 06:29 18.04.2020
4699 Clouds 4 1026 25 0 1.18 331 05:42 18.04.2020
4700 Clouds 4 1026 25 0 1.18 331 04:47 18.04.2020
4701 Clouds 4 1026 25 0 1.18 331 04:27 18.04.2020
4702 Rain 4 1024 25 0 1.79 78 02:55 18.04.2020
4703 Rain 4 1024 25 0 1.79 78 02:37 18.04.2020
4704 Rain 4 1025 24 0 1.9 60 02:19 18.04.2020
4705 Rain 4 1025 24 0 1.9 60 01:35 18.04.2020
4706 Rain 4 1025 24 0 1.9 60 00:47 18.04.2020
4707 Rain 6 1021 22 0 3.94 55 00:23 18.04.2020
4708 Rain 6 1021 22 0 3.94 55 23:57 17.04.2020
4709 Rain 6 1021 22 0 3.94 55 23:38 17.04.2020
4710 Rain 6 1021 22 0 3.94 55 23:19 17.04.2020
4711 Rain 6 1021 22 0 3.94 55 22:56 17.04.2020
4712 Rain 6 1021 22 0 3.94 55 22:37 17.04.2020
4713 Rain 6 1021 22 0 3.94 55 22:19 17.04.2020
4714 Rain 6 1021 22 0 3.94 55 21:43 17.04.2020
4715 Rain 8 1020 20 0 4.77 52 21:22 17.04.2020
4716 Rain 8 1020 20 0 4.77 52 20:58 17.04.2020
4717 Rain 8 1020 20 0 4.77 52 20:38 17.04.2020
4718 Rain 8 1020 20 0 4.77 52 20:19 17.04.2020
4719 Rain 8 1020 20 0 4.77 52 19:59 17.04.2020
4720 Rain 8 1020 20 0 4.77 52 19:41 17.04.2020
4721 Rain 8 1020 20 0 4.77 52 19:22 17.04.2020
4722 Rain 8 1020 20 0 4.77 52 18:44 17.04.2020
4723 Rain 7 1025 21 0 3.1 68 18:24 17.04.2020
4724 Rain 7 1025 21 0 3.1 68 18:24 17.04.2020
4725 Rain 7 1025 21 0 3.1 68 17:56 17.04.2020
4726 Rain 7 1025 21 0 3.1 68 17:37 17.04.2020
4727 Rain 7 1025 21 0 3.1 68 17:18 17.04.2020
4728 Rain 7 1025 21 0 3.1 68 16:43 17.04.2020
4729 Rain 7 1025 21 0 3.1 68 16:23 17.04.2020
4730 Rain 7 1025 21 0 3.1 68 15:44 17.04.2020
4731 Snow 4 1026 26 0 1.45 113 15:24 17.04.2020
4732 Snow 4 1026 26 0 1.45 113 15:24 17.04.2020
4733 Snow 4 1026 26 0 1.45 113 14:58 17.04.2020
4734 Snow 4 1026 26 0 1.45 113 14:39 17.04.2020
4735 Clouds 3 1027 27 0 1.33 91 14:21 17.04.2020
4736 Clouds 3 1027 27 0 1.33 91 13:55 17.04.2020
4737 Clouds 3 1027 27 0 1.33 91 13:36 17.04.2020
4738 Clouds 3 1027 27 0 1.33 91 13:18 17.04.2020
4739 Clouds 3 1027 27 0 1.33 91 12:45 17.04.2020
4740 Clouds 3 1025 29 0 1.04 82 12:24 17.04.2020
4741 Clouds 3 1025 29 0 1.04 82 11:42 17.04.2020
4742 Clouds 3 1025 29 0 1.04 82 11:20 17.04.2020
4743 Clouds 3 1025 29 0 1.04 82 10:56 17.04.2020
4744 Clouds 3 1025 29 0 1.04 82 10:38 17.04.2020
4745 Clouds 3 1025 29 0 1.04 82 10:19 17.04.2020
4746 Clouds 3 1025 29 0 1.04 82 09:41 17.04.2020
4747 Clouds 3 1024 27 0 0.96 57 09:22 17.04.2020
4748 Clouds 3 1024 27 0 0.96 57 08:59 17.04.2020
4749 Clouds 3 1024 27 0 0.96 57 08:40 17.04.2020
4750 Clouds 3 1024 27 0 0.96 57 08:21 17.04.2020
4751 Clouds 3 1024 27 0 0.96 57 07:44 17.04.2020
4752 Clouds 3 1024 27 0 0.96 57 07:23 17.04.2020
4753 Clouds 3 1024 27 0 0.96 57 06:50 17.04.2020
4754 Clouds 4 1025 27 0 1.07 36 06:23 17.04.2020
4755 Clouds 4 1025 27 0 1.07 36 05:27 17.04.2020
4756 Rain 4 1022 26 0 2.62 46 03:20 17.04.2020
4757 Rain 4 1022 26 0 2.62 46 02:34 17.04.2020
4758 Rain 4 1022 26 0 2.61 36 01:30 17.04.2020
4759 Rain 4 1022 26 0 2.61 36 00:53 17.04.2020
4760 Rain 6 1018 25 0 4.63 65 00:19 17.04.2020
4761 Rain 6 1018 25 0 4.63 65 23:45 16.04.2020
4762 Rain 6 1018 25 0 4.63 65 23:23 16.04.2020
4763 Rain 6 1018 25 0 4.63 65 22:58 16.04.2020
4764 Rain 6 1018 25 0 4.63 65 22:38 16.04.2020
4765 Rain 6 1018 25 0 4.63 65 22:20 16.04.2020
4766 Rain 6 1018 25 0 4.63 65 21:56 16.04.2020
4767 Rain 6 1018 25 0 4.63 65 21:37 16.04.2020
4768 Rain 10 1018 15 0 3.38 51 21:18 16.04.2020
4769 Rain 10 1018 15 0 3.38 51 20:40 16.04.2020
4770 Rain 10 1018 15 0 3.38 51 20:22 16.04.2020
4771 Rain 10 1018 15 0 3.38 51 19:56 16.04.2020
4772 Rain 10 1018 15 0 3.38 51 19:37 16.04.2020
4773 Rain 10 1018 15 0 3.38 51 19:19 16.04.2020
4774 Rain 10 1018 15 0 3.38 51 18:45 16.04.2020
4775 Clouds 8 1022 18 0 2.27 64 18:26 16.04.2020
4776 Clouds 8 1022 18 0 2.27 64 17:58 16.04.2020
4777 Clouds 8 1022 18 0 2.27 64 17:39 16.04.2020
4778 Clouds 8 1022 18 0 2.27 64 17:20 16.04.2020
4779 Clouds 8 1022 18 0 2.27 64 16:44 16.04.2020
4780 Clouds 8 1022 18 0 2.27 64 16:26 16.04.2020
4781 Clouds 8 1022 18 0 2.27 64 15:57 16.04.2020
4782 Clouds 8 1022 18 0 2.27 64 15:39 16.04.2020
4783 Clouds 4 1023 25 0 1.09 17 15:18 16.04.2020
4784 Clouds 4 1023 25 0 1.09 17 14:45 16.04.2020
4785 Clouds 4 1023 25 0 1.09 17 14:45 16.04.2020
4786 Clouds 4 1023 25 0 1.09 17 14:25 16.04.2020
4787 Clouds 4 1024 24 0 0.98 15 13:59 16.04.2020
4788 Clouds 4 1024 24 0 0.98 15 13:59 16.04.2020
4789 Clouds 4 1024 24 0 0.98 15 13:41 16.04.2020
4790 Clouds 4 1024 24 0 0.98 15 13:23 16.04.2020
4791 Clouds 4 1024 24 0 0.98 15 12:58 16.04.2020
4792 Clouds 4 1024 24 0 0.98 15 12:39 16.04.2020
4793 Clouds 3 1022 27 0 1.05 342 12:20 16.04.2020
4794 Clouds 3 1022 27 0 1.05 342 11:59 16.04.2020
4795 Clouds 3 1022 27 0 1.05 342 11:40 16.04.2020
4796 Clouds 3 1022 27 0 1.05 342 11:21 16.04.2020
4797 Clouds 3 1022 27 0 1.05 342 10:55 16.04.2020
4798 Clouds 3 1022 27 0 1.05 342 10:37 16.04.2020
4799 Clouds 3 1022 27 0 1.05 342 10:18 16.04.2020
4800 Clouds 3 1022 27 0 1.05 342 10:18 16.04.2020
4801 Clouds 3 1022 27 0 1.05 342 09:39 16.04.2020
4802 Clouds 3 1021 28 0 1.58 14 09:20 16.04.2020
4803 Clouds 3 1021 28 0 1.44 18 08:57 16.04.2020
4804 Clouds 3 1021 28 0 1.44 18 08:39 16.04.2020
4805 Clouds 3 1021 28 0 1.58 14 08:21 16.04.2020
4806 Clouds 3 1021 28 0 1.44 18 07:43 16.04.2020
4807 Clouds 3 1021 28 0 1.58 14 07:24 16.04.2020
4808 Clouds 3 1021 28 0 1.44 18 06:42 16.04.2020
4809 Clouds 4 1020 26 0 1.98 46 06:23 16.04.2020
4810 Clouds 4 1020 27 0 2.25 48 04:54 16.04.2020
4811 Clouds 4 1020 26 0 1.98 46 03:39 16.04.2020
4812 Rain 6 1017 25 0 3 48 03:21 16.04.2020
4813 Rain 6 1017 24 0 2.95 46 02:43 16.04.2020
4814 Rain 6 1017 24 0 2.95 46 01:59 16.04.2020
4815 Rain 6 1017 24 0 2.95 46 00:59 16.04.2020
4816 Rain 11 1014 12 0 2.29 40 00:26 16.04.2020
4817 Rain 11 1014 12 0 2.29 40 23:57 15.04.2020
4818 Rain 11 1014 12 0 2.29 40 23:39 15.04.2020
4819 Rain 11 1014 12 0 2.29 40 23:20 15.04.2020
4820 Rain 11 1014 12 0 2.29 40 22:40 15.04.2020
4821 Rain 11 1014 12 0 2.29 40 22:21 15.04.2020
4822 Rain 11 1014 12 0 2.29 40 21:58 15.04.2020
4823 Rain 11 1014 12 0 2.29 40 21:40 15.04.2020
4824 Clear 12 1013 9 0 1.41 74 21:22 15.04.2020
4825 Clear 12 1013 9 0 1.41 74 20:57 15.04.2020
4826 Clear 12 1013 9 0 1.41 74 20:57 15.04.2020
4827 Clear 12 1013 9 0 1.41 74 20:39 15.04.2020
4828 Clear 12 1013 9 0 1.41 74 20:21 15.04.2020
4829 Clear 12 1013 9 0 1.41 74 19:42 15.04.2020
4830 Clear 12 1013 9 0 1.41 74 19:21 15.04.2020
4831 Clear 12 1013 9 0 1.41 74 18:55 15.04.2020
4832 Clear 12 1013 9 0 1.41 74 18:36 15.04.2020
4833 Clear 10 1018 10 0 1.52 67 18:18 15.04.2020
4834 Clear 10 1018 10 0 1.52 67 17:40 15.04.2020
4835 Clear 10 1018 10 0 1.52 67 17:21 15.04.2020
4836 Clear 10 1018 10 0 1.52 67 16:58 15.04.2020
4837 Clear 10 1018 10 0 1.52 67 16:39 15.04.2020
4838 Clear 10 1018 10 0 1.52 67 16:20 15.04.2020
4839 Clear 10 1018 10 0 1.52 67 15:59 15.04.2020
4840 Clear 10 1018 10 0 1.52 67 15:40 15.04.2020
4841 Clear 5 1019 14 0 0.67 273 15:20 15.04.2020
4842 Clear 5 1019 14 0 0.67 273 15:20 15.04.2020
4843 Clear 5 1019 14 0 0.67 273 14:58 15.04.2020
4844 Clear 5 1019 14 0 0.67 273 14:40 15.04.2020
4845 Clear 5 1019 13 0 0.6 292 14:21 15.04.2020
4846 Clear 5 1019 13 0 0.6 292 13:58 15.04.2020
4847 Clear 5 1019 13 0 0.6 292 13:39 15.04.2020
4848 Clear 5 1019 13 0 0.6 292 13:21 15.04.2020
4849 Clear 5 1019 13 0 0.6 292 12:57 15.04.2020
4850 Clear 5 1019 13 0 0.6 292 12:39 15.04.2020
4851 Clear 3 1018 18 0 1.15 261 12:21 15.04.2020
4852 Clear 3 1018 18 0 1.15 261 11:45 15.04.2020
4853 Clear 3 1018 18 0 1.15 261 11:25 15.04.2020
4854 Clear 3 1018 18 0 1.15 261 10:59 15.04.2020
4855 Clear 3 1018 18 0 1.15 261 10:37 15.04.2020
4856 Clear 3 1018 18 0 1.15 261 10:19 15.04.2020
4857 Clear 3 1018 18 0 1.15 261 09:55 15.04.2020
4858 Clear 3 1018 18 0 1.15 261 09:37 15.04.2020
4859 Clear 4 1017 20 0 1.49 335 09:19 15.04.2020
4860 Clear 4 1017 20 0 1.49 335 08:41 15.04.2020
4861 Clear 4 1017 20 0 1.49 335 08:21 15.04.2020
4862 Clear 4 1017 20 0 1.49 335 07:57 15.04.2020
4863 Clear 4 1017 20 0 1.49 335 07:38 15.04.2020
4864 Clear 4 1017 20 0 1.49 335 06:49 15.04.2020
4865 Clear 5 1017 19 0 1.23 14 06:24 15.04.2020
4866 Clear 5 1017 19 0 1.23 14 05:22 15.04.2020
4867 Clear 5 1017 19 0 1.23 14 04:46 15.04.2020
4868 Clear 5 1017 19 0 1.23 14 04:18 15.04.2020
4869 Rain 7 1014 16 0 1.08 309 03:22 15.04.2020
4870 Rain 7 1014 16 0 1.08 309 02:40 15.04.2020
4871 Rain 7 1014 16 0 1.08 309 01:50 15.04.2020
4872 Rain 7 1014 16 0 1.08 309 01:24 15.04.2020
4873 Rain 7 1014 16 0 1.08 309 00:46 15.04.2020
4874 Rain 12 1011 9 0 2.06 270 00:23 15.04.2020
4875 Rain 12 1011 9 0 2.06 270 23:55 14.04.2020
4876 Rain 12 1011 9 0 2.06 270 23:37 14.04.2020
4877 Rain 12 1011 9 0 2.06 270 23:19 14.04.2020
4878 Rain 12 1011 9 0 2.06 270 22:56 14.04.2020
4879 Rain 12 1011 9 0 2.06 270 22:38 14.04.2020
4880 Rain 12 1011 9 0 2.06 270 22:20 14.04.2020
4881 Rain 12 1011 9 0 2.06 270 21:56 14.04.2020
4882 Rain 12 1011 9 0 2.06 270 21:37 14.04.2020
4883 Clouds 13 1012 8 0 1.39 245 21:18 14.04.2020
4884 Clouds 13 1012 8 0 1.39 245 20:41 14.04.2020
4885 Clear 14 1012 8 0 0.91 239 20:23 14.04.2020
4886 Clouds 13 1012 8 0 1.39 245 19:59 14.04.2020
4887 Clouds 13 1012 8 0 1.39 245 19:40 14.04.2020
4888 Clear 14 1012 8 0 0.91 239 19:40 14.04.2020
4889 Clear 14 1012 8 0 0.91 239 19:21 14.04.2020
4890 Clouds 13 1012 8 0 1.39 245 18:57 14.04.2020
4891 Clear 14 1012 8 0 0.91 239 18:39 14.04.2020
4892 Clouds 11 1017 9 0 0.84 349 18:20 14.04.2020
4893 Clouds 11 1017 9 0 0.84 349 17:57 14.04.2020
4894 Clouds 11 1017 9 0 0.84 349 17:38 14.04.2020
4895 Clear 11 1017 9 0 0.82 329 17:19 14.04.2020
4896 Clouds 11 1017 9 0 0.84 349 17:19 14.04.2020
4897 Clear 11 1017 9 0 0.82 329 17:19 14.04.2020
4898 Clouds 11 1017 9 0 0.84 349 16:55 14.04.2020
4899 Clouds 11 1017 9 0 0.84 349 16:36 14.04.2020
4900 Clouds 11 1017 9 0 0.84 349 16:18 14.04.2020
4901 Clouds 11 1017 9 0 0.84 349 15:42 14.04.2020
4902 Clear 6 1020 12 0 0.86 307 15:23 14.04.2020
4903 Clear 6 1020 13 0 0.76 309 14:59 14.04.2020
4904 Clear 6 1020 12 0 0.86 307 14:41 14.04.2020
4905 Clear 6 1020 13 0 0.76 309 14:22 14.04.2020
4906 Clear 6 1020 13 0 0.76 309 13:58 14.04.2020
4907 Clear 6 1020 13 0 0.76 309 13:40 14.04.2020
4908 Clear 6 1020 13 0 0.76 309 13:21 14.04.2020
4909 Clear 6 1020 13 0 0.76 309 12:42 14.04.2020
4910 Clear 3 1018 17 0 1.1 298 12:22 14.04.2020
4911 Clear 3 1018 17 0 1.1 298 11:57 14.04.2020
4912 Clear 3 1018 17 0 1.1 298 11:39 14.04.2020
4913 Clear 3 1018 17 0 1.1 298 11:20 14.04.2020
4914 Clear 3 1018 17 0 1.1 298 10:46 14.04.2020
4915 Clear 3 1018 17 0 1.1 298 10:28 14.04.2020
4916 Clear 3 1018 17 0 1.1 298 09:58 14.04.2020
4917 Clear 3 1018 17 0 1.1 298 09:40 14.04.2020
4918 Clear 5 1018 17 0 1.58 311 09:22 14.04.2020
4919 Clear 5 1018 17 0 1.57 321 08:44 14.04.2020
4920 Clear 5 1018 17 0 1.57 321 08:24 14.04.2020
4921 Clear 5 1018 17 0 1.57 321 07:57 14.04.2020
4922 Clear 5 1018 17 0 1.57 321 07:34 14.04.2020
4923 Clear 5 1018 17 0 1.57 321 06:57 14.04.2020
4924 Clear 5 1018 17 0 1.57 321 06:33 14.04.2020
4925 Rain 6 1018 17 0 1.13 358 04:49 14.04.2020
4926 Rain 8 1015 13 0 1.28 246 03:22 14.04.2020
4927 Rain 9 1015 13 0 1.49 238 02:18 14.04.2020
4928 Rain 9 1015 13 0 1.49 238 01:25 14.04.2020
4929 Rain 9 1015 13 0 1.49 238 00:49 14.04.2020
4930 Clouds 14 1010 8 0 2.38 280 00:23 14.04.2020
4931 Clouds 14 1010 8 0 2.38 280 23:55 13.04.2020
4932 Clouds 14 1010 8 0 2.38 280 23:36 13.04.2020
4933 Clouds 14 1010 8 0 2.38 280 23:18 13.04.2020
4934 Clouds 14 1010 8 0 2.38 280 22:42 13.04.2020
4935 Clouds 14 1010 8 0 2.38 280 22:22 13.04.2020
4936 Clouds 14 1010 8 0 2.38 280 21:57 13.04.2020
4937 Clouds 14 1010 8 0 2.38 280 21:39 13.04.2020
4938 Clouds 16 1010 6 0 4.01 253 21:20 13.04.2020
4939 Clouds 16 1010 6 0 4.01 253 20:56 13.04.2020
4940 Clouds 16 1010 6 0 4.01 253 20:56 13.04.2020
4941 Clouds 16 1010 6 0 4.01 253 20:38 13.04.2020
4942 Clouds 16 1010 6 0 4.01 253 20:19 13.04.2020
4943 Clouds 16 1010 6 0 4.01 253 19:57 13.04.2020
4944 Clouds 16 1010 6 0 4.01 253 19:36 13.04.2020
4945 Clouds 16 1010 6 0 4.01 253 19:18 13.04.2020
4946 Clouds 16 1010 6 0 4.01 253 18:54 13.04.2020
4947 Clouds 16 1010 6 0 4.01 253 18:36 13.04.2020
4948 Clouds 14 1014 7 0 6.21 264 18:18 13.04.2020
4949 Clouds 14 1014 7 0 6.21 264 17:55 13.04.2020
4950 Clouds 14 1014 7 0 6.21 264 17:36 13.04.2020
4951 Clouds 14 1014 7 0 6.21 264 17:18 13.04.2020
4952 Clouds 14 1014 7 0 6.21 264 16:55 13.04.2020
4953 Clouds 14 1014 7 0 6.21 264 16:36 13.04.2020
4954 Clouds 14 1014 7 0 6.21 264 16:18 13.04.2020
4955 Clouds 14 1014 7 0 6.21 264 15:44 13.04.2020
4956 Clouds 7 1017 11 0 3.24 275 15:26 13.04.2020
4957 Clouds 7 1017 11 0 3.24 275 14:57 13.04.2020
4958 Clouds 7 1017 11 0 3.24 275 14:39 13.04.2020
4959 Clouds 7 1017 11 0 3.49 272 14:20 13.04.2020
4960 Clouds 7 1017 11 0 3.49 272 13:56 13.04.2020
4961 Clouds 7 1017 11 0 3.49 272 13:38 13.04.2020
4962 Clouds 7 1017 11 0 3.49 272 13:19 13.04.2020
4963 Clouds 7 1017 11 0 3.64 273 12:57 13.04.2020
4964 Clouds 7 1017 11 0 3.64 273 12:57 13.04.2020
4965 Clouds 7 1017 11 0 3.49 272 12:39 13.04.2020
4966 Clear 4 1016 13 0 2.49 266 12:19 13.04.2020
4967 Clear 4 1016 13 0 2.6 266 12:19 13.04.2020
4968 Clear 4 1016 13 0 2.49 266 11:44 13.04.2020
4969 Clear 4 1016 13 0 2.49 266 11:19 13.04.2020
4970 Clear 4 1016 13 0 2.49 266 11:19 13.04.2020
4971 Clear 4 1016 13 0 2.49 266 10:57 13.04.2020
4972 Clear 4 1016 13 0 2.49 266 10:39 13.04.2020
4973 Clear 4 1016 13 0 2.49 266 10:20 13.04.2020
4974 Clear 4 1016 13 0 2.6 266 09:58 13.04.2020
4975 Clear 4 1016 13 0 2.6 266 09:39 13.04.2020
4976 Clear 6 1016 13 0 2.18 263 09:21 13.04.2020
4977 Clear 6 1016 13 0 2.18 263 08:45 13.04.2020
4978 Clear 6 1016 13 0 2.18 263 08:26 13.04.2020
4979 Clear 6 1016 13 0 2.18 263 07:44 13.04.2020
4980 Clear 6 1016 13 0 2.18 263 07:26 13.04.2020
4981 Clear 6 1016 13 0 2.18 263 06:56 13.04.2020
4982 Clear 6 1016 13 0 2.18 263 06:33 13.04.2020
4983 Clear 7 1016 14 0 1.96 290 05:40 13.04.2020
4984 Clear 7 1016 14 0 1.96 290 05:19 13.04.2020
4985 Clear 7 1016 14 0 1.96 290 04:31 13.04.2020
4986 Clear 7 1016 14 0 1.96 290 03:54 13.04.2020
4987 Clear 7 1016 14 0 1.96 290 03:34 13.04.2020
4988 Clear 9 1015 13 0 2.48 302 02:40 13.04.2020
4989 Clear 9 1014 13 0 2.58 297 01:46 13.04.2020
4990 Clear 9 1014 13 0 2.58 297 01:27 13.04.2020
4991 Clear 9 1014 13 0 2.58 297 00:46 13.04.2020
4992 Clear 13 1010 8 0 2.56 289 00:24 13.04.2020
4993 Clear 13 1010 8 0 2.56 289 23:56 12.04.2020
4994 Clear 13 1010 8 0 2.56 289 23:36 12.04.2020
4995 Clear 13 1010 8 0 2.56 289 23:18 12.04.2020
4996 Clear 13 1010 8 0 2.56 289 22:41 12.04.2020
4997 Clear 13 1010 8 0 2.56 289 22:19 12.04.2020
4998 Clear 13 1010 8 0 2.56 289 22:19 12.04.2020
4999 Clear 13 1010 8 0 2.56 289 21:59 12.04.2020
5000 Clear 13 1010 8 0 2.56 289 21:37 12.04.2020
5001 Clear 15 1012 7 0 1.3 259 21:18 12.04.2020
5002 Clear 15 1012 7 0 1.3 259 20:42 12.04.2020
5003 Clear 15 1012 7 0 1.3 259 20:23 12.04.2020
5004 Clear 15 1012 7 0 1.3 259 19:58 12.04.2020
5005 Clear 15 1012 7 0 1.3 259 19:39 12.04.2020
5006 Clear 15 1012 7 0 1.3 259 19:19 12.04.2020
5007 Clear 15 1012 7 0 1.3 259 18:56 12.04.2020
5008 Clear 15 1012 7 0 1.3 259 18:37 12.04.2020
5009 Clear 12 1017 8 0 0.48 293 18:18 12.04.2020
5010 Clear 12 1017 8 0 0.48 293 17:41 12.04.2020
5011 Clear 12 1017 8 0 0.48 293 17:23 12.04.2020
5012 Clear 12 1017 8 0 0.48 293 16:59 12.04.2020
5013 Clear 12 1017 8 0 0.48 293 16:39 12.04.2020
5014 Clear 12 1017 8 0 0.48 293 16:20 12.04.2020
5015 Clear 12 1017 8 0 0.48 293 15:49 12.04.2020
5016 Clear 12 1017 8 0 0.48 293 15:31 12.04.2020
5017 Clear 7 1019 10 0 1.64 265 14:56 12.04.2020
5018 Clear 7 1020 11 0 1.64 269 14:37 12.04.2020
5019 Clear 7 1020 11 0 1.64 269 14:18 12.04.2020
5020 Clear 7 1020 11 0 1.64 269 13:42 12.04.2020
5021 Clear 7 1020 11 0 1.64 269 13:24 12.04.2020
5022 Clear 7 1020 11 0 1.64 269 12:55 12.04.2020
5023 Clear 7 1020 11 0 1.64 269 12:37 12.04.2020
5024 Clear 3 1018 14 0 1.78 260 12:18 12.04.2020
5025 Clear 3 1018 14 0 1.78 260 11:56 12.04.2020
5026 Clear 3 1018 14 0 1.78 260 11:36 12.04.2020
5027 Clear 3 1018 14 0 1.78 260 11:18 12.04.2020
5028 Clear 3 1018 14 0 1.78 260 10:54 12.04.2020
5029 Clear 3 1018 14 0 1.78 260 10:36 12.04.2020
5030 Clear 3 1018 14 0 1.78 260 10:18 12.04.2020
5031 Clear 3 1018 14 0 1.78 260 09:40 12.04.2020
5032 Clear 4 1019 14 0 1.74 278 09:21 12.04.2020
5033 Clear 4 1019 14 0 1.74 278 09:00 12.04.2020
5034 Clear 4 1019 14 0 1.74 278 08:41 12.04.2020
5035 Clear 4 1019 14 0 1.74 278 08:23 12.04.2020
5036 Clear 4 1019 14 0 1.74 278 07:45 12.04.2020
5037 Clear 4 1019 14 0 1.74 278 07:18 12.04.2020
5038 Clear 4 1019 14 0 1.74 278 06:35 12.04.2020
5039 Clear 6 1019 14 0 1.28 292 05:55 12.04.2020
5040 Clear 6 1019 14 0 1.28 292 05:36 12.04.2020
5041 Clear 6 1019 14 0 1.28 292 03:44 12.04.2020
5042 Clear 8 1016 13 0 1.48 235 03:24 12.04.2020
5043 Clear 9 1016 14 0 1.57 232 02:34 12.04.2020
5044 Clear 9 1016 14 0 1.57 232 01:53 12.04.2020
5045 Clear 9 1016 14 0 1.57 232 01:19 12.04.2020
5046 Clear 9 1016 14 0 1.57 232 00:42 12.04.2020
5047 Clear 14 1011 8 0 5.04 258 00:20 12.04.2020
5048 Clear 14 1011 8 0 5.04 258 23:47 11.04.2020
5049 Clear 14 1011 8 0 5.04 258 23:26 11.04.2020
5050 Clear 14 1011 8 0 5.04 258 22:55 11.04.2020
5051 Clear 14 1011 8 0 5.04 258 22:36 11.04.2020
5052 Clear 14 1011 8 0 5.04 258 22:18 11.04.2020
5053 Clear 14 1011 8 0 5.04 258 21:54 11.04.2020
5054 Clear 14 1010 8 0 5.5 253 21:36 11.04.2020
5055 Clear 15 1011 7 0 8.19 265 21:18 11.04.2020
5056 Clear 15 1011 7 0 8.19 265 21:18 11.04.2020
5057 Clear 15 1011 7 0 8.19 265 20:54 11.04.2020
5058 Clear 15 1011 7 0 8.19 265 20:36 11.04.2020
5059 Clear 15 1011 7 0 8.19 265 20:18 11.04.2020
5060 Clear 15 1011 7 0 8.19 265 19:54 11.04.2020
5061 Clear 15 1011 7 0 8.19 265 19:36 11.04.2020
5062 Clear 15 1011 7 0 8.19 265 19:18 11.04.2020
5063 Clear 15 1011 7 0 8.19 265 18:54 11.04.2020
5064 Clear 15 1011 7 0 8.19 265 18:54 11.04.2020
5065 Clear 15 1011 7 0 8.19 265 18:36 11.04.2020
5066 Clear 13 1016 8 0 6 267 18:18 11.04.2020
5067 Clear 13 1016 8 0 6 267 17:55 11.04.2020
5068 Clear 13 1016 8 0 6 267 17:36 11.04.2020
5069 Clear 13 1016 8 0 6 267 17:18 11.04.2020
5070 Clear 13 1016 8 0 6 267 16:41 11.04.2020
5071 Clear 13 1016 8 0 6 267 16:21 11.04.2020
5072 Clear 13 1016 8 0 6 267 15:40 11.04.2020
5073 Clouds 7 1019 13 0 2.74 276 15:20 11.04.2020
5074 Clouds 7 1019 13 0 2.74 276 14:57 11.04.2020
5075 Clouds 7 1019 13 0 2.74 276 14:39 11.04.2020
5076 Clouds 7 1019 12 0 3.26 271 14:20 11.04.2020
5077 Clouds 7 1019 12 0 3.26 271 13:42 11.04.2020
5078 Clouds 7 1019 12 0 3.26 271 13:24 11.04.2020
5079 Clouds 7 1019 12 0 3.26 271 12:59 11.04.2020
5080 Clouds 7 1019 12 0 3.26 271 12:37 11.04.2020
5081 Clouds 4 1017 19 0 2.36 269 12:18 11.04.2020
5082 Clouds 4 1017 19 0 2.36 269 11:42 11.04.2020
5083 Clouds 4 1017 19 0 2.36 269 11:20 11.04.2020
5084 Clouds 4 1017 19 0 2.36 269 10:57 11.04.2020
5085 Clouds 4 1017 19 0 2.36 269 10:37 11.04.2020
5086 Clouds 4 1017 19 0 2.36 269 10:19 11.04.2020
5087 Clouds 4 1017 19 0 2.36 269 09:57 11.04.2020
5088 Clear 4 1017 18 0 2.27 266 09:38 11.04.2020
5089 Clouds 5 1017 20 0 2.07 293 09:19 11.04.2020
5090 Clouds 5 1017 20 0 2.07 293 08:43 11.04.2020
5091 Clouds 5 1017 20 0 2.07 293 08:23 11.04.2020
5092 Clouds 5 1017 20 0 2.07 293 07:49 11.04.2020
5093 Clouds 5 1017 20 0 2.07 293 07:28 11.04.2020
5094 Clouds 5 1017 20 0 2.07 293 06:44 11.04.2020
5095 Clouds 7 1017 19 0 1.99 306 05:59 11.04.2020
5096 Clouds 7 1017 19 0 1.99 306 04:33 11.04.2020
5097 Clouds 7 1017 19 0 1.99 306 03:30 11.04.2020
5098 Clear 8 1015 18 0 0.67 326 01:52 11.04.2020
5099 Clear 8 1015 18 0 0.67 326 01:20 11.04.2020
5100 Clear 8 1015 18 0 0.67 326 00:44 11.04.2020
5101 Rain 13 1010 12 0 3.09 300 00:19 11.04.2020
5102 Rain 13 1010 12 0 3.09 300 23:56 10.04.2020
5103 Rain 13 1010 12 0 3.09 300 23:56 10.04.2020
5104 Rain 13 1010 12 0 3.09 300 23:37 10.04.2020
5105 Rain 13 1010 12 0 3.09 300 23:18 10.04.2020
5106 Rain 13 1010 12 0 3.09 300 22:43 10.04.2020
5107 Rain 13 1010 12 0 3.09 300 22:21 10.04.2020
5108 Rain 13 1010 12 0 3.09 300 21:58 10.04.2020
5109 Rain 13 1010 12 0 3.09 300 21:39 10.04.2020
5110 Clear 15 1012 8 0 3.26 282 21:20 10.04.2020
5111 Clear 15 1012 8 0 3.26 282 20:41 10.04.2020
5112 Clear 15 1012 8 0 3.26 282 20:23 10.04.2020
5113 Clear 15 1012 8 0 3.26 282 19:58 10.04.2020
5114 Clear 15 1012 8 0 3.26 282 19:40 10.04.2020
5115 Clear 15 1012 8 0 3.26 282 19:20 10.04.2020
5116 Clear 15 1012 8 0 3.26 282 18:58 10.04.2020
5117 Clear 15 1012 8 0 3.26 282 18:39 10.04.2020
5118 Clear 13 1017 9 0 3.6 299 18:21 10.04.2020
5119 Clear 13 1017 9 0 3.6 299 17:58 10.04.2020
5120 Clear 13 1017 9 0 3.6 299 17:39 10.04.2020
5121 Clear 13 1017 9 0 3.6 299 17:20 10.04.2020
5122 Clear 13 1017 9 0 3.6 299 16:57 10.04.2020
5123 Clear 13 1017 9 0 3.6 299 16:38 10.04.2020
5124 Clear 13 1017 9 0 3.6 299 16:20 10.04.2020
5125 Clear 13 1017 9 0 3.6 299 15:56 10.04.2020
5126 Clear 13 1017 9 0 3.6 299 15:37 10.04.2020
5127 Clouds 6 1020 16 0 1.35 323 15:19 10.04.2020
5128 Clouds 6 1020 16 0 1.35 323 14:57 10.04.2020
5129 Clouds 7 1020 16 0 1.31 308 14:38 10.04.2020
5130 Clouds 7 1020 16 0 1.31 308 14:18 10.04.2020
5131 Clouds 7 1020 16 0 1.31 308 13:43 10.04.2020
5132 Clouds 7 1020 16 0 1.31 308 13:22 10.04.2020
5133 Clouds 7 1020 16 0 1.31 308 12:44 10.04.2020
5134 Clouds 4 1018 21 0 1.27 296 12:24 10.04.2020
5135 Clouds 4 1018 21 0 1.27 296 11:58 10.04.2020
5136 Clouds 4 1018 21 0 1.27 296 11:40 10.04.2020
5137 Clouds 4 1018 21 0 1.27 296 11:22 10.04.2020
5138 Clouds 4 1018 21 0 1.27 296 10:47 10.04.2020
5139 Clouds 4 1018 21 0 1.27 296 10:24 10.04.2020
5140 Clouds 4 1018 21 0 1.27 296 09:59 10.04.2020
5141 Clouds 4 1018 20 0 1.45 288 09:40 10.04.2020
5142 Clouds 6 1019 23 0 1.06 340 09:20 10.04.2020
5143 Clouds 6 1019 23 0 1.06 340 08:44 10.04.2020
5144 Clouds 6 1019 23 0 1.06 340 08:24 10.04.2020
5145 Clouds 6 1019 23 0 1.06 340 07:49 10.04.2020
5146 Clouds 6 1019 23 0 1.06 340 07:28 10.04.2020
5147 Clouds 6 1019 23 0 1.06 340 06:59 10.04.2020
5148 Clouds 6 1019 23 0 1.06 340 06:30 10.04.2020
5149 Clouds 6 1019 23 0 1.06 340 06:30 10.04.2020
5150 Clouds 6 1019 23 0 1.06 340 06:30 10.04.2020
5151 Clouds 7 1018 23 0 0.95 359 05:56 10.04.2020
5152 Clouds 7 1018 23 0 0.95 359 05:19 10.04.2020
5153 Clouds 7 1018 23 0 0.95 359 04:42 10.04.2020
5154 Clouds 7 1018 23 0 0.95 359 03:32 10.04.2020
5155 Rain 8 1016 20 0 1.66 353 02:50 10.04.2020
5156 Rain 8 1015 20 0 1.45 340 02:31 10.04.2020
5157 Rain 8 1015 20 0 1.45 340 01:30 10.04.2020
5158 Rain 8 1015 20 0 1.45 340 00:55 10.04.2020
5159 Rain 8 1015 20 0 1.45 340 00:37 10.04.2020
5160 Rain 13 1011 13 0 2.41 307 00:18 10.04.2020
5161 Rain 13 1011 13 0 2.41 307 23:41 09.04.2020
5162 Rain 13 1011 13 0 2.41 307 23:22 09.04.2020
5163 Rain 13 1011 13 0 2.41 307 22:56 09.04.2020
5164 Rain 13 1011 13 0 2.41 307 22:38 09.04.2020
5165 Rain 13 1011 13 0 2.41 307 22:19 09.04.2020
5166 Rain 13 1011 13 0 2.41 307 21:38 09.04.2020
5167 Clouds 15 1013 9 0 3.26 309 21:19 09.04.2020
5168 Clouds 15 1013 9 0 3.26 309 20:47 09.04.2020
5169 Clouds 15 1013 9 0 3.26 309 20:22 09.04.2020
5170 Clouds 15 1013 9 0 3.26 309 19:59 09.04.2020
5171 Clouds 15 1013 9 0 3.26 309 19:38 09.04.2020
5172 Clouds 15 1013 9 0 3.26 309 19:20 09.04.2020
5173 Clouds 15 1013 9 0 3.26 309 18:42 09.04.2020
5174 Clouds 12 1017 13 0 1.97 348 18:21 09.04.2020
5175 Clouds 12 1017 13 0 1.97 348 17:55 09.04.2020
5176 Clouds 12 1017 13 0 1.97 348 17:36 09.04.2020
5177 Clouds 12 1017 13 0 1.97 348 17:18 09.04.2020
5178 Clouds 12 1017 13 0 1.97 348 16:39 09.04.2020
5179 Clouds 12 1017 13 0 1.97 348 16:19 09.04.2020
5180 Clouds 12 1017 13 0 1.97 348 15:56 09.04.2020
5181 Clouds 12 1017 13 0 1.97 348 15:56 09.04.2020
5182 Clouds 12 1017 13 0 1.97 348 15:37 09.04.2020
5183 Clouds 6 1020 22 0 0.84 344 15:19 09.04.2020
5184 Clouds 7 1020 21 0 0.7 324 14:42 09.04.2020
5185 Clouds 7 1020 21 0 0.7 324 14:21 09.04.2020
5186 Clouds 7 1020 21 0 0.7 324 14:21 09.04.2020
5187 Clouds 7 1020 21 0 0.7 324 13:58 09.04.2020
5188 Clouds 7 1020 21 0 0.7 324 13:40 09.04.2020
5189 Clouds 7 1020 21 0 0.7 324 13:21 09.04.2020
5190 Clouds 7 1020 21 0 0.7 324 12:54 09.04.2020
5191 Clouds 7 1020 21 0 0.7 324 12:36 09.04.2020
5192 Clouds 5 1018 25 0 0.71 346 12:18 09.04.2020
5193 Clouds 5 1018 25 0 0.71 346 11:42 09.04.2020
5194 Clouds 5 1018 25 0 0.71 346 11:20 09.04.2020
5195 Clouds 5 1018 25 0 0.71 346 10:58 09.04.2020
5196 Clouds 5 1018 25 0 0.71 346 10:40 09.04.2020
5197 Clouds 5 1018 25 0 0.71 346 10:21 09.04.2020
5198 Clouds 5 1018 25 0 0.71 346 09:56 09.04.2020
5199 Clouds 5 1018 25 0 0.71 333 09:38 09.04.2020
5200 Clouds 6 1020 25 0 1.17 10 09:20 09.04.2020
5201 Clouds 6 1020 25 0 1.17 10 08:44 09.04.2020
5202 Clouds 6 1020 25 0 1.17 10 08:23 09.04.2020
5203 Clouds 6 1020 25 0 1.17 10 07:56 09.04.2020
5204 Clouds 6 1020 25 0 1.17 10 07:27 09.04.2020
5205 Clouds 6 1020 25 0 1.17 10 06:57 09.04.2020
5206 Clouds 7 1019 26 0 1.45 26 06:25 09.04.2020
5207 Clouds 7 1019 26 0 1.45 26 05:43 09.04.2020
5208 Clouds 7 1019 26 0 1.45 26 04:26 09.04.2020
5209 Rain 9 1017 23 0 0.64 34 02:32 09.04.2020
5210 Rain 9 1016 23 0 0.74 348 01:43 09.04.2020
5211 Rain 9 1016 23 0 0.74 348 01:24 09.04.2020
5212 Rain 9 1016 23 0 0.74 348 00:43 09.04.2020
5213 Rain 13 1013 16 0 1.25 270 00:20 09.04.2020
5214 Rain 13 1013 16 0 1.25 270 23:59 08.04.2020
5215 Rain 13 1013 16 0 1.25 270 23:41 08.04.2020
5216 Rain 13 1013 16 0 1.25 270 23:21 08.04.2020
5217 Rain 13 1013 16 0 1.25 270 22:44 08.04.2020
5218 Rain 13 1013 16 0 1.25 270 22:24 08.04.2020
5219 Rain 13 1013 16 0 1.25 270 22:24 08.04.2020
5220 Rain 13 1013 16 0 1.25 270 21:57 08.04.2020
5221 Rain 13 1013 16 0 1.25 270 21:39 08.04.2020
5222 Rain 14 1015 14 0 1.01 305 21:21 08.04.2020
5223 Rain 14 1015 14 0 1.01 305 20:58 08.04.2020
5224 Rain 14 1015 14 0 1.01 305 20:39 08.04.2020
5225 Rain 14 1015 14 0 1.01 305 20:20 08.04.2020
5226 Rain 14 1015 14 0 1.01 305 19:58 08.04.2020
5227 Rain 14 1015 14 0 1.01 305 19:37 08.04.2020
5228 Rain 14 1015 14 0 1.01 305 19:19 08.04.2020
5229 Rain 14 1015 14 0 1.01 305 18:44 08.04.2020
5230 Clouds 11 1019 17 0 1.23 21 18:25 08.04.2020
5231 Clouds 11 1019 17 0 1.23 21 17:56 08.04.2020
5232 Clouds 11 1019 17 0 1.23 21 17:38 08.04.2020
5233 Clouds 11 1019 17 0 1.23 21 17:19 08.04.2020
5234 Clouds 11 1019 17 0 1.23 21 16:43 08.04.2020
5235 Clouds 11 1019 17 0 1.23 21 16:23 08.04.2020
5236 Clouds 11 1019 17 0 1.23 21 15:59 08.04.2020
5237 Clouds 11 1019 17 0 1.23 21 15:38 08.04.2020
5238 Clouds 7 1021 22 0 0.14 355 15:20 08.04.2020
5239 Clouds 7 1021 22 0 0.14 355 14:45 08.04.2020
5240 Clouds 7 1021 22 0 0.14 355 14:25 08.04.2020
5241 Clouds 7 1022 22 0 0.49 280 13:57 08.04.2020
5242 Clouds 7 1022 22 0 0.49 280 13:39 08.04.2020
5243 Clouds 7 1022 22 0 0.49 280 13:20 08.04.2020
5244 Clouds 7 1022 22 0 0.49 280 12:42 08.04.2020
5245 Clouds 5 1020 28 0 0.87 319 12:19 08.04.2020
5246 Clouds 5 1020 28 0 0.87 319 11:59 08.04.2020
5247 Clouds 5 1020 28 0 0.87 319 11:40 08.04.2020
5248 Clouds 5 1020 28 0 0.87 319 11:22 08.04.2020
5249 Clouds 5 1020 28 0 0.87 319 10:56 08.04.2020
5250 Clouds 5 1020 28 0 0.87 319 10:37 08.04.2020
5251 Clouds 5 1020 28 0 0.87 319 10:19 08.04.2020
5252 Clouds 5 1020 28 0 0.87 319 09:55 08.04.2020
5253 Clouds 5 1020 28 0 1.04 306 09:37 08.04.2020
5254 Clouds 6 1021 29 0 1.6 349 09:18 08.04.2020
5255 Clouds 6 1021 29 0 1.6 349 08:42 08.04.2020
5256 Clouds 6 1021 29 0 1.6 349 08:42 08.04.2020
5257 Clouds 6 1021 29 0 1.6 349 08:23 08.04.2020
5258 Clouds 6 1021 29 0 1.6 349 08:23 08.04.2020
5259 Clouds 6 1021 29 0 1.6 349 07:47 08.04.2020
5260 Clouds 6 1021 29 0 1.6 349 07:28 08.04.2020
5261 Clouds 6 1021 29 0 1.6 349 06:59 08.04.2020
5262 Clouds 6 1022 28 0 2.59 8 06:21 08.04.2020
5263 Clouds 6 1022 28 0 2.59 8 04:20 08.04.2020
5264 Rain 6 1019 28 0 4.01 49 02:49 08.04.2020
5265 Rain 7 1020 27 0 4.14 37 02:20 08.04.2020
5266 Rain 7 1020 27 0 4.14 37 01:51 08.04.2020
5267 Rain 7 1020 27 0 4.14 37 01:27 08.04.2020
5268 Rain 7 1020 27 0 4.14 37 00:41 08.04.2020
5269 Rain 9 1015 24 0 3.99 51 00:22 08.04.2020
5270 Rain 9 1015 24 0 3.99 51 23:40 07.04.2020
5271 Rain 9 1015 24 0 3.99 51 23:40 07.04.2020
5272 Rain 9 1015 24 0 3.99 51 23:21 07.04.2020
5273 Rain 9 1015 24 0 3.99 51 22:57 07.04.2020
5274 Rain 9 1015 24 0 3.99 51 22:39 07.04.2020
5275 Rain 9 1015 24 0 3.99 51 22:19 07.04.2020
5276 Rain 9 1015 24 0 3.99 51 21:57 07.04.2020
5277 Rain 9 1015 24 0 3.99 51 21:39 07.04.2020
5278 Rain 11 1016 22 0 3.63 49 21:20 07.04.2020
5279 Rain 11 1016 22 0 3.63 49 20:57 07.04.2020
5280 Rain 11 1016 22 0 3.63 49 20:38 07.04.2020
5281 Rain 11 1016 22 0 3.63 49 20:20 07.04.2020
5282 Rain 11 1016 22 0 3.63 49 19:57 07.04.2020
5283 Rain 11 1016 22 0 3.63 49 19:37 07.04.2020
5284 Rain 11 1016 22 0 3.63 49 19:18 07.04.2020
5285 Rain 11 1016 22 0 3.63 49 18:56 07.04.2020
5286 Rain 11 1016 22 0 3.63 49 18:38 07.04.2020
5287 Rain 9 1021 25 0 2.68 56 18:19 07.04.2020
5288 Rain 9 1021 25 0 2.68 56 17:44 07.04.2020
5289 Rain 9 1021 25 0 2.68 56 17:21 07.04.2020
5290 Rain 9 1021 25 0 2.68 56 16:47 07.04.2020
5291 Rain 9 1021 25 0 2.68 56 16:28 07.04.2020
5292 Rain 9 1021 25 0 2.68 56 15:57 07.04.2020
5293 Rain 9 1021 25 0 2.68 56 15:38 07.04.2020
5294 Rain 6 1023 29 0 1.65 72 15:20 07.04.2020
5295 Rain 6 1023 29 0 1.76 59 14:41 07.04.2020
5296 Rain 6 1023 29 0 1.65 72 14:22 07.04.2020
5297 Rain 6 1023 29 0 1.76 59 13:57 07.04.2020
5298 Rain 6 1023 29 0 1.76 59 13:37 07.04.2020
5299 Rain 6 1023 29 0 1.76 59 13:18 07.04.2020
5300 Rain 6 1023 29 0 1.76 59 12:55 07.04.2020
5301 Rain 6 1023 29 0 1.76 59 12:36 07.04.2020
5302 Rain 6 1021 30 0 1.05 75 12:18 07.04.2020
5303 Rain 6 1021 30 0 1.05 75 11:42 07.04.2020
5304 Rain 6 1021 30 0 1.05 75 11:24 07.04.2020
5305 Rain 6 1021 30 0 1.05 75 10:58 07.04.2020
5306 Rain 6 1021 30 0 1.05 75 10:37 07.04.2020
5307 Rain 6 1021 30 0 1.05 75 10:19 07.04.2020
5308 Rain 6 1021 30 0 1.05 75 09:45 07.04.2020
5309 Rain 6 1021 30 0 1.81 47 09:18 07.04.2020
5310 Rain 6 1021 30 0 1.81 47 08:55 07.04.2020
5311 Rain 6 1021 30 0 1.81 47 08:36 07.04.2020
5312 Rain 6 1021 30 0 1.81 47 08:18 07.04.2020
5313 Rain 6 1021 30 0 1.81 47 07:40 07.04.2020
5314 Rain 6 1021 30 0 1.81 47 07:21 07.04.2020
5315 Rain 6 1021 30 0 1.81 47 06:51 07.04.2020
5316 Rain 7 1021 28 0 2.64 51 06:22 07.04.2020
5317 Rain 7 1021 28 0 2.64 51 05:40 07.04.2020
5318 Rain 7 1021 28 0 2.64 51 04:56 07.04.2020
5319 Rain 7 1021 28 0 2.64 51 03:31 07.04.2020
5320 Rain 9 1019 24 0 2.72 55 02:59 07.04.2020
5321 Rain 9 1019 24 0 2.74 66 01:50 07.04.2020
5322 Rain 9 1019 24 0 2.74 66 01:26 07.04.2020
5323 Rain 12 1014 20 0 4.77 68 00:29 07.04.2020
5324 Rain 12 1014 20 0 4.77 68 23:57 06.04.2020
5325 Rain 12 1014 20 0 4.77 68 23:38 06.04.2020
5326 Rain 12 1014 20 0 4.77 68 23:19 06.04.2020
5327 Rain 12 1014 20 0 4.77 68 22:41 06.04.2020
5328 Rain 12 1014 20 0 4.77 68 22:22 06.04.2020
5329 Rain 12 1014 20 0 4.77 68 21:58 06.04.2020
5330 Rain 12 1014 20 0 4.77 68 21:40 06.04.2020
5331 Rain 15 1014 13 0 3.34 44 21:19 06.04.2020
5332 Rain 15 1014 13 0 3.34 44 20:56 06.04.2020
5333 Rain 15 1014 13 0 3.34 44 20:38 06.04.2020
5334 Rain 15 1014 13 0 3.34 44 20:19 06.04.2020
5335 Rain 15 1014 13 0 3.34 44 19:54 06.04.2020
5336 Rain 15 1014 13 0 3.34 44 19:36 06.04.2020
5337 Rain 15 1014 13 0 3.34 44 19:18 06.04.2020
5338 Rain 15 1014 13 0 3.34 44 18:41 06.04.2020
5339 Rain 15 1014 13 0 3.34 44 18:41 06.04.2020
5340 Rain 13 1018 15 0 2.4 75 18:23 06.04.2020
5341 Rain 13 1018 15 0 2.4 75 17:55 06.04.2020
5342 Rain 13 1018 15 0 2.4 75 17:37 06.04.2020
5343 Rain 13 1018 15 0 2.4 75 17:18 06.04.2020
5344 Rain 13 1018 15 0 2.4 75 16:47 06.04.2020
5345 Rain 13 1018 15 0 2.4 75 16:29 06.04.2020
5346 Clear 10 1020 16 0 0.43 215 14:46 06.04.2020
5347 Clear 10 1020 16 0 0.43 215 14:46 06.04.2020
5348 Clear 10 1020 16 0 0.43 215 14:46 06.04.2020
5349 Clear 10 1020 16 0 0.43 215 14:46 06.04.2020
5350 Clear 10 1020 16 0 0.43 215 14:46 06.04.2020
5351 Clouds 10 1020 16 0 0.4 203 13:44 06.04.2020
5352 Clouds 10 1020 16 0 0.4 203 13:21 06.04.2020
5353 Clouds 10 1020 16 0 0.4 203 12:41 06.04.2020
5354 Rain 7 1017 21 0 1.43 226 12:19 06.04.2020
5355 Rain 7 1017 21 0 1.43 226 12:19 06.04.2020
5356 Rain 7 1017 21 0 1.43 226 12:19 06.04.2020
5357 Rain 7 1017 21 0 1.43 226 11:40 06.04.2020
5358 Rain 7 1017 21 0 1.43 226 10:55 06.04.2020
5359 Rain 7 1017 21 0 1.43 226 10:37 06.04.2020
5360 Rain 7 1017 21 0 1.43 226 10:19 06.04.2020
5361 Rain 7 1017 21 0 1.43 226 09:38 06.04.2020
5362 Rain 7 1017 21 0 1.43 226 09:38 06.04.2020
5363 Rain 7 1017 21 0 1.43 226 09:38 06.04.2020
5364 Rain 7 1017 21 0 1.43 226 09:38 06.04.2020
5365 Rain 8 1016 22 0 1.31 216 09:18 06.04.2020
5366 Rain 8 1016 22 0 1.31 216 08:43 06.04.2020
5367 Rain 8 1016 22 0 1.31 216 08:43 06.04.2020
5368 Rain 8 1016 22 0 1.31 216 08:43 06.04.2020
5369 Rain 8 1016 22 0 1.31 216 08:43 06.04.2020
5370 Rain 8 1016 22 0 1.31 216 08:43 06.04.2020
5371 Rain 8 1016 22 0 1.31 216 07:59 06.04.2020
5372 Rain 8 1016 22 0 1.31 216 07:59 06.04.2020
5373 Rain 8 1016 22 0 1.31 216 07:20 06.04.2020
5374 Rain 8 1016 22 0 1.31 216 06:26 06.04.2020
5375 Clouds 10 1015 20 0 1.16 285 05:43 06.04.2020
5376 Clouds 10 1015 20 0 1.16 285 05:43 06.04.2020
5377 Clouds 10 1015 20 0 1.16 285 05:43 06.04.2020
5378 Clouds 10 1015 20 0 1.16 285 03:35 06.04.2020
5379 Rain 11 1012 19 0 1.05 242 02:49 06.04.2020
5380 Rain 11 1012 19 0 1.4 245 01:53 06.04.2020
5381 Rain 11 1012 19 0 1.4 245 00:52 06.04.2020
5382 Rain 11 1012 19 0 1.4 245 00:27 06.04.2020
5383 Rain 15 1006 15 0 2.51 234 23:51 05.04.2020
5384 Rain 15 1006 15 0 2.51 234 23:33 05.04.2020
5385 Rain 15 1006 15 0 2.51 234 22:57 05.04.2020
5386 Rain 15 1006 15 0 2.51 234 22:39 05.04.2020
5387 Rain 15 1006 15 0 2.51 234 22:21 05.04.2020
5388 Rain 15 1006 15 0 2.51 234 21:59 05.04.2020
5389 Rain 15 1006 15 0 2.51 234 21:40 05.04.2020
5390 Rain 14 1006 16 0 2.72 239 21:22 05.04.2020
5391 Rain 15 1006 15 0 2.51 234 21:22 05.04.2020
5392 Rain 16 1008 13 0 2.98 260 20:22 05.04.2020
5393 Rain 16 1008 13 0 2.98 260 19:43 05.04.2020
5394 Rain 16 1008 13 0 2.98 260 19:22 05.04.2020
5395 Rain 16 1008 13 0 2.98 260 18:47 05.04.2020
5396 Clouds 14 1012 15 0 2.53 278 18:18 05.04.2020
5397 Clouds 14 1012 15 0 2.53 278 17:43 05.04.2020
5398 Clouds 14 1012 15 0 2.53 278 17:43 05.04.2020
5399 Clouds 14 1012 15 0 2.53 278 17:42 05.04.2020
5400 Clouds 14 1012 15 0 2.53 278 17:42 05.04.2020
5401 Clouds 14 1012 15 0 2.53 278 17:42 05.04.2020
5402 Clouds 14 1012 15 0 2.53 278 17:21 05.04.2020
5403 Clouds 14 1012 15 0 2.53 278 17:21 05.04.2020
5404 Clouds 14 1012 15 0 2.53 278 17:21 05.04.2020
5405 Clouds 14 1012 15 0 2.53 278 16:47 05.04.2020
5406 Clouds 14 1012 15 0 2.53 278 16:47 05.04.2020
5407 Clouds 14 1012 15 0 2.53 278 16:19 05.04.2020
5408 Clouds 14 1012 15 0 2.53 278 15:45 05.04.2020
5409 Clouds 14 1012 15 0 2.53 278 15:45 05.04.2020
5410 Clouds 14 1012 15 0 2.53 278 15:25 05.04.2020
5411 Clouds 14 1012 15 0 2.53 278 15:25 05.04.2020
5412 Clouds 9 1015 22 0 2.98 299 14:48 05.04.2020
5413 Clouds 9 1015 22 0 2.98 299 14:48 05.04.2020
5414 Clouds 9 1015 22 0 2.98 299 14:48 05.04.2020
5415 Clouds 9 1015 22 0 2.98 299 14:48 05.04.2020
5416 Clouds 9 1015 22 0 2.98 299 14:48 05.04.2020
5417 Rain 8 1015 24 0 2.7 304 13:59 05.04.2020
5418 Rain 8 1015 24 0 2.7 304 13:40 05.04.2020
5419 Rain 8 1015 24 0 2.7 304 13:40 05.04.2020
5420 Rain 8 1015 24 0 2.7 304 13:40 05.04.2020
5421 Rain 8 1015 24 0 2.7 304 13:40 05.04.2020
5422 Rain 8 1015 24 0 2.7 304 13:40 05.04.2020
5423 Rain 8 1014 25 0 3.24 327 12:00 05.04.2020
5424 Rain 8 1014 25 0 3.24 327 12:00 05.04.2020
5425 Rain 8 1014 25 0 3.24 327 12:00 05.04.2020
5426 Rain 8 1014 25 0 3.24 327 11:39 05.04.2020
5427 Rain 8 1014 25 0 3.24 327 11:19 05.04.2020
5428 Rain 8 1014 25 0 3.24 327 10:47 05.04.2020
5429 Rain 8 1014 25 0 3.24 327 10:22 05.04.2020
5430 Rain 8 1014 25 0 3.24 327 10:22 05.04.2020
5431 Rain 8 1014 25 0 3.24 327 09:53 05.04.2020
5432 Rain 8 1014 25 0 3.24 327 09:26 05.04.2020
5433 Rain 8 1014 25 0 3.24 327 09:26 05.04.2020
5434 Rain 9 1014 24 0 2.35 340 08:31 05.04.2020
5435 Rain 9 1014 24 0 2.35 340 08:31 05.04.2020
5436 Rain 9 1014 24 0 2.35 340 08:31 05.04.2020
5437 Rain 9 1014 24 0 2.35 340 08:31 05.04.2020
5438 Rain 9 1014 24 0 2.35 340 08:31 05.04.2020
5439 Clouds 9 1013 25 0 1.1 320 06:07 05.04.2020
5440 Clouds 9 1013 25 0 1.1 320 06:07 05.04.2020
5441 Clouds 9 1013 25 0 1.1 320 06:04 05.04.2020
5442 Clouds 9 1013 25 0 1.1 320 05:56 05.04.2020
5443 Clouds 9 1013 25 0 1.1 320 04:31 05.04.2020
5444 Clouds 9 1013 25 0 1.1 320 03:27 05.04.2020
5445 Rain 9 1012 24 0 0.81 54 02:19 05.04.2020
5446 Rain 8 1012 25 0 0.85 59 01:42 05.04.2020
5447 Rain 8 1012 25 0 0.85 59 01:22 05.04.2020
5448 Rain 8 1012 25 0 0.85 59 00:37 05.04.2020
5449 Rain 9 1007 23 0 1.45 133 00:18 05.04.2020
5450 Rain 9 1007 23 0 1.45 133 23:41 04.04.2020
5451 Rain 9 1007 23 0 1.45 133 23:22 04.04.2020
5452 Rain 9 1007 23 0 1.45 133 22:57 04.04.2020
5453 Rain 9 1007 23 0 1.45 133 22:57 04.04.2020
5454 Rain 9 1007 23 0 1.45 133 22:39 04.04.2020
5455 Rain 9 1007 23 0 1.45 133 22:20 04.04.2020
5456 Rain 9 1007 23 0 1.45 133 21:57 04.04.2020
5457 Rain 9 1007 23 0 1.45 133 21:57 04.04.2020
5458 Rain 9 1007 23 0 1.45 133 21:39 04.04.2020
5459 Rain 15 1007 16 0 0.81 328 21:19 04.04.2020
5460 Rain 15 1007 16 0 0.81 328 20:55 04.04.2020
5461 Rain 15 1007 16 0 0.81 328 20:37 04.04.2020
5462 Rain 15 1007 15 0 1.38 72 20:19 04.04.2020
5463 Rain 15 1007 16 0 0.81 328 19:42 04.04.2020
5464 Rain 15 1007 16 0 0.81 328 19:21 04.04.2020
5465 Rain 15 1007 16 0 0.81 328 18:59 04.04.2020
5466 Rain 15 1007 16 0 0.81 328 18:40 04.04.2020
5467 Rain 15 1007 16 0 0.81 328 18:21 04.04.2020
5468 Clouds 15 1010 16 0 1.56 47 17:59 04.04.2020
5469 Clear 15 1011 15 0 1.03 36 17:39 04.04.2020
5470 Clouds 15 1010 16 0 1.56 47 17:39 04.04.2020
5471 Clear 15 1011 15 0 1.03 36 17:19 04.04.2020
5472 Clouds 15 1010 16 0 1.56 47 16:46 04.04.2020
5473 Clear 15 1011 15 0 1.03 36 16:27 04.04.2020
5474 Clouds 15 1010 16 0 1.56 47 15:59 04.04.2020
5475 Clouds 15 1010 16 0 1.56 47 15:39 04.04.2020
5476 Clouds 15 1010 16 0 1.56 47 15:20 04.04.2020
5477 Clouds 15 1010 16 0 1.56 47 15:20 04.04.2020
5478 Clouds 10 1013 21 0 1.32 309 14:56 04.04.2020
5479 Clouds 10 1013 21 0 1.32 309 14:37 04.04.2020
5480 Clouds 10 1014 21 0 1.47 303 14:18 04.04.2020
5481 Clouds 10 1014 21 0 1.47 303 13:54 04.04.2020
5482 Clouds 10 1014 21 0 1.47 303 13:36 04.04.2020
5483 Clouds 10 1014 21 0 1.47 303 13:18 04.04.2020
5484 Clouds 10 1014 21 0 1.47 303 12:42 04.04.2020
5485 Clouds 10 1014 21 0 1.47 303 12:23 04.04.2020
5486 Clouds 8 1012 26 0 1.09 301 11:54 04.04.2020
5487 Clouds 8 1012 26 0 1.09 301 11:36 04.04.2020
5488 Clouds 8 1012 26 0 1.09 301 11:18 04.04.2020
5489 Clouds 8 1012 26 0 1.09 301 10:55 04.04.2020
5490 Clouds 8 1012 26 0 1.09 301 10:37 04.04.2020
5491 Clouds 8 1012 26 0 1.09 301 10:18 04.04.2020
5492 Clouds 8 1012 26 0 1.09 301 09:42 04.04.2020
5493 Clouds 8 1012 26 0 1.09 301 09:24 04.04.2020
5494 Rain 9 1014 25 0 1.44 352 08:56 04.04.2020
5495 Rain 9 1014 25 0 1.44 352 08:37 04.04.2020
5496 Rain 9 1014 25 0 1.44 352 08:19 04.04.2020
5497 Rain 9 1014 25 0 1.44 352 07:40 04.04.2020
5498 Rain 9 1014 25 0 1.44 352 07:22 04.04.2020
5499 Rain 9 1014 25 0 1.44 352 07:22 04.04.2020
5500 Rain 9 1014 25 0 1.44 352 06:46 04.04.2020
5501 Rain 9 1014 25 0 1.75 31 05:57 04.04.2020
5502 Rain 9 1014 25 0 1.75 31 05:39 04.04.2020
5503 Rain 9 1014 25 0 1.75 31 05:21 04.04.2020
5504 Rain 9 1014 25 0 1.75 31 04:24 04.04.2020
5505 Rain 9 1014 25 0 1.75 31 03:45 04.04.2020
5506 Rain 10 1013 26 0 2.65 36 02:49 04.04.2020
5507 Rain 10 1013 26 0 2.65 36 02:30 04.04.2020
5508 Rain 9 1013 25 0 1.76 32 01:50 04.04.2020
5509 Rain 9 1013 25 0 1.76 32 01:22 04.04.2020
5510 Rain 9 1013 25 0 1.76 32 00:47 04.04.2020
5511 Rain 9 1013 25 0 1.76 32 00:26 04.04.2020
5512 Rain 13 1010 20 0 2.13 64 23:39 03.04.2020
5513 Rain 13 1010 20 0 2.13 64 23:21 03.04.2020
5514 Rain 13 1010 20 0 2.13 64 22:56 03.04.2020
5515 Rain 13 1010 20 0 2.13 64 22:37 03.04.2020
5516 Rain 13 1010 20 0 2.13 64 22:18 03.04.2020
5517 Rain 13 1010 20 0 2.13 64 21:43 03.04.2020
5518 Rain 13 1010 20 0 1.43 25 21:22 03.04.2020
5519 Rain 14 1013 18 0 1.97 60 20:56 03.04.2020
5520 Rain 14 1013 18 0 1.97 60 20:37 03.04.2020
5521 Rain 14 1013 18 0 1.97 60 20:19 03.04.2020
5522 Rain 14 1013 18 0 1.97 60 20:19 03.04.2020
5523 Rain 14 1013 18 0 1.97 60 19:56 03.04.2020
5524 Rain 14 1013 18 0 1.97 60 19:38 03.04.2020
5525 Rain 14 1013 18 0 1.97 60 19:19 03.04.2020
5526 Rain 14 1013 18 0 1.97 60 18:58 03.04.2020
5527 Rain 14 1013 18 0 1.97 60 18:40 03.04.2020
5528 Rain 14 1013 18 0 1.97 60 18:22 03.04.2020
5529 Clouds 11 1018 20 0 2.46 36 17:43 03.04.2020
5530 -273 0 0 0 0 0 17:21 03.04.2020
5531 Clouds 11 1018 20 0 2.46 36 16:58 03.04.2020
5532 Clouds 11 1018 20 0 2.46 36 16:40 03.04.2020
5533 Clouds 11 1018 20 0 2.46 36 16:21 03.04.2020
5534 Clouds 11 1018 20 0 2.46 36 15:58 03.04.2020
5535 Clouds 11 1018 20 0 2.46 36 15:38 03.04.2020
5536 Clouds 7 1021 26 0 1.99 11 15:19 03.04.2020
5537 Clouds 7 1021 26 0 1.99 11 14:41 03.04.2020
5538 Clouds 7 1021 26 0 1.99 11 14:41 03.04.2020
5539 Clouds 7 1021 26 0 2.14 9 14:22 03.04.2020
5540 Clouds 7 1021 26 0 2.14 9 13:59 03.04.2020
5541 Clouds 7 1021 26 0 2.14 9 13:40 03.04.2020
5542 Clouds 7 1021 26 0 2.14 9 13:22 03.04.2020
5543 Clouds 7 1021 26 0 2.14 9 12:43 03.04.2020
5544 -273 0 0 0 0 0 12:20 03.04.2020
5545 Clouds 6 1020 28 0 1.23 338 11:57 03.04.2020
5546 Clouds 6 1020 28 0 1.23 338 11:39 03.04.2020
5547 Clouds 6 1020 28 0 1.23 338 11:20 03.04.2020
5548 Clouds 6 1020 28 0 1.23 338 10:59 03.04.2020
5549 Clouds 6 1020 28 0 1.23 338 10:39 03.04.2020
5550 Clouds 6 1020 28 0 1.23 338 10:20 03.04.2020
5551 Clouds 6 1020 28 0 1.23 338 10:20 03.04.2020
5552 Clouds 6 1020 28 0 1.23 338 09:59 03.04.2020
5553 Clouds 6 1020 28 0 1.23 338 09:40 03.04.2020
5554 Clouds 6 1020 28 0 1.23 338 09:21 03.04.2020
5555 Clouds 6 1020 28 0 1.23 338 09:21 03.04.2020
5556 Clouds 6 1020 28 0 1.23 338 09:21 03.04.2020
5557 Clouds 7 1022 28 0 1.4 331 08:56 03.04.2020
5558 Clouds 7 1022 28 0 1.4 331 08:37 03.04.2020
5559 Clouds 7 1022 28 0 1.4 331 08:19 03.04.2020
5560 Clouds 7 1022 28 0 1.4 331 07:46 03.04.2020
5561 Clouds 7 1022 28 0 1.4 331 07:28 03.04.2020
5562 Clouds 7 1022 28 0 1.4 331 06:40 03.04.2020
5563 Clouds 7 1022 28 0 1.4 331 06:22 03.04.2020
5564 Clouds 7 1022 27 0 1.69 23 05:39 03.04.2020
5565 Clouds 7 1022 27 0 1.69 23 03:42 03.04.2020
5566 Rain 8 1021 26 0 3.4 46 02:56 03.04.2020
5567 Rain 8 1021 26 0 3.4 46 02:18 03.04.2020
5568 Rain 9 1021 26 0 3.22 48 01:20 03.04.2020
5569 Rain 9 1021 26 0 3.22 48 00:34 03.04.2020
5570 Rain 12 1016 19 0 5.04 47 23:58 02.04.2020
5571 Rain 12 1016 19 0 5.04 47 23:39 02.04.2020
5572 Rain 12 1016 19 0 5.04 47 23:21 02.04.2020
5573 Rain 12 1016 19 0 5.04 47 22:57 02.04.2020
5574 Rain 12 1016 19 0 5.04 47 22:37 02.04.2020
5575 Rain 12 1016 19 0 5.04 47 22:18 02.04.2020
5576 Rain 12 1016 19 0 5.04 47 21:39 02.04.2020
5577 Clear 14 1017 15 0 4.96 52 21:19 02.04.2020
5578 Clear 14 1017 15 0 4.96 52 20:58 02.04.2020
5579 Clear 14 1017 15 0 4.96 52 20:58 02.04.2020
5580 Clear 14 1017 15 0 4.96 52 20:40 02.04.2020
5581 Clear 14 1017 15 0 4.96 52 20:21 02.04.2020
5582 Clear 14 1017 15 0 4.96 52 19:44 02.04.2020
5583 Clear 14 1017 15 0 4.96 52 19:21 02.04.2020
5584 Clear 14 1017 15 0 4.96 52 19:21 02.04.2020
5585 Clear 14 1017 15 0 4.96 52 18:58 02.04.2020
5586 Clear 14 1017 15 0 4.96 52 18:39 02.04.2020
5587 Clear 12 1021 19 0 3.21 70 18:20 02.04.2020
5588 Clear 12 1021 19 0 3.21 70 17:56 02.04.2020
5589 Clear 12 1021 19 0 3.21 70 17:38 02.04.2020
5590 Clear 12 1021 19 0 3.21 70 17:19 02.04.2020
5591 Clear 12 1021 19 0 3.21 70 16:55 02.04.2020
5592 Clear 12 1021 19 0 3.21 70 16:37 02.04.2020
5593 Clear 12 1021 19 0 3.21 70 16:19 02.04.2020
5594 Clear 12 1021 19 0 3.21 70 15:44 02.04.2020
5595 Clear 12 1021 19 0 3.21 70 15:21 02.04.2020
5596 Clouds 8 1022 27 0 1.37 65 14:59 02.04.2020
5597 Clouds 8 1022 27 0 1.37 65 14:40 02.04.2020
5598 Clouds 8 1022 27 0 1.37 65 14:20 02.04.2020
5599 Clouds 8 1023 27 0 1.31 54 13:57 02.04.2020
5600 Clouds 8 1023 27 0 1.31 54 13:38 02.04.2020
5601 Clouds 8 1023 27 0 1.31 54 13:38 02.04.2020
5602 Clouds 8 1023 27 0 1.31 54 13:20 02.04.2020
5603 Clouds 8 1023 27 0 1.31 54 12:55 02.04.2020
5604 Clouds 8 1023 27 0 1.31 54 12:37 02.04.2020
5605 Clouds 6 1020 29 0 0.65 36 12:19 02.04.2020
5606 Clouds 6 1020 29 0 0.65 36 11:56 02.04.2020
5607 Clouds 6 1020 29 0 0.65 36 11:37 02.04.2020
5608 Clouds 6 1020 29 0 0.65 36 11:37 02.04.2020
5609 Clouds 6 1020 29 0 0.65 36 11:18 02.04.2020
5610 Clouds 6 1020 29 0 0.65 36 10:54 02.04.2020
5611 Clouds 6 1020 29 0 0.65 36 10:36 02.04.2020
5612 Clouds 6 1020 29 0 0.65 36 10:18 02.04.2020
5613 Clouds 6 1020 29 0 0.65 36 09:43 02.04.2020
5614 Clouds 6 1020 28 0 0.64 23 09:24 02.04.2020
5615 Clouds 7 1020 27 0 0.79 8 08:58 02.04.2020
5616 Clouds 7 1020 27 0 0.79 8 08:40 02.04.2020
5617 Clouds 7 1020 27 0 0.79 8 08:20 02.04.2020
5618 Clouds 7 1020 27 0 0.79 8 07:43 02.04.2020
5619 Clouds 7 1020 27 0 0.79 8 07:20 02.04.2020
5620 Clouds 7 1020 27 0 0.79 8 06:57 02.04.2020
5621 Clouds 7 1020 27 0 0.79 8 06:21 02.04.2020
5622 Clouds 8 1019 25 0 1.1 62 05:42 02.04.2020
5623 Clouds 8 1019 25 0 1.1 62 03:24 02.04.2020
5624 Clouds 10 1016 22 0 2.23 48 01:34 02.04.2020
5625 Clouds 10 1016 22 0 2.23 48 00:46 02.04.2020
5626 Clouds 10 1016 22 0 2.23 48 00:26 02.04.2020
5627 Clouds 13 1012 16 0 4.5 50 23:54 01.04.2020
5628 Clouds 13 1012 16 0 4.5 50 23:36 01.04.2020
5629 Clouds 13 1012 16 0 4.5 50 23:18 01.04.2020
5630 Clouds 13 1012 16 0 4.5 50 22:40 01.04.2020
5631 Clouds 13 1012 16 0 4.5 50 22:21 01.04.2020
5632 Clouds 13 1012 16 0 4.5 50 21:55 01.04.2020
5633 Clouds 13 1012 16 0 4.5 50 21:36 01.04.2020
5634 Clouds 15 1014 14 0 4.13 65 21:18 01.04.2020
5635 Clouds 15 1014 14 0 4.13 65 20:54 01.04.2020
5636 Clouds 15 1014 14 0 4.13 65 20:54 01.04.2020
5637 Clouds 15 1014 14 0 4.13 65 20:54 01.04.2020
5638 Clouds 15 1014 14 0 4.13 65 20:36 01.04.2020
5639 Clouds 15 1014 14 0 4.13 65 20:18 01.04.2020
5640 Clouds 15 1014 14 0 4.13 65 19:42 01.04.2020
5641 Clouds 15 1014 14 0 4.13 65 19:21 01.04.2020
5642 Clouds 15 1014 14 0 4.13 65 18:56 01.04.2020
5643 Clouds 15 1014 14 0 4.13 65 18:38 01.04.2020
5644 Clouds 12 1018 17 0 3.28 49 18:19 01.04.2020
5645 Clouds 12 1018 17 0 3.28 49 17:55 01.04.2020
5646 Clouds 12 1018 17 0 3.28 49 17:36 01.04.2020
5647 Clouds 12 1018 17 0 3.28 49 17:18 01.04.2020
5648 Clouds 12 1018 17 0 3.28 49 16:42 01.04.2020
5649 Clouds 12 1018 17 0 3.28 49 16:24 01.04.2020
5650 Clouds 12 1018 17 0 3.28 49 15:58 01.04.2020
5651 Clouds 12 1018 17 0 3.28 49 15:40 01.04.2020
5652 Clouds 8 1021 24 0 1.37 341 15:21 01.04.2020
5653 Clouds 8 1021 24 0 1.37 341 14:57 01.04.2020
5654 Clouds 8 1021 24 0 1.37 341 14:57 01.04.2020
5655 Clouds 8 1021 24 0 1.37 341 14:38 01.04.2020
5656 Clouds 8 1020 25 0 1.49 350 14:19 01.04.2020
5657 Clouds 8 1020 25 0 1.49 350 13:58 01.04.2020
5658 Clouds 8 1020 25 0 1.49 350 13:37 01.04.2020
5659 Clouds 8 1020 25 0 1.49 350 13:19 01.04.2020
5660 Clouds 8 1020 25 0 1.49 350 12:55 01.04.2020
5661 Clouds 8 1020 25 0 1.49 350 12:36 01.04.2020
5662 Clouds 6 1018 29 0 0.96 7 12:18 01.04.2020
5663 Clouds 6 1018 29 0 0.96 7 11:42 01.04.2020
5664 Clouds 6 1018 29 0 0.96 7 11:23 01.04.2020
5665 Clouds 6 1018 29 0 0.96 7 10:58 01.04.2020
5666 Clouds 6 1018 29 0 0.96 7 10:38 01.04.2020
5667 Clouds 6 1018 29 0 0.96 7 10:19 01.04.2020
5668 Clouds 6 1018 29 0 0.96 7 09:57 01.04.2020
5669 Clouds 6 1018 29 0 0.96 7 09:39 01.04.2020
5670 Clouds 7 1019 28 0 1.29 38 09:18 01.04.2020
5671 Clouds 7 1019 28 0 1.29 38 08:41 01.04.2020
5672 Clouds 7 1019 28 0 1.29 38 08:18 01.04.2020
5673 Clouds 7 1019 28 0 1.29 38 07:46 01.04.2020
5674 Clouds 7 1019 28 0 1.29 38 07:21 01.04.2020
5675 Clouds 7 1019 28 0 1.29 38 06:52 01.04.2020
5676 Clouds 7 1019 28 0 1.29 38 06:27 01.04.2020
5677 Clouds 8 1019 26 0 1.93 39 05:58 01.04.2020
5678 Clouds 8 1019 26 0 1.93 39 04:33 01.04.2020
5679 Clouds 8 1019 26 0 1.93 39 03:33 01.04.2020
5680 Clouds 10 1016 24 0 3.12 44 02:57 01.04.2020
5681 Clouds 10 1016 24 0 2.87 46 01:59 01.04.2020
5682 Clouds 10 1016 24 0 2.87 46 01:40 01.04.2020
5683 Clouds 10 1016 24 0 2.87 46 01:40 01.04.2020
5684 Clouds 10 1016 24 0 2.87 46 01:22 01.04.2020
5685 Clouds 10 1016 24 0 2.87 46 00:46 01.04.2020
5686 Clouds 10 1016 24 0 2.87 46 00:46 01.04.2020
5687 Clouds 10 1016 24 0 2.87 46 00:21 01.04.2020
5688 Clouds 13 1012 18 0 5.26 45 23:49 31.03.2020
5689 Clouds 13 1012 18 0 5.26 45 23:28 31.03.2020
5690 Clouds 13 1012 18 0 5.26 45 22:59 31.03.2020
5691 Clouds 13 1012 18 0 5.26 45 22:37 31.03.2020
5692 Clouds 13 1012 18 0 5.26 45 22:19 31.03.2020
5693 Clouds 13 1012 18 0 5.26 45 21:57 31.03.2020
5694 Clouds 13 1012 18 0 5.26 45 21:39 31.03.2020
5695 -273 0 0 0 0 0 21:20 31.03.2020
5696 Clouds 13 1012 18 0 5.26 45 21:20 31.03.2020
5697 Clouds 13 1012 18 0 5.26 45 21:20 31.03.2020
5698 Clouds 15 1014 16 0 4.79 53 20:56 31.03.2020
5699 Clouds 15 1014 16 0 4.79 53 20:37 31.03.2020
5700 Clouds 15 1014 16 0 4.79 53 20:37 31.03.2020
5701 Clouds 15 1014 16 0 4.79 53 20:18 31.03.2020
5702 Clouds 15 1014 16 0 4.79 53 19:42 31.03.2020
5703 Clouds 15 1014 16 0 4.79 53 19:24 31.03.2020
5704 Clouds 15 1014 16 0 4.79 53 18:59 31.03.2020
5705 Clouds 15 1014 16 0 4.79 53 18:41 31.03.2020
5706 Clouds 12 1018 18 0 3.64 58 18:19 31.03.2020
5707 Clouds 12 1018 18 0 3.64 58 17:55 31.03.2020
5708 Clouds 12 1018 18 0 3.64 58 17:37 31.03.2020
5709 Clouds 12 1018 18 0 3.64 58 17:37 31.03.2020
5710 Clouds 12 1042 66 10000 2.1 60 17:19 31.03.2020
5711 Clouds 12 1042 66 10000 2.1 60 16:41 31.03.2020
5712 Clouds 12 1042 66 10000 2.1 60 16:20 31.03.2020
5713 Clouds 10 1043 81 10000 3.64 58 15:58 31.03.2020
5714 Clouds 10 1043 81 10000 3.64 58 15:40 31.03.2020
5715 Clouds 10 1043 81 10000 3.64 58 15:22 31.03.2020
5716 Clouds 8 1020 27 0 0.94 45 14:58 31.03.2020
5717 Clouds 8 1020 27 0 0.94 45 14:40 31.03.2020
5718 Clouds 8 1020 27 0 0.94 45 14:21 31.03.2020
5719 Clouds 8 1020 27 0 1.05 20 13:54 31.03.2020
5720 Clouds 8 1020 27 0 1.05 20 13:36 31.03.2020
5721 Clouds 8 1020 27 0 1.05 20 13:18 31.03.2020
5722 Clouds 8 1020 27 0 1.05 20 12:42 31.03.2020
5723 Clouds 6 1018 31 0 0.93 0 12:20 31.03.2020
5724 Clouds 6 1018 31 0 0.93 0 11:55 31.03.2020
5725 Clouds 6 1018 31 0 0.93 0 11:36 31.03.2020
5726 Clouds 6 1018 31 0 0.93 0 11:18 31.03.2020
5727 Clouds 6 1018 31 0 0.93 0 10:55 31.03.2020
5728 Clouds 6 1018 31 0 0.93 0 10:37 31.03.2020
5729 Clouds 6 1018 31 0 0.93 0 10:18 31.03.2020
5730 Clouds 6 1018 31 0 0.93 0 09:43 31.03.2020
5731 Clouds 6 1018 31 0 0.89 6 09:24 31.03.2020
5732 Rain 7 1018 30 0 1.37 42 08:57 31.03.2020
5733 Rain 7 1018 30 0 1.37 42 08:39 31.03.2020
5734 Rain 7 1018 30 0 1.37 42 08:19 31.03.2020
5735 Rain 7 1018 30 0 1.37 42 07:56 31.03.2020
5736 Rain 7 1018 30 0 1.37 42 07:38 31.03.2020
5737 Rain 7 1018 30 0 1.37 42 07:19 31.03.2020
5738 Rain 7 1018 30 0 1.37 42 06:47 31.03.2020
5739 Rain 7 1018 30 0 1.37 42 06:23 31.03.2020
5740 Rain 8 1018 29 0 2.45 40 05:39 31.03.2020
5741 Rain 8 1018 29 0 2.45 40 03:43 31.03.2020
5742 Clouds 10 1016 25 0 3.07 53 02:19 31.03.2020
5743 Clouds 10 1016 25 0 3.07 53 01:45 31.03.2020
5744 Clouds 10 1016 25 0 3.07 53 00:51 31.03.2020
5745 Clouds 10 1016 25 0 3.07 53 00:25 31.03.2020
5746 Rain 13 1012 19 0 4.59 48 23:58 30.03.2020
5747 Rain 13 1012 19 0 4.59 48 23:38 30.03.2020
5748 Rain 13 1012 19 0 4.59 48 23:18 30.03.2020
5749 Rain 13 1012 19 0 4.59 48 22:55 30.03.2020
5750 Rain 13 1012 19 0 4.59 48 22:36 30.03.2020
5751 Rain 13 1012 19 0 4.59 48 22:18 30.03.2020
5752 Rain 13 1012 19 0 4.59 48 21:55 30.03.2020
5753 Rain 13 1012 19 0 4.59 48 21:36 30.03.2020
5754 Rain 14 1014 17 0 3.25 51 21:18 30.03.2020
5755 Rain 14 1014 17 0 3.5 50 20:42 30.03.2020
5756 Rain 14 1014 17 0 3.5 50 20:24 30.03.2020
5757 Rain 14 1014 17 0 3.5 50 20:24 30.03.2020
5758 Rain 14 1014 17 0 3.5 50 20:24 30.03.2020
5759 Rain 14 1014 17 0 3.5 50 19:59 30.03.2020
5760 Rain 14 1014 17 0 3.5 50 19:40 30.03.2020
5761 Rain 14 1014 17 0 3.5 50 19:21 30.03.2020
5762 Rain 14 1014 17 0 3.5 50 18:56 30.03.2020
5763 Rain 14 1014 17 0 3.5 50 18:38 30.03.2020
5764 Rain 14 1014 17 0 3.5 50 18:38 30.03.2020
5765 Clouds 12 1019 20 0 2.72 56 18:19 30.03.2020
5766 Clouds 12 1019 20 0 2.72 56 17:56 30.03.2020
5767 Clouds 12 1019 20 0 2.72 56 17:56 30.03.2020
5768 Clouds 12 1019 20 0 2.72 56 17:37 30.03.2020
5769 Clouds 12 1019 20 0 2.72 56 17:37 30.03.2020
5770 Clouds 12 1019 20 0 2.72 56 17:18 30.03.2020
5771 Clouds 12 1019 20 0 2.72 56 16:55 30.03.2020
5772 Clouds 12 1019 20 0 2.72 56 16:36 30.03.2020
5773 Clouds 12 1019 20 0 2.72 56 16:18 30.03.2020
5774 Clouds 12 1019 20 0 2.72 56 15:42 30.03.2020
5775 Clouds 12 1019 20 0 2.72 56 15:22 30.03.2020
5776 Clouds 7 1021 27 0 0.87 66 14:59 30.03.2020
5777 Clouds 7 1021 27 0 0.87 66 14:39 30.03.2020
5778 Clouds 7 1021 28 0 0.72 63 14:19 30.03.2020
5779 Clouds 7 1021 27 0 0.87 66 14:19 30.03.2020
5780 Clouds 7 1021 28 0 0.72 63 13:59 30.03.2020
5781 Clouds 7 1021 28 0 0.72 63 13:40 30.03.2020
5782 Clouds 7 1021 28 0 0.72 63 13:20 30.03.2020
5783 Clouds 7 1021 28 0 0.72 63 12:54 30.03.2020
5784 Clouds 7 1021 28 0 0.72 63 12:36 30.03.2020
5785 Rain 6 1020 31 0 1.1 57 12:18 30.03.2020
5786 Rain 6 1020 31 0 1.1 57 12:18 30.03.2020
5787 Rain 6 1020 31 0 1.1 57 11:43 30.03.2020
5788 Rain 6 1020 31 0 1.1 57 11:24 30.03.2020
5789 Rain 6 1020 31 0 1.1 57 10:59 30.03.2020
5790 Rain 6 1020 31 0 1.1 57 10:39 30.03.2020
5791 Rain 6 1020 31 0 1.1 57 10:21 30.03.2020
5792 Rain 6 1020 31 0 1.1 57 09:54 30.03.2020
5793 Rain 6 1020 31 0 1.1 57 09:36 30.03.2020
5794 Rain 7 1019 31 0 1.87 51 09:18 30.03.2020
5795 Rain 7 1019 31 0 1.87 51 08:40 30.03.2020
5796 Rain 7 1019 31 0 1.87 51 08:21 30.03.2020
5797 Rain 7 1019 31 0 1.87 51 07:48 30.03.2020
5798 Rain 7 1019 31 0 1.87 51 07:26 30.03.2020
5799 Rain 7 1019 31 0 1.87 51 06:52 30.03.2020
5800 Rain 7 1019 31 0 1.87 51 06:30 30.03.2020
5801 Rain 8 1020 30 0 2.59 54 05:47 30.03.2020
5802 Rain 8 1020 30 0 2.59 54 05:18 30.03.2020
5803 Rain 8 1020 30 0 2.59 54 04:22 30.03.2020
5804 Rain 8 1020 30 0 2.59 54 03:34 30.03.2020
5805 Rain 10 1016 27 0 2.95 58 02:37 30.03.2020
5806 Rain 10 1016 27 0 3.08 53 01:26 30.03.2020
5807 Rain 10 1016 27 0 3.08 53 00:47 30.03.2020
5808 Rain 10 1016 27 0 3.08 53 00:21 30.03.2020
5809 Rain 14 1012 19 0 5.15 59 23:41 29.03.2020
5810 Rain 14 1012 19 0 5.15 59 23:23 29.03.2020
5811 Rain 14 1012 19 0 5.15 59 22:57 29.03.2020
5812 Rain 14 1012 19 0 5.15 59 22:37 29.03.2020
5813 Rain 14 1012 19 0 5.15 59 22:19 29.03.2020
5814 Rain 14 1012 19 0 5.15 59 21:55 29.03.2020
5815 Rain 14 1012 19 0 5.15 59 21:36 29.03.2020
5816 Rain 14 1012 16 0 3.54 67 21:18 29.03.2020
5817 Rain 14 1012 17 0 3.57 69 20:54 29.03.2020
5818 Rain 14 1012 17 0 3.57 69 20:36 29.03.2020
5819 Rain 14 1012 17 0 3.57 69 20:18 29.03.2020
5820 Rain 14 1012 17 0 3.57 69 19:42 29.03.2020
5821 Rain 14 1012 17 0 3.57 69 19:24 29.03.2020
5822 Rain 14 1012 17 0 3.57 69 18:58 29.03.2020
5823 Rain 14 1012 17 0 3.57 69 18:39 29.03.2020
5824 Rain 14 1012 17 0 3.57 69 18:20 29.03.2020
5825 Rain 14 1012 17 0 3.57 69 18:20 29.03.2020
5826 Clouds 12 1017 21 0 2.56 49 17:57 29.03.2020
5827 Clouds 12 1017 21 0 2.56 49 17:39 29.03.2020
5828 Clouds 12 1017 21 0 2.56 49 17:20 29.03.2020
5829 Clouds 12 1017 21 0 2.56 49 16:58 29.03.2020
5830 Clouds 12 1017 21 0 2.56 49 16:39 29.03.2020
5831 Clouds 12 1017 21 0 2.56 49 16:20 29.03.2020
5832 Clouds 12 1017 21 0 2.56 49 15:56 29.03.2020
5833 Clouds 12 1017 21 0 2.56 49 15:37 29.03.2020
5834 Clouds 8 1018 27 0 0.93 348 15:19 29.03.2020
5835 Clouds 8 1018 27 0 0.93 348 14:55 29.03.2020
5836 Clouds 8 1018 27 0 0.93 348 14:36 29.03.2020
5837 Clouds 8 1019 28 0 1.28 6 14:18 29.03.2020
5838 Clouds 8 1019 28 0 1.28 6 13:41 29.03.2020
5839 Clouds 8 1019 28 0 1.28 6 13:22 29.03.2020
5840 Clouds 8 1019 28 0 1.28 6 12:58 29.03.2020
5841 Clouds 8 1019 28 0 1.28 6 12:39 29.03.2020
5842 Clouds 7 1017 30 0 1.08 39 12:19 29.03.2020
5843 Clouds 7 1017 30 0 1.08 39 11:59 29.03.2020
5844 Clouds 7 1017 30 0 1.08 39 11:38 29.03.2020
5845 Clouds 7 1017 30 0 1.08 39 11:19 29.03.2020
5846 Clouds 7 1017 30 0 1.08 39 10:39 29.03.2020
5847 Clouds 7 1017 30 0 1.08 39 10:39 29.03.2020
5848 Clouds 7 1017 30 0 1.08 39 10:21 29.03.2020
5849 Clouds 7 1017 30 0 1.08 39 09:56 29.03.2020
5850 Clouds 7 1017 30 0 1.08 39 09:38 29.03.2020
5851 Rain 8 1016 30 0 1.64 50 09:18 29.03.2020
5852 Rain 7 1016 30 0 1.52 33 08:45 29.03.2020
5853 Rain 7 1016 30 0 1.52 33 08:26 29.03.2020
5854 Rain 7 1016 30 0 1.52 33 07:47 29.03.2020
5855 Rain 7 1016 30 0 1.52 33 07:23 29.03.2020
5856 Rain 7 1016 30 0 1.52 33 06:55 29.03.2020
5857 Rain 9 1015 28 0 1.57 37 04:57 29.03.2020
5858 Rain 9 1015 28 0 1.57 37 03:41 29.03.2020
5859 Rain 9 1015 28 0 1.57 37 03:22 29.03.2020
5860 Rain 10 1011 27 0 2.75 53 01:44 29.03.2020
5861 Rain 10 1011 27 0 2.75 53 01:23 29.03.2020
5862 Rain 10 1011 26 0 2.96 42 00:46 29.03.2020
5863 Rain 10 1011 26 0 2.96 42 00:28 29.03.2020
5864 Rain 10 1011 26 0 2.96 42 23:41 28.03.2020
5865 Rain 10 1011 26 0 2.96 42 23:23 28.03.2020
5866 Rain 13 1008 19 0 2.68 52 22:54 28.03.2020
5867 Rain 13 1008 19 0 2.68 52 22:36 28.03.2020
5868 Rain 13 1008 19 0 2.68 52 22:18 28.03.2020
5869 Rain 13 1008 19 0 2.68 52 21:40 28.03.2020
5870 Rain 13 1008 19 0 2.68 52 21:40 28.03.2020
5871 Rain 13 1008 19 0 2.68 52 21:21 28.03.2020
5872 Rain 13 1008 19 0 2.68 52 20:58 28.03.2020
5873 Rain 13 1008 19 0 2.68 52 20:39 28.03.2020
5874 Rain 13 1007 20 0 2.77 46 20:20 28.03.2020
5875 Rain 14 1009 18 0 2.44 40 19:56 28.03.2020
5876 Rain 14 1009 18 0 2.44 40 19:36 28.03.2020
5877 Rain 14 1009 18 0 2.44 40 19:18 28.03.2020
5878 Rain 14 1009 18 0 2.44 40 18:47 28.03.2020
5879 Rain 14 1009 18 0 2.44 40 18:22 28.03.2020
5880 Rain 14 1009 18 0 2.44 40 17:58 28.03.2020
5881 Rain 14 1009 18 0 2.44 40 17:38 28.03.2020
5882 Clouds 12 1014 21 0 2.48 36 17:18 28.03.2020
5883 Clouds 12 1014 21 0 2.48 36 16:42 28.03.2020
5884 Clouds 12 1014 21 0 2.48 36 16:20 28.03.2020
5885 Clouds 12 1014 21 0 2.48 36 15:56 28.03.2020
5886 Clouds 12 1014 21 0 2.48 36 15:37 28.03.2020
5887 Clouds 12 1014 21 0 2.48 36 15:18 28.03.2020
5888 Clouds 12 1014 21 0 2.48 36 14:42 28.03.2020
5889 Clouds 12 1014 21 0 2.48 36 14:22 28.03.2020
5890 Clouds 8 1015 27 0 1.59 21 13:55 28.03.2020
5891 Clouds 8 1015 27 0 1.59 21 13:36 28.03.2020
5892 Clouds 8 1015 27 0 1.59 21 13:18 28.03.2020
5893 Clouds 8 1015 26 0 1.61 28 12:38 28.03.2020
5894 Clouds 8 1015 26 0 1.61 28 12:19 28.03.2020
5895 Clouds 8 1015 26 0 1.61 28 11:42 28.03.2020
5896 Clouds 8 1015 26 0 1.61 28 11:21 28.03.2020
5897 Rain 7 1013 28 0 0.9 15 10:44 28.03.2020
5898 Rain 7 1013 28 0 0.9 15 10:25 28.03.2020
5899 Rain 7 1013 28 0 0.9 15 09:59 28.03.2020
5900 Rain 7 1013 28 0 0.9 15 09:40 28.03.2020
5901 Rain 7 1013 28 0 0.9 15 09:21 28.03.2020
5902 Rain 7 1013 28 0 0.9 15 08:43 28.03.2020
5903 Rain 6 1013 29 0 1.14 353 08:24 28.03.2020
5904 Rain 8 1013 26 0 1.47 353 07:53 28.03.2020
5905 Rain 8 1013 26 0 1.47 353 07:35 28.03.2020
5906 Rain 8 1013 26 0 1.47 353 06:53 28.03.2020
5907 Rain 8 1013 26 0 1.47 353 06:26 28.03.2020
5908 Rain 8 1013 26 0 1.47 353 05:30 28.03.2020
5909 Rain 8 1013 26 0 1.47 353 05:30 28.03.2020
5910 Rain 9 1013 24 0 1.84 16 04:58 28.03.2020
5911 Rain 9 1013 24 0 1.84 16 04:39 28.03.2020
5912 Rain 9 1013 24 0 1.84 16 02:52 28.03.2020
5913 Rain 10 1010 22 0 1.94 25 01:48 28.03.2020
5914 Rain 10 1010 22 0 1.94 25 01:23 28.03.2020
5915 Rain 11 1010 22 0 2.01 26 00:51 28.03.2020
5916 Rain 11 1010 22 0 2.01 26 00:25 28.03.2020
5917 Rain 11 1010 22 0 2.01 26 23:44 27.03.2020
5918 Rain 11 1010 22 0 2.01 26 23:26 27.03.2020
5919 Rain 14 1005 16 0 0.65 317 22:57 27.03.2020
5920 Rain 14 1005 16 0 0.65 317 22:39 27.03.2020
5921 Rain 14 1005 16 0 0.65 317 22:39 27.03.2020
5922 Rain 14 1005 16 0 0.65 317 22:20 27.03.2020
5923 Rain 14 1005 16 0 0.65 317 21:58 27.03.2020
5924 Rain 14 1005 16 0 0.65 317 21:40 27.03.2020
5925 Clouds 16 1032 55 10000 0.65 317 21:22 27.03.2020
5926 Clouds 16 1032 55 10000 0.65 317 20:57 27.03.2020
5927 Clouds 16 1032 55 10000 0.68 312 20:39 27.03.2020
5928 Clouds 16 1032 55 10000 2.65 320 20:19 27.03.2020
5929 Clouds 16 1032 55 10000 3.1 313 20:19 27.03.2020
5930 Clouds 15 1033 58 10000 1.5 20 19:55 27.03.2020
5931 Clouds 15 1033 58 10000 1.5 20 19:36 27.03.2020
5932 Clouds 15 1033 58 10000 1.5 20 19:18 27.03.2020
5933 Rain 15 1007 13 0 3.1 313 18:42 27.03.2020
5934 Clouds 12 1034 76 10000 2.1 20 18:23 27.03.2020
5935 Clouds 12 1034 76 10000 2.1 20 17:54 27.03.2020
5936 Clouds 12 1034 76 10000 2.1 20 17:36 27.03.2020
5937 Clouds 12 1034 76 10000 2.1 20 17:18 27.03.2020
5938 Clouds 11 1034 81 10000 1.5 50 16:43 27.03.2020
5939 Clouds 11 1034 81 10000 1.5 50 16:24 27.03.2020
5940 Clouds 10 1035 87 10000 2.6 100 15:45 27.03.2020
5941 Clouds 10 1035 87 10000 2.6 100 15:26 27.03.2020
5942 Clouds 8 1034 93 10000 2.1 150 14:56 27.03.2020
5943 Clouds 8 1034 93 10000 2.1 150 14:37 27.03.2020
5944 Clouds 8 1034 93 10000 2.1 150 14:18 27.03.2020
5945 Clouds 6 1034 93 10000 2.6 220 13:43 27.03.2020
5946 Clouds 6 1034 93 10000 2.6 220 13:22 27.03.2020
5947 Clouds 7 1015 26 0 1.43 350 12:59 27.03.2020
5948 Clouds 7 1015 26 0 1.43 350 12:39 27.03.2020
5949 Clouds 7 1015 26 0 1.43 350 12:19 27.03.2020
5950 Clouds 7 1015 26 0 1.43 350 11:42 27.03.2020
5951 Clouds 7 1015 26 0 1.43 350 11:24 27.03.2020
5952 Clouds 7 1013 29 0 1.45 347 10:56 27.03.2020
5953 Clouds 7 1013 29 0 1.45 347 10:38 27.03.2020
5954 Clouds 7 1013 29 0 1.45 347 10:20 27.03.2020
5955 Clouds 7 1013 29 0 1.45 347 09:58 27.03.2020
5956 Clouds 7 1013 29 0 1.45 347 09:39 27.03.2020
5957 Clouds 7 1013 29 0 1.45 347 09:21 27.03.2020
5958 Clouds 7 1013 29 0 1.45 347 08:58 27.03.2020
5959 Clouds 7 1013 29 0 1.45 347 08:39 27.03.2020
5960 Clouds 7 1013 29 0 1.45 347 08:21 27.03.2020
5961 Rain 7 1014 29 0 2.37 20 07:53 27.03.2020
5962 Rain 7 1014 29 0 2.37 20 07:28 27.03.2020
5963 Rain 7 1014 29 0 2.37 20 06:57 27.03.2020
5964 Rain 7 1014 29 0 2.37 20 06:37 27.03.2020
5965 Rain 7 1014 29 0 2.37 20 05:38 27.03.2020
5966 Rain 8 1015 29 0 3.06 28 02:51 27.03.2020
5967 Rain 9 1011 27 0 3.22 49 01:54 27.03.2020
5968 Rain 9 1012 27 0 3.67 36 00:56 27.03.2020
5969 Rain 9 1012 27 0 3.67 36 00:37 27.03.2020
5970 Rain 9 1012 27 0 3.67 36 00:18 27.03.2020
5971 Rain 9 1012 27 0 3.67 36 23:36 26.03.2020
5972 Rain 11 1008 23 0 4.5 41 23:18 26.03.2020
5973 Rain 11 1008 23 0 4.5 41 22:54 26.03.2020
5974 Rain 11 1008 23 0 4.5 41 22:36 26.03.2020
5975 Rain 11 1008 23 0 4.5 41 22:18 26.03.2020
5976 Rain 11 1008 23 0 4.5 41 21:39 26.03.2020
5977 Rain 11 1008 23 0 4.5 41 21:21 26.03.2020
5978 Rain 11 1008 23 0 4.5 41 20:58 26.03.2020
5979 Rain 11 1008 23 0 4.5 41 20:39 26.03.2020
5980 Rain 11 1008 23 0 4.5 41 20:20 26.03.2020
5981 Rain 13 1010 21 0 4.54 30 19:57 26.03.2020
5982 Rain 13 1010 21 0 4.54 30 19:57 26.03.2020
5983 Rain 13 1010 21 0 4.54 30 19:39 26.03.2020
5984 Rain 13 1010 21 0 4.54 30 19:20 26.03.2020
5985 Rain 13 1010 21 0 4.54 30 19:20 26.03.2020
5986 Rain 13 1010 21 0 4.54 30 19:20 26.03.2020
5987 Rain 13 1010 21 0 4.54 30 18:58 26.03.2020
5988 Rain 13 1010 21 0 4.54 30 18:58 26.03.2020
5989 Rain 13 1010 21 0 4.54 30 18:39 26.03.2020
5990 Rain 13 1010 21 0 4.54 30 18:21 26.03.2020
5991 Rain 13 1010 21 0 4.54 30 17:43 26.03.2020
5992 Rain 12 1013 22 0 3.86 30 17:19 26.03.2020
5993 Rain 12 1013 22 0 3.86 30 16:47 26.03.2020
5994 Rain 12 1013 22 0 3.86 30 16:28 26.03.2020
5995 Rain 12 1013 22 0 3.86 30 15:59 26.03.2020
5996 Rain 12 1013 22 0 3.86 30 15:41 26.03.2020
5997 Rain 12 1013 22 0 3.86 30 15:22 26.03.2020
5998 Rain 12 1013 22 0 3.86 30 14:58 26.03.2020
5999 Rain 12 1013 22 0 3.86 30 14:39 26.03.2020
6000 Rain 9 1015 27 0 2.68 10 14:19 26.03.2020
6001 Rain 9 1015 27 0 2.68 10 13:44 26.03.2020
6002 Rain 9 1015 27 0 2.68 10 13:24 26.03.2020
6003 Rain 9 1015 27 0 2.57 16 12:59 26.03.2020
6004 Rain 9 1015 27 0 2.57 16 12:38 26.03.2020
6005 Rain 9 1015 27 0 2.57 16 12:20 26.03.2020
6006 Rain 9 1015 27 0 2.57 16 11:46 26.03.2020
6007 Rain 9 1015 27 0 2.57 16 11:22 26.03.2020
6008 Rain 8 1013 30 0 1.79 49 10:56 26.03.2020
6009 Rain 8 1013 30 0 1.79 49 10:56 26.03.2020
6010 Rain 8 1013 30 0 1.79 49 10:56 26.03.2020
6011 Rain 8 1013 30 0 1.79 49 10:38 26.03.2020
6012 Rain 8 1013 30 0 1.79 49 10:19 26.03.2020
6013 Rain 8 1013 30 0 1.79 49 09:44 26.03.2020
6014 Rain 8 1013 30 0 1.79 49 09:21 26.03.2020
6015 Rain 8 1013 30 0 1.79 49 08:56 26.03.2020
6016 Rain 8 1013 30 0 1.79 49 08:37 26.03.2020
6017 Rain 8 1013 30 0 2.05 42 08:19 26.03.2020
6018 Rain 8 1013 29 0 2.03 41 07:44 26.03.2020
6019 Rain 8 1013 29 0 2.03 41 07:22 26.03.2020
6020 Rain 8 1013 29 0 2.03 41 06:56 26.03.2020
6021 Rain 8 1013 29 0 2.03 41 05:59 26.03.2020
6022 Rain 10 1013 27 0 2.06 45 04:49 26.03.2020
6023 Rain 10 1013 27 0 2.06 45 03:44 26.03.2020
6024 Rain 10 1013 27 0 2.06 45 02:55 26.03.2020
6025 Rain 11 1010 25 0 3.33 31 01:50 26.03.2020
6026 Rain 11 1010 25 0 2.25 51 00:55 26.03.2020
6027 Rain 11 1010 25 0 2.25 51 00:22 26.03.2020
6028 Rain 11 1010 25 0 2.25 51 23:41 25.03.2020
6029 Rain 11 1010 25 0 2.25 51 23:21 25.03.2020
6030 Rain 15 1006 17 0 2.46 76 22:42 25.03.2020
6031 Rain 15 1006 17 0 2.46 76 22:21 25.03.2020
6032 Rain 15 1006 17 0 2.46 76 21:56 25.03.2020
6033 Rain 15 1006 17 0 2.46 76 21:38 25.03.2020
6034 Rain 15 1006 17 0 2.46 76 21:20 25.03.2020
6035 Rain 15 1006 17 0 2.46 76 20:56 25.03.2020
6036 Rain 15 1006 17 0 2.46 76 20:37 25.03.2020
6037 Rain 16 1007 15 0 1.93 63 20:18 25.03.2020
6038 Rain 16 1007 15 0 1.93 63 19:43 25.03.2020
6039 Rain 16 1008 14 0 1.78 56 19:23 25.03.2020
6040 Rain 16 1007 15 0 1.93 63 18:58 25.03.2020
6041 Rain 16 1007 15 0 1.93 63 18:40 25.03.2020
6042 Rain 16 1007 15 0 1.93 63 18:21 25.03.2020
6043 Rain 16 1007 15 0 1.93 63 17:55 25.03.2020
6044 Rain 16 1007 15 0 1.93 63 17:55 25.03.2020
6045 Rain 16 1007 15 0 1.93 63 17:37 25.03.2020
6046 Clear 14 1012 17 0 1.77 60 17:19 25.03.2020
6047 Clear 14 1012 17 0 1.77 60 16:43 25.03.2020
6048 Clear 14 1012 17 0 1.77 60 16:24 25.03.2020
6049 Clear 14 1012 17 0 1.77 60 15:59 25.03.2020
6050 Clear 14 1012 17 0 1.77 60 15:40 25.03.2020
6051 Clear 14 1012 17 0 1.77 60 15:20 25.03.2020
6052 Clear 14 1012 17 0 1.77 60 14:42 25.03.2020
6053 Clear 14 1013 17 0 1.8 63 14:22 25.03.2020
6054 Clear 9 1015 25 0 0.97 330 13:59 25.03.2020
6055 Clear 9 1015 25 0 0.97 330 13:41 25.03.2020
6056 Clear 9 1015 25 0 0.97 330 13:22 25.03.2020
6057 Clear 9 1016 25 0 0.94 332 12:38 25.03.2020
6058 Clear 9 1016 25 0 0.94 332 12:19 25.03.2020
6059 Clear 9 1016 25 0 0.94 332 11:55 25.03.2020
6060 Clear 9 1016 25 0 0.94 332 11:36 25.03.2020
6061 Clear 7 1015 30 0 1.33 329 11:18 25.03.2020
6062 Clear 7 1015 30 0 1.33 329 10:56 25.03.2020
6063 Clear 7 1015 30 0 1.33 329 10:37 25.03.2020
6064 Clear 7 1015 30 0 1.33 329 10:18 25.03.2020
6065 Clear 7 1015 30 0 1.33 329 09:42 25.03.2020
6066 Clear 7 1015 30 0 1.33 329 09:23 25.03.2020
6067 Clear 7 1015 30 0 1.33 329 08:56 25.03.2020
6068 Clear 7 1015 30 0 1.33 329 08:38 25.03.2020
6069 Clear 8 1015 29 0 1.43 353 08:19 25.03.2020
6070 Clear 8 1015 29 0 1.4 354 07:41 25.03.2020
6071 Clear 8 1015 29 0 1.4 354 07:20 25.03.2020
6072 Clear 8 1015 29 0 1.4 354 06:48 25.03.2020
6073 Clear 8 1015 29 0 1.4 354 06:28 25.03.2020
6074 Clear 8 1015 29 0 1.4 354 05:56 25.03.2020
6075 Clear 8 1015 29 0 1.4 354 05:30 25.03.2020
6076 Clear 9 1016 28 0 2.09 32 04:39 25.03.2020
6077 Clear 9 1016 28 0 2.09 32 03:36 25.03.2020
6078 Clear 9 1016 28 0 2.09 32 02:40 25.03.2020
6079 Clouds 11 1013 24 0 3.17 48 01:23 25.03.2020
6080 Clouds 11 1013 24 0 3.09 47 00:49 25.03.2020
6081 Clouds 11 1013 24 0 3.09 47 00:24 25.03.2020
6082 Clouds 11 1013 24 0 3.09 47 23:46 24.03.2020
6083 Clouds 11 1013 24 0 3.09 47 23:28 24.03.2020
6084 Clouds 15 1010 16 0 4.66 67 22:57 24.03.2020
6085 Clouds 15 1010 16 0 4.66 67 22:38 24.03.2020
6086 Clouds 15 1010 16 0 4.66 67 22:19 24.03.2020
6087 Clouds 15 1010 16 0 4.66 67 22:19 24.03.2020
6088 Clouds 15 1010 16 0 4.66 67 21:56 24.03.2020
6089 Clouds 15 1010 16 0 4.66 67 21:38 24.03.2020
6090 Clouds 15 1010 16 0 4.66 67 21:18 24.03.2020
6091 Clouds 15 1010 16 0 4.66 67 20:57 24.03.2020
6092 Clouds 15 1010 16 0 4.66 67 20:39 24.03.2020
6093 Clouds 15 1010 16 0 4.66 67 20:21 24.03.2020
6094 Clear 15 1012 14 0 3.21 70 19:45 24.03.2020
6095 Clear 15 1012 14 0 3.21 70 19:19 24.03.2020
6096 Clear 15 1012 14 0 3.21 70 18:56 24.03.2020
6097 Clear 15 1012 14 0 3.21 70 18:56 24.03.2020
6098 Clear 15 1012 14 0 3.21 70 18:37 24.03.2020
6099 Clear 15 1012 14 0 3.21 70 18:19 24.03.2020
6100 Clear 15 1012 14 0 3.21 70 17:43 24.03.2020
6101 Clear 15 1012 14 0 3.21 70 17:24 24.03.2020
6102 Clear 12 1017 40 0 3.08 84 16:59 24.03.2020
6103 Clear 12 1017 40 0 3.08 84 16:41 24.03.2020
6104 Clear 12 1017 40 0 3.08 84 16:23 24.03.2020
6105 Clear 12 1017 40 0 3.08 84 16:23 24.03.2020
6106 Clear 12 1017 40 0 3.08 84 15:59 24.03.2020
6107 Clear 12 1017 40 0 3.08 84 15:39 24.03.2020
6108 Clear 12 1017 40 0 3.08 84 15:21 24.03.2020
6109 Clear 12 1017 40 0 3.08 84 14:43 24.03.2020
6110 Clear 12 1017 40 0 3.08 84 14:43 24.03.2020
6111 Clear 13 1017 17 0 2.82 81 14:22 24.03.2020
6112 Clear 9 1019 25 0 0.56 11 13:55 24.03.2020
6113 Clear 9 1019 25 0 0.56 11 13:36 24.03.2020
6114 Clouds 9 1019 25 0 0.56 21 13:18 24.03.2020
6115 Clouds 9 1019 25 0 0.56 21 12:41 24.03.2020
6116 Clouds 9 1019 25 0 0.56 21 12:23 24.03.2020
6117 Clouds 9 1019 25 0 0.56 21 11:41 24.03.2020
6118 Clear 8 1019 74 0 0.42 325 11:21 24.03.2020
6119 Clouds 5 1018 97 0 0.81 300 10:59 24.03.2020
6120 Clouds 5 1018 97 0 0.81 300 10:40 24.03.2020
6121 Clouds 5 1018 97 0 0.81 300 10:40 24.03.2020
6122 Clouds 5 1018 97 0 0.81 300 10:18 24.03.2020
6123 Clouds 5 1018 97 0 0.81 300 09:44 24.03.2020
6124 Clouds 5 1018 97 0 0.81 300 09:25 24.03.2020
6125 Clouds 5 1018 97 0 0.81 300 08:57 24.03.2020
6126 Clouds 5 1018 97 0 0.81 300 08:37 24.03.2020
6127 Clear 6 1018 92 0 0.8 0 08:18 24.03.2020
6128 Clear 6 1018 92 0 0.97 2 07:44 24.03.2020
6129 Clear 6 1018 92 0 0.97 2 07:22 24.03.2020
6130 Clear 6 1018 92 0 0.97 2 06:40 24.03.2020
6131 Clear 6 1018 92 0 0.97 2 06:18 24.03.2020
6132 Rain 8 1019 82 0 2.05 50 04:52 24.03.2020
6133 Rain 8 1019 82 0 2.05 50 03:32 24.03.2020
6134 Rain 8 1019 82 0 2.05 50 02:43 24.03.2020
6135 Rain 10 1016 70 0 2.94 59 00:57 24.03.2020
6136 Rain 10 1016 70 0 2.94 59 00:28 24.03.2020
6137 Rain 10 1016 70 0 2.94 59 00:28 24.03.2020
6138 Rain 10 1016 70 0 2.94 59 23:59 23.03.2020
6139 Rain 10 1016 70 0 2.94 59 23:38 23.03.2020
6140 Clear 13 1014 44 0 4.03 52 23:19 23.03.2020
6141 Clear 13 1014 44 0 4.03 52 22:45 23.03.2020
6142 Clear 13 1014 44 0 4.03 52 22:23 23.03.2020
6143 Clear 13 1014 44 0 4.03 52 21:55 23.03.2020
6144 Clear 13 1014 44 0 4.03 52 21:37 23.03.2020
6145 Clear 13 1014 44 0 4.03 52 21:37 23.03.2020
6146 Clear 13 1014 44 0 4.03 52 21:37 23.03.2020
6147 Clear 13 1014 44 0 4.03 52 21:19 23.03.2020
6148 Clear 13 1014 44 0 4.03 52 20:56 23.03.2020
6149 Clear 13 1014 44 0 4.03 52 20:38 23.03.2020
6150 Clouds 13 1015 44 0 2.89 54 20:19 23.03.2020
6151 Clouds 13 1015 44 0 2.89 54 19:42 23.03.2020
6152 Clouds 13 1015 44 0 2.89 54 19:23 23.03.2020
6153 Clouds 13 1015 44 0 2.89 54 18:56 23.03.2020
6154 Clouds 13 1015 44 0 2.89 54 18:38 23.03.2020
6155 Clouds 13 1015 44 0 2.89 54 18:19 23.03.2020
6156 Clouds 13 1015 44 0 2.89 54 17:41 23.03.2020
6157 Clouds 13 1015 44 0 2.89 54 17:20 23.03.2020
6158 Clouds 9 1020 64 0 2.56 52 16:56 23.03.2020
6159 Clouds 9 1020 64 0 2.56 52 16:37 23.03.2020
6160 Clouds 9 1020 64 0 2.56 52 16:18 23.03.2020
6161 Clouds 9 1020 64 0 2.56 52 15:41 23.03.2020
6162 Clouds 9 1020 64 0 2.56 52 15:19 23.03.2020
6163 Clouds 9 1020 64 0 2.56 52 14:38 23.03.2020
6164 Clouds 5 1022 85 0 1.42 49 14:20 23.03.2020
6165 Clouds 5 1022 85 0 1.42 49 14:20 23.03.2020
6166 Clouds 5 1022 85 0 1.42 49 13:58 23.03.2020
6167 Clouds 5 1022 85 0 1.42 49 13:40 23.03.2020
6168 Clouds 5 1022 85 0 1.42 49 13:40 23.03.2020
6169 Clouds 5 1022 85 0 1.42 49 13:20 23.03.2020
6170 Clouds 5 1022 87 0 0.82 30 12:44 23.03.2020
6171 Clouds 5 1022 87 0 0.82 30 12:25 23.03.2020
6172 Clouds 5 1022 87 0 0.82 30 11:59 23.03.2020
6173 Clouds 5 1022 87 0 0.82 30 11:59 23.03.2020
6174 Clouds 5 1022 87 0 0.82 30 11:39 23.03.2020
6175 Clouds 4 1020 94 0 1.29 98 11:19 23.03.2020
6176 Clouds 4 1020 94 0 1.29 98 10:57 23.03.2020
6177 Clouds 4 1020 94 0 1.29 98 10:38 23.03.2020
6178 Clouds 4 1020 94 0 1.29 98 10:20 23.03.2020
6179 Clouds 4 1020 94 0 1.29 98 09:44 23.03.2020
6180 Clouds 4 1020 94 0 1.29 98 09:21 23.03.2020
6181 Clouds 4 1020 94 0 1.29 98 08:57 23.03.2020
6182 Clouds 4 1020 94 0 1.29 98 08:36 23.03.2020
6183 Clouds 6 1019 95 0 2.02 70 08:18 23.03.2020
6184 Rain 6 1020 94 0 1.96 79 07:42 23.03.2020
6185 Rain 6 1020 94 0 1.96 79 07:23 23.03.2020
6186 Rain 6 1020 94 0 1.96 79 06:49 23.03.2020
6187 Rain 6 1020 94 0 1.96 79 05:54 23.03.2020
6188 Rain 6 1020 94 0 1.96 79 05:29 23.03.2020
6189 Clear 7 1020 89 0 2.59 58 03:28 23.03.2020
6190 Rain 9 1016 66 0 3.65 56 01:51 23.03.2020
6191 Rain 9 1016 66 0 3.65 56 01:33 23.03.2020
6192 Rain 9 1016 68 0 3.86 54 00:39 23.03.2020
6193 Rain 9 1016 68 0 3.86 54 23:47 22.03.2020
6194 Rain 9 1016 68 0 3.86 54 23:26 22.03.2020
6195 Rain 12 1012 53 0 4.82 58 22:45 22.03.2020
6196 Rain 12 1012 53 0 4.82 58 22:26 22.03.2020
6197 Rain 12 1012 53 0 4.82 58 21:56 22.03.2020
6198 Rain 12 1012 53 0 4.82 58 21:37 22.03.2020
6199 Rain 12 1012 53 0 4.82 58 21:19 22.03.2020
6200 Rain 12 1012 53 0 4.82 58 20:54 22.03.2020
6201 Rain 12 1012 53 0 4.82 58 20:36 22.03.2020
6202 Clear 13 1013 46 0 3.99 55 20:18 22.03.2020
6203 Clouds 13 1013 46 0 4.07 55 19:54 22.03.2020
6204 Clouds 13 1013 46 0 4.07 55 19:36 22.03.2020
6205 Clouds 13 1013 46 0 4.07 55 19:18 22.03.2020
6206 Clouds 13 1013 46 0 4.07 55 18:41 22.03.2020
6207 Clouds 13 1013 46 0 4.07 55 18:22 22.03.2020
6208 Clouds 13 1013 46 0 4.07 55 17:59 22.03.2020
6209 Clouds 13 1013 46 0 4.07 55 17:39 22.03.2020
6210 Clouds 13 1013 46 0 4.07 55 17:21 22.03.2020
6211 Clouds 10 1017 62 0 3.03 69 16:59 22.03.2020
6212 Clouds 10 1017 62 0 3.03 69 16:41 22.03.2020
6213 Clouds 10 1017 62 0 3.03 69 16:22 22.03.2020
6214 Clouds 10 1017 62 0 3.03 69 15:58 22.03.2020
6215 Clouds 10 1017 62 0 3.03 69 15:39 22.03.2020
6216 Clouds 10 1017 62 0 3.03 69 14:47 22.03.2020
6217 Clouds 5 1019 89 0 0.77 59 14:20 22.03.2020
6218 Clouds 5 1019 89 0 0.77 59 13:58 22.03.2020
6219 Clouds 5 1019 89 0 0.77 59 13:40 22.03.2020
6220 Clouds 5 1019 89 0 0.77 59 13:19 22.03.2020
6221 Clouds 6 1019 84 0 1.23 53 12:44 22.03.2020
6222 Clouds 6 1019 84 0 1.23 53 12:44 22.03.2020
6223 Clouds 6 1019 84 0 1.23 53 12:22 22.03.2020
6224 Clouds 6 1019 84 0 1.23 53 12:22 22.03.2020
6225 Clouds 6 1019 84 0 1.23 53 11:58 22.03.2020
6226 Clouds 6 1019 84 0 1.23 53 11:39 22.03.2020
6227 Clouds 6 1019 84 0 1.23 53 11:21 22.03.2020
6228 Clouds 5 1017 95 0 0.97 59 10:44 22.03.2020
6229 Clouds 5 1017 95 0 0.97 59 10:24 22.03.2020
6230 Clouds 5 1017 95 0 0.97 59 10:00 22.03.2020
6231 Clouds 5 1017 95 0 0.97 59 09:40 22.03.2020
6232 Clouds 5 1017 95 0 0.97 59 09:19 22.03.2020
6233 Clouds 5 1017 95 0 0.97 59 08:42 22.03.2020
6234 Clouds 5 1017 95 0 0.97 59 08:23 22.03.2020
6235 Clouds 6 1016 92 0 1.67 43 07:50 22.03.2020
6236 Clouds 6 1016 92 0 1.67 43 07:22 22.03.2020
6237 Clouds 6 1016 92 0 1.67 43 06:35 22.03.2020
6238 Clouds 6 1016 92 0 1.67 43 05:31 22.03.2020
6239 Rain 7 1016 82 0 1.8 62 03:25 22.03.2020
6240 Rain 8 1013 72 0 2.33 100 01:26 22.03.2020
6241 Rain 9 1013 74 0 2.15 64 00:47 22.03.2020
6242 Rain 9 1013 74 0 2.15 64 00:25 22.03.2020
6243 Rain 9 1013 74 0 2.15 64 23:43 21.03.2020
6244 Rain 11 1009 53 0 1.95 100 23:19 21.03.2020
6245 Rain 11 1009 53 0 1.95 100 22:55 21.03.2020
6246 Rain 11 1009 53 0 1.95 100 22:36 21.03.2020
6247 Rain 11 1009 53 0 1.95 100 22:18 21.03.2020
6248 Rain 11 1009 53 0 1.95 100 21:41 21.03.2020
6249 Rain 11 1009 53 0 1.95 100 21:23 21.03.2020
6250 Rain 11 1009 53 0 1.95 100 20:59 21.03.2020
6251 Rain 11 1009 53 0 1.95 100 20:41 21.03.2020
6252 Clouds 13 1010 36 0 0.41 259 20:19 21.03.2020
6253 Clouds 13 1010 36 0 0.41 259 19:44 21.03.2020
6254 Clouds 13 1010 36 0 0.41 259 19:25 21.03.2020
6255 Clouds 13 1010 36 0 0.41 259 18:57 21.03.2020
6256 Clouds 13 1010 36 0 0.41 259 18:38 21.03.2020
6257 Clouds 13 1010 36 0 0.41 259 18:20 21.03.2020
6258 Clouds 13 1010 36 0 0.41 259 18:20 21.03.2020
6259 Clouds 13 1010 36 0 0.41 259 17:55 21.03.2020
6260 Clouds 13 1010 36 0 0.41 259 17:37 21.03.2020
6261 Clear 11 1014 39 0 0.58 126 17:18 21.03.2020
6262 Clear 11 1014 39 0 0.58 126 16:41 21.03.2020
6263 Clear 11 1014 39 0 0.58 126 16:20 21.03.2020
6264 Clear 11 1014 39 0 0.58 126 16:20 21.03.2020
6265 Clear 11 1014 39 0 0.58 126 15:56 21.03.2020
6266 Clear 11 1014 39 0 0.58 126 15:37 21.03.2020
6267 Clear 11 1014 39 0 0.58 126 15:19 21.03.2020
6268 Clear 11 1014 39 0 0.58 126 14:54 21.03.2020
6269 Clear 11 1014 39 0 0.58 126 14:36 21.03.2020
6270 Clouds 6 1017 63 0 1.36 263 14:18 21.03.2020
6271 Clouds 6 1017 63 0 1.36 263 13:57 21.03.2020
6272 Clouds 6 1017 63 0 1.36 263 13:38 21.03.2020
6273 Clouds 6 1017 57 0 1.72 250 13:19 21.03.2020
6274 Clouds 6 1017 57 0 1.72 250 12:40 21.03.2020
6275 Clouds 6 1017 57 0 1.72 250 12:20 21.03.2020
6276 Clouds 6 1017 57 0 1.72 250 11:59 21.03.2020
6277 Clouds 6 1017 57 0 1.72 250 11:39 21.03.2020
6278 Clouds 6 1017 57 0 1.72 250 11:39 21.03.2020
6279 Clouds 5 1015 80 0 0.46 7 11:20 21.03.2020
6280 Clouds 5 1015 80 0 0.46 7 10:58 21.03.2020
6281 Clouds 5 1015 80 0 0.46 7 10:39 21.03.2020
6282 Clouds 5 1015 80 0 0.46 7 10:21 21.03.2020
6283 Clouds 5 1015 80 0 0.46 7 09:58 21.03.2020
6284 Clouds 5 1015 80 0 0.46 7 09:39 21.03.2020
6285 Clouds 5 1015 80 0 0.46 7 09:20 21.03.2020
6286 Clouds 5 1015 80 0 0.46 7 08:55 21.03.2020
6287 Clouds 5 1015 80 0 0.46 7 08:37 21.03.2020
6288 Rain 5 1016 93 0 2.06 55 08:18 21.03.2020
6289 Rain 5 1016 93 0 2.06 55 07:37 21.03.2020
6290 Rain 5 1016 93 0 2.06 55 07:19 21.03.2020
6291 Rain 5 1016 93 0 2.06 55 06:44 21.03.2020
6292 Rain 5 1016 93 0 2.06 55 06:24 21.03.2020
6293 Rain 5 1016 93 0 2.06 55 05:40 21.03.2020
6294 Rain 6 1017 92 0 2.83 43 03:49 21.03.2020
6295 Rain 6 1017 92 0 2.83 43 02:37 21.03.2020
6296 Rain 7 1014 89 0 3.14 54 01:45 21.03.2020
6297 Rain 7 1014 89 0 3.14 54 01:25 21.03.2020
6298 Rain 7 1013 91 0 2.61 41 00:39 21.03.2020
6299 Rain 7 1013 91 0 2.61 41 00:21 21.03.2020
6300 Rain 7 1013 91 0 2.61 41 23:43 20.03.2020
6301 Rain 7 1013 91 0 2.61 41 23:22 20.03.2020
6302 Rain 10 1009 71 0 3.37 81 22:44 20.03.2020
6303 Rain 10 1009 71 0 3.37 81 22:25 20.03.2020
6304 Rain 10 1009 71 0 3.37 81 21:59 20.03.2020
6305 Rain 10 1009 71 0 3.37 81 21:40 20.03.2020
6306 Rain 10 1009 71 0 3.37 81 21:20 20.03.2020
6307 Rain 10 1009 71 0 3.37 81 20:59 20.03.2020
6308 Rain 10 1009 71 0 3.37 81 20:41 20.03.2020
6309 Rain 11 1011 62 0 1.42 330 20:20 20.03.2020
6310 Rain 11 1011 62 0 1.36 323 19:48 20.03.2020
6311 Clouds 11 1036 81 10000 5.1 70 19:22 20.03.2020
6312 Clouds 11 1036 81 10000 5.1 70 18:58 20.03.2020
6313 Clouds 11 1036 81 10000 5.1 70 18:39 20.03.2020
6314 Clouds 11 1036 81 10000 5.1 70 18:20 20.03.2020
6315 Clouds 10 1037 87 10000 2.6 70 17:56 20.03.2020
6316 Clouds 10 1037 87 10000 2.6 70 17:38 20.03.2020
6317 Clouds 10 1038 81 10000 3.6 30 17:19 20.03.2020
6318 Clouds 10 1038 81 10000 3.6 30 16:42 20.03.2020
6319 Clouds 10 1038 81 10000 3.6 30 16:21 20.03.2020
6320 Clouds 8 1039 87 10000 2.6 30 15:56 20.03.2020
6321 Clouds 8 1039 87 10000 2.6 30 15:37 20.03.2020
6322 Clouds 8 1039 87 10000 2.6 30 15:19 20.03.2020
6323 Clouds 7 1039 93 10000 2.55 44 14:42 20.03.2020
6324 Clouds 7 1039 93 10000 2.55 44 14:21 20.03.2020
6325 Clouds 6 1039 93 10000 1.93 39 13:50 20.03.2020
6326 Clouds 6 1039 93 10000 1.93 39 13:26 20.03.2020
6327 Rain 6 1017 89 0 2.03 42 12:59 20.03.2020
6328 Rain 6 1017 89 0 2.03 42 12:38 20.03.2020
6329 Rain 6 1017 89 0 2.03 42 12:20 20.03.2020
6330 Rain 6 1017 89 0 2.03 42 11:40 20.03.2020
6331 Rain 6 1017 89 0 2.03 42 11:21 20.03.2020
6332 Rain 6 1015 89 0 0.93 70 10:58 20.03.2020
6333 Rain 6 1015 89 0 0.93 70 10:40 20.03.2020
6334 Rain 6 1015 89 0 0.93 70 10:18 20.03.2020
6335 Rain 6 1015 89 0 0.93 70 09:46 20.03.2020
6336 Rain 6 1015 89 0 0.93 70 09:21 20.03.2020
6337 Rain 6 1015 89 0 0.93 70 08:58 20.03.2020
6338 Rain 6 1015 89 0 0.93 70 08:39 20.03.2020
6339 Rain 6 1016 89 0 1.66 55 08:19 20.03.2020
6340 Rain 6 1016 89 0 1.66 55 07:45 20.03.2020
6341 Rain 6 1016 89 0 1.66 55 07:26 20.03.2020
6342 Rain 6 1016 89 0 1.66 55 06:43 20.03.2020
6343 Rain 6 1016 89 0 1.66 55 06:22 20.03.2020
6344 Rain 7 1016 80 0 1.48 50 04:49 20.03.2020
6345 Rain 7 1016 80 0 1.48 50 03:18 20.03.2020
6346 Rain 9 1013 73 0 2.91 64 01:51 20.03.2020
6347 Rain 8 1013 76 0 3.26 60 00:46 20.03.2020
6348 Rain 8 1013 76 0 3.26 60 00:24 20.03.2020
6349 Rain 8 1013 76 0 3.26 60 23:42 19.03.2020
6350 Rain 8 1013 76 0 3.26 60 23:23 19.03.2020
6351 Rain 11 1009 64 0 2.22 57 22:55 19.03.2020
6352 Rain 11 1009 64 0 2.22 57 22:37 19.03.2020
6353 Rain 11 1009 64 0 2.22 57 22:18 19.03.2020
6354 Rain 11 1009 64 0 2.22 57 21:40 19.03.2020
6355 Rain 11 1009 64 0 2.22 57 21:20 19.03.2020
6356 Rain 11 1009 64 0 2.22 57 20:55 19.03.2020
6357 Rain 11 1009 64 0 2.22 57 20:37 19.03.2020
6358 Rain 11 1012 63 0 3.54 44 20:19 19.03.2020
6359 Rain 10 1011 70 0 2.24 25 19:54 19.03.2020
6360 Rain 10 1011 70 0 2.24 25 19:36 19.03.2020
6361 Clouds 14 1038 71 10000 1.5 50 19:18 19.03.2020
6362 Clouds 14 1038 71 10000 1.5 50 18:41 19.03.2020
6363 Clouds 14 1038 71 10000 1.5 50 18:22 19.03.2020
6364 Clouds 13 1040 71 10000 2.1 70 17:56 19.03.2020
6365 Clouds 13 1040 71 10000 2.1 70 17:38 19.03.2020
6366 Clouds 11 1041 81 10000 2.85 43 17:18 19.03.2020
6367 Clouds 11 1041 81 10000 2.85 43 16:43 19.03.2020
6368 Clouds 11 1041 81 10000 2.85 43 16:22 19.03.2020
6369 Clouds 9 1042 87 10000 2.85 43 15:44 19.03.2020
6370 Clouds 9 1042 87 10000 2.85 43 15:25 19.03.2020
6371 Rain 6 1017 86 0 2.85 43 14:55 19.03.2020
6372 Rain 6 1017 86 0 2.85 43 14:37 19.03.2020
6373 Clouds 6 1042 100 10000 2.99 341 14:18 19.03.2020
6374 Clouds 6 1042 100 10000 2.99 341 13:39 19.03.2020
6375 Clouds 6 1042 100 10000 2.84 313 13:19 19.03.2020
6376 Rain 3 1019 97 0 2.84 313 12:55 19.03.2020
6377 Rain 3 1019 97 0 2.84 313 12:37 19.03.2020
6378 Rain 3 1019 97 0 2.84 313 12:18 19.03.2020
6379 Rain 3 1019 97 0 2.84 313 11:41 19.03.2020
6380 Rain 3 1019 97 0 2.84 313 11:23 19.03.2020
6381 Rain 7 1017 87 0 1.45 70 10:56 19.03.2020
6382 Rain 7 1017 87 0 1.45 70 10:36 19.03.2020
6383 Rain 7 1017 87 0 1.45 70 10:18 19.03.2020
6384 Rain 7 1017 87 0 1.45 70 09:42 19.03.2020
6385 Rain 7 1017 87 0 1.45 70 09:24 19.03.2020
6386 Rain 7 1017 87 0 1.45 70 08:48 19.03.2020
6387 Rain 7 1017 88 0 2.06 39 08:23 19.03.2020
6388 Rain 7 1017 84 0 0.61 132 07:57 19.03.2020
6389 Rain 7 1017 84 0 0.61 132 07:38 19.03.2020
6390 Rain 7 1017 84 0 0.61 132 07:18 19.03.2020
6391 Rain 7 1017 84 0 0.61 132 06:23 19.03.2020
6392 Rain 7 1017 84 0 0.61 132 05:25 19.03.2020
6393 Clouds 7 1017 82 0 1.65 64 04:47 19.03.2020
6394 Clouds 7 1017 82 0 1.65 64 03:55 19.03.2020
6395 Rain 7 1014 81 0 1.25 102 01:46 19.03.2020
6396 Rain 7 1014 82 0 1.76 96 00:53 19.03.2020
6397 Rain 7 1014 82 0 1.76 96 00:19 19.03.2020
6398 Rain 7 1014 82 0 1.76 96 23:43 18.03.2020
6399 Rain 7 1014 82 0 1.76 96 23:23 18.03.2020
6400 Rain 10 1009 74 0 3.2 336 22:43 18.03.2020
6401 Rain 10 1009 74 0 3.2 336 22:23 18.03.2020
6402 Rain 10 1009 74 0 3.2 336 21:57 18.03.2020
6403 Rain 10 1009 74 0 3.2 336 21:39 18.03.2020
6404 Rain 10 1009 74 0 3.2 336 21:20 18.03.2020
6405 Rain 10 1009 74 0 3.2 336 20:55 18.03.2020
6406 Rain 10 1009 74 0 3.2 336 20:37 18.03.2020
6407 Rain 13 1011 52 0 3.03 360 20:19 18.03.2020
6408 Rain 13 1011 52 0 3.03 360 19:41 18.03.2020
6409 Clouds 16 1038 55 10000 2.6 50 19:21 18.03.2020
6410 Clouds 16 1038 55 10000 2.6 50 19:21 18.03.2020
6411 Clouds 16 1038 55 10000 2.6 50 18:58 18.03.2020
6412 Clouds 16 1038 55 10000 2.6 50 18:58 18.03.2020
6413 Clouds 16 1038 55 10000 2.6 50 18:39 18.03.2020
6414 Clouds 14 1039 67 10000 3.03 360 18:19 18.03.2020
6415 Clouds 14 1039 67 10000 3.03 360 18:19 18.03.2020
6416 Clouds 14 1039 67 10000 3.03 360 17:56 18.03.2020
6417 Clouds 14 1039 67 10000 3.03 360 17:38 18.03.2020
6418 Clouds 13 1018 66 10000 2.91 36 17:19 18.03.2020
6419 Clouds 13 1018 66 10000 2.91 36 16:43 18.03.2020
6420 Clouds 12 1041 71 10000 2.91 36 16:21 18.03.2020
6421 Clouds 12 1041 71 10000 2.91 36 15:58 18.03.2020
6422 Clouds 12 1041 71 10000 2.91 36 15:38 18.03.2020
6423 Clouds 12 1041 71 10000 2.91 36 15:20 18.03.2020
6424 Clouds 10 1040 81 10000 2.91 36 14:43 18.03.2020
6425 Clouds 10 1040 81 10000 2.91 36 14:21 18.03.2020
6426 Clouds 7 1040 87 10000 0.94 296 13:42 18.03.2020
6427 Clouds 7 1040 87 10000 0.58 263 13:19 18.03.2020
6428 Clouds 7 1040 87 10000 0.58 263 13:19 18.03.2020
6429 Rain 8 1018 69 0 0.58 263 12:55 18.03.2020
6430 Rain 8 1018 69 0 0.58 263 12:37 18.03.2020
6431 Rain 8 1018 69 0 0.58 263 12:19 18.03.2020
6432 Rain 8 1018 69 0 0.58 263 11:38 18.03.2020
6433 Rain 7 1016 82 0 1.51 329 11:19 18.03.2020
6434 Rain 7 1016 82 0 1.51 329 10:57 18.03.2020
6435 Rain 7 1016 82 0 1.51 329 10:37 18.03.2020
6436 Rain 7 1016 82 0 1.51 329 10:19 18.03.2020
6437 Rain 7 1016 82 0 1.51 329 09:43 18.03.2020
6438 Rain 7 1016 82 0 1.51 329 09:24 18.03.2020
6439 Rain 7 1016 82 0 1.51 329 08:56 18.03.2020
6440 Rain 7 1016 82 0 1.51 329 08:38 18.03.2020
6441 Rain 8 1015 78 0 1.32 286 08:20 18.03.2020
6442 Rain 8 1016 73 0 0.98 309 07:44 18.03.2020
6443 Rain 8 1016 73 0 0.98 309 07:25 18.03.2020
6444 Rain 8 1016 73 0 0.98 309 06:44 18.03.2020
6445 Rain 8 1016 73 0 0.98 309 06:18 18.03.2020
6446 Rain 8 1016 73 0 0.98 309 05:34 18.03.2020
6447 Rain 8 1015 79 0 1.15 22 04:24 18.03.2020
6448 Rain 8 1015 79 0 1.15 22 02:43 18.03.2020
6449 Rain 6 1013 86 0 1.18 319 01:48 18.03.2020
6450 Rain 7 1014 89 0 2.72 49 01:26 18.03.2020
6451 Rain 6 1013 85 0 0.94 359 00:24 18.03.2020
6452 Rain 7 1014 89 0 2.72 49 23:47 17.03.2020
6453 Rain 6 1013 85 0 0.94 359 23:27 17.03.2020
6454 Rain 9 1008 79 0 1.97 64 22:57 17.03.2020
6455 Rain 9 1008 74 0 2.45 328 22:37 17.03.2020
6456 Rain 9 1008 79 0 1.97 64 22:19 17.03.2020
6457 Rain 9 1008 74 0 2.45 328 21:39 17.03.2020
6458 Rain 9 1008 74 0 2.45 328 21:21 17.03.2020
6459 Rain 9 1008 74 0 2.45 328 21:21 17.03.2020
6460 Rain 9 1008 74 0 2.45 328 20:40 17.03.2020
6461 Rain 9 1008 79 0 1.97 64 20:21 17.03.2020
6462 Rain 13 1010 53 0 1.94 13 19:58 17.03.2020
6463 Rain 13 1010 53 0 1.94 13 19:39 17.03.2020
6464 Clouds 15 1036 58 10000 1.5 60 19:18 17.03.2020
6465 Clouds 15 1036 58 10000 1.5 60 18:56 17.03.2020
6466 Clouds 15 1036 58 10000 1.5 60 18:37 17.03.2020
6467 Clouds 15 1036 58 10000 1.5 60 18:19 17.03.2020
6468 Clouds 14 1038 62 10000 1.94 13 17:40 17.03.2020
6469 Clouds 14 1038 62 10000 1.94 13 17:21 17.03.2020
6470 Clouds 13 1038 66 10000 2.14 11 16:55 17.03.2020
6471 Clouds 13 1038 66 10000 2.14 11 16:37 17.03.2020
6472 Clouds 13 1038 66 10000 2.14 11 16:18 17.03.2020
6473 Clouds 12 1039 71 10000 2.14 11 15:43 17.03.2020
6474 Clouds 12 1039 71 10000 2.14 11 15:20 17.03.2020
6475 Clouds 10 1038 76 10000 2.14 11 14:42 17.03.2020
6476 Clouds 10 1038 76 10000 2.14 11 14:21 17.03.2020
6477 Clouds 7 1037 87 10000 1.04 324 13:44 17.03.2020
6478 Clouds 7 1037 87 10000 1.04 341 13:26 17.03.2020
6479 Clouds 6 1037 93 10000 0.92 274 12:58 17.03.2020
6480 Clouds 6 1037 93 10000 0.92 274 12:40 17.03.2020
6481 Clouds 6 1037 93 10000 0.92 274 12:21 17.03.2020
6482 Clouds 5 1037 100 10000 0.92 274 11:46 17.03.2020
6483 Clouds 5 1037 100 10000 1.04 341 11:28 17.03.2020
6484 Rain 6 1016 88 0 1.28 359 10:58 17.03.2020
6485 Rain 6 1016 88 0 1.28 359 10:58 17.03.2020
6486 Rain 6 1016 88 0 1.28 359 10:38 17.03.2020
6487 Rain 6 1016 88 0 1.28 359 10:20 17.03.2020
6488 Rain 7 1015 85 0 1.42 359 09:57 17.03.2020
6489 Rain 7 1015 85 0 1.42 359 09:39 17.03.2020
6490 Rain 7 1015 85 0 1.42 359 09:18 17.03.2020
6491 Rain 7 1015 85 0 1.42 359 08:43 17.03.2020
6492 Rain 6 1016 88 0 1.28 359 08:22 17.03.2020
6493 Rain 7 1016 84 0 1.54 39 07:50 17.03.2020
6494 Rain 7 1016 84 0 1.54 39 07:26 17.03.2020
6495 Rain 7 1016 84 0 1.54 39 06:58 17.03.2020
6496 Rain 7 1016 84 0 1.54 39 06:33 17.03.2020
6497 Rain 7 1016 84 0 1.54 39 05:49 17.03.2020
6498 Rain 8 1017 71 0 1.52 240 03:43 17.03.2020
6499 Rain 8 1017 71 0 1.52 240 02:46 17.03.2020
6500 Rain 8 1014 82 0 2.63 38 01:43 17.03.2020
6501 Rain 8 1014 81 0 1.03 225 01:24 17.03.2020
6502 Rain 8 1014 81 0 1.03 225 00:31 17.03.2020
6503 Rain 8 1014 81 0 1.03 225 23:45 16.03.2020
6504 Rain 8 1014 81 0 1.03 225 23:27 16.03.2020
6505 Rain 11 1009 68 0 3.29 48 22:41 16.03.2020
6506 Rain 11 1009 68 0 3.29 48 22:41 16.03.2020
6507 Rain 11 1009 68 0 3.29 48 22:23 16.03.2020
6508 Rain 11 1009 68 0 3.29 48 21:57 16.03.2020
6509 Rain 11 1009 68 0 3.29 48 21:39 16.03.2020
6510 Rain 11 1009 68 0 3.29 48 21:21 16.03.2020
6511 Rain 11 1009 68 0 3.29 48 20:55 16.03.2020
6512 Rain 11 1009 68 0 3.29 48 20:37 16.03.2020
6513 Rain 12 1011 59 0 3.95 42 20:18 16.03.2020
6514 Rain 12 1011 61 0 3.8 42 19:40 16.03.2020
6515 Rain 9 1040 100 8000 2.1 60 19:20 16.03.2020
6516 Rain 9 1040 100 8000 2.1 60 18:43 16.03.2020
6517 Rain 9 1040 100 8000 2.1 60 18:21 16.03.2020
6518 Clouds 10 1040 87 10000 3.8 42 17:55 16.03.2020
6519 Clouds 10 1040 87 10000 3.8 42 17:37 16.03.2020
6520 Clouds 10 1040 87 10000 3.25 29 17:18 16.03.2020
6521 Clouds 10 1041 87 10000 3.25 29 16:42 16.03.2020
6522 Clouds 10 1041 87 10000 3.25 29 16:24 16.03.2020
6523 Clouds 11 1041 81 10000 3.25 29 15:44 16.03.2020
6524 Clouds 11 1041 81 10000 3.25 29 15:26 16.03.2020
6525 Clouds 9 1041 87 10000 3.25 29 14:49 16.03.2020
6526 Clouds 9 1041 87 10000 3.25 29 14:27 16.03.2020
6527 Clouds 8 1041 87 10000 1.93 29 13:58 16.03.2020
6528 Clouds 8 1041 87 10000 1.93 29 13:40 16.03.2020
6529 Clouds 8 1041 87 10000 1.69 5 13:21 16.03.2020
6530 Clouds 7 1040 93 10000 1.69 5 12:44 16.03.2020
6531 Clouds 7 1040 93 10000 1.69 5 12:23 16.03.2020
6532 Clouds 7 1040 93 10000 1.5 60 11:47 16.03.2020
6533 Clouds 7 1040 93 10000 1.5 60 11:28 16.03.2020
6534 Rain 6 1018 89 0 1.67 23 10:56 16.03.2020
6535 Rain 6 1018 89 0 1.67 23 10:37 16.03.2020
6536 Rain 6 1018 89 0 1.67 23 10:18 16.03.2020
6537 Rain 6 1018 89 0 1.67 23 09:42 16.03.2020
6538 Rain 6 1018 89 0 1.67 23 09:21 16.03.2020
6539 Rain 6 1018 89 0 1.67 23 08:52 16.03.2020
6540 Rain 6 1018 89 0 1.67 23 08:25 16.03.2020
6541 Rain 7 1018 83 0 2.48 20 07:49 16.03.2020
6542 Rain 7 1018 83 0 2.48 20 07:25 16.03.2020
6543 Rain 7 1018 83 0 2.48 20 06:54 16.03.2020
6544 Rain 7 1018 83 0 2.48 20 06:25 16.03.2020
6545 Rain 7 1018 77 0 1.31 285 04:55 16.03.2020
6546 Rain 7 1018 77 0 1.31 285 02:44 16.03.2020
6547 Rain 8 1016 80 0 2.87 298 01:20 16.03.2020
6548 Rain 8 1016 80 0 2.87 298 00:39 16.03.2020
6549 Rain 8 1016 80 0 2.87 298 00:39 16.03.2020
6550 Rain 8 1016 80 0 2.87 298 23:47 15.03.2020
6551 Rain 10 1012 74 0 4.25 20 23:20 15.03.2020
6552 Rain 10 1012 74 0 4.25 20 22:43 15.03.2020
6553 Rain 10 1012 74 0 4.25 20 22:23 15.03.2020
6554 Rain 10 1012 74 0 4.25 20 21:59 15.03.2020
6555 Rain 10 1012 74 0 4.25 20 21:38 15.03.2020
6556 Rain 10 1012 74 0 4.25 20 21:19 15.03.2020
6557 Rain 10 1012 74 0 4.25 20 20:43 15.03.2020
6558 Rain 9 1012 77 0 4.13 349 20:22 15.03.2020
6559 Rain 12 1013 58 0 3.16 45 19:58 15.03.2020
6560 Rain 12 1013 58 0 3.16 45 19:40 15.03.2020
6561 Rain 12 1013 58 0 3.16 45 19:21 15.03.2020
6562 Rain 12 1013 58 0 3.16 45 18:56 15.03.2020
6563 Rain 12 1013 58 0 3.16 45 18:37 15.03.2020
6564 Rain 12 1013 58 0 3.16 45 18:37 15.03.2020
6565 Rain 12 1013 58 0 3.16 45 18:19 15.03.2020
6566 Rain 12 1013 58 0 3.16 45 17:41 15.03.2020
6567 Rain 12 1013 58 0 3.16 45 17:21 15.03.2020
6568 Rain 11 1018 62 0 3.32 39 16:59 15.03.2020
6569 Rain 11 1018 62 0 3.32 39 16:40 15.03.2020
6570 Clouds 12 1042 76 10000 2.6 50 16:21 15.03.2020
6571 Clouds 12 1042 76 10000 2.6 50 15:54 15.03.2020
6572 Clouds 12 1042 76 10000 2.6 50 15:36 15.03.2020
6573 Clouds 12 1042 76 10000 2.6 50 15:18 15.03.2020
6574 Rain 11 1018 62 0 3.32 39 14:39 15.03.2020
6575 Clouds 7 1042 87 10000 3.32 39 14:21 15.03.2020
6576 Clouds 7 1042 87 10000 2.01 33 13:56 15.03.2020
6577 Clouds 7 1042 87 10000 2.01 33 13:37 15.03.2020
6578 Clouds 7 1042 87 10000 2.16 32 13:18 15.03.2020
6579 Clouds 6 1042 93 10000 2.1 60 12:40 15.03.2020
6580 Clouds 6 1042 93 10000 2.1 60 12:22 15.03.2020
6581 Clouds 6 1041 93 10000 2.16 32 11:44 15.03.2020
6582 Clouds 6 1041 93 10000 2.16 32 11:25 15.03.2020
6583 Rain 7 1018 81 0 1.84 82 10:59 15.03.2020
6584 Rain 7 1018 81 0 1.84 82 10:40 15.03.2020
6585 Rain 7 1018 81 0 1.84 82 10:22 15.03.2020
6586 Rain 7 1018 81 0 1.84 82 09:59 15.03.2020
6587 Rain 7 1018 81 0 1.84 82 09:38 15.03.2020
6588 Rain 7 1018 81 0 1.84 82 09:20 15.03.2020
6589 Rain 7 1018 81 0 1.84 82 08:41 15.03.2020
6590 Rain 7 1019 80 0 1.18 86 08:19 15.03.2020
6591 Rain 7 1019 80 0 1.18 86 07:49 15.03.2020
6592 Rain 7 1019 80 0 1.18 86 07:23 15.03.2020
6593 Rain 7 1019 80 0 1.18 86 06:44 15.03.2020
6594 Rain 7 1019 80 0 1.18 86 05:49 15.03.2020
6595 Rain 8 1019 78 0 2.22 67 04:58 15.03.2020
6596 Rain 8 1019 78 0 2.22 67 04:40 15.03.2020
6597 Rain 8 1019 78 0 2.22 67 04:20 15.03.2020
6598 Rain 8 1019 78 0 2.22 67 03:24 15.03.2020
6599 Rain 8 1019 78 0 2.22 67 02:36 15.03.2020
6600 Rain 10 1016 72 0 3.38 48 01:19 15.03.2020
6601 Rain 10 1016 72 0 2.97 41 00:42 15.03.2020
6602 Rain 10 1016 72 0 2.97 41 00:19 15.03.2020
6603 Rain 10 1016 72 0 2.97 41 23:41 14.03.2020
6604 Rain 12 1011 60 0 5.67 50 23:20 14.03.2020
6605 Rain 12 1011 60 0 5.67 50 22:57 14.03.2020
6606 Rain 12 1011 60 0 5.67 50 22:38 14.03.2020
6607 Rain 12 1011 60 0 5.67 50 22:20 14.03.2020
6608 Rain 12 1011 60 0 5.67 50 21:56 14.03.2020
6609 Rain 12 1011 60 0 5.67 50 21:36 14.03.2020
6610 Rain 12 1011 60 0 5.67 50 21:18 14.03.2020
6611 Rain 12 1011 60 0 5.67 50 21:18 14.03.2020
6612 Rain 12 1011 60 0 5.67 50 20:58 14.03.2020
6613 Rain 12 1011 60 0 5.67 50 20:39 14.03.2020
6614 Clouds 14 1013 43 0 3.18 56 20:18 14.03.2020
6615 Clouds 14 1013 43 0 4.18 46 19:42 14.03.2020
6616 Clouds 14 1013 43 0 4.18 46 19:24 14.03.2020
6617 Clouds 14 1013 43 0 4.18 46 18:41 14.03.2020
6618 Clouds 14 1013 43 0 4.18 46 18:22 14.03.2020
6619 Clouds 14 1013 43 0 4.18 46 17:55 14.03.2020
6620 Clouds 14 1013 43 0 4.18 46 17:37 14.03.2020
6621 Clouds 11 1018 57 0 3.29 48 17:18 14.03.2020
6622 Clouds 11 1018 57 0 3.29 48 16:40 14.03.2020
6623 Clouds 12 1043 71 10000 3.29 48 16:21 14.03.2020
6624 Clouds 12 1043 71 10000 3.29 48 15:52 14.03.2020
6625 Clouds 12 1043 71 10000 3.29 48 15:25 14.03.2020
6626 Clouds 10 1043 81 10000 3.29 48 14:46 14.03.2020
6627 Clouds 10 1043 81 10000 3.29 48 14:23 14.03.2020
6628 Clouds 8 1043 87 10000 0.8 325 13:58 14.03.2020
6629 Clouds 8 1043 87 10000 0.8 325 13:39 14.03.2020
6630 Clouds 8 1043 87 10000 0.8 325 13:21 14.03.2020
6631 Clouds 5 1043 93 10000 1.18 4 12:46 14.03.2020
6632 Clouds 5 1043 93 10000 1.18 4 12:27 14.03.2020
6633 Clouds 5 1043 93 10000 1.18 4 11:56 14.03.2020
6634 Clouds 5 1043 93 10000 1.18 4 11:38 14.03.2020
6635 Clouds 6 1019 92 0 1.01 49 11:19 14.03.2020
6636 Clouds 6 1019 92 0 1.01 49 10:44 14.03.2020
6637 Clouds 6 1019 92 0 1.01 49 10:25 14.03.2020
6638 Clouds 6 1019 92 0 1.01 49 09:57 14.03.2020
6639 Clouds 6 1019 92 0 1.01 49 09:39 14.03.2020
6640 Clouds 6 1019 92 0 1.01 49 09:19 14.03.2020
6641 Clouds 6 1019 92 0 1.01 49 08:42 14.03.2020
6642 Clouds 5 1019 94 0 1.11 36 08:21 14.03.2020
6643 Clouds 6 1019 89 0 1.89 39 07:39 14.03.2020
6644 Clouds 6 1019 89 0 1.89 39 07:20 14.03.2020
6645 Clouds 6 1019 89 0 1.89 39 06:41 14.03.2020
6646 Clouds 6 1019 89 0 1.89 39 05:47 14.03.2020
6647 Clouds 6 1019 89 0 1.89 39 05:47 14.03.2020
6648 Clouds 7 1019 81 0 3.03 57 04:42 14.03.2020
6649 Clouds 7 1019 81 0 3.03 57 03:24 14.03.2020
6650 Clouds 7 1019 81 0 3.03 57 02:25 14.03.2020
6651 Rain 9 1015 75 0 4.4 52 00:57 14.03.2020
6652 Rain 9 1015 75 0 4.4 52 23:56 13.03.2020
6653 Rain 9 1015 75 0 4.4 52 23:31 13.03.2020
6654 Clouds 13 1011 49 0 5.55 55 22:52 13.03.2020
6655 Clouds 13 1011 49 0 5.55 55 22:27 13.03.2020
6656 Clouds 13 1011 49 0 5.55 55 21:54 13.03.2020
6657 Clouds 13 1011 49 0 5.55 55 21:36 13.03.2020
6658 Clouds 13 1011 49 0 5.55 55 21:18 13.03.2020
6659 Clouds 13 1011 49 0 5.55 55 20:41 13.03.2020
6660 Clouds 13 1011 52 0 5.88 50 20:22 13.03.2020
6661 Clouds 13 1014 43 0 3.33 45 19:49 13.03.2020
6662 Clouds 13 1014 43 0 3.33 45 19:31 13.03.2020
6663 Clouds 15 1041 51 10000 3.6 60 18:57 13.03.2020
6664 Clouds 15 1041 51 10000 3.6 60 18:39 13.03.2020
6665 Clouds 15 1041 51 10000 3.6 60 18:21 13.03.2020
6666 Clouds 14 1042 54 10000 1.5 60 17:42 13.03.2020
6667 Clouds 14 1042 54 10000 1.5 60 17:21 13.03.2020
6668 Clouds 14 1042 54 10000 1.5 60 17:21 13.03.2020
6669 Clouds 13 1043 62 10000 2.6 60 16:56 13.03.2020
6670 Clouds 13 1043 62 10000 2.6 60 16:37 13.03.2020
6671 Clouds 13 1043 62 10000 2.6 60 16:19 13.03.2020
6672 Clouds 11 1043 76 10000 2.89 41 15:41 13.03.2020
6673 Clouds 11 1043 76 10000 2.89 41 15:21 13.03.2020
6674 Clouds 9 1043 81 10000 2.89 41 14:44 13.03.2020
6675 Clouds 9 1043 81 10000 2.89 41 14:23 13.03.2020
6676 Clouds 8 1042 81 10000 0.14 310 13:59 13.03.2020
6677 Clouds 8 1042 81 10000 0.14 310 13:40 13.03.2020
6678 Clouds 8 1042 81 10000 0.6 55 13:21 13.03.2020
6679 Clouds 6 1042 87 10000 0.6 55 12:57 13.03.2020
6680 Clouds 6 1042 87 10000 0.6 55 12:38 13.03.2020
6681 Clouds 6 1042 87 10000 0.6 55 12:19 13.03.2020
6682 Clouds 6 1042 87 10000 0.6 55 11:46 13.03.2020
6683 Clouds 6 1042 87 10000 0.6 55 11:26 13.03.2020
6684 Clouds 5 1019 94 0 0.94 38 10:59 13.03.2020
6685 Clouds 5 1019 94 0 0.94 38 10:41 13.03.2020
6686 Clouds 5 1019 94 0 0.94 38 10:23 13.03.2020
6687 Clouds 5 1019 94 0 0.94 38 09:45 13.03.2020
6688 Clouds 5 1019 94 0 0.94 38 09:26 13.03.2020
6689 Clouds 5 1019 94 0 0.94 38 08:56 13.03.2020
6690 Clouds 5 1019 94 0 0.94 38 08:37 13.03.2020
6691 Clouds 5 1019 91 0 2.12 38 08:18 13.03.2020
6692 Clouds 5 1019 90 0 2.16 37 07:43 13.03.2020
6693 Clouds 5 1019 90 0 2.16 37 07:22 13.03.2020
6694 Clouds 5 1019 90 0 2.16 37 06:46 13.03.2020
6695 Clouds 5 1019 90 0 2.16 37 06:20 13.03.2020
6696 Clouds 5 1019 90 0 2.16 37 05:43 13.03.2020
6697 Clouds 7 1018 79 0 2.41 49 04:39 13.03.2020
6698 -273 0 0 0 0 0 03:51 13.03.2020
6699 Clouds 7 1018 79 0 2.41 49 02:29 13.03.2020
6700 Clouds 8 1015 66 0 4.12 55 01:20 13.03.2020
6701 Clouds 8 1015 66 0 4.12 55 00:59 13.03.2020
6702 Clouds 8 1015 66 0 4.12 55 00:39 13.03.2020
6703 Clouds 8 1015 66 0 4.12 55 00:18 13.03.2020
6704 Clouds 8 1015 66 0 4.12 55 23:38 12.03.2020
6705 Clouds 13 1009 39 0 5.79 44 23:19 12.03.2020
6706 Clouds 13 1009 39 0 5.79 44 22:44 12.03.2020
6707 Clouds 13 1009 39 0 5.79 44 22:25 12.03.2020
6708 Clouds 13 1009 39 0 5.79 44 21:55 12.03.2020
6709 Clouds 13 1009 39 0 5.79 44 21:37 12.03.2020
6710 Clouds 13 1009 39 0 5.79 44 21:18 12.03.2020
6711 Clouds 13 1009 39 0 5.79 44 20:42 12.03.2020
6712 Clouds 13 1012 30 0 4.34 46 20:20 12.03.2020
6713 Clouds 13 1012 30 0 4.34 46 19:42 12.03.2020
6714 Clouds 15 1039 51 10000 6.2 60 19:21 12.03.2020
6715 Clouds 15 1039 51 10000 6.2 60 18:59 12.03.2020
6716 Clouds 15 1039 51 10000 6.2 60 18:41 12.03.2020
6717 Clouds 15 1039 51 10000 6.2 60 18:22 12.03.2020
6718 Clouds 14 1040 54 10000 5.1 50 17:41 12.03.2020
6719 Clouds 14 1040 54 10000 5.1 50 17:22 12.03.2020
6720 Clouds 12 1040 66 10000 4.1 60 16:59 12.03.2020
6721 Clouds 12 1040 66 10000 4.1 60 16:41 12.03.2020
6722 Clouds 12 1040 66 10000 4.1 60 16:22 12.03.2020
6723 Clouds 10 1040 76 10000 3.25 49 15:49 12.03.2020
6724 Clouds 10 1040 76 10000 3.25 49 15:28 12.03.2020
6725 Clouds 10 1040 76 10000 3.25 49 15:28 12.03.2020
6726 Clouds 9 1040 81 10000 3.25 49 14:56 12.03.2020
6727 Clouds 9 1040 81 10000 3.25 49 14:37 12.03.2020
6728 Clouds 9 1040 81 10000 1 53 14:18 12.03.2020
6729 Clouds 7 1040 87 10000 1 53 13:40 12.03.2020
6730 Clouds 7 1040 87 10000 1.39 59 13:21 12.03.2020
6731 Clouds 6 1038 87 10000 1.39 59 12:55 12.03.2020
6732 Clouds 6 1038 87 10000 1.39 59 12:37 12.03.2020
6733 Clouds 6 1038 87 10000 1.39 59 12:37 12.03.2020
6734 Clouds 5 1038 93 10000 1.39 59 12:18 12.03.2020
6735 Clouds 5 1038 93 10000 1.39 59 12:18 12.03.2020
6736 Clouds 5 1038 93 10000 1.39 59 11:55 12.03.2020
6737 Clouds 5 1038 93 10000 1.39 59 11:36 12.03.2020
6738 Rain 5 1016 94 0 0.86 53 11:18 12.03.2020
6739 Rain 5 1016 94 0 0.86 53 10:43 12.03.2020
6740 Rain 5 1016 94 0 0.86 53 10:23 12.03.2020
6741 Rain 5 1016 94 0 0.86 53 09:55 12.03.2020
6742 Rain 5 1016 94 0 0.86 53 09:37 12.03.2020
6743 Rain 5 1016 94 0 0.86 53 09:19 12.03.2020
6744 Rain 5 1016 94 0 0.86 53 08:38 12.03.2020
6745 Rain 6 1015 88 0 1.51 23 08:18 12.03.2020
6746 Rain 6 1015 87 0 1.4 48 07:47 12.03.2020
6747 Rain 6 1015 87 0 1.4 48 07:22 12.03.2020
6748 Rain 6 1015 87 0 1.4 48 06:20 12.03.2020
6749 Rain 6 1015 87 0 1.4 48 05:34 12.03.2020
6750 Rain 7 1015 85 0 2.1 44 03:34 12.03.2020
6751 Rain 9 1012 69 0 2.67 27 01:58 12.03.2020
6752 Rain 9 1012 69 0 2.67 27 01:23 12.03.2020
6753 Rain 9 1012 69 0 3.3 40 00:42 12.03.2020
6754 Rain 9 1012 69 0 3.3 40 23:58 11.03.2020
6755 Rain 9 1012 69 0 3.3 40 23:29 11.03.2020
6756 Clouds 12 1009 48 0 3.95 71 22:59 11.03.2020
6757 Clouds 12 1009 48 0 3.95 71 22:40 11.03.2020
6758 Clouds 12 1009 48 0 3.95 71 22:21 11.03.2020
6759 Clouds 12 1009 48 0 3.95 71 21:58 11.03.2020
6760 Clouds 12 1009 48 0 3.95 71 21:39 11.03.2020
6761 Clouds 16 1035 41 10000 5.1 60 21:21 11.03.2020
6762 Clouds 16 1035 41 10000 5.1 60 20:56 11.03.2020
6763 Clouds 16 1035 41 10000 5.1 60 20:37 11.03.2020
6764 Clouds 16 1035 41 10000 5.1 60 20:19 11.03.2020
6765 Clouds 15 1037 44 10000 5.1 50 19:42 11.03.2020
6766 Clouds 15 1037 44 10000 5.1 50 19:24 11.03.2020
6767 Clouds 14 1038 47 10000 4.1 60 18:57 11.03.2020
6768 Clouds 14 1038 47 10000 4.1 60 18:38 11.03.2020
6769 Clouds 14 1038 47 10000 4.1 60 18:18 11.03.2020
6770 Clouds 13 1040 50 10000 3.6 40 17:55 11.03.2020
6771 Clouds 13 1040 50 10000 3.6 40 17:37 11.03.2020
6772 Clouds 12 1040 58 10000 2.6 60 17:18 11.03.2020
6773 Clouds 12 1040 58 10000 2.6 60 16:43 11.03.2020
6774 Clouds 12 1040 58 10000 2.6 60 16:20 11.03.2020
6775 Clouds 11 1040 66 10000 1.5 70 15:43 11.03.2020
6776 Clouds 11 1040 66 10000 1.5 70 15:23 11.03.2020
6777 Clouds 9 1041 81 10000 1.66 51 14:56 11.03.2020
6778 Clouds 9 1041 81 10000 1.66 51 14:37 11.03.2020
6779 Clouds 9 1041 81 10000 0.9 6 14:18 11.03.2020
6780 Clouds 7 1040 81 10000 0.9 6 13:42 11.03.2020
6781 Clouds 7 1040 81 10000 0.9 6 13:24 11.03.2020
6782 Clouds 6 1040 81 10000 0.48 14 12:56 11.03.2020
6783 Clouds 6 1040 81 10000 0.48 14 12:38 11.03.2020
6784 Clouds 6 1040 81 10000 0.48 14 12:19 11.03.2020
6785 Clouds 5 1040 86 10000 0.48 14 11:41 11.03.2020
6786 Clouds 5 1040 86 10000 0.48 14 11:21 11.03.2020
6787 Clouds 3 1019 94 0 0.49 349 10:49 11.03.2020
6788 Clouds 3 1019 94 0 0.49 349 10:21 11.03.2020
6789 Clouds 3 1019 94 0 0.49 349 10:21 11.03.2020
6790 Clouds 3 1019 94 0 0.49 349 10:21 11.03.2020
6791 Clouds 3 1019 94 0 0.49 349 09:59 11.03.2020
6792 Clouds 3 1019 94 0 0.49 349 09:40 11.03.2020
6793 Clouds 3 1019 94 0 0.49 349 09:21 11.03.2020
6794 Clouds 3 1019 94 0 0.49 349 08:43 11.03.2020
6795 Clouds 3 1019 94 0 0.49 349 08:25 11.03.2020
6796 Rain 4 1020 91 0 1.25 38 07:48 11.03.2020
6797 Rain 4 1020 91 0 1.25 38 07:48 11.03.2020
6798 Rain 4 1020 91 0 1.25 38 07:21 11.03.2020
6799 Rain 4 1020 91 0 1.25 38 06:53 11.03.2020
6800 Rain 4 1020 91 0 1.25 38 06:33 11.03.2020
6801 Rain 4 1020 91 0 1.25 38 05:33 11.03.2020
6802 Clouds 5 1019 86 0 1.95 51 03:34 11.03.2020
6803 Rain 7 1017 80 0 3.95 45 01:56 11.03.2020
6804 Rain 7 1017 80 0 3.95 45 01:25 11.03.2020
6805 Rain 7 1017 79 0 3.89 46 00:44 11.03.2020
6806 Rain 7 1017 79 0 3.89 46 23:50 10.03.2020
6807 Rain 7 1017 79 0 3.89 46 23:28 10.03.2020
6808 Rain 10 1014 62 0 5.1 59 22:58 10.03.2020
6809 Rain 10 1014 62 0 5.1 59 22:38 10.03.2020
6810 Rain 10 1014 62 0 5.1 59 22:19 10.03.2020
6811 Rain 10 1014 62 0 5.1 59 21:56 10.03.2020
6812 Rain 10 1014 62 0 5.1 59 21:38 10.03.2020
6813 Rain 10 1014 62 0 5.1 59 21:19 10.03.2020
6814 Rain 10 1014 62 0 5.1 59 20:54 10.03.2020
6815 Rain 10 1014 62 0 5.1 59 20:36 10.03.2020
6816 Rain 10 1016 58 0 5.04 74 20:18 10.03.2020
6817 Rain 10 1016 58 0 5.04 74 19:42 10.03.2020
6818 Rain 10 1016 58 0 5.04 74 19:42 10.03.2020
6819 Clouds 14 1043 44 10000 7.7 60 19:23 10.03.2020
6820 Clouds 14 1043 44 10000 7.7 60 18:58 10.03.2020
6821 Clouds 14 1043 44 10000 7.7 60 18:40 10.03.2020
6822 Clouds 14 1043 44 10000 7.7 60 18:21 10.03.2020
6823 Clouds 12 1043 54 10000 6.2 70 17:56 10.03.2020
6824 Clouds 12 1043 54 10000 6.2 70 17:37 10.03.2020
6825 Clouds 12 1043 54 10000 6.2 70 17:19 10.03.2020
6826 Clouds 11 1044 57 10000 5.1 50 16:38 10.03.2020
6827 Clouds 11 1044 57 10000 5.1 50 16:18 10.03.2020
6828 Clouds 10 1044 57 10000 4.1 60 15:55 10.03.2020
6829 Clouds 10 1044 57 10000 4.1 60 15:36 10.03.2020
6830 Clouds 10 1044 57 10000 4.1 60 15:18 10.03.2020
6831 Clouds 9 1044 70 10000 2.6 60 14:40 10.03.2020
6832 Clouds 9 1044 70 10000 2.6 60 14:19 10.03.2020
6833 Clouds 7 1044 81 10000 1.47 92 13:54 10.03.2020
6834 Clouds 7 1044 81 10000 1.47 92 13:36 10.03.2020
6835 Clouds 7 1044 81 10000 1.24 129 13:18 10.03.2020
6836 Clo